<?xml version="1.0" encoding="UTF-8" standalone="no" ?>
<gpx xmlns="http://www.topografix.com/GPX/1/1" xmlns:xsi="http://www.w3.org/2001/XMLSchema-instance" xsi:schemaLocation="http://www.topografix.com/GPX/1/1 http://www.topografix.com/GPX/1/1/gpx.xsd" version="1.1" creator="VisuGPX - https://www.visugpx.com">
  <metadata>
    <name>Les meilleures DH secrètes de Pollionnay</name>
    <desc><![CDATA[C\'est sur, ça envoie du lourd avec ce florilège des meilleures DH enduro de Pollionnay ! !]]></desc>
  </metadata>
  <trk>
    <name><![CDATA[TracÃ© actuel: 22 SEP 2012 08:33]]></name>
    <trkseg>
      <trkpt lat="45.76556" lon="4.66007">
        <ele>439</ele>
        <time>2012-09-22T06:33:12Z</time>
      </trkpt>
      <trkpt lat="45.76556" lon="4.66008">
        <ele>440</ele>
        <time>2012-09-22T06:33:26Z</time>
      </trkpt>
      <trkpt lat="45.76555" lon="4.66008">
        <ele>440</ele>
        <time>2012-09-22T06:33:27Z</time>
      </trkpt>
      <trkpt lat="45.76545" lon="4.66007">
        <ele>440</ele>
        <time>2012-09-22T06:33:34Z</time>
      </trkpt>
      <trkpt lat="45.76526" lon="4.66001">
        <ele>439</ele>
        <time>2012-09-22T06:33:42Z</time>
      </trkpt>
      <trkpt lat="45.76524" lon="4.65998">
        <ele>439</ele>
        <time>2012-09-22T06:33:43Z</time>
      </trkpt>
      <trkpt lat="45.76524" lon="4.65995">
        <ele>439</ele>
        <time>2012-09-22T06:33:44Z</time>
      </trkpt>
      <trkpt lat="45.76524" lon="4.65992">
        <ele>439</ele>
        <time>2012-09-22T06:33:45Z</time>
      </trkpt>
      <trkpt lat="45.76526" lon="4.6599">
        <ele>439</ele>
        <time>2012-09-22T06:33:46Z</time>
      </trkpt>
      <trkpt lat="45.76528" lon="4.65989">
        <ele>440</ele>
        <time>2012-09-22T06:33:47Z</time>
      </trkpt>
      <trkpt lat="45.7653" lon="4.65988">
        <ele>440</ele>
        <time>2012-09-22T06:33:48Z</time>
      </trkpt>
      <trkpt lat="45.76548" lon="4.65985">
        <ele>442</ele>
        <time>2012-09-22T06:33:56Z</time>
      </trkpt>
      <trkpt lat="45.76568" lon="4.65981">
        <ele>443</ele>
        <time>2012-09-22T06:34:05Z</time>
      </trkpt>
      <trkpt lat="45.76588" lon="4.65978">
        <ele>444</ele>
        <time>2012-09-22T06:34:14Z</time>
      </trkpt>
      <trkpt lat="45.76614" lon="4.65973">
        <ele>445</ele>
        <time>2012-09-22T06:34:25Z</time>
      </trkpt>
      <trkpt lat="45.76634" lon="4.65971">
        <ele>446</ele>
        <time>2012-09-22T06:34:34Z</time>
      </trkpt>
      <trkpt lat="45.76653" lon="4.65976">
        <ele>447</ele>
        <time>2012-09-22T06:34:43Z</time>
      </trkpt>
      <trkpt lat="45.7667" lon="4.65983">
        <ele>449</ele>
        <time>2012-09-22T06:34:52Z</time>
      </trkpt>
      <trkpt lat="45.76687" lon="4.65981">
        <ele>450</ele>
        <time>2012-09-22T06:35:01Z</time>
      </trkpt>
      <trkpt lat="45.76704" lon="4.65981">
        <ele>451</ele>
        <time>2012-09-22T06:35:09Z</time>
      </trkpt>
      <trkpt lat="45.76723" lon="4.65979">
        <ele>453</ele>
        <time>2012-09-22T06:35:18Z</time>
      </trkpt>
      <trkpt lat="45.76739" lon="4.65979">
        <ele>454</ele>
        <time>2012-09-22T06:35:25Z</time>
      </trkpt>
      <trkpt lat="45.76753" lon="4.65979">
        <ele>456</ele>
        <time>2012-09-22T06:35:34Z</time>
      </trkpt>
      <trkpt lat="45.76766" lon="4.65975">
        <ele>457</ele>
        <time>2012-09-22T06:35:42Z</time>
      </trkpt>
      <trkpt lat="45.76777" lon="4.65967">
        <ele>458</ele>
        <time>2012-09-22T06:35:49Z</time>
      </trkpt>
      <trkpt lat="45.76789" lon="4.65954">
        <ele>460</ele>
        <time>2012-09-22T06:35:58Z</time>
      </trkpt>
      <trkpt lat="45.76799" lon="4.65939">
        <ele>461</ele>
        <time>2012-09-22T06:36:06Z</time>
      </trkpt>
      <trkpt lat="45.7681" lon="4.65915">
        <ele>462</ele>
        <time>2012-09-22T06:36:17Z</time>
      </trkpt>
      <trkpt lat="45.76817" lon="4.65882">
        <ele>463</ele>
        <time>2012-09-22T06:36:28Z</time>
      </trkpt>
      <trkpt lat="45.76817" lon="4.65858">
        <ele>463</ele>
        <time>2012-09-22T06:36:36Z</time>
      </trkpt>
      <trkpt lat="45.76811" lon="4.65824">
        <ele>464</ele>
        <time>2012-09-22T06:36:47Z</time>
      </trkpt>
      <trkpt lat="45.76804" lon="4.65791">
        <ele>464</ele>
        <time>2012-09-22T06:36:57Z</time>
      </trkpt>
      <trkpt lat="45.76798" lon="4.65758">
        <ele>464</ele>
        <time>2012-09-22T06:37:07Z</time>
      </trkpt>
      <trkpt lat="45.76789" lon="4.65724">
        <ele>466</ele>
        <time>2012-09-22T06:37:17Z</time>
      </trkpt>
      <trkpt lat="45.76782" lon="4.65699">
        <ele>466</ele>
        <time>2012-09-22T06:37:25Z</time>
      </trkpt>
      <trkpt lat="45.76775" lon="4.65679">
        <ele>467</ele>
        <time>2012-09-22T06:37:32Z</time>
      </trkpt>
      <trkpt lat="45.76768" lon="4.65656">
        <ele>468</ele>
        <time>2012-09-22T06:37:40Z</time>
      </trkpt>
      <trkpt lat="45.76759" lon="4.65626">
        <ele>469</ele>
        <time>2012-09-22T06:37:50Z</time>
      </trkpt>
      <trkpt lat="45.7675" lon="4.65589">
        <ele>470</ele>
        <time>2012-09-22T06:38:02Z</time>
      </trkpt>
      <trkpt lat="45.76739" lon="4.65553">
        <ele>472</ele>
        <time>2012-09-22T06:38:14Z</time>
      </trkpt>
      <trkpt lat="45.76732" lon="4.65523">
        <ele>474</ele>
        <time>2012-09-22T06:38:24Z</time>
      </trkpt>
      <trkpt lat="45.76727" lon="4.65505">
        <ele>475</ele>
        <time>2012-09-22T06:38:30Z</time>
      </trkpt>
      <trkpt lat="45.76727" lon="4.65502">
        <ele>475</ele>
        <time>2012-09-22T06:38:31Z</time>
      </trkpt>
      <trkpt lat="45.76726" lon="4.65499">
        <ele>475</ele>
        <time>2012-09-22T06:38:32Z</time>
      </trkpt>
      <trkpt lat="45.76726" lon="4.65496">
        <ele>475</ele>
        <time>2012-09-22T06:38:33Z</time>
      </trkpt>
      <trkpt lat="45.76725" lon="4.65493">
        <ele>475</ele>
        <time>2012-09-22T06:38:34Z</time>
      </trkpt>
      <trkpt lat="45.76724" lon="4.6549">
        <ele>475</ele>
        <time>2012-09-22T06:38:35Z</time>
      </trkpt>
      <trkpt lat="45.76723" lon="4.65487">
        <ele>476</ele>
        <time>2012-09-22T06:38:36Z</time>
      </trkpt>
      <trkpt lat="45.76714" lon="4.65462">
        <ele>477</ele>
        <time>2012-09-22T06:38:45Z</time>
      </trkpt>
      <trkpt lat="45.76704" lon="4.65438">
        <ele>479</ele>
        <time>2012-09-22T06:38:54Z</time>
      </trkpt>
      <trkpt lat="45.76696" lon="4.65414">
        <ele>480</ele>
        <time>2012-09-22T06:39:03Z</time>
      </trkpt>
      <trkpt lat="45.76688" lon="4.65387">
        <ele>480</ele>
        <time>2012-09-22T06:39:13Z</time>
      </trkpt>
      <trkpt lat="45.76683" lon="4.65358">
        <ele>481</ele>
        <time>2012-09-22T06:39:22Z</time>
      </trkpt>
      <trkpt lat="45.7668" lon="4.65322">
        <ele>481</ele>
        <time>2012-09-22T06:39:33Z</time>
      </trkpt>
      <trkpt lat="45.76678" lon="4.65281">
        <ele>482</ele>
        <time>2012-09-22T06:39:45Z</time>
      </trkpt>
      <trkpt lat="45.76677" lon="4.65244">
        <ele>483</ele>
        <time>2012-09-22T06:39:56Z</time>
      </trkpt>
      <trkpt lat="45.76674" lon="4.65215">
        <ele>484</ele>
        <time>2012-09-22T06:40:05Z</time>
      </trkpt>
      <trkpt lat="45.76671" lon="4.65182">
        <ele>484</ele>
        <time>2012-09-22T06:40:15Z</time>
      </trkpt>
      <trkpt lat="45.76675" lon="4.65159">
        <ele>485</ele>
        <time>2012-09-22T06:40:23Z</time>
      </trkpt>
      <trkpt lat="45.76684" lon="4.65139">
        <ele>486</ele>
        <time>2012-09-22T06:40:31Z</time>
      </trkpt>
      <trkpt lat="45.76691" lon="4.65126">
        <ele>487</ele>
        <time>2012-09-22T06:40:37Z</time>
      </trkpt>
      <trkpt lat="45.76697" lon="4.65114">
        <ele>487</ele>
        <time>2012-09-22T06:40:44Z</time>
      </trkpt>
      <trkpt lat="45.76702" lon="4.651">
        <ele>486</ele>
        <time>2012-09-22T06:40:51Z</time>
      </trkpt>
      <trkpt lat="45.76709" lon="4.65077">
        <ele>484</ele>
        <time>2012-09-22T06:40:58Z</time>
      </trkpt>
      <trkpt lat="45.76717" lon="4.65048">
        <ele>482</ele>
        <time>2012-09-22T06:41:05Z</time>
      </trkpt>
      <trkpt lat="45.76719" lon="4.65046">
        <ele>482</ele>
        <time>2012-09-22T06:41:06Z</time>
      </trkpt>
      <trkpt lat="45.76721" lon="4.65045">
        <ele>482</ele>
        <time>2012-09-22T06:41:07Z</time>
      </trkpt>
      <trkpt lat="45.76724" lon="4.65044">
        <ele>482</ele>
        <time>2012-09-22T06:41:08Z</time>
      </trkpt>
      <trkpt lat="45.76726" lon="4.65045">
        <ele>482</ele>
        <time>2012-09-22T06:41:09Z</time>
      </trkpt>
      <trkpt lat="45.76741" lon="4.65048">
        <ele>482</ele>
        <time>2012-09-22T06:41:16Z</time>
      </trkpt>
      <trkpt lat="45.76758" lon="4.65051">
        <ele>483</ele>
        <time>2012-09-22T06:41:24Z</time>
      </trkpt>
      <trkpt lat="45.76766" lon="4.65053">
        <ele>483</ele>
        <time>2012-09-22T06:41:27Z</time>
      </trkpt>
      <trkpt lat="45.76768" lon="4.65054">
        <ele>483</ele>
        <time>2012-09-22T06:41:28Z</time>
      </trkpt>
      <trkpt lat="45.7677" lon="4.65054">
        <ele>483</ele>
        <time>2012-09-22T06:41:29Z</time>
      </trkpt>
      <trkpt lat="45.76773" lon="4.65055">
        <ele>483</ele>
        <time>2012-09-22T06:41:30Z</time>
      </trkpt>
      <trkpt lat="45.76775" lon="4.65055">
        <ele>484</ele>
        <time>2012-09-22T06:41:31Z</time>
      </trkpt>
      <trkpt lat="45.76777" lon="4.65056">
        <ele>483</ele>
        <time>2012-09-22T06:41:32Z</time>
      </trkpt>
      <trkpt lat="45.76779" lon="4.65056">
        <ele>483</ele>
        <time>2012-09-22T06:41:33Z</time>
      </trkpt>
      <trkpt lat="45.76781" lon="4.65057">
        <ele>484</ele>
        <time>2012-09-22T06:41:34Z</time>
      </trkpt>
      <trkpt lat="45.76784" lon="4.65057">
        <ele>484</ele>
        <time>2012-09-22T06:41:35Z</time>
      </trkpt>
      <trkpt lat="45.76786" lon="4.65057">
        <ele>483</ele>
        <time>2012-09-22T06:41:36Z</time>
      </trkpt>
      <trkpt lat="45.76789" lon="4.65057">
        <ele>484</ele>
        <time>2012-09-22T06:41:37Z</time>
      </trkpt>
      <trkpt lat="45.76791" lon="4.65057">
        <ele>484</ele>
        <time>2012-09-22T06:41:38Z</time>
      </trkpt>
      <trkpt lat="45.76805" lon="4.65057">
        <ele>484</ele>
        <time>2012-09-22T06:41:45Z</time>
      </trkpt>
      <trkpt lat="45.76806" lon="4.65056">
        <ele>484</ele>
        <time>2012-09-22T06:41:46Z</time>
      </trkpt>
      <trkpt lat="45.76808" lon="4.65056">
        <ele>484</ele>
        <time>2012-09-22T06:41:47Z</time>
      </trkpt>
      <trkpt lat="45.76821" lon="4.6505">
        <ele>485</ele>
        <time>2012-09-22T06:41:54Z</time>
      </trkpt>
      <trkpt lat="45.76839" lon="4.65036">
        <ele>486</ele>
        <time>2012-09-22T06:42:01Z</time>
      </trkpt>
      <trkpt lat="45.76854" lon="4.65022">
        <ele>487</ele>
        <time>2012-09-22T06:42:09Z</time>
      </trkpt>
      <trkpt lat="45.76861" lon="4.65014">
        <ele>488</ele>
        <time>2012-09-22T06:42:15Z</time>
      </trkpt>
      <trkpt lat="45.76861" lon="4.65012">
        <ele>488</ele>
        <time>2012-09-22T06:42:16Z</time>
      </trkpt>
      <trkpt lat="45.76862" lon="4.6501">
        <ele>488</ele>
        <time>2012-09-22T06:42:17Z</time>
      </trkpt>
      <trkpt lat="45.76863" lon="4.65008">
        <ele>488</ele>
        <time>2012-09-22T06:42:18Z</time>
      </trkpt>
      <trkpt lat="45.76864" lon="4.65006">
        <ele>488</ele>
        <time>2012-09-22T06:42:19Z</time>
      </trkpt>
      <trkpt lat="45.76865" lon="4.65004">
        <ele>488</ele>
        <time>2012-09-22T06:42:20Z</time>
      </trkpt>
      <trkpt lat="45.76866" lon="4.65003">
        <ele>489</ele>
        <time>2012-09-22T06:42:21Z</time>
      </trkpt>
      <trkpt lat="45.76867" lon="4.65001">
        <ele>489</ele>
        <time>2012-09-22T06:42:22Z</time>
      </trkpt>
      <trkpt lat="45.76868" lon="4.64999">
        <ele>489</ele>
        <time>2012-09-22T06:42:23Z</time>
      </trkpt>
      <trkpt lat="45.76869" lon="4.64996">
        <ele>490</ele>
        <time>2012-09-22T06:42:24Z</time>
      </trkpt>
      <trkpt lat="45.7687" lon="4.64995">
        <ele>490</ele>
        <time>2012-09-22T06:42:25Z</time>
      </trkpt>
      <trkpt lat="45.76876" lon="4.64987">
        <ele>492</ele>
        <time>2012-09-22T06:42:31Z</time>
      </trkpt>
      <trkpt lat="45.76877" lon="4.64987">
        <ele>491</ele>
        <time>2012-09-22T06:42:32Z</time>
      </trkpt>
      <trkpt lat="45.76879" lon="4.64986">
        <ele>492</ele>
        <time>2012-09-22T06:42:33Z</time>
      </trkpt>
      <trkpt lat="45.76882" lon="4.64985">
        <ele>493</ele>
        <time>2012-09-22T06:42:36Z</time>
      </trkpt>
      <trkpt lat="45.76885" lon="4.64984">
        <ele>494</ele>
        <time>2012-09-22T06:42:38Z</time>
      </trkpt>
      <trkpt lat="45.76886" lon="4.64982">
        <ele>494</ele>
        <time>2012-09-22T06:42:39Z</time>
      </trkpt>
      <trkpt lat="45.76888" lon="4.64979">
        <ele>494</ele>
        <time>2012-09-22T06:42:41Z</time>
      </trkpt>
      <trkpt lat="45.7689" lon="4.64979">
        <ele>494</ele>
        <time>2012-09-22T06:42:42Z</time>
      </trkpt>
      <trkpt lat="45.76891" lon="4.64978">
        <ele>495</ele>
        <time>2012-09-22T06:42:43Z</time>
      </trkpt>
      <trkpt lat="45.76896" lon="4.64978">
        <ele>496</ele>
        <time>2012-09-22T06:42:46Z</time>
      </trkpt>
      <trkpt lat="45.76898" lon="4.64978">
        <ele>496</ele>
        <time>2012-09-22T06:42:47Z</time>
      </trkpt>
      <trkpt lat="45.76898" lon="4.64976">
        <ele>496</ele>
        <time>2012-09-22T06:42:48Z</time>
      </trkpt>
      <trkpt lat="45.76903" lon="4.64974">
        <ele>497</ele>
        <time>2012-09-22T06:42:52Z</time>
      </trkpt>
      <trkpt lat="45.76909" lon="4.64973">
        <ele>498</ele>
        <time>2012-09-22T06:42:56Z</time>
      </trkpt>
      <trkpt lat="45.7691" lon="4.64974">
        <ele>498</ele>
        <time>2012-09-22T06:42:57Z</time>
      </trkpt>
      <trkpt lat="45.76914" lon="4.64976">
        <ele>499</ele>
        <time>2012-09-22T06:43:00Z</time>
      </trkpt>
      <trkpt lat="45.76916" lon="4.64975">
        <ele>499</ele>
        <time>2012-09-22T06:43:01Z</time>
      </trkpt>
      <trkpt lat="45.76917" lon="4.64976">
        <ele>500</ele>
        <time>2012-09-22T06:43:02Z</time>
      </trkpt>
      <trkpt lat="45.76925" lon="4.6498">
        <ele>501</ele>
        <time>2012-09-22T06:43:07Z</time>
      </trkpt>
      <trkpt lat="45.76926" lon="4.64981">
        <ele>500</ele>
        <time>2012-09-22T06:43:08Z</time>
      </trkpt>
      <trkpt lat="45.76928" lon="4.64982">
        <ele>501</ele>
        <time>2012-09-22T06:43:09Z</time>
      </trkpt>
      <trkpt lat="45.76929" lon="4.64983">
        <ele>501</ele>
        <time>2012-09-22T06:43:10Z</time>
      </trkpt>
      <trkpt lat="45.76931" lon="4.64983">
        <ele>502</ele>
        <time>2012-09-22T06:43:11Z</time>
      </trkpt>
      <trkpt lat="45.76935" lon="4.64981">
        <ele>502</ele>
        <time>2012-09-22T06:43:14Z</time>
      </trkpt>
      <trkpt lat="45.76938" lon="4.64984">
        <ele>503</ele>
        <time>2012-09-22T06:43:20Z</time>
      </trkpt>
      <trkpt lat="45.76944" lon="4.64987">
        <ele>504</ele>
        <time>2012-09-22T06:43:29Z</time>
      </trkpt>
      <trkpt lat="45.76949" lon="4.6499">
        <ele>505</ele>
        <time>2012-09-22T06:43:36Z</time>
      </trkpt>
      <trkpt lat="45.76952" lon="4.64993">
        <ele>507</ele>
        <time>2012-09-22T06:43:42Z</time>
      </trkpt>
      <trkpt lat="45.76953" lon="4.64995">
        <ele>506</ele>
        <time>2012-09-22T06:43:43Z</time>
      </trkpt>
      <trkpt lat="45.76954" lon="4.64996">
        <ele>506</ele>
        <time>2012-09-22T06:43:44Z</time>
      </trkpt>
      <trkpt lat="45.76955" lon="4.64997">
        <ele>506</ele>
        <time>2012-09-22T06:43:45Z</time>
      </trkpt>
      <trkpt lat="45.76956" lon="4.64997">
        <ele>507</ele>
        <time>2012-09-22T06:43:46Z</time>
      </trkpt>
      <trkpt lat="45.76957" lon="4.64998">
        <ele>506</ele>
        <time>2012-09-22T06:43:47Z</time>
      </trkpt>
      <trkpt lat="45.76959" lon="4.64998">
        <ele>507</ele>
        <time>2012-09-22T06:43:48Z</time>
      </trkpt>
      <trkpt lat="45.7696" lon="4.64999">
        <ele>506</ele>
        <time>2012-09-22T06:43:49Z</time>
      </trkpt>
      <trkpt lat="45.76961" lon="4.65">
        <ele>507</ele>
        <time>2012-09-22T06:43:50Z</time>
      </trkpt>
      <trkpt lat="45.76962" lon="4.65">
        <ele>507</ele>
        <time>2012-09-22T06:43:51Z</time>
      </trkpt>
      <trkpt lat="45.76963" lon="4.65">
        <ele>507</ele>
        <time>2012-09-22T06:43:52Z</time>
      </trkpt>
      <trkpt lat="45.76973" lon="4.65002">
        <ele>508</ele>
        <time>2012-09-22T06:44:00Z</time>
      </trkpt>
      <trkpt lat="45.7698" lon="4.65003">
        <ele>510</ele>
        <time>2012-09-22T06:44:06Z</time>
      </trkpt>
      <trkpt lat="45.76985" lon="4.65">
        <ele>510</ele>
        <time>2012-09-22T06:44:12Z</time>
      </trkpt>
      <trkpt lat="45.7699" lon="4.64996">
        <ele>510</ele>
        <time>2012-09-22T06:44:16Z</time>
      </trkpt>
      <trkpt lat="45.76996" lon="4.64996">
        <ele>511</ele>
        <time>2012-09-22T06:44:23Z</time>
      </trkpt>
      <trkpt lat="45.77001" lon="4.64985">
        <ele>512</ele>
        <time>2012-09-22T06:44:33Z</time>
      </trkpt>
      <trkpt lat="45.76999" lon="4.64972">
        <ele>514</ele>
        <time>2012-09-22T06:44:44Z</time>
      </trkpt>
      <trkpt lat="45.76995" lon="4.64961">
        <ele>516</ele>
        <time>2012-09-22T06:44:53Z</time>
      </trkpt>
      <trkpt lat="45.76992" lon="4.64956">
        <ele>516</ele>
        <time>2012-09-22T06:44:57Z</time>
      </trkpt>
      <trkpt lat="45.76987" lon="4.64943">
        <ele>518</ele>
        <time>2012-09-22T06:45:06Z</time>
      </trkpt>
      <trkpt lat="45.76985" lon="4.64928">
        <ele>519</ele>
        <time>2012-09-22T06:45:14Z</time>
      </trkpt>
      <trkpt lat="45.76984" lon="4.64919">
        <ele>520</ele>
        <time>2012-09-22T06:45:20Z</time>
      </trkpt>
      <trkpt lat="45.76983" lon="4.6491">
        <ele>521</ele>
        <time>2012-09-22T06:45:26Z</time>
      </trkpt>
      <trkpt lat="45.76982" lon="4.64908">
        <ele>521</ele>
        <time>2012-09-22T06:45:27Z</time>
      </trkpt>
      <trkpt lat="45.76977" lon="4.6489">
        <ele>523</ele>
        <time>2012-09-22T06:45:37Z</time>
      </trkpt>
      <trkpt lat="45.76972" lon="4.64875">
        <ele>524</ele>
        <time>2012-09-22T06:45:46Z</time>
      </trkpt>
      <trkpt lat="45.76966" lon="4.64866">
        <ele>525</ele>
        <time>2012-09-22T06:45:52Z</time>
      </trkpt>
      <trkpt lat="45.76966" lon="4.64866">
        <ele>525</ele>
        <time>2012-09-22T06:45:53Z</time>
      </trkpt>
      <trkpt lat="45.76965" lon="4.64866">
        <ele>525</ele>
        <time>2012-09-22T06:45:54Z</time>
      </trkpt>
      <trkpt lat="45.76964" lon="4.64865">
        <ele>525</ele>
        <time>2012-09-22T06:45:55Z</time>
      </trkpt>
      <trkpt lat="45.76961" lon="4.64862">
        <ele>526</ele>
        <time>2012-09-22T06:45:58Z</time>
      </trkpt>
      <trkpt lat="45.7696" lon="4.64861">
        <ele>526</ele>
        <time>2012-09-22T06:45:59Z</time>
      </trkpt>
      <trkpt lat="45.7696" lon="4.64859">
        <ele>526</ele>
        <time>2012-09-22T06:46:00Z</time>
      </trkpt>
      <trkpt lat="45.76954" lon="4.64851">
        <ele>527</ele>
        <time>2012-09-22T06:46:07Z</time>
      </trkpt>
      <trkpt lat="45.76949" lon="4.64839">
        <ele>530</ele>
        <time>2012-09-22T06:46:14Z</time>
      </trkpt>
      <trkpt lat="45.76944" lon="4.64828">
        <ele>532</ele>
        <time>2012-09-22T06:46:21Z</time>
      </trkpt>
      <trkpt lat="45.76944" lon="4.64826">
        <ele>532</ele>
        <time>2012-09-22T06:46:22Z</time>
      </trkpt>
      <trkpt lat="45.76941" lon="4.64815">
        <ele>533</ele>
        <time>2012-09-22T06:46:30Z</time>
      </trkpt>
      <trkpt lat="45.76939" lon="4.64799">
        <ele>535</ele>
        <time>2012-09-22T06:46:39Z</time>
      </trkpt>
      <trkpt lat="45.76939" lon="4.64797">
        <ele>535</ele>
        <time>2012-09-22T06:46:40Z</time>
      </trkpt>
      <trkpt lat="45.76936" lon="4.6479">
        <ele>537</ele>
        <time>2012-09-22T06:46:45Z</time>
      </trkpt>
      <trkpt lat="45.76935" lon="4.64789">
        <ele>536</ele>
        <time>2012-09-22T06:46:46Z</time>
      </trkpt>
      <trkpt lat="45.76937" lon="4.64774">
        <ele>538</ele>
        <time>2012-09-22T06:46:55Z</time>
      </trkpt>
      <trkpt lat="45.76939" lon="4.64766">
        <ele>539</ele>
        <time>2012-09-22T06:47:02Z</time>
      </trkpt>
      <trkpt lat="45.7694" lon="4.6476">
        <ele>540</ele>
        <time>2012-09-22T06:47:07Z</time>
      </trkpt>
      <trkpt lat="45.76943" lon="4.64756">
        <ele>540</ele>
        <time>2012-09-22T06:47:10Z</time>
      </trkpt>
      <trkpt lat="45.76945" lon="4.64751">
        <ele>541</ele>
        <time>2012-09-22T06:47:13Z</time>
      </trkpt>
      <trkpt lat="45.76951" lon="4.64735">
        <ele>542</ele>
        <time>2012-09-22T06:47:23Z</time>
      </trkpt>
      <trkpt lat="45.76956" lon="4.64725">
        <ele>544</ele>
        <time>2012-09-22T06:47:29Z</time>
      </trkpt>
      <trkpt lat="45.76962" lon="4.64712">
        <ele>545</ele>
        <time>2012-09-22T06:47:38Z</time>
      </trkpt>
      <trkpt lat="45.76965" lon="4.647">
        <ele>545</ele>
        <time>2012-09-22T06:47:45Z</time>
      </trkpt>
      <trkpt lat="45.76967" lon="4.64694">
        <ele>546</ele>
        <time>2012-09-22T06:47:48Z</time>
      </trkpt>
      <trkpt lat="45.76975" lon="4.6468">
        <ele>547</ele>
        <time>2012-09-22T06:47:57Z</time>
      </trkpt>
      <trkpt lat="45.7698" lon="4.64668">
        <ele>549</ele>
        <time>2012-09-22T06:48:03Z</time>
      </trkpt>
      <trkpt lat="45.76989" lon="4.64653">
        <ele>550</ele>
        <time>2012-09-22T06:48:11Z</time>
      </trkpt>
      <trkpt lat="45.76991" lon="4.64645">
        <ele>550</ele>
        <time>2012-09-22T06:48:15Z</time>
      </trkpt>
      <trkpt lat="45.77001" lon="4.64634">
        <ele>553</ele>
        <time>2012-09-22T06:48:23Z</time>
      </trkpt>
      <trkpt lat="45.77004" lon="4.64629">
        <ele>553</ele>
        <time>2012-09-22T06:48:28Z</time>
      </trkpt>
      <trkpt lat="45.77008" lon="4.64616">
        <ele>554</ele>
        <time>2012-09-22T06:48:36Z</time>
      </trkpt>
      <trkpt lat="45.77009" lon="4.64615">
        <ele>555</ele>
        <time>2012-09-22T06:48:37Z</time>
      </trkpt>
      <trkpt lat="45.77017" lon="4.64603">
        <ele>556</ele>
        <time>2012-09-22T06:48:45Z</time>
      </trkpt>
      <trkpt lat="45.77023" lon="4.64592">
        <ele>558</ele>
        <time>2012-09-22T06:48:52Z</time>
      </trkpt>
      <trkpt lat="45.77028" lon="4.64581">
        <ele>560</ele>
        <time>2012-09-22T06:49:01Z</time>
      </trkpt>
      <trkpt lat="45.77033" lon="4.64574">
        <ele>562</ele>
        <time>2012-09-22T06:49:07Z</time>
      </trkpt>
      <trkpt lat="45.77041" lon="4.64563">
        <ele>562</ele>
        <time>2012-09-22T06:49:17Z</time>
      </trkpt>
      <trkpt lat="45.77043" lon="4.64559">
        <ele>564</ele>
        <time>2012-09-22T06:49:21Z</time>
      </trkpt>
      <trkpt lat="45.77046" lon="4.64554">
        <ele>565</ele>
        <time>2012-09-22T06:49:23Z</time>
      </trkpt>
      <trkpt lat="45.77051" lon="4.64545">
        <ele>566</ele>
        <time>2012-09-22T06:49:28Z</time>
      </trkpt>
      <trkpt lat="45.77056" lon="4.64532">
        <ele>568</ele>
        <time>2012-09-22T06:49:36Z</time>
      </trkpt>
      <trkpt lat="45.77064" lon="4.64524">
        <ele>570</ele>
        <time>2012-09-22T06:49:43Z</time>
      </trkpt>
      <trkpt lat="45.77076" lon="4.64515">
        <ele>572</ele>
        <time>2012-09-22T06:49:51Z</time>
      </trkpt>
      <trkpt lat="45.7708" lon="4.64506">
        <ele>573</ele>
        <time>2012-09-22T06:49:56Z</time>
      </trkpt>
      <trkpt lat="45.77082" lon="4.64502">
        <ele>573</ele>
        <time>2012-09-22T06:49:59Z</time>
      </trkpt>
      <trkpt lat="45.77084" lon="4.6449">
        <ele>575</ele>
        <time>2012-09-22T06:50:06Z</time>
      </trkpt>
      <trkpt lat="45.77089" lon="4.64482">
        <ele>577</ele>
        <time>2012-09-22T06:50:13Z</time>
      </trkpt>
      <trkpt lat="45.77093" lon="4.64469">
        <ele>578</ele>
        <time>2012-09-22T06:50:21Z</time>
      </trkpt>
      <trkpt lat="45.77097" lon="4.64454">
        <ele>579</ele>
        <time>2012-09-22T06:50:30Z</time>
      </trkpt>
      <trkpt lat="45.77097" lon="4.64441">
        <ele>580</ele>
        <time>2012-09-22T06:50:38Z</time>
      </trkpt>
      <trkpt lat="45.77098" lon="4.64433">
        <ele>581</ele>
        <time>2012-09-22T06:50:44Z</time>
      </trkpt>
      <trkpt lat="45.771" lon="4.64422">
        <ele>582</ele>
        <time>2012-09-22T06:50:51Z</time>
      </trkpt>
      <trkpt lat="45.77102" lon="4.64411">
        <ele>583</ele>
        <time>2012-09-22T06:50:58Z</time>
      </trkpt>
      <trkpt lat="45.77103" lon="4.64401">
        <ele>583</ele>
        <time>2012-09-22T06:51:05Z</time>
      </trkpt>
      <trkpt lat="45.77104" lon="4.64387">
        <ele>584</ele>
        <time>2012-09-22T06:51:14Z</time>
      </trkpt>
      <trkpt lat="45.77103" lon="4.64375">
        <ele>584</ele>
        <time>2012-09-22T06:51:21Z</time>
      </trkpt>
      <trkpt lat="45.77102" lon="4.64354">
        <ele>586</ele>
        <time>2012-09-22T06:51:30Z</time>
      </trkpt>
      <trkpt lat="45.771" lon="4.6434">
        <ele>587</ele>
        <time>2012-09-22T06:51:37Z</time>
      </trkpt>
      <trkpt lat="45.77097" lon="4.64327">
        <ele>587</ele>
        <time>2012-09-22T06:51:45Z</time>
      </trkpt>
      <trkpt lat="45.77097" lon="4.64319">
        <ele>587</ele>
        <time>2012-09-22T06:51:50Z</time>
      </trkpt>
      <trkpt lat="45.771" lon="4.64301">
        <ele>590</ele>
        <time>2012-09-22T06:52:01Z</time>
      </trkpt>
      <trkpt lat="45.77098" lon="4.64288">
        <ele>591</ele>
        <time>2012-09-22T06:52:09Z</time>
      </trkpt>
      <trkpt lat="45.77097" lon="4.64277">
        <ele>593</ele>
        <time>2012-09-22T06:52:15Z</time>
      </trkpt>
      <trkpt lat="45.77095" lon="4.64264">
        <ele>594</ele>
        <time>2012-09-22T06:52:23Z</time>
      </trkpt>
      <trkpt lat="45.77095" lon="4.64255">
        <ele>594</ele>
        <time>2012-09-22T06:52:28Z</time>
      </trkpt>
      <trkpt lat="45.77096" lon="4.64252">
        <ele>595</ele>
        <time>2012-09-22T06:52:30Z</time>
      </trkpt>
      <trkpt lat="45.77096" lon="4.64238">
        <ele>596</ele>
        <time>2012-09-22T06:52:38Z</time>
      </trkpt>
      <trkpt lat="45.771" lon="4.64227">
        <ele>596</ele>
        <time>2012-09-22T06:52:46Z</time>
      </trkpt>
      <trkpt lat="45.77099" lon="4.64222">
        <ele>597</ele>
        <time>2012-09-22T06:52:54Z</time>
      </trkpt>
      <trkpt lat="45.77095" lon="4.64221">
        <ele>597</ele>
        <time>2012-09-22T06:53:10Z</time>
      </trkpt>
      <trkpt lat="45.77095" lon="4.64217">
        <ele>597</ele>
        <time>2012-09-22T06:53:29Z</time>
      </trkpt>
      <trkpt lat="45.77098" lon="4.64215">
        <ele>597</ele>
        <time>2012-09-22T06:53:31Z</time>
      </trkpt>
      <trkpt lat="45.77105" lon="4.64204">
        <ele>598</ele>
        <time>2012-09-22T06:53:38Z</time>
      </trkpt>
      <trkpt lat="45.7711" lon="4.64193">
        <ele>598</ele>
        <time>2012-09-22T06:53:45Z</time>
      </trkpt>
      <trkpt lat="45.77117" lon="4.6418">
        <ele>599</ele>
        <time>2012-09-22T06:53:53Z</time>
      </trkpt>
      <trkpt lat="45.77122" lon="4.64168">
        <ele>599</ele>
        <time>2012-09-22T06:54:00Z</time>
      </trkpt>
      <trkpt lat="45.77131" lon="4.64156">
        <ele>599</ele>
        <time>2012-09-22T06:54:08Z</time>
      </trkpt>
      <trkpt lat="45.77139" lon="4.64155">
        <ele>601</ele>
        <time>2012-09-22T06:54:17Z</time>
      </trkpt>
      <trkpt lat="45.77148" lon="4.64161">
        <ele>602</ele>
        <time>2012-09-22T06:54:26Z</time>
      </trkpt>
      <trkpt lat="45.77148" lon="4.64162">
        <ele>603</ele>
        <time>2012-09-22T06:54:28Z</time>
      </trkpt>
      <trkpt lat="45.77157" lon="4.64165">
        <ele>603</ele>
        <time>2012-09-22T06:54:35Z</time>
      </trkpt>
      <trkpt lat="45.77167" lon="4.64168">
        <ele>605</ele>
        <time>2012-09-22T06:54:43Z</time>
      </trkpt>
      <trkpt lat="45.7717" lon="4.64171">
        <ele>606</ele>
        <time>2012-09-22T06:54:46Z</time>
      </trkpt>
      <trkpt lat="45.77181" lon="4.64176">
        <ele>607</ele>
        <time>2012-09-22T06:54:54Z</time>
      </trkpt>
      <trkpt lat="45.77193" lon="4.64181">
        <ele>608</ele>
        <time>2012-09-22T06:55:01Z</time>
      </trkpt>
      <trkpt lat="45.77202" lon="4.64183">
        <ele>609</ele>
        <time>2012-09-22T06:55:09Z</time>
      </trkpt>
      <trkpt lat="45.77212" lon="4.64184">
        <ele>610</ele>
        <time>2012-09-22T06:55:16Z</time>
      </trkpt>
      <trkpt lat="45.77222" lon="4.64187">
        <ele>610</ele>
        <time>2012-09-22T06:55:23Z</time>
      </trkpt>
      <trkpt lat="45.77236" lon="4.6419">
        <ele>610</ele>
        <time>2012-09-22T06:55:32Z</time>
      </trkpt>
      <trkpt lat="45.77242" lon="4.64193">
        <ele>610</ele>
        <time>2012-09-22T06:55:35Z</time>
      </trkpt>
      <trkpt lat="45.77252" lon="4.64199">
        <ele>610</ele>
        <time>2012-09-22T06:55:42Z</time>
      </trkpt>
      <trkpt lat="45.77261" lon="4.64203">
        <ele>610</ele>
        <time>2012-09-22T06:55:45Z</time>
      </trkpt>
      <trkpt lat="45.77285" lon="4.64205">
        <ele>610</ele>
        <time>2012-09-22T06:55:53Z</time>
      </trkpt>
      <trkpt lat="45.77287" lon="4.64205">
        <ele>610</ele>
        <time>2012-09-22T06:55:54Z</time>
      </trkpt>
      <trkpt lat="45.77296" lon="4.64201">
        <ele>609</ele>
        <time>2012-09-22T06:55:58Z</time>
      </trkpt>
      <trkpt lat="45.77317" lon="4.64184">
        <ele>609</ele>
        <time>2012-09-22T06:56:07Z</time>
      </trkpt>
      <trkpt lat="45.77331" lon="4.64171">
        <ele>609</ele>
        <time>2012-09-22T06:56:13Z</time>
      </trkpt>
      <trkpt lat="45.77349" lon="4.64155">
        <ele>609</ele>
        <time>2012-09-22T06:56:20Z</time>
      </trkpt>
      <trkpt lat="45.77365" lon="4.64131">
        <ele>610</ele>
        <time>2012-09-22T06:56:28Z</time>
      </trkpt>
      <trkpt lat="45.77377" lon="4.64107">
        <ele>610</ele>
        <time>2012-09-22T06:56:36Z</time>
      </trkpt>
      <trkpt lat="45.77386" lon="4.6409">
        <ele>610</ele>
        <time>2012-09-22T06:56:42Z</time>
      </trkpt>
      <trkpt lat="45.77395" lon="4.64074">
        <ele>610</ele>
        <time>2012-09-22T06:56:49Z</time>
      </trkpt>
      <trkpt lat="45.77408" lon="4.6405">
        <ele>609</ele>
        <time>2012-09-22T06:56:55Z</time>
      </trkpt>
      <trkpt lat="45.77418" lon="4.64027">
        <ele>609</ele>
        <time>2012-09-22T06:57:01Z</time>
      </trkpt>
      <trkpt lat="45.77431" lon="4.64004">
        <ele>608</ele>
        <time>2012-09-22T06:57:08Z</time>
      </trkpt>
      <trkpt lat="45.77438" lon="4.63995">
        <ele>607</ele>
        <time>2012-09-22T06:57:10Z</time>
      </trkpt>
      <trkpt lat="45.77444" lon="4.63991">
        <ele>607</ele>
        <time>2012-09-22T06:57:11Z</time>
      </trkpt>
      <trkpt lat="45.77448" lon="4.63988">
        <ele>607</ele>
        <time>2012-09-22T06:57:12Z</time>
      </trkpt>
      <trkpt lat="45.77458" lon="4.63983">
        <ele>607</ele>
        <time>2012-09-22T06:57:14Z</time>
      </trkpt>
      <trkpt lat="45.77476" lon="4.63977">
        <ele>606</ele>
        <time>2012-09-22T06:57:18Z</time>
      </trkpt>
      <trkpt lat="45.77496" lon="4.6397">
        <ele>605</ele>
        <time>2012-09-22T06:57:23Z</time>
      </trkpt>
      <trkpt lat="45.77511" lon="4.63958">
        <ele>607</ele>
        <time>2012-09-22T06:57:29Z</time>
      </trkpt>
      <trkpt lat="45.77531" lon="4.6394">
        <ele>607</ele>
        <time>2012-09-22T06:57:38Z</time>
      </trkpt>
      <trkpt lat="45.77543" lon="4.63918">
        <ele>609</ele>
        <time>2012-09-22T06:57:46Z</time>
      </trkpt>
      <trkpt lat="45.77552" lon="4.639">
        <ele>610</ele>
        <time>2012-09-22T06:57:53Z</time>
      </trkpt>
      <trkpt lat="45.77568" lon="4.63877">
        <ele>610</ele>
        <time>2012-09-22T06:58:01Z</time>
      </trkpt>
      <trkpt lat="45.77579" lon="4.6386">
        <ele>612</ele>
        <time>2012-09-22T06:58:08Z</time>
      </trkpt>
      <trkpt lat="45.7758" lon="4.63856">
        <ele>612</ele>
        <time>2012-09-22T06:58:10Z</time>
      </trkpt>
      <trkpt lat="45.7758" lon="4.63854">
        <ele>612</ele>
        <time>2012-09-22T06:58:11Z</time>
      </trkpt>
      <trkpt lat="45.77578" lon="4.63852">
        <ele>612</ele>
        <time>2012-09-22T06:58:14Z</time>
      </trkpt>
      <trkpt lat="45.77577" lon="4.63853">
        <ele>612</ele>
        <time>2012-09-22T06:58:20Z</time>
      </trkpt>
      <trkpt lat="45.77577" lon="4.63855">
        <ele>612</ele>
        <time>2012-09-22T06:58:31Z</time>
      </trkpt>
      <trkpt lat="45.77581" lon="4.63852">
        <ele>612</ele>
        <time>2012-09-22T06:58:51Z</time>
      </trkpt>
      <trkpt lat="45.77586" lon="4.63847">
        <ele>612</ele>
        <time>2012-09-22T06:59:16Z</time>
      </trkpt>
      <trkpt lat="45.77586" lon="4.63845">
        <ele>612</ele>
        <time>2012-09-22T06:59:31Z</time>
      </trkpt>
      <trkpt lat="45.77586" lon="4.63844">
        <ele>612</ele>
        <time>2012-09-22T06:59:42Z</time>
      </trkpt>
      <trkpt lat="45.77591" lon="4.63842">
        <ele>612</ele>
        <time>2012-09-22T07:00:10Z</time>
      </trkpt>
      <trkpt lat="45.77587" lon="4.6385">
        <ele>612</ele>
        <time>2012-09-22T07:00:35Z</time>
      </trkpt>
      <trkpt lat="45.77587" lon="4.63853">
        <ele>612</ele>
        <time>2012-09-22T07:00:53Z</time>
      </trkpt>
      <trkpt lat="45.77587" lon="4.63855">
        <ele>612</ele>
        <time>2012-09-22T07:01:09Z</time>
      </trkpt>
      <trkpt lat="45.77589" lon="4.63856">
        <ele>612</ele>
        <time>2012-09-22T07:01:21Z</time>
      </trkpt>
      <trkpt lat="45.77592" lon="4.63857">
        <ele>612</ele>
        <time>2012-09-22T07:01:39Z</time>
      </trkpt>
      <trkpt lat="45.77594" lon="4.63855">
        <ele>612</ele>
        <time>2012-09-22T07:01:56Z</time>
      </trkpt>
      <trkpt lat="45.77594" lon="4.63852">
        <ele>612</ele>
        <time>2012-09-22T07:02:13Z</time>
      </trkpt>
      <trkpt lat="45.77591" lon="4.63855">
        <ele>612</ele>
        <time>2012-09-22T07:02:37Z</time>
      </trkpt>
      <trkpt lat="45.7759" lon="4.63859">
        <ele>612</ele>
        <time>2012-09-22T07:02:59Z</time>
      </trkpt>
      <trkpt lat="45.77593" lon="4.63857">
        <ele>612</ele>
        <time>2012-09-22T07:03:18Z</time>
      </trkpt>
      <trkpt lat="45.77594" lon="4.63858">
        <ele>612</ele>
        <time>2012-09-22T07:03:41Z</time>
      </trkpt>
      <trkpt lat="45.77593" lon="4.63861">
        <ele>612</ele>
        <time>2012-09-22T07:03:57Z</time>
      </trkpt>
      <trkpt lat="45.77593" lon="4.63861">
        <ele>612</ele>
        <time>2012-09-22T07:04:12Z</time>
      </trkpt>
      <trkpt lat="45.77592" lon="4.63856">
        <ele>612</ele>
        <time>2012-09-22T07:04:21Z</time>
      </trkpt>
      <trkpt lat="45.77589" lon="4.63854">
        <ele>612</ele>
        <time>2012-09-22T07:04:23Z</time>
      </trkpt>
      <trkpt lat="45.77588" lon="4.63853">
        <ele>612</ele>
        <time>2012-09-22T07:04:24Z</time>
      </trkpt>
      <trkpt lat="45.77574" lon="4.63838">
        <ele>614</ele>
        <time>2012-09-22T07:04:32Z</time>
      </trkpt>
      <trkpt lat="45.77572" lon="4.63836">
        <ele>614</ele>
        <time>2012-09-22T07:04:33Z</time>
      </trkpt>
      <trkpt lat="45.77561" lon="4.63821">
        <ele>615</ele>
        <time>2012-09-22T07:04:40Z</time>
      </trkpt>
      <trkpt lat="45.77556" lon="4.63813">
        <ele>617</ele>
        <time>2012-09-22T07:04:46Z</time>
      </trkpt>
      <trkpt lat="45.77551" lon="4.63806">
        <ele>618</ele>
        <time>2012-09-22T07:04:53Z</time>
      </trkpt>
      <trkpt lat="45.77545" lon="4.638">
        <ele>620</ele>
        <time>2012-09-22T07:05:00Z</time>
      </trkpt>
      <trkpt lat="45.77537" lon="4.63791">
        <ele>623</ele>
        <time>2012-09-22T07:05:08Z</time>
      </trkpt>
      <trkpt lat="45.77536" lon="4.6379">
        <ele>623</ele>
        <time>2012-09-22T07:05:09Z</time>
      </trkpt>
      <trkpt lat="45.77534" lon="4.63788">
        <ele>624</ele>
        <time>2012-09-22T07:05:11Z</time>
      </trkpt>
      <trkpt lat="45.7753" lon="4.63788">
        <ele>624</ele>
        <time>2012-09-22T07:05:16Z</time>
      </trkpt>
      <trkpt lat="45.77526" lon="4.63784">
        <ele>625</ele>
        <time>2012-09-22T07:05:24Z</time>
      </trkpt>
      <trkpt lat="45.7752" lon="4.63779">
        <ele>627</ele>
        <time>2012-09-22T07:05:31Z</time>
      </trkpt>
      <trkpt lat="45.7751" lon="4.63772">
        <ele>628</ele>
        <time>2012-09-22T07:05:41Z</time>
      </trkpt>
      <trkpt lat="45.77507" lon="4.63767">
        <ele>630</ele>
        <time>2012-09-22T07:05:48Z</time>
      </trkpt>
      <trkpt lat="45.77504" lon="4.63763">
        <ele>630</ele>
        <time>2012-09-22T07:05:56Z</time>
      </trkpt>
      <trkpt lat="45.77496" lon="4.63757">
        <ele>632</ele>
        <time>2012-09-22T07:06:05Z</time>
      </trkpt>
      <trkpt lat="45.77494" lon="4.63756">
        <ele>632</ele>
        <time>2012-09-22T07:06:06Z</time>
      </trkpt>
      <trkpt lat="45.77493" lon="4.63755">
        <ele>632</ele>
        <time>2012-09-22T07:06:07Z</time>
      </trkpt>
      <trkpt lat="45.77491" lon="4.63754">
        <ele>633</ele>
        <time>2012-09-22T07:06:08Z</time>
      </trkpt>
      <trkpt lat="45.7749" lon="4.63753">
        <ele>633</ele>
        <time>2012-09-22T07:06:09Z</time>
      </trkpt>
      <trkpt lat="45.77489" lon="4.63752">
        <ele>634</ele>
        <time>2012-09-22T07:06:10Z</time>
      </trkpt>
      <trkpt lat="45.7748" lon="4.63747">
        <ele>636</ele>
        <time>2012-09-22T07:06:17Z</time>
      </trkpt>
      <trkpt lat="45.77479" lon="4.63746">
        <ele>636</ele>
        <time>2012-09-22T07:06:18Z</time>
      </trkpt>
      <trkpt lat="45.77478" lon="4.63745">
        <ele>636</ele>
        <time>2012-09-22T07:06:19Z</time>
      </trkpt>
      <trkpt lat="45.77477" lon="4.63743">
        <ele>637</ele>
        <time>2012-09-22T07:06:20Z</time>
      </trkpt>
      <trkpt lat="45.77471" lon="4.63744">
        <ele>637</ele>
        <time>2012-09-22T07:06:25Z</time>
      </trkpt>
      <trkpt lat="45.77463" lon="4.63747">
        <ele>639</ele>
        <time>2012-09-22T07:06:33Z</time>
      </trkpt>
      <trkpt lat="45.77458" lon="4.63749">
        <ele>640</ele>
        <time>2012-09-22T07:06:39Z</time>
      </trkpt>
      <trkpt lat="45.77453" lon="4.63755">
        <ele>641</ele>
        <time>2012-09-22T07:06:45Z</time>
      </trkpt>
      <trkpt lat="45.77445" lon="4.63767">
        <ele>643</ele>
        <time>2012-09-22T07:06:53Z</time>
      </trkpt>
      <trkpt lat="45.77441" lon="4.63771">
        <ele>644</ele>
        <time>2012-09-22T07:06:56Z</time>
      </trkpt>
      <trkpt lat="45.77436" lon="4.63776">
        <ele>645</ele>
        <time>2012-09-22T07:07:02Z</time>
      </trkpt>
      <trkpt lat="45.77434" lon="4.63776">
        <ele>646</ele>
        <time>2012-09-22T07:07:03Z</time>
      </trkpt>
      <trkpt lat="45.77425" lon="4.6378">
        <ele>646</ele>
        <time>2012-09-22T07:07:10Z</time>
      </trkpt>
      <trkpt lat="45.77417" lon="4.63782">
        <ele>647</ele>
        <time>2012-09-22T07:07:18Z</time>
      </trkpt>
      <trkpt lat="45.77412" lon="4.63787">
        <ele>649</ele>
        <time>2012-09-22T07:07:24Z</time>
      </trkpt>
      <trkpt lat="45.77405" lon="4.63791">
        <ele>649</ele>
        <time>2012-09-22T07:07:31Z</time>
      </trkpt>
      <trkpt lat="45.77396" lon="4.63796">
        <ele>651</ele>
        <time>2012-09-22T07:07:39Z</time>
      </trkpt>
      <trkpt lat="45.77387" lon="4.63803">
        <ele>652</ele>
        <time>2012-09-22T07:07:48Z</time>
      </trkpt>
      <trkpt lat="45.77379" lon="4.63811">
        <ele>654</ele>
        <time>2012-09-22T07:07:58Z</time>
      </trkpt>
      <trkpt lat="45.77372" lon="4.63817">
        <ele>655</ele>
        <time>2012-09-22T07:08:06Z</time>
      </trkpt>
      <trkpt lat="45.77363" lon="4.63828">
        <ele>656</ele>
        <time>2012-09-22T07:08:14Z</time>
      </trkpt>
      <trkpt lat="45.77355" lon="4.63833">
        <ele>656</ele>
        <time>2012-09-22T07:08:21Z</time>
      </trkpt>
      <trkpt lat="45.77344" lon="4.63836">
        <ele>657</ele>
        <time>2012-09-22T07:08:30Z</time>
      </trkpt>
      <trkpt lat="45.77333" lon="4.6384">
        <ele>658</ele>
        <time>2012-09-22T07:08:38Z</time>
      </trkpt>
      <trkpt lat="45.77327" lon="4.63842">
        <ele>659</ele>
        <time>2012-09-22T07:08:44Z</time>
      </trkpt>
      <trkpt lat="45.7732" lon="4.63841">
        <ele>661</ele>
        <time>2012-09-22T07:08:53Z</time>
      </trkpt>
      <trkpt lat="45.77312" lon="4.63835">
        <ele>662</ele>
        <time>2012-09-22T07:09:03Z</time>
      </trkpt>
      <trkpt lat="45.77302" lon="4.63828">
        <ele>664</ele>
        <time>2012-09-22T07:09:10Z</time>
      </trkpt>
      <trkpt lat="45.7729" lon="4.63821">
        <ele>665</ele>
        <time>2012-09-22T07:09:19Z</time>
      </trkpt>
      <trkpt lat="45.77284" lon="4.63817">
        <ele>665</ele>
        <time>2012-09-22T07:09:26Z</time>
      </trkpt>
      <trkpt lat="45.77278" lon="4.63815">
        <ele>666</ele>
        <time>2012-09-22T07:09:34Z</time>
      </trkpt>
      <trkpt lat="45.77263" lon="4.63804">
        <ele>667</ele>
        <time>2012-09-22T07:09:44Z</time>
      </trkpt>
      <trkpt lat="45.77258" lon="4.63799">
        <ele>668</ele>
        <time>2012-09-22T07:09:48Z</time>
      </trkpt>
      <trkpt lat="45.77249" lon="4.63786">
        <ele>669</ele>
        <time>2012-09-22T07:09:56Z</time>
      </trkpt>
      <trkpt lat="45.77244" lon="4.63774">
        <ele>670</ele>
        <time>2012-09-22T07:10:03Z</time>
      </trkpt>
      <trkpt lat="45.7724" lon="4.63756">
        <ele>672</ele>
        <time>2012-09-22T07:10:11Z</time>
      </trkpt>
      <trkpt lat="45.77237" lon="4.63746">
        <ele>674</ele>
        <time>2012-09-22T07:10:19Z</time>
      </trkpt>
      <trkpt lat="45.77231" lon="4.63735">
        <ele>675</ele>
        <time>2012-09-22T07:10:27Z</time>
      </trkpt>
      <trkpt lat="45.77225" lon="4.63727">
        <ele>677</ele>
        <time>2012-09-22T07:10:35Z</time>
      </trkpt>
      <trkpt lat="45.77215" lon="4.63723">
        <ele>678</ele>
        <time>2012-09-22T07:10:43Z</time>
      </trkpt>
      <trkpt lat="45.77206" lon="4.63721">
        <ele>680</ele>
        <time>2012-09-22T07:10:51Z</time>
      </trkpt>
      <trkpt lat="45.77198" lon="4.63718">
        <ele>681</ele>
        <time>2012-09-22T07:10:59Z</time>
      </trkpt>
      <trkpt lat="45.77189" lon="4.63716">
        <ele>683</ele>
        <time>2012-09-22T07:11:06Z</time>
      </trkpt>
      <trkpt lat="45.77178" lon="4.63714">
        <ele>685</ele>
        <time>2012-09-22T07:11:15Z</time>
      </trkpt>
      <trkpt lat="45.77167" lon="4.6371">
        <ele>687</ele>
        <time>2012-09-22T07:11:24Z</time>
      </trkpt>
      <trkpt lat="45.77159" lon="4.63708">
        <ele>689</ele>
        <time>2012-09-22T07:11:31Z</time>
      </trkpt>
      <trkpt lat="45.77149" lon="4.63706">
        <ele>691</ele>
        <time>2012-09-22T07:11:39Z</time>
      </trkpt>
      <trkpt lat="45.77141" lon="4.63707">
        <ele>692</ele>
        <time>2012-09-22T07:11:46Z</time>
      </trkpt>
      <trkpt lat="45.77135" lon="4.63708">
        <ele>693</ele>
        <time>2012-09-22T07:11:52Z</time>
      </trkpt>
      <trkpt lat="45.77126" lon="4.63708">
        <ele>695</ele>
        <time>2012-09-22T07:12:00Z</time>
      </trkpt>
      <trkpt lat="45.77118" lon="4.63707">
        <ele>695</ele>
        <time>2012-09-22T07:12:06Z</time>
      </trkpt>
      <trkpt lat="45.7711" lon="4.63704">
        <ele>696</ele>
        <time>2012-09-22T07:12:14Z</time>
      </trkpt>
      <trkpt lat="45.77101" lon="4.637">
        <ele>698</ele>
        <time>2012-09-22T07:12:21Z</time>
      </trkpt>
      <trkpt lat="45.77097" lon="4.637">
        <ele>699</ele>
        <time>2012-09-22T07:12:27Z</time>
      </trkpt>
      <trkpt lat="45.77092" lon="4.63699">
        <ele>699</ele>
        <time>2012-09-22T07:12:35Z</time>
      </trkpt>
      <trkpt lat="45.77086" lon="4.63697">
        <ele>701</ele>
        <time>2012-09-22T07:12:43Z</time>
      </trkpt>
      <trkpt lat="45.77078" lon="4.63697">
        <ele>702</ele>
        <time>2012-09-22T07:12:48Z</time>
      </trkpt>
      <trkpt lat="45.77064" lon="4.63695">
        <ele>704</ele>
        <time>2012-09-22T07:12:55Z</time>
      </trkpt>
      <trkpt lat="45.77053" lon="4.63693">
        <ele>705</ele>
        <time>2012-09-22T07:13:03Z</time>
      </trkpt>
      <trkpt lat="45.77042" lon="4.63696">
        <ele>706</ele>
        <time>2012-09-22T07:13:11Z</time>
      </trkpt>
      <trkpt lat="45.77035" lon="4.63696">
        <ele>708</ele>
        <time>2012-09-22T07:13:19Z</time>
      </trkpt>
      <trkpt lat="45.77029" lon="4.63695">
        <ele>710</ele>
        <time>2012-09-22T07:13:26Z</time>
      </trkpt>
      <trkpt lat="45.7702" lon="4.63692">
        <ele>711</ele>
        <time>2012-09-22T07:13:34Z</time>
      </trkpt>
      <trkpt lat="45.77011" lon="4.63688">
        <ele>711</ele>
        <time>2012-09-22T07:13:42Z</time>
      </trkpt>
      <trkpt lat="45.76998" lon="4.6368">
        <ele>713</ele>
        <time>2012-09-22T07:13:50Z</time>
      </trkpt>
      <trkpt lat="45.76991" lon="4.63675">
        <ele>714</ele>
        <time>2012-09-22T07:13:59Z</time>
      </trkpt>
      <trkpt lat="45.76983" lon="4.63672">
        <ele>714</ele>
        <time>2012-09-22T07:14:08Z</time>
      </trkpt>
      <trkpt lat="45.76971" lon="4.63665">
        <ele>716</ele>
        <time>2012-09-22T07:14:17Z</time>
      </trkpt>
      <trkpt lat="45.76963" lon="4.63656">
        <ele>716</ele>
        <time>2012-09-22T07:14:24Z</time>
      </trkpt>
      <trkpt lat="45.76955" lon="4.63645">
        <ele>717</ele>
        <time>2012-09-22T07:14:32Z</time>
      </trkpt>
      <trkpt lat="45.76947" lon="4.63632">
        <ele>718</ele>
        <time>2012-09-22T07:14:41Z</time>
      </trkpt>
      <trkpt lat="45.76938" lon="4.63617">
        <ele>718</ele>
        <time>2012-09-22T07:14:50Z</time>
      </trkpt>
      <trkpt lat="45.76933" lon="4.63609">
        <ele>718</ele>
        <time>2012-09-22T07:14:56Z</time>
      </trkpt>
      <trkpt lat="45.76926" lon="4.63596">
        <ele>717</ele>
        <time>2012-09-22T07:15:03Z</time>
      </trkpt>
      <trkpt lat="45.7692" lon="4.63582">
        <ele>718</ele>
        <time>2012-09-22T07:15:11Z</time>
      </trkpt>
      <trkpt lat="45.76913" lon="4.63564">
        <ele>718</ele>
        <time>2012-09-22T07:15:18Z</time>
      </trkpt>
      <trkpt lat="45.76906" lon="4.63543">
        <ele>719</ele>
        <time>2012-09-22T07:15:27Z</time>
      </trkpt>
      <trkpt lat="45.76897" lon="4.63524">
        <ele>720</ele>
        <time>2012-09-22T07:15:34Z</time>
      </trkpt>
      <trkpt lat="45.76889" lon="4.63507">
        <ele>721</ele>
        <time>2012-09-22T07:15:40Z</time>
      </trkpt>
      <trkpt lat="45.76878" lon="4.63483">
        <ele>722</ele>
        <time>2012-09-22T07:15:48Z</time>
      </trkpt>
      <trkpt lat="45.7687" lon="4.63458">
        <ele>723</ele>
        <time>2012-09-22T07:15:56Z</time>
      </trkpt>
      <trkpt lat="45.76862" lon="4.63436">
        <ele>723</ele>
        <time>2012-09-22T07:16:04Z</time>
      </trkpt>
      <trkpt lat="45.76861" lon="4.63433">
        <ele>724</ele>
        <time>2012-09-22T07:16:05Z</time>
      </trkpt>
      <trkpt lat="45.76854" lon="4.6341">
        <ele>724</ele>
        <time>2012-09-22T07:16:13Z</time>
      </trkpt>
      <trkpt lat="45.76847" lon="4.63386">
        <ele>726</ele>
        <time>2012-09-22T07:16:21Z</time>
      </trkpt>
      <trkpt lat="45.76841" lon="4.6337">
        <ele>727</ele>
        <time>2012-09-22T07:16:26Z</time>
      </trkpt>
      <trkpt lat="45.76836" lon="4.63354">
        <ele>728</ele>
        <time>2012-09-22T07:16:32Z</time>
      </trkpt>
      <trkpt lat="45.76834" lon="4.6335">
        <ele>728</ele>
        <time>2012-09-22T07:16:34Z</time>
      </trkpt>
      <trkpt lat="45.7683" lon="4.63343">
        <ele>728</ele>
        <time>2012-09-22T07:16:37Z</time>
      </trkpt>
      <trkpt lat="45.76826" lon="4.63336">
        <ele>727</ele>
        <time>2012-09-22T07:16:40Z</time>
      </trkpt>
      <trkpt lat="45.76824" lon="4.63333">
        <ele>728</ele>
        <time>2012-09-22T07:16:41Z</time>
      </trkpt>
      <trkpt lat="45.76814" lon="4.63319">
        <ele>727</ele>
        <time>2012-09-22T07:16:47Z</time>
      </trkpt>
      <trkpt lat="45.76804" lon="4.633">
        <ele>728</ele>
        <time>2012-09-22T07:16:55Z</time>
      </trkpt>
      <trkpt lat="45.76797" lon="4.63285">
        <ele>728</ele>
        <time>2012-09-22T07:17:02Z</time>
      </trkpt>
      <trkpt lat="45.76795" lon="4.63273">
        <ele>729</ele>
        <time>2012-09-22T07:17:08Z</time>
      </trkpt>
      <trkpt lat="45.76788" lon="4.63257">
        <ele>731</ele>
        <time>2012-09-22T07:17:16Z</time>
      </trkpt>
      <trkpt lat="45.76778" lon="4.63245">
        <ele>732</ele>
        <time>2012-09-22T07:17:22Z</time>
      </trkpt>
      <trkpt lat="45.76777" lon="4.63242">
        <ele>733</ele>
        <time>2012-09-22T07:17:23Z</time>
      </trkpt>
      <trkpt lat="45.76767" lon="4.63227">
        <ele>733</ele>
        <time>2012-09-22T07:17:30Z</time>
      </trkpt>
      <trkpt lat="45.76766" lon="4.63224">
        <ele>733</ele>
        <time>2012-09-22T07:17:31Z</time>
      </trkpt>
      <trkpt lat="45.7676" lon="4.63211">
        <ele>732</ele>
        <time>2012-09-22T07:17:37Z</time>
      </trkpt>
      <trkpt lat="45.76748" lon="4.6319">
        <ele>731</ele>
        <time>2012-09-22T07:17:44Z</time>
      </trkpt>
      <trkpt lat="45.76735" lon="4.63172">
        <ele>731</ele>
        <time>2012-09-22T07:17:51Z</time>
      </trkpt>
      <trkpt lat="45.76722" lon="4.63157">
        <ele>730</ele>
        <time>2012-09-22T07:17:58Z</time>
      </trkpt>
      <trkpt lat="45.76711" lon="4.63148">
        <ele>729</ele>
        <time>2012-09-22T07:18:06Z</time>
      </trkpt>
      <trkpt lat="45.76694" lon="4.63129">
        <ele>730</ele>
        <time>2012-09-22T07:18:22Z</time>
      </trkpt>
      <trkpt lat="45.76694" lon="4.63126">
        <ele>730</ele>
        <time>2012-09-22T07:18:42Z</time>
      </trkpt>
      <trkpt lat="45.76693" lon="4.63122">
        <ele>730</ele>
        <time>2012-09-22T07:18:59Z</time>
      </trkpt>
      <trkpt lat="45.76689" lon="4.63122">
        <ele>730</ele>
        <time>2012-09-22T07:19:13Z</time>
      </trkpt>
      <trkpt lat="45.76688" lon="4.63122">
        <ele>731</ele>
        <time>2012-09-22T07:19:33Z</time>
      </trkpt>
      <trkpt lat="45.76685" lon="4.63122">
        <ele>730</ele>
        <time>2012-09-22T07:19:42Z</time>
      </trkpt>
      <trkpt lat="45.76684" lon="4.63126">
        <ele>729</ele>
        <time>2012-09-22T07:19:44Z</time>
      </trkpt>
      <trkpt lat="45.76685" lon="4.63142">
        <ele>726</ele>
        <time>2012-09-22T07:19:50Z</time>
      </trkpt>
      <trkpt lat="45.76684" lon="4.63153">
        <ele>724</ele>
        <time>2012-09-22T07:19:54Z</time>
      </trkpt>
      <trkpt lat="45.76686" lon="4.63171">
        <ele>723</ele>
        <time>2012-09-22T07:19:59Z</time>
      </trkpt>
      <trkpt lat="45.76688" lon="4.63178">
        <ele>722</ele>
        <time>2012-09-22T07:20:02Z</time>
      </trkpt>
      <trkpt lat="45.76693" lon="4.63188">
        <ele>722</ele>
        <time>2012-09-22T07:20:06Z</time>
      </trkpt>
      <trkpt lat="45.76696" lon="4.63198">
        <ele>720</ele>
        <time>2012-09-22T07:20:09Z</time>
      </trkpt>
      <trkpt lat="45.767" lon="4.63232">
        <ele>716</ele>
        <time>2012-09-22T07:20:18Z</time>
      </trkpt>
      <trkpt lat="45.76701" lon="4.63236">
        <ele>716</ele>
        <time>2012-09-22T07:20:19Z</time>
      </trkpt>
      <trkpt lat="45.767" lon="4.63247">
        <ele>714</ele>
        <time>2012-09-22T07:20:21Z</time>
      </trkpt>
      <trkpt lat="45.76698" lon="4.63252">
        <ele>713</ele>
        <time>2012-09-22T07:20:22Z</time>
      </trkpt>
      <trkpt lat="45.76699" lon="4.63268">
        <ele>710</ele>
        <time>2012-09-22T07:20:26Z</time>
      </trkpt>
      <trkpt lat="45.76699" lon="4.63288">
        <ele>708</ele>
        <time>2012-09-22T07:20:30Z</time>
      </trkpt>
      <trkpt lat="45.76701" lon="4.63312">
        <ele>704</ele>
        <time>2012-09-22T07:20:36Z</time>
      </trkpt>
      <trkpt lat="45.76705" lon="4.63326">
        <ele>701</ele>
        <time>2012-09-22T07:20:40Z</time>
      </trkpt>
      <trkpt lat="45.76705" lon="4.63326">
        <ele>701</ele>
        <time>2012-09-22T07:20:41Z</time>
      </trkpt>
      <trkpt lat="45.76716" lon="4.63335">
        <ele>700</ele>
        <time>2012-09-22T07:20:46Z</time>
      </trkpt>
      <trkpt lat="45.76721" lon="4.63353">
        <ele>699</ele>
        <time>2012-09-22T07:20:50Z</time>
      </trkpt>
      <trkpt lat="45.76728" lon="4.63365">
        <ele>699</ele>
        <time>2012-09-22T07:20:52Z</time>
      </trkpt>
      <trkpt lat="45.76741" lon="4.63388">
        <ele>699</ele>
        <time>2012-09-22T07:20:57Z</time>
      </trkpt>
      <trkpt lat="45.76753" lon="4.63417">
        <ele>699</ele>
        <time>2012-09-22T07:21:04Z</time>
      </trkpt>
      <trkpt lat="45.76754" lon="4.63421">
        <ele>699</ele>
        <time>2012-09-22T07:21:05Z</time>
      </trkpt>
      <trkpt lat="45.76758" lon="4.63435">
        <ele>699</ele>
        <time>2012-09-22T07:21:09Z</time>
      </trkpt>
      <trkpt lat="45.76764" lon="4.63442">
        <ele>701</ele>
        <time>2012-09-22T07:21:11Z</time>
      </trkpt>
      <trkpt lat="45.76772" lon="4.63464">
        <ele>702</ele>
        <time>2012-09-22T07:21:19Z</time>
      </trkpt>
      <trkpt lat="45.76777" lon="4.63481">
        <ele>701</ele>
        <time>2012-09-22T07:21:25Z</time>
      </trkpt>
      <trkpt lat="45.76776" lon="4.63488">
        <ele>700</ele>
        <time>2012-09-22T07:21:27Z</time>
      </trkpt>
      <trkpt lat="45.76776" lon="4.63498">
        <ele>698</ele>
        <time>2012-09-22T07:21:31Z</time>
      </trkpt>
      <trkpt lat="45.76772" lon="4.63505">
        <ele>696</ele>
        <time>2012-09-22T07:21:34Z</time>
      </trkpt>
      <trkpt lat="45.76767" lon="4.63509">
        <ele>692</ele>
        <time>2012-09-22T07:21:36Z</time>
      </trkpt>
      <trkpt lat="45.76761" lon="4.63516">
        <ele>691</ele>
        <time>2012-09-22T07:21:38Z</time>
      </trkpt>
      <trkpt lat="45.76761" lon="4.63542">
        <ele>690</ele>
        <time>2012-09-22T07:21:44Z</time>
      </trkpt>
      <trkpt lat="45.76766" lon="4.63565">
        <ele>692</ele>
        <time>2012-09-22T07:21:51Z</time>
      </trkpt>
      <trkpt lat="45.76769" lon="4.63578">
        <ele>693</ele>
        <time>2012-09-22T07:21:56Z</time>
      </trkpt>
      <trkpt lat="45.7677" lon="4.63583">
        <ele>693</ele>
        <time>2012-09-22T07:21:58Z</time>
      </trkpt>
      <trkpt lat="45.76776" lon="4.63609">
        <ele>694</ele>
        <time>2012-09-22T07:22:05Z</time>
      </trkpt>
      <trkpt lat="45.76778" lon="4.63619">
        <ele>694</ele>
        <time>2012-09-22T07:22:11Z</time>
      </trkpt>
      <trkpt lat="45.76779" lon="4.63627">
        <ele>694</ele>
        <time>2012-09-22T07:22:24Z</time>
      </trkpt>
      <trkpt lat="45.76775" lon="4.63636">
        <ele>694</ele>
        <time>2012-09-22T07:22:28Z</time>
      </trkpt>
      <trkpt lat="45.76762" lon="4.63655">
        <ele>692</ele>
        <time>2012-09-22T07:22:35Z</time>
      </trkpt>
      <trkpt lat="45.76757" lon="4.63662">
        <ele>690</ele>
        <time>2012-09-22T07:22:37Z</time>
      </trkpt>
      <trkpt lat="45.76757" lon="4.63679">
        <ele>690</ele>
        <time>2012-09-22T07:22:42Z</time>
      </trkpt>
      <trkpt lat="45.76757" lon="4.63683">
        <ele>689</ele>
        <time>2012-09-22T07:22:43Z</time>
      </trkpt>
      <trkpt lat="45.76754" lon="4.63692">
        <ele>688</ele>
        <time>2012-09-22T07:22:45Z</time>
      </trkpt>
      <trkpt lat="45.76745" lon="4.63703">
        <ele>687</ele>
        <time>2012-09-22T07:22:48Z</time>
      </trkpt>
      <trkpt lat="45.76741" lon="4.63712">
        <ele>685</ele>
        <time>2012-09-22T07:22:49Z</time>
      </trkpt>
      <trkpt lat="45.76734" lon="4.63731">
        <ele>681</ele>
        <time>2012-09-22T07:22:55Z</time>
      </trkpt>
      <trkpt lat="45.76731" lon="4.63728">
        <ele>680</ele>
        <time>2012-09-22T07:22:59Z</time>
      </trkpt>
      <trkpt lat="45.76724" lon="4.63727">
        <ele>677</ele>
        <time>2012-09-22T07:23:03Z</time>
      </trkpt>
      <trkpt lat="45.76715" lon="4.63729">
        <ele>674</ele>
        <time>2012-09-22T07:23:07Z</time>
      </trkpt>
      <trkpt lat="45.76711" lon="4.63727">
        <ele>672</ele>
        <time>2012-09-22T07:23:09Z</time>
      </trkpt>
      <trkpt lat="45.76706" lon="4.63728">
        <ele>670</ele>
        <time>2012-09-22T07:23:12Z</time>
      </trkpt>
      <trkpt lat="45.76699" lon="4.63731">
        <ele>667</ele>
        <time>2012-09-22T07:23:15Z</time>
      </trkpt>
      <trkpt lat="45.76694" lon="4.6373">
        <ele>663</ele>
        <time>2012-09-22T07:23:19Z</time>
      </trkpt>
      <trkpt lat="45.76687" lon="4.63722">
        <ele>661</ele>
        <time>2012-09-22T07:23:25Z</time>
      </trkpt>
      <trkpt lat="45.76686" lon="4.63722">
        <ele>660</ele>
        <time>2012-09-22T07:23:26Z</time>
      </trkpt>
      <trkpt lat="45.76677" lon="4.63722">
        <ele>657</ele>
        <time>2012-09-22T07:23:31Z</time>
      </trkpt>
      <trkpt lat="45.76669" lon="4.63722">
        <ele>652</ele>
        <time>2012-09-22T07:23:36Z</time>
      </trkpt>
      <trkpt lat="45.76668" lon="4.63723">
        <ele>652</ele>
        <time>2012-09-22T07:23:37Z</time>
      </trkpt>
      <trkpt lat="45.76658" lon="4.63725">
        <ele>648</ele>
        <time>2012-09-22T07:23:42Z</time>
      </trkpt>
      <trkpt lat="45.76653" lon="4.63725">
        <ele>646</ele>
        <time>2012-09-22T07:23:44Z</time>
      </trkpt>
      <trkpt lat="45.76644" lon="4.63726">
        <ele>640</ele>
        <time>2012-09-22T07:23:50Z</time>
      </trkpt>
      <trkpt lat="45.76632" lon="4.63731">
        <ele>636</ele>
        <time>2012-09-22T07:23:55Z</time>
      </trkpt>
      <trkpt lat="45.76629" lon="4.63737">
        <ele>634</ele>
        <time>2012-09-22T07:24:00Z</time>
      </trkpt>
      <trkpt lat="45.76631" lon="4.63739">
        <ele>634</ele>
        <time>2012-09-22T07:24:11Z</time>
      </trkpt>
      <trkpt lat="45.76632" lon="4.63738">
        <ele>634</ele>
        <time>2012-09-22T07:24:34Z</time>
      </trkpt>
      <trkpt lat="45.76629" lon="4.63733">
        <ele>634</ele>
        <time>2012-09-22T07:24:51Z</time>
      </trkpt>
      <trkpt lat="45.76626" lon="4.63735">
        <ele>634</ele>
        <time>2012-09-22T07:25:11Z</time>
      </trkpt>
      <trkpt lat="45.76625" lon="4.63736">
        <ele>634</ele>
        <time>2012-09-22T07:25:14Z</time>
      </trkpt>
      <trkpt lat="45.7662" lon="4.63752">
        <ele>633</ele>
        <time>2012-09-22T07:25:21Z</time>
      </trkpt>
      <trkpt lat="45.76617" lon="4.63773">
        <ele>631</ele>
        <time>2012-09-22T07:25:27Z</time>
      </trkpt>
      <trkpt lat="45.76615" lon="4.63796">
        <ele>629</ele>
        <time>2012-09-22T07:25:32Z</time>
      </trkpt>
      <trkpt lat="45.76614" lon="4.63802">
        <ele>628</ele>
        <time>2012-09-22T07:25:33Z</time>
      </trkpt>
      <trkpt lat="45.76612" lon="4.63812">
        <ele>627</ele>
        <time>2012-09-22T07:25:35Z</time>
      </trkpt>
      <trkpt lat="45.76601" lon="4.63831">
        <ele>624</ele>
        <time>2012-09-22T07:25:40Z</time>
      </trkpt>
      <trkpt lat="45.76597" lon="4.63852">
        <ele>621</ele>
        <time>2012-09-22T07:25:44Z</time>
      </trkpt>
      <trkpt lat="45.76599" lon="4.63884">
        <ele>617</ele>
        <time>2012-09-22T07:25:49Z</time>
      </trkpt>
      <trkpt lat="45.76598" lon="4.63886">
        <ele>617</ele>
        <time>2012-09-22T07:25:50Z</time>
      </trkpt>
      <trkpt lat="45.766" lon="4.63893">
        <ele>616</ele>
        <time>2012-09-22T07:25:51Z</time>
      </trkpt>
      <trkpt lat="45.76611" lon="4.63913">
        <ele>615</ele>
        <time>2012-09-22T07:25:55Z</time>
      </trkpt>
      <trkpt lat="45.76612" lon="4.63931">
        <ele>613</ele>
        <time>2012-09-22T07:25:58Z</time>
      </trkpt>
      <trkpt lat="45.76615" lon="4.63947">
        <ele>611</ele>
        <time>2012-09-22T07:26:01Z</time>
      </trkpt>
      <trkpt lat="45.76622" lon="4.63977">
        <ele>608</ele>
        <time>2012-09-22T07:26:05Z</time>
      </trkpt>
      <trkpt lat="45.76632" lon="4.64002">
        <ele>606</ele>
        <time>2012-09-22T07:26:10Z</time>
      </trkpt>
      <trkpt lat="45.76634" lon="4.64009">
        <ele>606</ele>
        <time>2012-09-22T07:26:12Z</time>
      </trkpt>
      <trkpt lat="45.76634" lon="4.64014">
        <ele>606</ele>
        <time>2012-09-22T07:26:13Z</time>
      </trkpt>
      <trkpt lat="45.76635" lon="4.6402">
        <ele>605</ele>
        <time>2012-09-22T07:26:15Z</time>
      </trkpt>
      <trkpt lat="45.76629" lon="4.64031">
        <ele>601</ele>
        <time>2012-09-22T07:26:19Z</time>
      </trkpt>
      <trkpt lat="45.76619" lon="4.64039">
        <ele>598</ele>
        <time>2012-09-22T07:26:23Z</time>
      </trkpt>
      <trkpt lat="45.76612" lon="4.64055">
        <ele>594</ele>
        <time>2012-09-22T07:26:27Z</time>
      </trkpt>
      <trkpt lat="45.7661" lon="4.64065">
        <ele>593</ele>
        <time>2012-09-22T07:26:29Z</time>
      </trkpt>
      <trkpt lat="45.76607" lon="4.64082">
        <ele>590</ele>
        <time>2012-09-22T07:26:32Z</time>
      </trkpt>
      <trkpt lat="45.76599" lon="4.64109">
        <ele>587</ele>
        <time>2012-09-22T07:26:37Z</time>
      </trkpt>
      <trkpt lat="45.76597" lon="4.64112">
        <ele>586</ele>
        <time>2012-09-22T07:26:38Z</time>
      </trkpt>
      <trkpt lat="45.76595" lon="4.64125">
        <ele>584</ele>
        <time>2012-09-22T07:26:39Z</time>
      </trkpt>
      <trkpt lat="45.76592" lon="4.64133">
        <ele>582</ele>
        <time>2012-09-22T07:26:40Z</time>
      </trkpt>
      <trkpt lat="45.76591" lon="4.64141">
        <ele>581</ele>
        <time>2012-09-22T07:26:41Z</time>
      </trkpt>
      <trkpt lat="45.76589" lon="4.64147">
        <ele>581</ele>
        <time>2012-09-22T07:26:42Z</time>
      </trkpt>
      <trkpt lat="45.76588" lon="4.64171">
        <ele>579</ele>
        <time>2012-09-22T07:26:47Z</time>
      </trkpt>
      <trkpt lat="45.7658" lon="4.64188">
        <ele>577</ele>
        <time>2012-09-22T07:26:51Z</time>
      </trkpt>
      <trkpt lat="45.76578" lon="4.64201">
        <ele>575</ele>
        <time>2012-09-22T07:26:53Z</time>
      </trkpt>
      <trkpt lat="45.76577" lon="4.64226">
        <ele>573</ele>
        <time>2012-09-22T07:26:56Z</time>
      </trkpt>
      <trkpt lat="45.76587" lon="4.64267">
        <ele>570</ele>
        <time>2012-09-22T07:27:01Z</time>
      </trkpt>
      <trkpt lat="45.76602" lon="4.64294">
        <ele>569</ele>
        <time>2012-09-22T07:27:04Z</time>
      </trkpt>
      <trkpt lat="45.76611" lon="4.6431">
        <ele>569</ele>
        <time>2012-09-22T07:27:07Z</time>
      </trkpt>
      <trkpt lat="45.76612" lon="4.64338">
        <ele>565</ele>
        <time>2012-09-22T07:27:12Z</time>
      </trkpt>
      <trkpt lat="45.76612" lon="4.64365">
        <ele>562</ele>
        <time>2012-09-22T07:27:16Z</time>
      </trkpt>
      <trkpt lat="45.76613" lon="4.64398">
        <ele>559</ele>
        <time>2012-09-22T07:27:21Z</time>
      </trkpt>
      <trkpt lat="45.76613" lon="4.64418">
        <ele>556</ele>
        <time>2012-09-22T07:27:24Z</time>
      </trkpt>
      <trkpt lat="45.76614" lon="4.64425">
        <ele>555</ele>
        <time>2012-09-22T07:27:25Z</time>
      </trkpt>
      <trkpt lat="45.76612" lon="4.64447">
        <ele>552</ele>
        <time>2012-09-22T07:27:29Z</time>
      </trkpt>
      <trkpt lat="45.7661" lon="4.64453">
        <ele>550</ele>
        <time>2012-09-22T07:27:31Z</time>
      </trkpt>
      <trkpt lat="45.7661" lon="4.64458">
        <ele>549</ele>
        <time>2012-09-22T07:27:38Z</time>
      </trkpt>
      <trkpt lat="45.76616" lon="4.64464">
        <ele>550</ele>
        <time>2012-09-22T07:27:49Z</time>
      </trkpt>
      <trkpt lat="45.76621" lon="4.64465">
        <ele>550</ele>
        <time>2012-09-22T07:28:04Z</time>
      </trkpt>
      <trkpt lat="45.76622" lon="4.64467">
        <ele>550</ele>
        <time>2012-09-22T07:28:22Z</time>
      </trkpt>
      <trkpt lat="45.76623" lon="4.64467">
        <ele>550</ele>
        <time>2012-09-22T07:28:31Z</time>
      </trkpt>
      <trkpt lat="45.76624" lon="4.64469">
        <ele>550</ele>
        <time>2012-09-22T07:28:44Z</time>
      </trkpt>
      <trkpt lat="45.76623" lon="4.6447">
        <ele>550</ele>
        <time>2012-09-22T07:28:56Z</time>
      </trkpt>
      <trkpt lat="45.76624" lon="4.64468">
        <ele>550</ele>
        <time>2012-09-22T07:29:11Z</time>
      </trkpt>
      <trkpt lat="45.76625" lon="4.64468">
        <ele>550</ele>
        <time>2012-09-22T07:29:29Z</time>
      </trkpt>
      <trkpt lat="45.76621" lon="4.64471">
        <ele>550</ele>
        <time>2012-09-22T07:29:46Z</time>
      </trkpt>
      <trkpt lat="45.76616" lon="4.64475">
        <ele>550</ele>
        <time>2012-09-22T07:29:51Z</time>
      </trkpt>
      <trkpt lat="45.76611" lon="4.64491">
        <ele>549</ele>
        <time>2012-09-22T07:30:00Z</time>
      </trkpt>
      <trkpt lat="45.76612" lon="4.64515">
        <ele>548</ele>
        <time>2012-09-22T07:30:07Z</time>
      </trkpt>
      <trkpt lat="45.76618" lon="4.64542">
        <ele>547</ele>
        <time>2012-09-22T07:30:14Z</time>
      </trkpt>
      <trkpt lat="45.76627" lon="4.64569">
        <ele>546</ele>
        <time>2012-09-22T07:30:20Z</time>
      </trkpt>
      <trkpt lat="45.76633" lon="4.64591">
        <ele>545</ele>
        <time>2012-09-22T07:30:25Z</time>
      </trkpt>
      <trkpt lat="45.76632" lon="4.64616">
        <ele>542</ele>
        <time>2012-09-22T07:30:29Z</time>
      </trkpt>
      <trkpt lat="45.76634" lon="4.64657">
        <ele>540</ele>
        <time>2012-09-22T07:30:33Z</time>
      </trkpt>
      <trkpt lat="45.76637" lon="4.64689">
        <ele>537</ele>
        <time>2012-09-22T07:30:37Z</time>
      </trkpt>
      <trkpt lat="45.76631" lon="4.64702">
        <ele>536</ele>
        <time>2012-09-22T07:30:39Z</time>
      </trkpt>
      <trkpt lat="45.76627" lon="4.64708">
        <ele>535</ele>
        <time>2012-09-22T07:30:40Z</time>
      </trkpt>
      <trkpt lat="45.76623" lon="4.64715">
        <ele>534</ele>
        <time>2012-09-22T07:30:41Z</time>
      </trkpt>
      <trkpt lat="45.76622" lon="4.64734">
        <ele>531</ele>
        <time>2012-09-22T07:30:44Z</time>
      </trkpt>
      <trkpt lat="45.76625" lon="4.64739">
        <ele>530</ele>
        <time>2012-09-22T07:30:45Z</time>
      </trkpt>
      <trkpt lat="45.76627" lon="4.64743">
        <ele>530</ele>
        <time>2012-09-22T07:30:46Z</time>
      </trkpt>
      <trkpt lat="45.76632" lon="4.64752">
        <ele>530</ele>
        <time>2012-09-22T07:30:49Z</time>
      </trkpt>
      <trkpt lat="45.76638" lon="4.6478">
        <ele>528</ele>
        <time>2012-09-22T07:30:59Z</time>
      </trkpt>
      <trkpt lat="45.76639" lon="4.64798">
        <ele>527</ele>
        <time>2012-09-22T07:31:05Z</time>
      </trkpt>
      <trkpt lat="45.7664" lon="4.64809">
        <ele>526</ele>
        <time>2012-09-22T07:31:08Z</time>
      </trkpt>
      <trkpt lat="45.76642" lon="4.64834">
        <ele>523</ele>
        <time>2012-09-22T07:31:15Z</time>
      </trkpt>
      <trkpt lat="45.76642" lon="4.64838">
        <ele>522</ele>
        <time>2012-09-22T07:31:16Z</time>
      </trkpt>
      <trkpt lat="45.76642" lon="4.64864">
        <ele>520</ele>
        <time>2012-09-22T07:31:21Z</time>
      </trkpt>
      <trkpt lat="45.76642" lon="4.64875">
        <ele>518</ele>
        <time>2012-09-22T07:31:23Z</time>
      </trkpt>
      <trkpt lat="45.76646" lon="4.64905">
        <ele>515</ele>
        <time>2012-09-22T07:31:28Z</time>
      </trkpt>
      <trkpt lat="45.76648" lon="4.64919">
        <ele>513</ele>
        <time>2012-09-22T07:31:30Z</time>
      </trkpt>
      <trkpt lat="45.76651" lon="4.64952">
        <ele>510</ele>
        <time>2012-09-22T07:31:36Z</time>
      </trkpt>
      <trkpt lat="45.76649" lon="4.64976">
        <ele>507</ele>
        <time>2012-09-22T07:31:41Z</time>
      </trkpt>
      <trkpt lat="45.76649" lon="4.64988">
        <ele>506</ele>
        <time>2012-09-22T07:31:43Z</time>
      </trkpt>
      <trkpt lat="45.76649" lon="4.64994">
        <ele>505</ele>
        <time>2012-09-22T07:31:44Z</time>
      </trkpt>
      <trkpt lat="45.76652" lon="4.65019">
        <ele>504</ele>
        <time>2012-09-22T07:31:48Z</time>
      </trkpt>
      <trkpt lat="45.76658" lon="4.65053">
        <ele>502</ele>
        <time>2012-09-22T07:31:54Z</time>
      </trkpt>
      <trkpt lat="45.76659" lon="4.65066">
        <ele>501</ele>
        <time>2012-09-22T07:31:56Z</time>
      </trkpt>
      <trkpt lat="45.76659" lon="4.65074">
        <ele>501</ele>
        <time>2012-09-22T07:31:57Z</time>
      </trkpt>
      <trkpt lat="45.76659" lon="4.65082">
        <ele>500</ele>
        <time>2012-09-22T07:31:58Z</time>
      </trkpt>
      <trkpt lat="45.7666" lon="4.65091">
        <ele>500</ele>
        <time>2012-09-22T07:31:59Z</time>
      </trkpt>
      <trkpt lat="45.7666" lon="4.65098">
        <ele>499</ele>
        <time>2012-09-22T07:32:00Z</time>
      </trkpt>
      <trkpt lat="45.7666" lon="4.65104">
        <ele>498</ele>
        <time>2012-09-22T07:32:01Z</time>
      </trkpt>
      <trkpt lat="45.76659" lon="4.65107">
        <ele>498</ele>
        <time>2012-09-22T07:32:02Z</time>
      </trkpt>
      <trkpt lat="45.76656" lon="4.65108">
        <ele>497</ele>
        <time>2012-09-22T07:32:03Z</time>
      </trkpt>
      <trkpt lat="45.76652" lon="4.65109">
        <ele>498</ele>
        <time>2012-09-22T07:32:04Z</time>
      </trkpt>
      <trkpt lat="45.76643" lon="4.65111">
        <ele>497</ele>
        <time>2012-09-22T07:32:06Z</time>
      </trkpt>
      <trkpt lat="45.76638" lon="4.65112">
        <ele>496</ele>
        <time>2012-09-22T07:32:07Z</time>
      </trkpt>
      <trkpt lat="45.76608" lon="4.65114">
        <ele>492</ele>
        <time>2012-09-22T07:32:12Z</time>
      </trkpt>
      <trkpt lat="45.76596" lon="4.65114">
        <ele>490</ele>
        <time>2012-09-22T07:32:14Z</time>
      </trkpt>
      <trkpt lat="45.7659" lon="4.65116">
        <ele>489</ele>
        <time>2012-09-22T07:32:15Z</time>
      </trkpt>
      <trkpt lat="45.76584" lon="4.65119">
        <ele>488</ele>
        <time>2012-09-22T07:32:16Z</time>
      </trkpt>
      <trkpt lat="45.76567" lon="4.6513">
        <ele>485</ele>
        <time>2012-09-22T07:32:18Z</time>
      </trkpt>
      <trkpt lat="45.76546" lon="4.65143">
        <ele>481</ele>
        <time>2012-09-22T07:32:20Z</time>
      </trkpt>
      <trkpt lat="45.7651" lon="4.65164">
        <ele>477</ele>
        <time>2012-09-22T07:32:23Z</time>
      </trkpt>
      <trkpt lat="45.7647" lon="4.65188">
        <ele>472</ele>
        <time>2012-09-22T07:32:26Z</time>
      </trkpt>
      <trkpt lat="45.76443" lon="4.65199">
        <ele>466</ele>
        <time>2012-09-22T07:32:28Z</time>
      </trkpt>
      <trkpt lat="45.76431" lon="4.65204">
        <ele>463</ele>
        <time>2012-09-22T07:32:29Z</time>
      </trkpt>
      <trkpt lat="45.76407" lon="4.65211">
        <ele>459</ele>
        <time>2012-09-22T07:32:31Z</time>
      </trkpt>
      <trkpt lat="45.76387" lon="4.65217">
        <ele>454</ele>
        <time>2012-09-22T07:32:33Z</time>
      </trkpt>
      <trkpt lat="45.76372" lon="4.65226">
        <ele>451</ele>
        <time>2012-09-22T07:32:35Z</time>
      </trkpt>
      <trkpt lat="45.76352" lon="4.65245">
        <ele>448</ele>
        <time>2012-09-22T07:32:38Z</time>
      </trkpt>
      <trkpt lat="45.76346" lon="4.6525">
        <ele>448</ele>
        <time>2012-09-22T07:32:39Z</time>
      </trkpt>
      <trkpt lat="45.76325" lon="4.65278">
        <ele>445</ele>
        <time>2012-09-22T07:32:43Z</time>
      </trkpt>
      <trkpt lat="45.7632" lon="4.65287">
        <ele>445</ele>
        <time>2012-09-22T07:32:44Z</time>
      </trkpt>
      <trkpt lat="45.76316" lon="4.65296">
        <ele>445</ele>
        <time>2012-09-22T07:32:45Z</time>
      </trkpt>
      <trkpt lat="45.76307" lon="4.65321">
        <ele>443</ele>
        <time>2012-09-22T07:32:48Z</time>
      </trkpt>
      <trkpt lat="45.76301" lon="4.65333">
        <ele>443</ele>
        <time>2012-09-22T07:32:50Z</time>
      </trkpt>
      <trkpt lat="45.76297" lon="4.65338">
        <ele>442</ele>
        <time>2012-09-22T07:32:51Z</time>
      </trkpt>
      <trkpt lat="45.76294" lon="4.65342">
        <ele>443</ele>
        <time>2012-09-22T07:32:52Z</time>
      </trkpt>
      <trkpt lat="45.76291" lon="4.65345">
        <ele>443</ele>
        <time>2012-09-22T07:32:53Z</time>
      </trkpt>
      <trkpt lat="45.76289" lon="4.65348">
        <ele>443</ele>
        <time>2012-09-22T07:32:54Z</time>
      </trkpt>
      <trkpt lat="45.76287" lon="4.6535">
        <ele>443</ele>
        <time>2012-09-22T07:32:55Z</time>
      </trkpt>
      <trkpt lat="45.76285" lon="4.65353">
        <ele>443</ele>
        <time>2012-09-22T07:32:56Z</time>
      </trkpt>
      <trkpt lat="45.76275" lon="4.65371">
        <ele>444</ele>
        <time>2012-09-22T07:33:03Z</time>
      </trkpt>
      <trkpt lat="45.76264" lon="4.65396">
        <ele>445</ele>
        <time>2012-09-22T07:33:11Z</time>
      </trkpt>
      <trkpt lat="45.7625" lon="4.65414">
        <ele>446</ele>
        <time>2012-09-22T07:33:19Z</time>
      </trkpt>
      <trkpt lat="45.76235" lon="4.65423">
        <ele>444</ele>
        <time>2012-09-22T07:33:26Z</time>
      </trkpt>
      <trkpt lat="45.76233" lon="4.65424">
        <ele>444</ele>
        <time>2012-09-22T07:33:27Z</time>
      </trkpt>
      <trkpt lat="45.76212" lon="4.6543">
        <ele>443</ele>
        <time>2012-09-22T07:33:33Z</time>
      </trkpt>
      <trkpt lat="45.76183" lon="4.65447">
        <ele>440</ele>
        <time>2012-09-22T07:33:41Z</time>
      </trkpt>
      <trkpt lat="45.76179" lon="4.65451">
        <ele>440</ele>
        <time>2012-09-22T07:33:42Z</time>
      </trkpt>
      <trkpt lat="45.76164" lon="4.65471">
        <ele>439</ele>
        <time>2012-09-22T07:33:47Z</time>
      </trkpt>
      <trkpt lat="45.76152" lon="4.65502">
        <ele>438</ele>
        <time>2012-09-22T07:33:53Z</time>
      </trkpt>
      <trkpt lat="45.76149" lon="4.65504">
        <ele>438</ele>
        <time>2012-09-22T07:33:54Z</time>
      </trkpt>
      <trkpt lat="45.76146" lon="4.65504">
        <ele>438</ele>
        <time>2012-09-22T07:33:55Z</time>
      </trkpt>
      <trkpt lat="45.76142" lon="4.65503">
        <ele>438</ele>
        <time>2012-09-22T07:33:56Z</time>
      </trkpt>
      <trkpt lat="45.76138" lon="4.655">
        <ele>437</ele>
        <time>2012-09-22T07:33:57Z</time>
      </trkpt>
      <trkpt lat="45.76134" lon="4.65496">
        <ele>436</ele>
        <time>2012-09-22T07:33:58Z</time>
      </trkpt>
      <trkpt lat="45.76113" lon="4.65474">
        <ele>432</ele>
        <time>2012-09-22T07:34:03Z</time>
      </trkpt>
      <trkpt lat="45.76099" lon="4.6546">
        <ele>430</ele>
        <time>2012-09-22T07:34:06Z</time>
      </trkpt>
      <trkpt lat="45.76093" lon="4.65454">
        <ele>429</ele>
        <time>2012-09-22T07:34:07Z</time>
      </trkpt>
      <trkpt lat="45.76087" lon="4.65447">
        <ele>428</ele>
        <time>2012-09-22T07:34:08Z</time>
      </trkpt>
      <trkpt lat="45.76081" lon="4.6544">
        <ele>427</ele>
        <time>2012-09-22T07:34:09Z</time>
      </trkpt>
      <trkpt lat="45.76076" lon="4.65434">
        <ele>426</ele>
        <time>2012-09-22T07:34:10Z</time>
      </trkpt>
      <trkpt lat="45.7607" lon="4.65427">
        <ele>425</ele>
        <time>2012-09-22T07:34:11Z</time>
      </trkpt>
      <trkpt lat="45.76065" lon="4.65422">
        <ele>424</ele>
        <time>2012-09-22T07:34:12Z</time>
      </trkpt>
      <trkpt lat="45.76061" lon="4.65421">
        <ele>423</ele>
        <time>2012-09-22T07:34:13Z</time>
      </trkpt>
      <trkpt lat="45.76057" lon="4.65421">
        <ele>423</ele>
        <time>2012-09-22T07:34:14Z</time>
      </trkpt>
      <trkpt lat="45.76054" lon="4.65423">
        <ele>423</ele>
        <time>2012-09-22T07:34:15Z</time>
      </trkpt>
      <trkpt lat="45.76052" lon="4.65426">
        <ele>423</ele>
        <time>2012-09-22T07:34:16Z</time>
      </trkpt>
      <trkpt lat="45.7605" lon="4.65429">
        <ele>423</ele>
        <time>2012-09-22T07:34:17Z</time>
      </trkpt>
      <trkpt lat="45.76049" lon="4.65433">
        <ele>424</ele>
        <time>2012-09-22T07:34:18Z</time>
      </trkpt>
      <trkpt lat="45.76048" lon="4.65437">
        <ele>423</ele>
        <time>2012-09-22T07:34:19Z</time>
      </trkpt>
      <trkpt lat="45.76047" lon="4.65442">
        <ele>423</ele>
        <time>2012-09-22T07:34:20Z</time>
      </trkpt>
      <trkpt lat="45.76047" lon="4.65445">
        <ele>422</ele>
        <time>2012-09-22T07:34:21Z</time>
      </trkpt>
      <trkpt lat="45.76047" lon="4.65449">
        <ele>424</ele>
        <time>2012-09-22T07:34:22Z</time>
      </trkpt>
      <trkpt lat="45.76043" lon="4.65471">
        <ele>425</ele>
        <time>2012-09-22T07:34:29Z</time>
      </trkpt>
      <trkpt lat="45.76042" lon="4.65489">
        <ele>425</ele>
        <time>2012-09-22T07:34:35Z</time>
      </trkpt>
      <trkpt lat="45.76038" lon="4.65516">
        <ele>426</ele>
        <time>2012-09-22T07:34:43Z</time>
      </trkpt>
      <trkpt lat="45.76033" lon="4.65543">
        <ele>426</ele>
        <time>2012-09-22T07:34:50Z</time>
      </trkpt>
      <trkpt lat="45.76026" lon="4.65573">
        <ele>426</ele>
        <time>2012-09-22T07:34:58Z</time>
      </trkpt>
      <trkpt lat="45.76017" lon="4.65603">
        <ele>427</ele>
        <time>2012-09-22T07:35:06Z</time>
      </trkpt>
      <trkpt lat="45.76009" lon="4.6563">
        <ele>427</ele>
        <time>2012-09-22T07:35:13Z</time>
      </trkpt>
      <trkpt lat="45.75996" lon="4.65669">
        <ele>427</ele>
        <time>2012-09-22T07:35:23Z</time>
      </trkpt>
      <trkpt lat="45.75982" lon="4.65692">
        <ele>427</ele>
        <time>2012-09-22T07:35:30Z</time>
      </trkpt>
      <trkpt lat="45.75965" lon="4.65715">
        <ele>427</ele>
        <time>2012-09-22T07:35:38Z</time>
      </trkpt>
      <trkpt lat="45.75939" lon="4.65736">
        <ele>426</ele>
        <time>2012-09-22T07:35:48Z</time>
      </trkpt>
      <trkpt lat="45.75908" lon="4.65746">
        <ele>425</ele>
        <time>2012-09-22T07:35:57Z</time>
      </trkpt>
      <trkpt lat="45.75904" lon="4.65747">
        <ele>425</ele>
        <time>2012-09-22T07:35:58Z</time>
      </trkpt>
      <trkpt lat="45.75892" lon="4.65749">
        <ele>425</ele>
        <time>2012-09-22T07:36:01Z</time>
      </trkpt>
      <trkpt lat="45.75887" lon="4.6575">
        <ele>424</ele>
        <time>2012-09-22T07:36:02Z</time>
      </trkpt>
      <trkpt lat="45.75878" lon="4.65749">
        <ele>424</ele>
        <time>2012-09-22T07:36:04Z</time>
      </trkpt>
      <trkpt lat="45.75859" lon="4.65748">
        <ele>423</ele>
        <time>2012-09-22T07:36:08Z</time>
      </trkpt>
      <trkpt lat="45.75854" lon="4.65748">
        <ele>423</ele>
        <time>2012-09-22T07:36:09Z</time>
      </trkpt>
      <trkpt lat="45.7585" lon="4.65747">
        <ele>422</ele>
        <time>2012-09-22T07:36:10Z</time>
      </trkpt>
      <trkpt lat="45.75845" lon="4.65746">
        <ele>422</ele>
        <time>2012-09-22T07:36:11Z</time>
      </trkpt>
      <trkpt lat="45.75841" lon="4.65745">
        <ele>422</ele>
        <time>2012-09-22T07:36:12Z</time>
      </trkpt>
      <trkpt lat="45.75837" lon="4.65745">
        <ele>422</ele>
        <time>2012-09-22T07:36:13Z</time>
      </trkpt>
      <trkpt lat="45.75833" lon="4.65746">
        <ele>422</ele>
        <time>2012-09-22T07:36:14Z</time>
      </trkpt>
      <trkpt lat="45.75816" lon="4.65749">
        <ele>422</ele>
        <time>2012-09-22T07:36:19Z</time>
      </trkpt>
      <trkpt lat="45.75797" lon="4.65756">
        <ele>422</ele>
        <time>2012-09-22T07:36:26Z</time>
      </trkpt>
      <trkpt lat="45.75778" lon="4.65762">
        <ele>423</ele>
        <time>2012-09-22T07:36:33Z</time>
      </trkpt>
      <trkpt lat="45.75756" lon="4.65774">
        <ele>422</ele>
        <time>2012-09-22T07:36:40Z</time>
      </trkpt>
      <trkpt lat="45.75738" lon="4.65784">
        <ele>422</ele>
        <time>2012-09-22T07:36:47Z</time>
      </trkpt>
      <trkpt lat="45.75729" lon="4.65777">
        <ele>422</ele>
        <time>2012-09-22T07:36:51Z</time>
      </trkpt>
      <trkpt lat="45.75729" lon="4.65774">
        <ele>422</ele>
        <time>2012-09-22T07:36:52Z</time>
      </trkpt>
      <trkpt lat="45.75729" lon="4.65771">
        <ele>422</ele>
        <time>2012-09-22T07:36:53Z</time>
      </trkpt>
      <trkpt lat="45.75737" lon="4.65743">
        <ele>425</ele>
        <time>2012-09-22T07:37:03Z</time>
      </trkpt>
      <trkpt lat="45.75742" lon="4.65721">
        <ele>426</ele>
        <time>2012-09-22T07:37:12Z</time>
      </trkpt>
      <trkpt lat="45.75747" lon="4.65699">
        <ele>428</ele>
        <time>2012-09-22T07:37:22Z</time>
      </trkpt>
      <trkpt lat="45.75752" lon="4.65679">
        <ele>430</ele>
        <time>2012-09-22T07:37:31Z</time>
      </trkpt>
      <trkpt lat="45.75752" lon="4.65675">
        <ele>430</ele>
        <time>2012-09-22T07:37:33Z</time>
      </trkpt>
      <trkpt lat="45.75753" lon="4.65674">
        <ele>431</ele>
        <time>2012-09-22T07:37:34Z</time>
      </trkpt>
      <trkpt lat="45.75759" lon="4.65653">
        <ele>433</ele>
        <time>2012-09-22T07:37:44Z</time>
      </trkpt>
      <trkpt lat="45.75761" lon="4.65631">
        <ele>434</ele>
        <time>2012-09-22T07:37:54Z</time>
      </trkpt>
      <trkpt lat="45.75761" lon="4.65629">
        <ele>435</ele>
        <time>2012-09-22T07:37:55Z</time>
      </trkpt>
      <trkpt lat="45.75761" lon="4.65627">
        <ele>435</ele>
        <time>2012-09-22T07:37:56Z</time>
      </trkpt>
      <trkpt lat="45.75761" lon="4.65626">
        <ele>436</ele>
        <time>2012-09-22T07:37:57Z</time>
      </trkpt>
      <trkpt lat="45.75761" lon="4.65624">
        <ele>436</ele>
        <time>2012-09-22T07:37:58Z</time>
      </trkpt>
      <trkpt lat="45.75762" lon="4.65622">
        <ele>436</ele>
        <time>2012-09-22T07:37:59Z</time>
      </trkpt>
      <trkpt lat="45.75761" lon="4.6562">
        <ele>436</ele>
        <time>2012-09-22T07:38:00Z</time>
      </trkpt>
      <trkpt lat="45.75761" lon="4.65618">
        <ele>437</ele>
        <time>2012-09-22T07:38:01Z</time>
      </trkpt>
      <trkpt lat="45.75761" lon="4.65615">
        <ele>437</ele>
        <time>2012-09-22T07:38:03Z</time>
      </trkpt>
      <trkpt lat="45.75761" lon="4.65613">
        <ele>437</ele>
        <time>2012-09-22T07:38:04Z</time>
      </trkpt>
      <trkpt lat="45.75761" lon="4.65612">
        <ele>437</ele>
        <time>2012-09-22T07:38:05Z</time>
      </trkpt>
      <trkpt lat="45.7576" lon="4.6561">
        <ele>437</ele>
        <time>2012-09-22T07:38:06Z</time>
      </trkpt>
      <trkpt lat="45.7576" lon="4.65608">
        <ele>438</ele>
        <time>2012-09-22T07:38:07Z</time>
      </trkpt>
      <trkpt lat="45.7576" lon="4.65607">
        <ele>438</ele>
        <time>2012-09-22T07:38:08Z</time>
      </trkpt>
      <trkpt lat="45.7576" lon="4.65605">
        <ele>438</ele>
        <time>2012-09-22T07:38:09Z</time>
      </trkpt>
      <trkpt lat="45.7576" lon="4.65604">
        <ele>438</ele>
        <time>2012-09-22T07:38:10Z</time>
      </trkpt>
      <trkpt lat="45.7576" lon="4.65602">
        <ele>438</ele>
        <time>2012-09-22T07:38:11Z</time>
      </trkpt>
      <trkpt lat="45.7576" lon="4.656">
        <ele>438</ele>
        <time>2012-09-22T07:38:12Z</time>
      </trkpt>
      <trkpt lat="45.7576" lon="4.65598">
        <ele>439</ele>
        <time>2012-09-22T07:38:13Z</time>
      </trkpt>
      <trkpt lat="45.7576" lon="4.65579">
        <ele>441</ele>
        <time>2012-09-22T07:38:24Z</time>
      </trkpt>
      <trkpt lat="45.7576" lon="4.65567">
        <ele>443</ele>
        <time>2012-09-22T07:38:31Z</time>
      </trkpt>
      <trkpt lat="45.7576" lon="4.65566">
        <ele>443</ele>
        <time>2012-09-22T07:38:32Z</time>
      </trkpt>
      <trkpt lat="45.75761" lon="4.6555">
        <ele>446</ele>
        <time>2012-09-22T07:38:42Z</time>
      </trkpt>
      <trkpt lat="45.75761" lon="4.65534">
        <ele>448</ele>
        <time>2012-09-22T07:38:52Z</time>
      </trkpt>
      <trkpt lat="45.75763" lon="4.65515">
        <ele>451</ele>
        <time>2012-09-22T07:39:03Z</time>
      </trkpt>
      <trkpt lat="45.75763" lon="4.65501">
        <ele>452</ele>
        <time>2012-09-22T07:39:11Z</time>
      </trkpt>
      <trkpt lat="45.75764" lon="4.65486">
        <ele>454</ele>
        <time>2012-09-22T07:39:21Z</time>
      </trkpt>
      <trkpt lat="45.75764" lon="4.65473">
        <ele>456</ele>
        <time>2012-09-22T07:39:29Z</time>
      </trkpt>
      <trkpt lat="45.75764" lon="4.65472">
        <ele>456</ele>
        <time>2012-09-22T07:39:30Z</time>
      </trkpt>
      <trkpt lat="45.75764" lon="4.6547">
        <ele>456</ele>
        <time>2012-09-22T07:39:31Z</time>
      </trkpt>
      <trkpt lat="45.75765" lon="4.65453">
        <ele>459</ele>
        <time>2012-09-22T07:39:42Z</time>
      </trkpt>
      <trkpt lat="45.75766" lon="4.65442">
        <ele>460</ele>
        <time>2012-09-22T07:39:50Z</time>
      </trkpt>
      <trkpt lat="45.75766" lon="4.6544">
        <ele>460</ele>
        <time>2012-09-22T07:39:51Z</time>
      </trkpt>
      <trkpt lat="45.75766" lon="4.65439">
        <ele>460</ele>
        <time>2012-09-22T07:39:52Z</time>
      </trkpt>
      <trkpt lat="45.75766" lon="4.65437">
        <ele>461</ele>
        <time>2012-09-22T07:39:53Z</time>
      </trkpt>
      <trkpt lat="45.75766" lon="4.65422">
        <ele>462</ele>
        <time>2012-09-22T07:40:03Z</time>
      </trkpt>
      <trkpt lat="45.75767" lon="4.65404">
        <ele>463</ele>
        <time>2012-09-22T07:40:14Z</time>
      </trkpt>
      <trkpt lat="45.75766" lon="4.65391">
        <ele>465</ele>
        <time>2012-09-22T07:40:23Z</time>
      </trkpt>
      <trkpt lat="45.75765" lon="4.65383">
        <ele>466</ele>
        <time>2012-09-22T07:40:28Z</time>
      </trkpt>
      <trkpt lat="45.75764" lon="4.65367">
        <ele>466</ele>
        <time>2012-09-22T07:40:37Z</time>
      </trkpt>
      <trkpt lat="45.75763" lon="4.65349">
        <ele>469</ele>
        <time>2012-09-22T07:40:47Z</time>
      </trkpt>
      <trkpt lat="45.75761" lon="4.65338">
        <ele>469</ele>
        <time>2012-09-22T07:40:54Z</time>
      </trkpt>
      <trkpt lat="45.7576" lon="4.65336">
        <ele>470</ele>
        <time>2012-09-22T07:40:55Z</time>
      </trkpt>
      <trkpt lat="45.7576" lon="4.65335">
        <ele>470</ele>
        <time>2012-09-22T07:40:56Z</time>
      </trkpt>
      <trkpt lat="45.75759" lon="4.65333">
        <ele>470</ele>
        <time>2012-09-22T07:40:57Z</time>
      </trkpt>
      <trkpt lat="45.75759" lon="4.65331">
        <ele>471</ele>
        <time>2012-09-22T07:40:58Z</time>
      </trkpt>
      <trkpt lat="45.75758" lon="4.65327">
        <ele>471</ele>
        <time>2012-09-22T07:41:01Z</time>
      </trkpt>
      <trkpt lat="45.75757" lon="4.65325">
        <ele>471</ele>
        <time>2012-09-22T07:41:02Z</time>
      </trkpt>
      <trkpt lat="45.75753" lon="4.65309">
        <ele>473</ele>
        <time>2012-09-22T07:41:12Z</time>
      </trkpt>
      <trkpt lat="45.75747" lon="4.65286">
        <ele>474</ele>
        <time>2012-09-22T07:41:25Z</time>
      </trkpt>
      <trkpt lat="45.75743" lon="4.65269">
        <ele>475</ele>
        <time>2012-09-22T07:41:35Z</time>
      </trkpt>
      <trkpt lat="45.7574" lon="4.65255">
        <ele>476</ele>
        <time>2012-09-22T07:41:43Z</time>
      </trkpt>
      <trkpt lat="45.7574" lon="4.65253">
        <ele>476</ele>
        <time>2012-09-22T07:41:44Z</time>
      </trkpt>
      <trkpt lat="45.75735" lon="4.65235">
        <ele>478</ele>
        <time>2012-09-22T07:41:54Z</time>
      </trkpt>
      <trkpt lat="45.75731" lon="4.65215">
        <ele>480</ele>
        <time>2012-09-22T07:42:06Z</time>
      </trkpt>
      <trkpt lat="45.75731" lon="4.65193">
        <ele>482</ele>
        <time>2012-09-22T07:42:16Z</time>
      </trkpt>
      <trkpt lat="45.75732" lon="4.65178">
        <ele>482</ele>
        <time>2012-09-22T07:42:23Z</time>
      </trkpt>
      <trkpt lat="45.75736" lon="4.65149">
        <ele>483</ele>
        <time>2012-09-22T07:42:34Z</time>
      </trkpt>
      <trkpt lat="45.75742" lon="4.65132">
        <ele>482</ele>
        <time>2012-09-22T07:42:41Z</time>
      </trkpt>
      <trkpt lat="45.75747" lon="4.651">
        <ele>483</ele>
        <time>2012-09-22T07:42:50Z</time>
      </trkpt>
      <trkpt lat="45.75752" lon="4.65064">
        <ele>483</ele>
        <time>2012-09-22T07:43:00Z</time>
      </trkpt>
      <trkpt lat="45.75752" lon="4.65054">
        <ele>483</ele>
        <time>2012-09-22T07:43:04Z</time>
      </trkpt>
      <trkpt lat="45.75751" lon="4.65052">
        <ele>483</ele>
        <time>2012-09-22T07:43:05Z</time>
      </trkpt>
      <trkpt lat="45.75736" lon="4.65038">
        <ele>482</ele>
        <time>2012-09-22T07:43:12Z</time>
      </trkpt>
      <trkpt lat="45.75717" lon="4.65022">
        <ele>481</ele>
        <time>2012-09-22T07:43:20Z</time>
      </trkpt>
      <trkpt lat="45.75697" lon="4.65003">
        <ele>480</ele>
        <time>2012-09-22T07:43:27Z</time>
      </trkpt>
      <trkpt lat="45.75671" lon="4.64972">
        <ele>479</ele>
        <time>2012-09-22T07:43:36Z</time>
      </trkpt>
      <trkpt lat="45.75644" lon="4.64942">
        <ele>477</ele>
        <time>2012-09-22T07:43:45Z</time>
      </trkpt>
      <trkpt lat="45.75627" lon="4.64921">
        <ele>476</ele>
        <time>2012-09-22T07:43:52Z</time>
      </trkpt>
      <trkpt lat="45.75607" lon="4.64894">
        <ele>475</ele>
        <time>2012-09-22T07:44:00Z</time>
      </trkpt>
      <trkpt lat="45.75594" lon="4.64877">
        <ele>475</ele>
        <time>2012-09-22T07:44:05Z</time>
      </trkpt>
      <trkpt lat="45.75572" lon="4.64845">
        <ele>474</ele>
        <time>2012-09-22T07:44:14Z</time>
      </trkpt>
      <trkpt lat="45.75552" lon="4.64813">
        <ele>472</ele>
        <time>2012-09-22T07:44:23Z</time>
      </trkpt>
      <trkpt lat="45.75531" lon="4.64788">
        <ele>471</ele>
        <time>2012-09-22T07:44:31Z</time>
      </trkpt>
      <trkpt lat="45.75527" lon="4.64784">
        <ele>471</ele>
        <time>2012-09-22T07:44:32Z</time>
      </trkpt>
      <trkpt lat="45.75523" lon="4.64781">
        <ele>470</ele>
        <time>2012-09-22T07:44:33Z</time>
      </trkpt>
      <trkpt lat="45.75519" lon="4.64778">
        <ele>470</ele>
        <time>2012-09-22T07:44:34Z</time>
      </trkpt>
      <trkpt lat="45.75516" lon="4.64775">
        <ele>469</ele>
        <time>2012-09-22T07:44:35Z</time>
      </trkpt>
      <trkpt lat="45.75512" lon="4.64772">
        <ele>468</ele>
        <time>2012-09-22T07:44:36Z</time>
      </trkpt>
      <trkpt lat="45.75508" lon="4.64768">
        <ele>468</ele>
        <time>2012-09-22T07:44:37Z</time>
      </trkpt>
      <trkpt lat="45.75481" lon="4.64746">
        <ele>466</ele>
        <time>2012-09-22T07:44:44Z</time>
      </trkpt>
      <trkpt lat="45.75462" lon="4.64738">
        <ele>465</ele>
        <time>2012-09-22T07:44:50Z</time>
      </trkpt>
      <trkpt lat="45.75452" lon="4.64747">
        <ele>466</ele>
        <time>2012-09-22T07:44:55Z</time>
      </trkpt>
      <trkpt lat="45.75443" lon="4.64767">
        <ele>466</ele>
        <time>2012-09-22T07:45:01Z</time>
      </trkpt>
      <trkpt lat="45.75432" lon="4.64785">
        <ele>467</ele>
        <time>2012-09-22T07:45:08Z</time>
      </trkpt>
      <trkpt lat="45.7542" lon="4.64804">
        <ele>468</ele>
        <time>2012-09-22T07:45:16Z</time>
      </trkpt>
      <trkpt lat="45.75418" lon="4.64807">
        <ele>469</ele>
        <time>2012-09-22T07:45:18Z</time>
      </trkpt>
      <trkpt lat="45.75416" lon="4.64808">
        <ele>469</ele>
        <time>2012-09-22T07:45:20Z</time>
      </trkpt>
      <trkpt lat="45.75414" lon="4.64807">
        <ele>469</ele>
        <time>2012-09-22T07:45:21Z</time>
      </trkpt>
      <trkpt lat="45.75406" lon="4.64802">
        <ele>471</ele>
        <time>2012-09-22T07:45:29Z</time>
      </trkpt>
      <trkpt lat="45.75396" lon="4.64795">
        <ele>474</ele>
        <time>2012-09-22T07:45:37Z</time>
      </trkpt>
      <trkpt lat="45.75391" lon="4.64791">
        <ele>475</ele>
        <time>2012-09-22T07:45:43Z</time>
      </trkpt>
      <trkpt lat="45.75385" lon="4.64788">
        <ele>477</ele>
        <time>2012-09-22T07:45:51Z</time>
      </trkpt>
      <trkpt lat="45.75385" lon="4.64786">
        <ele>477</ele>
        <time>2012-09-22T07:45:57Z</time>
      </trkpt>
      <trkpt lat="45.75386" lon="4.64785">
        <ele>477</ele>
        <time>2012-09-22T07:45:58Z</time>
      </trkpt>
      <trkpt lat="45.75387" lon="4.64783">
        <ele>477</ele>
        <time>2012-09-22T07:45:59Z</time>
      </trkpt>
      <trkpt lat="45.75388" lon="4.64781">
        <ele>477</ele>
        <time>2012-09-22T07:46:00Z</time>
      </trkpt>
      <trkpt lat="45.75388" lon="4.64779">
        <ele>478</ele>
        <time>2012-09-22T07:46:01Z</time>
      </trkpt>
      <trkpt lat="45.75389" lon="4.64777">
        <ele>478</ele>
        <time>2012-09-22T07:46:02Z</time>
      </trkpt>
      <trkpt lat="45.7539" lon="4.64769">
        <ele>479</ele>
        <time>2012-09-22T07:46:06Z</time>
      </trkpt>
      <trkpt lat="45.7539" lon="4.64768">
        <ele>479</ele>
        <time>2012-09-22T07:46:07Z</time>
      </trkpt>
      <trkpt lat="45.75389" lon="4.64766">
        <ele>479</ele>
        <time>2012-09-22T07:46:08Z</time>
      </trkpt>
      <trkpt lat="45.75388" lon="4.64762">
        <ele>480</ele>
        <time>2012-09-22T07:46:10Z</time>
      </trkpt>
      <trkpt lat="45.75387" lon="4.64761">
        <ele>480</ele>
        <time>2012-09-22T07:46:11Z</time>
      </trkpt>
      <trkpt lat="45.75386" lon="4.64759">
        <ele>481</ele>
        <time>2012-09-22T07:46:12Z</time>
      </trkpt>
      <trkpt lat="45.75385" lon="4.64757">
        <ele>480</ele>
        <time>2012-09-22T07:46:13Z</time>
      </trkpt>
      <trkpt lat="45.75384" lon="4.64755">
        <ele>480</ele>
        <time>2012-09-22T07:46:14Z</time>
      </trkpt>
      <trkpt lat="45.75374" lon="4.64743">
        <ele>481</ele>
        <time>2012-09-22T07:46:22Z</time>
      </trkpt>
      <trkpt lat="45.75356" lon="4.64727">
        <ele>483</ele>
        <time>2012-09-22T07:46:33Z</time>
      </trkpt>
      <trkpt lat="45.75344" lon="4.64722">
        <ele>484</ele>
        <time>2012-09-22T07:46:40Z</time>
      </trkpt>
      <trkpt lat="45.75323" lon="4.64721">
        <ele>485</ele>
        <time>2012-09-22T07:46:51Z</time>
      </trkpt>
      <trkpt lat="45.75303" lon="4.64726">
        <ele>486</ele>
        <time>2012-09-22T07:47:01Z</time>
      </trkpt>
      <trkpt lat="45.75286" lon="4.64733">
        <ele>486</ele>
        <time>2012-09-22T07:47:09Z</time>
      </trkpt>
      <trkpt lat="45.75264" lon="4.64742">
        <ele>487</ele>
        <time>2012-09-22T07:47:18Z</time>
      </trkpt>
      <trkpt lat="45.75238" lon="4.64756">
        <ele>487</ele>
        <time>2012-09-22T07:47:29Z</time>
      </trkpt>
      <trkpt lat="45.7522" lon="4.64767">
        <ele>488</ele>
        <time>2012-09-22T07:47:37Z</time>
      </trkpt>
      <trkpt lat="45.75203" lon="4.6478">
        <ele>489</ele>
        <time>2012-09-22T07:47:45Z</time>
      </trkpt>
      <trkpt lat="45.75184" lon="4.64792">
        <ele>488</ele>
        <time>2012-09-22T07:47:51Z</time>
      </trkpt>
      <trkpt lat="45.75152" lon="4.648">
        <ele>485</ele>
        <time>2012-09-22T07:47:56Z</time>
      </trkpt>
      <trkpt lat="45.75136" lon="4.64804">
        <ele>484</ele>
        <time>2012-09-22T07:47:58Z</time>
      </trkpt>
      <trkpt lat="45.7513" lon="4.64808">
        <ele>485</ele>
        <time>2012-09-22T07:47:59Z</time>
      </trkpt>
      <trkpt lat="45.75124" lon="4.64815">
        <ele>484</ele>
        <time>2012-09-22T07:48:00Z</time>
      </trkpt>
      <trkpt lat="45.7512" lon="4.64822">
        <ele>484</ele>
        <time>2012-09-22T07:48:01Z</time>
      </trkpt>
      <trkpt lat="45.75117" lon="4.6483">
        <ele>485</ele>
        <time>2012-09-22T07:48:02Z</time>
      </trkpt>
      <trkpt lat="45.75114" lon="4.64837">
        <ele>485</ele>
        <time>2012-09-22T07:48:03Z</time>
      </trkpt>
      <trkpt lat="45.75103" lon="4.64858">
        <ele>486</ele>
        <time>2012-09-22T07:48:08Z</time>
      </trkpt>
      <trkpt lat="45.7509" lon="4.64872">
        <ele>487</ele>
        <time>2012-09-22T07:48:16Z</time>
      </trkpt>
      <trkpt lat="45.75073" lon="4.64877">
        <ele>489</ele>
        <time>2012-09-22T07:48:26Z</time>
      </trkpt>
      <trkpt lat="45.75052" lon="4.64873">
        <ele>492</ele>
        <time>2012-09-22T07:48:37Z</time>
      </trkpt>
      <trkpt lat="45.75032" lon="4.64864">
        <ele>494</ele>
        <time>2012-09-22T07:48:47Z</time>
      </trkpt>
      <trkpt lat="45.75009" lon="4.6486">
        <ele>494</ele>
        <time>2012-09-22T07:48:57Z</time>
      </trkpt>
      <trkpt lat="45.7498" lon="4.64854">
        <ele>493</ele>
        <time>2012-09-22T07:49:07Z</time>
      </trkpt>
      <trkpt lat="45.74944" lon="4.64842">
        <ele>492</ele>
        <time>2012-09-22T07:49:18Z</time>
      </trkpt>
      <trkpt lat="45.74928" lon="4.64818">
        <ele>492</ele>
        <time>2012-09-22T07:49:25Z</time>
      </trkpt>
      <trkpt lat="45.74914" lon="4.64787">
        <ele>491</ele>
        <time>2012-09-22T07:49:32Z</time>
      </trkpt>
      <trkpt lat="45.74905" lon="4.64756">
        <ele>492</ele>
        <time>2012-09-22T07:49:40Z</time>
      </trkpt>
      <trkpt lat="45.7489" lon="4.64748">
        <ele>494</ele>
        <time>2012-09-22T07:49:47Z</time>
      </trkpt>
      <trkpt lat="45.74872" lon="4.64749">
        <ele>496</ele>
        <time>2012-09-22T07:49:55Z</time>
      </trkpt>
      <trkpt lat="45.74855" lon="4.64759">
        <ele>498</ele>
        <time>2012-09-22T07:50:04Z</time>
      </trkpt>
      <trkpt lat="45.74841" lon="4.64773">
        <ele>499</ele>
        <time>2012-09-22T07:50:13Z</time>
      </trkpt>
      <trkpt lat="45.74828" lon="4.64788">
        <ele>500</ele>
        <time>2012-09-22T07:50:21Z</time>
      </trkpt>
      <trkpt lat="45.74817" lon="4.64803">
        <ele>501</ele>
        <time>2012-09-22T07:50:28Z</time>
      </trkpt>
      <trkpt lat="45.74803" lon="4.64813">
        <ele>502</ele>
        <time>2012-09-22T07:50:36Z</time>
      </trkpt>
      <trkpt lat="45.74796" lon="4.64825">
        <ele>504</ele>
        <time>2012-09-22T07:50:42Z</time>
      </trkpt>
      <trkpt lat="45.74795" lon="4.64831">
        <ele>504</ele>
        <time>2012-09-22T07:50:44Z</time>
      </trkpt>
      <trkpt lat="45.74792" lon="4.64855">
        <ele>507</ele>
        <time>2012-09-22T07:50:53Z</time>
      </trkpt>
      <trkpt lat="45.7479" lon="4.64857">
        <ele>507</ele>
        <time>2012-09-22T07:50:54Z</time>
      </trkpt>
      <trkpt lat="45.74788" lon="4.64858">
        <ele>507</ele>
        <time>2012-09-22T07:50:55Z</time>
      </trkpt>
      <trkpt lat="45.74786" lon="4.6486">
        <ele>508</ele>
        <time>2012-09-22T07:50:56Z</time>
      </trkpt>
      <trkpt lat="45.74771" lon="4.64865">
        <ele>509</ele>
        <time>2012-09-22T07:51:03Z</time>
      </trkpt>
      <trkpt lat="45.74757" lon="4.64875">
        <ele>510</ele>
        <time>2012-09-22T07:51:12Z</time>
      </trkpt>
      <trkpt lat="45.74756" lon="4.64882">
        <ele>510</ele>
        <time>2012-09-22T07:51:15Z</time>
      </trkpt>
      <trkpt lat="45.74755" lon="4.649">
        <ele>512</ele>
        <time>2012-09-22T07:51:22Z</time>
      </trkpt>
      <trkpt lat="45.74754" lon="4.64914">
        <ele>512</ele>
        <time>2012-09-22T07:51:28Z</time>
      </trkpt>
      <trkpt lat="45.74754" lon="4.64917">
        <ele>512</ele>
        <time>2012-09-22T07:51:29Z</time>
      </trkpt>
      <trkpt lat="45.74755" lon="4.64919">
        <ele>513</ele>
        <time>2012-09-22T07:51:30Z</time>
      </trkpt>
      <trkpt lat="45.74755" lon="4.64922">
        <ele>513</ele>
        <time>2012-09-22T07:51:31Z</time>
      </trkpt>
      <trkpt lat="45.74755" lon="4.64925">
        <ele>513</ele>
        <time>2012-09-22T07:51:32Z</time>
      </trkpt>
      <trkpt lat="45.74754" lon="4.64928">
        <ele>513</ele>
        <time>2012-09-22T07:51:33Z</time>
      </trkpt>
      <trkpt lat="45.74754" lon="4.64931">
        <ele>512</ele>
        <time>2012-09-22T07:51:34Z</time>
      </trkpt>
      <trkpt lat="45.74754" lon="4.64933">
        <ele>513</ele>
        <time>2012-09-22T07:51:35Z</time>
      </trkpt>
      <trkpt lat="45.74753" lon="4.64936">
        <ele>513</ele>
        <time>2012-09-22T07:51:36Z</time>
      </trkpt>
      <trkpt lat="45.74753" lon="4.64939">
        <ele>513</ele>
        <time>2012-09-22T07:51:37Z</time>
      </trkpt>
      <trkpt lat="45.74753" lon="4.64941">
        <ele>513</ele>
        <time>2012-09-22T07:51:38Z</time>
      </trkpt>
      <trkpt lat="45.74752" lon="4.64944">
        <ele>513</ele>
        <time>2012-09-22T07:51:39Z</time>
      </trkpt>
      <trkpt lat="45.74751" lon="4.64948">
        <ele>513</ele>
        <time>2012-09-22T07:51:40Z</time>
      </trkpt>
      <trkpt lat="45.7475" lon="4.64952">
        <ele>513</ele>
        <time>2012-09-22T07:51:41Z</time>
      </trkpt>
      <trkpt lat="45.74741" lon="4.64977">
        <ele>512</ele>
        <time>2012-09-22T07:51:46Z</time>
      </trkpt>
      <trkpt lat="45.7473" lon="4.65002">
        <ele>513</ele>
        <time>2012-09-22T07:51:54Z</time>
      </trkpt>
      <trkpt lat="45.74712" lon="4.65037">
        <ele>513</ele>
        <time>2012-09-22T07:52:05Z</time>
      </trkpt>
      <trkpt lat="45.747" lon="4.65065">
        <ele>513</ele>
        <time>2012-09-22T07:52:13Z</time>
      </trkpt>
      <trkpt lat="45.74686" lon="4.65102">
        <ele>514</ele>
        <time>2012-09-22T07:52:22Z</time>
      </trkpt>
      <trkpt lat="45.74667" lon="4.65136">
        <ele>513</ele>
        <time>2012-09-22T07:52:31Z</time>
      </trkpt>
      <trkpt lat="45.7465" lon="4.65139">
        <ele>515</ele>
        <time>2012-09-22T07:52:37Z</time>
      </trkpt>
      <trkpt lat="45.74627" lon="4.65137">
        <ele>516</ele>
        <time>2012-09-22T07:52:46Z</time>
      </trkpt>
      <trkpt lat="45.74623" lon="4.65136">
        <ele>516</ele>
        <time>2012-09-22T07:52:48Z</time>
      </trkpt>
      <trkpt lat="45.74622" lon="4.65134">
        <ele>516</ele>
        <time>2012-09-22T07:52:49Z</time>
      </trkpt>
      <trkpt lat="45.74621" lon="4.65132">
        <ele>516</ele>
        <time>2012-09-22T07:52:50Z</time>
      </trkpt>
      <trkpt lat="45.7462" lon="4.6513">
        <ele>516</ele>
        <time>2012-09-22T07:52:51Z</time>
      </trkpt>
      <trkpt lat="45.7462" lon="4.65128">
        <ele>516</ele>
        <time>2012-09-22T07:52:52Z</time>
      </trkpt>
      <trkpt lat="45.74621" lon="4.65125">
        <ele>516</ele>
        <time>2012-09-22T07:52:53Z</time>
      </trkpt>
      <trkpt lat="45.74621" lon="4.65122">
        <ele>517</ele>
        <time>2012-09-22T07:52:54Z</time>
      </trkpt>
      <trkpt lat="45.74621" lon="4.6512">
        <ele>517</ele>
        <time>2012-09-22T07:52:55Z</time>
      </trkpt>
      <trkpt lat="45.74624" lon="4.65088">
        <ele>519</ele>
        <time>2012-09-22T07:53:06Z</time>
      </trkpt>
      <trkpt lat="45.74627" lon="4.65055">
        <ele>520</ele>
        <time>2012-09-22T07:53:16Z</time>
      </trkpt>
      <trkpt lat="45.7463" lon="4.65023">
        <ele>521</ele>
        <time>2012-09-22T07:53:26Z</time>
      </trkpt>
      <trkpt lat="45.74634" lon="4.64999">
        <ele>522</ele>
        <time>2012-09-22T07:53:34Z</time>
      </trkpt>
      <trkpt lat="45.74638" lon="4.6498">
        <ele>524</ele>
        <time>2012-09-22T07:53:41Z</time>
      </trkpt>
      <trkpt lat="45.74645" lon="4.64955">
        <ele>525</ele>
        <time>2012-09-22T07:53:50Z</time>
      </trkpt>
      <trkpt lat="45.74653" lon="4.64931">
        <ele>527</ele>
        <time>2012-09-22T07:53:59Z</time>
      </trkpt>
      <trkpt lat="45.74663" lon="4.64901">
        <ele>527</ele>
        <time>2012-09-22T07:54:10Z</time>
      </trkpt>
      <trkpt lat="45.74671" lon="4.64873">
        <ele>529</ele>
        <time>2012-09-22T07:54:20Z</time>
      </trkpt>
      <trkpt lat="45.74676" lon="4.64843">
        <ele>531</ele>
        <time>2012-09-22T07:54:30Z</time>
      </trkpt>
      <trkpt lat="45.74676" lon="4.64822">
        <ele>533</ele>
        <time>2012-09-22T07:54:38Z</time>
      </trkpt>
      <trkpt lat="45.74671" lon="4.64812">
        <ele>535</ele>
        <time>2012-09-22T07:54:43Z</time>
      </trkpt>
      <trkpt lat="45.74658" lon="4.64801">
        <ele>536</ele>
        <time>2012-09-22T07:54:51Z</time>
      </trkpt>
      <trkpt lat="45.74646" lon="4.64792">
        <ele>538</ele>
        <time>2012-09-22T07:54:59Z</time>
      </trkpt>
      <trkpt lat="45.74635" lon="4.64779">
        <ele>540</ele>
        <time>2012-09-22T07:55:09Z</time>
      </trkpt>
      <trkpt lat="45.74624" lon="4.64767">
        <ele>542</ele>
        <time>2012-09-22T07:55:19Z</time>
      </trkpt>
      <trkpt lat="45.74614" lon="4.64755">
        <ele>544</ele>
        <time>2012-09-22T07:55:29Z</time>
      </trkpt>
      <trkpt lat="45.74604" lon="4.64746">
        <ele>546</ele>
        <time>2012-09-22T07:55:38Z</time>
      </trkpt>
      <trkpt lat="45.74594" lon="4.64735">
        <ele>547</ele>
        <time>2012-09-22T07:55:48Z</time>
      </trkpt>
      <trkpt lat="45.74582" lon="4.64727">
        <ele>549</ele>
        <time>2012-09-22T07:55:58Z</time>
      </trkpt>
      <trkpt lat="45.7457" lon="4.6472">
        <ele>550</ele>
        <time>2012-09-22T07:56:08Z</time>
      </trkpt>
      <trkpt lat="45.74561" lon="4.64709">
        <ele>552</ele>
        <time>2012-09-22T07:56:17Z</time>
      </trkpt>
      <trkpt lat="45.74553" lon="4.64698">
        <ele>552</ele>
        <time>2012-09-22T07:56:25Z</time>
      </trkpt>
      <trkpt lat="45.7455" lon="4.64693">
        <ele>552</ele>
        <time>2012-09-22T07:56:32Z</time>
      </trkpt>
      <trkpt lat="45.74549" lon="4.64689">
        <ele>552</ele>
        <time>2012-09-22T07:56:39Z</time>
      </trkpt>
      <trkpt lat="45.74553" lon="4.64689">
        <ele>552</ele>
        <time>2012-09-22T07:56:57Z</time>
      </trkpt>
      <trkpt lat="45.74554" lon="4.64689">
        <ele>553</ele>
        <time>2012-09-22T07:57:18Z</time>
      </trkpt>
      <trkpt lat="45.74549" lon="4.64691">
        <ele>552</ele>
        <time>2012-09-22T07:57:40Z</time>
      </trkpt>
      <trkpt lat="45.74548" lon="4.6469">
        <ele>552</ele>
        <time>2012-09-22T07:58:00Z</time>
      </trkpt>
      <trkpt lat="45.74549" lon="4.6469">
        <ele>552</ele>
        <time>2012-09-22T07:58:22Z</time>
      </trkpt>
      <trkpt lat="45.74549" lon="4.64688">
        <ele>552</ele>
        <time>2012-09-22T07:58:34Z</time>
      </trkpt>
      <trkpt lat="45.74551" lon="4.64689">
        <ele>553</ele>
        <time>2012-09-22T07:58:53Z</time>
      </trkpt>
      <trkpt lat="45.7455" lon="4.6469">
        <ele>552</ele>
        <time>2012-09-22T07:59:06Z</time>
      </trkpt>
      <trkpt lat="45.74549" lon="4.64691">
        <ele>552</ele>
        <time>2012-09-22T07:59:25Z</time>
      </trkpt>
      <trkpt lat="45.7455" lon="4.64691">
        <ele>552</ele>
        <time>2012-09-22T07:59:40Z</time>
      </trkpt>
      <trkpt lat="45.74553" lon="4.6469">
        <ele>552</ele>
        <time>2012-09-22T07:59:55Z</time>
      </trkpt>
      <trkpt lat="45.74552" lon="4.6469">
        <ele>552</ele>
        <time>2012-09-22T08:00:13Z</time>
      </trkpt>
      <trkpt lat="45.74553" lon="4.64689">
        <ele>552</ele>
        <time>2012-09-22T08:00:28Z</time>
      </trkpt>
      <trkpt lat="45.74551" lon="4.64689">
        <ele>552</ele>
        <time>2012-09-22T08:00:48Z</time>
      </trkpt>
      <trkpt lat="45.74555" lon="4.64694">
        <ele>552</ele>
        <time>2012-09-22T08:01:02Z</time>
      </trkpt>
      <trkpt lat="45.74555" lon="4.64695">
        <ele>552</ele>
        <time>2012-09-22T08:01:08Z</time>
      </trkpt>
      <trkpt lat="45.74554" lon="4.64692">
        <ele>552</ele>
        <time>2012-09-22T08:01:28Z</time>
      </trkpt>
      <trkpt lat="45.74557" lon="4.64693">
        <ele>552</ele>
        <time>2012-09-22T08:01:45Z</time>
      </trkpt>
      <trkpt lat="45.74555" lon="4.6469">
        <ele>553</ele>
        <time>2012-09-22T08:01:59Z</time>
      </trkpt>
      <trkpt lat="45.74553" lon="4.64688">
        <ele>553</ele>
        <time>2012-09-22T08:02:01Z</time>
      </trkpt>
      <trkpt lat="45.74552" lon="4.64687">
        <ele>553</ele>
        <time>2012-09-22T08:02:02Z</time>
      </trkpt>
      <trkpt lat="45.74551" lon="4.64686">
        <ele>554</ele>
        <time>2012-09-22T08:02:03Z</time>
      </trkpt>
      <trkpt lat="45.7455" lon="4.64684">
        <ele>554</ele>
        <time>2012-09-22T08:02:04Z</time>
      </trkpt>
      <trkpt lat="45.7455" lon="4.64683">
        <ele>554</ele>
        <time>2012-09-22T08:02:05Z</time>
      </trkpt>
      <trkpt lat="45.74549" lon="4.64682">
        <ele>554</ele>
        <time>2012-09-22T08:02:06Z</time>
      </trkpt>
      <trkpt lat="45.74549" lon="4.6468">
        <ele>554</ele>
        <time>2012-09-22T08:02:07Z</time>
      </trkpt>
      <trkpt lat="45.74548" lon="4.64679">
        <ele>554</ele>
        <time>2012-09-22T08:02:08Z</time>
      </trkpt>
      <trkpt lat="45.74548" lon="4.64677">
        <ele>554</ele>
        <time>2012-09-22T08:02:09Z</time>
      </trkpt>
      <trkpt lat="45.74547" lon="4.64675">
        <ele>554</ele>
        <time>2012-09-22T08:02:10Z</time>
      </trkpt>
      <trkpt lat="45.74546" lon="4.64674">
        <ele>554</ele>
        <time>2012-09-22T08:02:11Z</time>
      </trkpt>
      <trkpt lat="45.74542" lon="4.64659">
        <ele>555</ele>
        <time>2012-09-22T08:02:20Z</time>
      </trkpt>
      <trkpt lat="45.74541" lon="4.64657">
        <ele>556</ele>
        <time>2012-09-22T08:02:21Z</time>
      </trkpt>
      <trkpt lat="45.74541" lon="4.64655">
        <ele>555</ele>
        <time>2012-09-22T08:02:22Z</time>
      </trkpt>
      <trkpt lat="45.74533" lon="4.64634">
        <ele>557</ele>
        <time>2012-09-22T08:02:32Z</time>
      </trkpt>
      <trkpt lat="45.74527" lon="4.64617">
        <ele>558</ele>
        <time>2012-09-22T08:02:40Z</time>
      </trkpt>
      <trkpt lat="45.74524" lon="4.64599">
        <ele>560</ele>
        <time>2012-09-22T08:02:49Z</time>
      </trkpt>
      <trkpt lat="45.74519" lon="4.64577">
        <ele>561</ele>
        <time>2012-09-22T08:02:59Z</time>
      </trkpt>
      <trkpt lat="45.74511" lon="4.64553">
        <ele>562</ele>
        <time>2012-09-22T08:03:11Z</time>
      </trkpt>
      <trkpt lat="45.74507" lon="4.64532">
        <ele>565</ele>
        <time>2012-09-22T08:03:22Z</time>
      </trkpt>
      <trkpt lat="45.74504" lon="4.64514">
        <ele>566</ele>
        <time>2012-09-22T08:03:31Z</time>
      </trkpt>
      <trkpt lat="45.74502" lon="4.64495">
        <ele>567</ele>
        <time>2012-09-22T08:03:40Z</time>
      </trkpt>
      <trkpt lat="45.745" lon="4.64476">
        <ele>569</ele>
        <time>2012-09-22T08:03:50Z</time>
      </trkpt>
      <trkpt lat="45.74495" lon="4.64459">
        <ele>570</ele>
        <time>2012-09-22T08:03:59Z</time>
      </trkpt>
      <trkpt lat="45.74495" lon="4.64444">
        <ele>572</ele>
        <time>2012-09-22T08:04:07Z</time>
      </trkpt>
      <trkpt lat="45.74495" lon="4.64426">
        <ele>573</ele>
        <time>2012-09-22T08:04:17Z</time>
      </trkpt>
      <trkpt lat="45.74494" lon="4.64409">
        <ele>574</ele>
        <time>2012-09-22T08:04:26Z</time>
      </trkpt>
      <trkpt lat="45.74493" lon="4.64389">
        <ele>575</ele>
        <time>2012-09-22T08:04:36Z</time>
      </trkpt>
      <trkpt lat="45.74495" lon="4.64384">
        <ele>576</ele>
        <time>2012-09-22T08:04:39Z</time>
      </trkpt>
      <trkpt lat="45.74498" lon="4.64383">
        <ele>575</ele>
        <time>2012-09-22T08:04:41Z</time>
      </trkpt>
      <trkpt lat="45.74499" lon="4.64383">
        <ele>576</ele>
        <time>2012-09-22T08:04:42Z</time>
      </trkpt>
      <trkpt lat="45.74508" lon="4.64392">
        <ele>578</ele>
        <time>2012-09-22T08:04:50Z</time>
      </trkpt>
      <trkpt lat="45.7452" lon="4.64407">
        <ele>579</ele>
        <time>2012-09-22T08:05:00Z</time>
      </trkpt>
      <trkpt lat="45.74527" lon="4.64421">
        <ele>580</ele>
        <time>2012-09-22T08:05:08Z</time>
      </trkpt>
      <trkpt lat="45.74532" lon="4.64438">
        <ele>582</ele>
        <time>2012-09-22T08:05:17Z</time>
      </trkpt>
      <trkpt lat="45.74539" lon="4.6445">
        <ele>584</ele>
        <time>2012-09-22T08:05:25Z</time>
      </trkpt>
      <trkpt lat="45.7454" lon="4.64452">
        <ele>584</ele>
        <time>2012-09-22T08:05:26Z</time>
      </trkpt>
      <trkpt lat="45.74551" lon="4.64464">
        <ele>585</ele>
        <time>2012-09-22T08:05:34Z</time>
      </trkpt>
      <trkpt lat="45.74564" lon="4.64476">
        <ele>586</ele>
        <time>2012-09-22T08:05:43Z</time>
      </trkpt>
      <trkpt lat="45.74577" lon="4.64481">
        <ele>587</ele>
        <time>2012-09-22T08:05:51Z</time>
      </trkpt>
      <trkpt lat="45.74591" lon="4.6449">
        <ele>590</ele>
        <time>2012-09-22T08:06:01Z</time>
      </trkpt>
      <trkpt lat="45.74607" lon="4.6449">
        <ele>591</ele>
        <time>2012-09-22T08:06:11Z</time>
      </trkpt>
      <trkpt lat="45.74623" lon="4.64486">
        <ele>592</ele>
        <time>2012-09-22T08:06:20Z</time>
      </trkpt>
      <trkpt lat="45.7464" lon="4.64484">
        <ele>593</ele>
        <time>2012-09-22T08:06:30Z</time>
      </trkpt>
      <trkpt lat="45.74651" lon="4.64483">
        <ele>595</ele>
        <time>2012-09-22T08:06:38Z</time>
      </trkpt>
      <trkpt lat="45.74665" lon="4.64478">
        <ele>597</ele>
        <time>2012-09-22T08:06:47Z</time>
      </trkpt>
      <trkpt lat="45.74678" lon="4.64466">
        <ele>599</ele>
        <time>2012-09-22T08:06:58Z</time>
      </trkpt>
      <trkpt lat="45.74689" lon="4.64453">
        <ele>600</ele>
        <time>2012-09-22T08:07:08Z</time>
      </trkpt>
      <trkpt lat="45.74699" lon="4.64439">
        <ele>603</ele>
        <time>2012-09-22T08:07:18Z</time>
      </trkpt>
      <trkpt lat="45.74705" lon="4.64425">
        <ele>604</ele>
        <time>2012-09-22T08:07:26Z</time>
      </trkpt>
      <trkpt lat="45.74713" lon="4.64413">
        <ele>606</ele>
        <time>2012-09-22T08:07:34Z</time>
      </trkpt>
      <trkpt lat="45.74721" lon="4.64401">
        <ele>607</ele>
        <time>2012-09-22T08:07:42Z</time>
      </trkpt>
      <trkpt lat="45.74737" lon="4.64381">
        <ele>608</ele>
        <time>2012-09-22T08:07:55Z</time>
      </trkpt>
      <trkpt lat="45.74751" lon="4.64363">
        <ele>609</ele>
        <time>2012-09-22T08:08:07Z</time>
      </trkpt>
      <trkpt lat="45.7476" lon="4.6435">
        <ele>610</ele>
        <time>2012-09-22T08:08:16Z</time>
      </trkpt>
      <trkpt lat="45.74769" lon="4.64338">
        <ele>611</ele>
        <time>2012-09-22T08:08:24Z</time>
      </trkpt>
      <trkpt lat="45.74779" lon="4.64326">
        <ele>612</ele>
        <time>2012-09-22T08:08:33Z</time>
      </trkpt>
      <trkpt lat="45.74789" lon="4.64313">
        <ele>614</ele>
        <time>2012-09-22T08:08:43Z</time>
      </trkpt>
      <trkpt lat="45.74797" lon="4.64299">
        <ele>615</ele>
        <time>2012-09-22T08:08:52Z</time>
      </trkpt>
      <trkpt lat="45.74808" lon="4.64284">
        <ele>616</ele>
        <time>2012-09-22T08:09:02Z</time>
      </trkpt>
      <trkpt lat="45.74816" lon="4.64273">
        <ele>617</ele>
        <time>2012-09-22T08:09:09Z</time>
      </trkpt>
      <trkpt lat="45.74826" lon="4.64258">
        <ele>619</ele>
        <time>2012-09-22T08:09:19Z</time>
      </trkpt>
      <trkpt lat="45.74836" lon="4.64248">
        <ele>619</ele>
        <time>2012-09-22T08:09:27Z</time>
      </trkpt>
      <trkpt lat="45.74846" lon="4.64234">
        <ele>620</ele>
        <time>2012-09-22T08:09:35Z</time>
      </trkpt>
      <trkpt lat="45.74854" lon="4.64222">
        <ele>621</ele>
        <time>2012-09-22T08:09:43Z</time>
      </trkpt>
      <trkpt lat="45.74861" lon="4.64208">
        <ele>622</ele>
        <time>2012-09-22T08:09:50Z</time>
      </trkpt>
      <trkpt lat="45.74872" lon="4.6419">
        <ele>624</ele>
        <time>2012-09-22T08:09:59Z</time>
      </trkpt>
      <trkpt lat="45.74885" lon="4.64168">
        <ele>624</ele>
        <time>2012-09-22T08:10:10Z</time>
      </trkpt>
      <trkpt lat="45.74894" lon="4.64151">
        <ele>626</ele>
        <time>2012-09-22T08:10:18Z</time>
      </trkpt>
      <trkpt lat="45.74903" lon="4.64136">
        <ele>627</ele>
        <time>2012-09-22T08:10:26Z</time>
      </trkpt>
      <trkpt lat="45.74912" lon="4.64118">
        <ele>628</ele>
        <time>2012-09-22T08:10:34Z</time>
      </trkpt>
      <trkpt lat="45.74921" lon="4.64104">
        <ele>628</ele>
        <time>2012-09-22T08:10:41Z</time>
      </trkpt>
      <trkpt lat="45.7493" lon="4.64089">
        <ele>630</ele>
        <time>2012-09-22T08:10:49Z</time>
      </trkpt>
      <trkpt lat="45.7494" lon="4.64073">
        <ele>631</ele>
        <time>2012-09-22T08:10:57Z</time>
      </trkpt>
      <trkpt lat="45.74949" lon="4.64057">
        <ele>632</ele>
        <time>2012-09-22T08:11:05Z</time>
      </trkpt>
      <trkpt lat="45.74958" lon="4.64039">
        <ele>633</ele>
        <time>2012-09-22T08:11:14Z</time>
      </trkpt>
      <trkpt lat="45.74966" lon="4.64027">
        <ele>634</ele>
        <time>2012-09-22T08:11:21Z</time>
      </trkpt>
      <trkpt lat="45.74975" lon="4.64012">
        <ele>636</ele>
        <time>2012-09-22T08:11:30Z</time>
      </trkpt>
      <trkpt lat="45.74984" lon="4.63995">
        <ele>637</ele>
        <time>2012-09-22T08:11:40Z</time>
      </trkpt>
      <trkpt lat="45.74993" lon="4.63984">
        <ele>638</ele>
        <time>2012-09-22T08:11:49Z</time>
      </trkpt>
      <trkpt lat="45.75001" lon="4.63974">
        <ele>640</ele>
        <time>2012-09-22T08:11:56Z</time>
      </trkpt>
      <trkpt lat="45.75008" lon="4.63961">
        <ele>642</ele>
        <time>2012-09-22T08:12:04Z</time>
      </trkpt>
      <trkpt lat="45.75009" lon="4.63959">
        <ele>642</ele>
        <time>2012-09-22T08:12:05Z</time>
      </trkpt>
      <trkpt lat="45.7501" lon="4.63958">
        <ele>643</ele>
        <time>2012-09-22T08:12:06Z</time>
      </trkpt>
      <trkpt lat="45.75011" lon="4.63956">
        <ele>643</ele>
        <time>2012-09-22T08:12:07Z</time>
      </trkpt>
      <trkpt lat="45.75012" lon="4.63955">
        <ele>643</ele>
        <time>2012-09-22T08:12:08Z</time>
      </trkpt>
      <trkpt lat="45.75023" lon="4.63942">
        <ele>645</ele>
        <time>2012-09-22T08:12:19Z</time>
      </trkpt>
      <trkpt lat="45.75029" lon="4.63934">
        <ele>646</ele>
        <time>2012-09-22T08:12:25Z</time>
      </trkpt>
      <trkpt lat="45.7503" lon="4.63933">
        <ele>647</ele>
        <time>2012-09-22T08:12:26Z</time>
      </trkpt>
      <trkpt lat="45.75032" lon="4.63931">
        <ele>646</ele>
        <time>2012-09-22T08:12:27Z</time>
      </trkpt>
      <trkpt lat="45.75033" lon="4.6393">
        <ele>646</ele>
        <time>2012-09-22T08:12:28Z</time>
      </trkpt>
      <trkpt lat="45.75034" lon="4.63929">
        <ele>647</ele>
        <time>2012-09-22T08:12:29Z</time>
      </trkpt>
      <trkpt lat="45.75037" lon="4.63927">
        <ele>648</ele>
        <time>2012-09-22T08:12:31Z</time>
      </trkpt>
      <trkpt lat="45.75046" lon="4.63916">
        <ele>649</ele>
        <time>2012-09-22T08:12:39Z</time>
      </trkpt>
      <trkpt lat="45.75056" lon="4.63908">
        <ele>649</ele>
        <time>2012-09-22T08:12:46Z</time>
      </trkpt>
      <trkpt lat="45.75066" lon="4.63902">
        <ele>651</ele>
        <time>2012-09-22T08:12:53Z</time>
      </trkpt>
      <trkpt lat="45.75076" lon="4.63893">
        <ele>653</ele>
        <time>2012-09-22T08:13:02Z</time>
      </trkpt>
      <trkpt lat="45.75086" lon="4.63884">
        <ele>654</ele>
        <time>2012-09-22T08:13:10Z</time>
      </trkpt>
      <trkpt lat="45.75098" lon="4.63876">
        <ele>656</ele>
        <time>2012-09-22T08:13:19Z</time>
      </trkpt>
      <trkpt lat="45.75109" lon="4.63867">
        <ele>657</ele>
        <time>2012-09-22T08:13:28Z</time>
      </trkpt>
      <trkpt lat="45.75111" lon="4.63866">
        <ele>658</ele>
        <time>2012-09-22T08:13:29Z</time>
      </trkpt>
      <trkpt lat="45.75112" lon="4.63864">
        <ele>658</ele>
        <time>2012-09-22T08:13:30Z</time>
      </trkpt>
      <trkpt lat="45.75113" lon="4.63863">
        <ele>658</ele>
        <time>2012-09-22T08:13:31Z</time>
      </trkpt>
      <trkpt lat="45.75122" lon="4.63856">
        <ele>660</ele>
        <time>2012-09-22T08:13:38Z</time>
      </trkpt>
      <trkpt lat="45.75132" lon="4.6385">
        <ele>660</ele>
        <time>2012-09-22T08:13:45Z</time>
      </trkpt>
      <trkpt lat="45.75146" lon="4.63846">
        <ele>659</ele>
        <time>2012-09-22T08:13:51Z</time>
      </trkpt>
      <trkpt lat="45.75163" lon="4.63847">
        <ele>658</ele>
        <time>2012-09-22T08:13:58Z</time>
      </trkpt>
      <trkpt lat="45.75178" lon="4.63841">
        <ele>658</ele>
        <time>2012-09-22T08:14:04Z</time>
      </trkpt>
      <trkpt lat="45.75193" lon="4.63832">
        <ele>659</ele>
        <time>2012-09-22T08:14:11Z</time>
      </trkpt>
      <trkpt lat="45.75213" lon="4.63815">
        <ele>659</ele>
        <time>2012-09-22T08:14:20Z</time>
      </trkpt>
      <trkpt lat="45.75221" lon="4.63802">
        <ele>660</ele>
        <time>2012-09-22T08:14:26Z</time>
      </trkpt>
      <trkpt lat="45.7523" lon="4.63786">
        <ele>661</ele>
        <time>2012-09-22T08:14:33Z</time>
      </trkpt>
      <trkpt lat="45.75241" lon="4.63767">
        <ele>661</ele>
        <time>2012-09-22T08:14:40Z</time>
      </trkpt>
      <trkpt lat="45.75255" lon="4.63739">
        <ele>661</ele>
        <time>2012-09-22T08:14:49Z</time>
      </trkpt>
      <trkpt lat="45.75263" lon="4.63721">
        <ele>662</ele>
        <time>2012-09-22T08:14:55Z</time>
      </trkpt>
      <trkpt lat="45.75268" lon="4.63702">
        <ele>662</ele>
        <time>2012-09-22T08:15:02Z</time>
      </trkpt>
      <trkpt lat="45.7527" lon="4.63681">
        <ele>663</ele>
        <time>2012-09-22T08:15:10Z</time>
      </trkpt>
      <trkpt lat="45.7527" lon="4.6367">
        <ele>665</ele>
        <time>2012-09-22T08:15:15Z</time>
      </trkpt>
      <trkpt lat="45.7527" lon="4.63667">
        <ele>665</ele>
        <time>2012-09-22T08:15:16Z</time>
      </trkpt>
      <trkpt lat="45.7527" lon="4.63665">
        <ele>665</ele>
        <time>2012-09-22T08:15:17Z</time>
      </trkpt>
      <trkpt lat="45.75271" lon="4.63662">
        <ele>665</ele>
        <time>2012-09-22T08:15:18Z</time>
      </trkpt>
      <trkpt lat="45.75271" lon="4.6366">
        <ele>666</ele>
        <time>2012-09-22T08:15:19Z</time>
      </trkpt>
      <trkpt lat="45.75271" lon="4.63657">
        <ele>666</ele>
        <time>2012-09-22T08:15:20Z</time>
      </trkpt>
      <trkpt lat="45.7527" lon="4.63655">
        <ele>667</ele>
        <time>2012-09-22T08:15:21Z</time>
      </trkpt>
      <trkpt lat="45.7527" lon="4.63652">
        <ele>666</ele>
        <time>2012-09-22T08:15:22Z</time>
      </trkpt>
      <trkpt lat="45.75269" lon="4.6365">
        <ele>667</ele>
        <time>2012-09-22T08:15:23Z</time>
      </trkpt>
      <trkpt lat="45.75269" lon="4.63647">
        <ele>668</ele>
        <time>2012-09-22T08:15:24Z</time>
      </trkpt>
      <trkpt lat="45.75268" lon="4.63628">
        <ele>669</ele>
        <time>2012-09-22T08:15:32Z</time>
      </trkpt>
      <trkpt lat="45.75266" lon="4.63621">
        <ele>669</ele>
        <time>2012-09-22T08:15:35Z</time>
      </trkpt>
      <trkpt lat="45.75266" lon="4.636">
        <ele>671</ele>
        <time>2012-09-22T08:15:44Z</time>
      </trkpt>
      <trkpt lat="45.75262" lon="4.63583">
        <ele>672</ele>
        <time>2012-09-22T08:15:51Z</time>
      </trkpt>
      <trkpt lat="45.75259" lon="4.63567">
        <ele>673</ele>
        <time>2012-09-22T08:15:58Z</time>
      </trkpt>
      <trkpt lat="45.75259" lon="4.63565">
        <ele>674</ele>
        <time>2012-09-22T08:15:59Z</time>
      </trkpt>
      <trkpt lat="45.75259" lon="4.63563">
        <ele>674</ele>
        <time>2012-09-22T08:16:00Z</time>
      </trkpt>
      <trkpt lat="45.75258" lon="4.63561">
        <ele>674</ele>
        <time>2012-09-22T08:16:01Z</time>
      </trkpt>
      <trkpt lat="45.75258" lon="4.63559">
        <ele>674</ele>
        <time>2012-09-22T08:16:02Z</time>
      </trkpt>
      <trkpt lat="45.75256" lon="4.63537">
        <ele>676</ele>
        <time>2012-09-22T08:16:12Z</time>
      </trkpt>
      <trkpt lat="45.75254" lon="4.63521">
        <ele>678</ele>
        <time>2012-09-22T08:16:20Z</time>
      </trkpt>
      <trkpt lat="45.75254" lon="4.63506">
        <ele>679</ele>
        <time>2012-09-22T08:16:28Z</time>
      </trkpt>
      <trkpt lat="45.75253" lon="4.63503">
        <ele>679</ele>
        <time>2012-09-22T08:16:29Z</time>
      </trkpt>
      <trkpt lat="45.75253" lon="4.6349">
        <ele>681</ele>
        <time>2012-09-22T08:16:36Z</time>
      </trkpt>
      <trkpt lat="45.75251" lon="4.63471">
        <ele>682</ele>
        <time>2012-09-22T08:16:45Z</time>
      </trkpt>
      <trkpt lat="45.75253" lon="4.63455">
        <ele>683</ele>
        <time>2012-09-22T08:16:51Z</time>
      </trkpt>
      <trkpt lat="45.75252" lon="4.63453">
        <ele>684</ele>
        <time>2012-09-22T08:16:52Z</time>
      </trkpt>
      <trkpt lat="45.75252" lon="4.63451">
        <ele>684</ele>
        <time>2012-09-22T08:16:53Z</time>
      </trkpt>
      <trkpt lat="45.75252" lon="4.63449">
        <ele>684</ele>
        <time>2012-09-22T08:16:54Z</time>
      </trkpt>
      <trkpt lat="45.75251" lon="4.63446">
        <ele>684</ele>
        <time>2012-09-22T08:16:55Z</time>
      </trkpt>
      <trkpt lat="45.75251" lon="4.63444">
        <ele>684</ele>
        <time>2012-09-22T08:16:56Z</time>
      </trkpt>
      <trkpt lat="45.75251" lon="4.63442">
        <ele>684</ele>
        <time>2012-09-22T08:16:57Z</time>
      </trkpt>
      <trkpt lat="45.75252" lon="4.63439">
        <ele>684</ele>
        <time>2012-09-22T08:16:58Z</time>
      </trkpt>
      <trkpt lat="45.75252" lon="4.63437">
        <ele>685</ele>
        <time>2012-09-22T08:16:59Z</time>
      </trkpt>
      <trkpt lat="45.75252" lon="4.63419">
        <ele>686</ele>
        <time>2012-09-22T08:17:06Z</time>
      </trkpt>
      <trkpt lat="45.75254" lon="4.63401">
        <ele>687</ele>
        <time>2012-09-22T08:17:13Z</time>
      </trkpt>
      <trkpt lat="45.75259" lon="4.63389">
        <ele>688</ele>
        <time>2012-09-22T08:17:20Z</time>
      </trkpt>
      <trkpt lat="45.75266" lon="4.63376">
        <ele>689</ele>
        <time>2012-09-22T08:17:27Z</time>
      </trkpt>
      <trkpt lat="45.75273" lon="4.63361">
        <ele>689</ele>
        <time>2012-09-22T08:17:35Z</time>
      </trkpt>
      <trkpt lat="45.7528" lon="4.63343">
        <ele>690</ele>
        <time>2012-09-22T08:17:44Z</time>
      </trkpt>
      <trkpt lat="45.75288" lon="4.63325">
        <ele>691</ele>
        <time>2012-09-22T08:17:52Z</time>
      </trkpt>
      <trkpt lat="45.75292" lon="4.63316">
        <ele>691</ele>
        <time>2012-09-22T08:17:56Z</time>
      </trkpt>
      <trkpt lat="45.75293" lon="4.63313">
        <ele>691</ele>
        <time>2012-09-22T08:17:57Z</time>
      </trkpt>
      <trkpt lat="45.75298" lon="4.63301">
        <ele>692</ele>
        <time>2012-09-22T08:18:02Z</time>
      </trkpt>
      <trkpt lat="45.753" lon="4.633">
        <ele>692</ele>
        <time>2012-09-22T08:18:03Z</time>
      </trkpt>
      <trkpt lat="45.75308" lon="4.63285">
        <ele>693</ele>
        <time>2012-09-22T08:18:10Z</time>
      </trkpt>
      <trkpt lat="45.75314" lon="4.63273">
        <ele>693</ele>
        <time>2012-09-22T08:18:15Z</time>
      </trkpt>
      <trkpt lat="45.75315" lon="4.6327">
        <ele>693</ele>
        <time>2012-09-22T08:18:16Z</time>
      </trkpt>
      <trkpt lat="45.75316" lon="4.63268">
        <ele>693</ele>
        <time>2012-09-22T08:18:17Z</time>
      </trkpt>
      <trkpt lat="45.75317" lon="4.63266">
        <ele>694</ele>
        <time>2012-09-22T08:18:18Z</time>
      </trkpt>
      <trkpt lat="45.75318" lon="4.63265">
        <ele>694</ele>
        <time>2012-09-22T08:18:19Z</time>
      </trkpt>
      <trkpt lat="45.7532" lon="4.63263">
        <ele>694</ele>
        <time>2012-09-22T08:18:20Z</time>
      </trkpt>
      <trkpt lat="45.75321" lon="4.63261">
        <ele>694</ele>
        <time>2012-09-22T08:18:21Z</time>
      </trkpt>
      <trkpt lat="45.75322" lon="4.63259">
        <ele>694</ele>
        <time>2012-09-22T08:18:22Z</time>
      </trkpt>
      <trkpt lat="45.75323" lon="4.63257">
        <ele>695</ele>
        <time>2012-09-22T08:18:23Z</time>
      </trkpt>
      <trkpt lat="45.75324" lon="4.63254">
        <ele>694</ele>
        <time>2012-09-22T08:18:24Z</time>
      </trkpt>
      <trkpt lat="45.75325" lon="4.63252">
        <ele>695</ele>
        <time>2012-09-22T08:18:25Z</time>
      </trkpt>
      <trkpt lat="45.75326" lon="4.6325">
        <ele>695</ele>
        <time>2012-09-22T08:18:26Z</time>
      </trkpt>
      <trkpt lat="45.75327" lon="4.63247">
        <ele>695</ele>
        <time>2012-09-22T08:18:27Z</time>
      </trkpt>
      <trkpt lat="45.7533" lon="4.63242">
        <ele>695</ele>
        <time>2012-09-22T08:18:30Z</time>
      </trkpt>
      <trkpt lat="45.75331" lon="4.6324">
        <ele>696</ele>
        <time>2012-09-22T08:18:31Z</time>
      </trkpt>
      <trkpt lat="45.75332" lon="4.63238">
        <ele>696</ele>
        <time>2012-09-22T08:18:32Z</time>
      </trkpt>
      <trkpt lat="45.75334" lon="4.63236">
        <ele>696</ele>
        <time>2012-09-22T08:18:33Z</time>
      </trkpt>
      <trkpt lat="45.75335" lon="4.63234">
        <ele>696</ele>
        <time>2012-09-22T08:18:34Z</time>
      </trkpt>
      <trkpt lat="45.75338" lon="4.6323">
        <ele>696</ele>
        <time>2012-09-22T08:18:36Z</time>
      </trkpt>
      <trkpt lat="45.75339" lon="4.63227">
        <ele>696</ele>
        <time>2012-09-22T08:18:37Z</time>
      </trkpt>
      <trkpt lat="45.7534" lon="4.63224">
        <ele>697</ele>
        <time>2012-09-22T08:18:38Z</time>
      </trkpt>
      <trkpt lat="45.75349" lon="4.63209">
        <ele>698</ele>
        <time>2012-09-22T08:18:46Z</time>
      </trkpt>
      <trkpt lat="45.7535" lon="4.63207">
        <ele>698</ele>
        <time>2012-09-22T08:18:47Z</time>
      </trkpt>
      <trkpt lat="45.75351" lon="4.63205">
        <ele>698</ele>
        <time>2012-09-22T08:18:48Z</time>
      </trkpt>
      <trkpt lat="45.75352" lon="4.63203">
        <ele>698</ele>
        <time>2012-09-22T08:18:49Z</time>
      </trkpt>
      <trkpt lat="45.75354" lon="4.63201">
        <ele>699</ele>
        <time>2012-09-22T08:18:50Z</time>
      </trkpt>
      <trkpt lat="45.75364" lon="4.63184">
        <ele>698</ele>
        <time>2012-09-22T08:18:56Z</time>
      </trkpt>
      <trkpt lat="45.75372" lon="4.63165">
        <ele>698</ele>
        <time>2012-09-22T08:19:02Z</time>
      </trkpt>
      <trkpt lat="45.75382" lon="4.6315">
        <ele>698</ele>
        <time>2012-09-22T08:19:07Z</time>
      </trkpt>
      <trkpt lat="45.75383" lon="4.63147">
        <ele>698</ele>
        <time>2012-09-22T08:19:08Z</time>
      </trkpt>
      <trkpt lat="45.75385" lon="4.63144">
        <ele>698</ele>
        <time>2012-09-22T08:19:09Z</time>
      </trkpt>
      <trkpt lat="45.75387" lon="4.63141">
        <ele>699</ele>
        <time>2012-09-22T08:19:10Z</time>
      </trkpt>
      <trkpt lat="45.75389" lon="4.63139">
        <ele>699</ele>
        <time>2012-09-22T08:19:11Z</time>
      </trkpt>
      <trkpt lat="45.75401" lon="4.63112">
        <ele>699</ele>
        <time>2012-09-22T08:19:19Z</time>
      </trkpt>
      <trkpt lat="45.7541" lon="4.63093">
        <ele>699</ele>
        <time>2012-09-22T08:19:25Z</time>
      </trkpt>
      <trkpt lat="45.75418" lon="4.63077">
        <ele>699</ele>
        <time>2012-09-22T08:19:30Z</time>
      </trkpt>
      <trkpt lat="45.75427" lon="4.63047">
        <ele>699</ele>
        <time>2012-09-22T08:19:37Z</time>
      </trkpt>
      <trkpt lat="45.75437" lon="4.63019">
        <ele>699</ele>
        <time>2012-09-22T08:19:44Z</time>
      </trkpt>
      <trkpt lat="45.75447" lon="4.62989">
        <ele>699</ele>
        <time>2012-09-22T08:19:51Z</time>
      </trkpt>
      <trkpt lat="45.75459" lon="4.62958">
        <ele>699</ele>
        <time>2012-09-22T08:19:59Z</time>
      </trkpt>
      <trkpt lat="45.75465" lon="4.6294">
        <ele>699</ele>
        <time>2012-09-22T08:20:05Z</time>
      </trkpt>
      <trkpt lat="45.75473" lon="4.62912">
        <ele>701</ele>
        <time>2012-09-22T08:20:12Z</time>
      </trkpt>
      <trkpt lat="45.75484" lon="4.62875">
        <ele>701</ele>
        <time>2012-09-22T08:20:22Z</time>
      </trkpt>
      <trkpt lat="45.75497" lon="4.62845">
        <ele>701</ele>
        <time>2012-09-22T08:20:31Z</time>
      </trkpt>
      <trkpt lat="45.75505" lon="4.62815">
        <ele>701</ele>
        <time>2012-09-22T08:20:40Z</time>
      </trkpt>
      <trkpt lat="45.75512" lon="4.62791">
        <ele>702</ele>
        <time>2012-09-22T08:20:47Z</time>
      </trkpt>
      <trkpt lat="45.75522" lon="4.62762">
        <ele>703</ele>
        <time>2012-09-22T08:20:55Z</time>
      </trkpt>
      <trkpt lat="45.75529" lon="4.62734">
        <ele>703</ele>
        <time>2012-09-22T08:21:03Z</time>
      </trkpt>
      <trkpt lat="45.75537" lon="4.62711">
        <ele>703</ele>
        <time>2012-09-22T08:21:10Z</time>
      </trkpt>
      <trkpt lat="45.75547" lon="4.62686">
        <ele>705</ele>
        <time>2012-09-22T08:21:19Z</time>
      </trkpt>
      <trkpt lat="45.75555" lon="4.62666">
        <ele>706</ele>
        <time>2012-09-22T08:21:26Z</time>
      </trkpt>
      <trkpt lat="45.75563" lon="4.62649">
        <ele>708</ele>
        <time>2012-09-22T08:21:34Z</time>
      </trkpt>
      <trkpt lat="45.7557" lon="4.62633">
        <ele>709</ele>
        <time>2012-09-22T08:21:41Z</time>
      </trkpt>
      <trkpt lat="45.75573" lon="4.62629">
        <ele>710</ele>
        <time>2012-09-22T08:21:44Z</time>
      </trkpt>
      <trkpt lat="45.75579" lon="4.62616">
        <ele>711</ele>
        <time>2012-09-22T08:21:51Z</time>
      </trkpt>
      <trkpt lat="45.75584" lon="4.62602">
        <ele>712</ele>
        <time>2012-09-22T08:21:59Z</time>
      </trkpt>
      <trkpt lat="45.75589" lon="4.62585">
        <ele>713</ele>
        <time>2012-09-22T08:22:07Z</time>
      </trkpt>
      <trkpt lat="45.75594" lon="4.62576">
        <ele>714</ele>
        <time>2012-09-22T08:22:13Z</time>
      </trkpt>
      <trkpt lat="45.75597" lon="4.6257">
        <ele>715</ele>
        <time>2012-09-22T08:22:16Z</time>
      </trkpt>
      <trkpt lat="45.75597" lon="4.62567">
        <ele>715</ele>
        <time>2012-09-22T08:22:17Z</time>
      </trkpt>
      <trkpt lat="45.75601" lon="4.62546">
        <ele>717</ele>
        <time>2012-09-22T08:22:26Z</time>
      </trkpt>
      <trkpt lat="45.75605" lon="4.6253">
        <ele>718</ele>
        <time>2012-09-22T08:22:33Z</time>
      </trkpt>
      <trkpt lat="45.75606" lon="4.62526">
        <ele>718</ele>
        <time>2012-09-22T08:22:35Z</time>
      </trkpt>
      <trkpt lat="45.75609" lon="4.62511">
        <ele>719</ele>
        <time>2012-09-22T08:22:42Z</time>
      </trkpt>
      <trkpt lat="45.7561" lon="4.62505">
        <ele>720</ele>
        <time>2012-09-22T08:22:44Z</time>
      </trkpt>
      <trkpt lat="45.7561" lon="4.62503">
        <ele>720</ele>
        <time>2012-09-22T08:22:45Z</time>
      </trkpt>
      <trkpt lat="45.75611" lon="4.62501">
        <ele>720</ele>
        <time>2012-09-22T08:22:46Z</time>
      </trkpt>
      <trkpt lat="45.75611" lon="4.62499">
        <ele>720</ele>
        <time>2012-09-22T08:22:47Z</time>
      </trkpt>
      <trkpt lat="45.75612" lon="4.62495">
        <ele>721</ele>
        <time>2012-09-22T08:22:50Z</time>
      </trkpt>
      <trkpt lat="45.75612" lon="4.62492">
        <ele>721</ele>
        <time>2012-09-22T08:22:51Z</time>
      </trkpt>
      <trkpt lat="45.75613" lon="4.62483">
        <ele>722</ele>
        <time>2012-09-22T08:22:55Z</time>
      </trkpt>
      <trkpt lat="45.75613" lon="4.6248">
        <ele>723</ele>
        <time>2012-09-22T08:22:56Z</time>
      </trkpt>
      <trkpt lat="45.75613" lon="4.62479">
        <ele>722</ele>
        <time>2012-09-22T08:22:57Z</time>
      </trkpt>
      <trkpt lat="45.75613" lon="4.62468">
        <ele>724</ele>
        <time>2012-09-22T08:23:02Z</time>
      </trkpt>
      <trkpt lat="45.75613" lon="4.62465">
        <ele>724</ele>
        <time>2012-09-22T08:23:03Z</time>
      </trkpt>
      <trkpt lat="45.75613" lon="4.62463">
        <ele>723</ele>
        <time>2012-09-22T08:23:04Z</time>
      </trkpt>
      <trkpt lat="45.75614" lon="4.62456">
        <ele>724</ele>
        <time>2012-09-22T08:23:07Z</time>
      </trkpt>
      <trkpt lat="45.75614" lon="4.62454">
        <ele>724</ele>
        <time>2012-09-22T08:23:08Z</time>
      </trkpt>
      <trkpt lat="45.75614" lon="4.62445">
        <ele>724</ele>
        <time>2012-09-22T08:23:12Z</time>
      </trkpt>
      <trkpt lat="45.75615" lon="4.62431">
        <ele>726</ele>
        <time>2012-09-22T08:23:19Z</time>
      </trkpt>
      <trkpt lat="45.75615" lon="4.62428">
        <ele>726</ele>
        <time>2012-09-22T08:23:20Z</time>
      </trkpt>
      <trkpt lat="45.75615" lon="4.62425">
        <ele>726</ele>
        <time>2012-09-22T08:23:21Z</time>
      </trkpt>
      <trkpt lat="45.75615" lon="4.62422">
        <ele>726</ele>
        <time>2012-09-22T08:23:22Z</time>
      </trkpt>
      <trkpt lat="45.75616" lon="4.62419">
        <ele>727</ele>
        <time>2012-09-22T08:23:23Z</time>
      </trkpt>
      <trkpt lat="45.75615" lon="4.62416">
        <ele>726</ele>
        <time>2012-09-22T08:23:24Z</time>
      </trkpt>
      <trkpt lat="45.75618" lon="4.62394">
        <ele>727</ele>
        <time>2012-09-22T08:23:32Z</time>
      </trkpt>
      <trkpt lat="45.75618" lon="4.62391">
        <ele>727</ele>
        <time>2012-09-22T08:23:33Z</time>
      </trkpt>
      <trkpt lat="45.75618" lon="4.62388">
        <ele>727</ele>
        <time>2012-09-22T08:23:34Z</time>
      </trkpt>
      <trkpt lat="45.75618" lon="4.62385">
        <ele>727</ele>
        <time>2012-09-22T08:23:35Z</time>
      </trkpt>
      <trkpt lat="45.75618" lon="4.62383">
        <ele>728</ele>
        <time>2012-09-22T08:23:36Z</time>
      </trkpt>
      <trkpt lat="45.75618" lon="4.6238">
        <ele>728</ele>
        <time>2012-09-22T08:23:37Z</time>
      </trkpt>
      <trkpt lat="45.75618" lon="4.62378">
        <ele>727</ele>
        <time>2012-09-22T08:23:38Z</time>
      </trkpt>
      <trkpt lat="45.75618" lon="4.62375">
        <ele>728</ele>
        <time>2012-09-22T08:23:39Z</time>
      </trkpt>
      <trkpt lat="45.75617" lon="4.62372">
        <ele>728</ele>
        <time>2012-09-22T08:23:40Z</time>
      </trkpt>
      <trkpt lat="45.75618" lon="4.6237">
        <ele>727</ele>
        <time>2012-09-22T08:23:41Z</time>
      </trkpt>
      <trkpt lat="45.75618" lon="4.62368">
        <ele>728</ele>
        <time>2012-09-22T08:23:42Z</time>
      </trkpt>
      <trkpt lat="45.75614" lon="4.6235">
        <ele>728</ele>
        <time>2012-09-22T08:23:48Z</time>
      </trkpt>
      <trkpt lat="45.75614" lon="4.6234">
        <ele>729</ele>
        <time>2012-09-22T08:23:51Z</time>
      </trkpt>
      <trkpt lat="45.75613" lon="4.62337">
        <ele>729</ele>
        <time>2012-09-22T08:23:52Z</time>
      </trkpt>
      <trkpt lat="45.75608" lon="4.62314">
        <ele>729</ele>
        <time>2012-09-22T08:23:59Z</time>
      </trkpt>
      <trkpt lat="45.75602" lon="4.62291">
        <ele>731</ele>
        <time>2012-09-22T08:24:07Z</time>
      </trkpt>
      <trkpt lat="45.75599" lon="4.62271">
        <ele>732</ele>
        <time>2012-09-22T08:24:15Z</time>
      </trkpt>
      <trkpt lat="45.75596" lon="4.62251">
        <ele>733</ele>
        <time>2012-09-22T08:24:23Z</time>
      </trkpt>
      <trkpt lat="45.75595" lon="4.62234">
        <ele>734</ele>
        <time>2012-09-22T08:24:30Z</time>
      </trkpt>
      <trkpt lat="45.75596" lon="4.62215">
        <ele>735</ele>
        <time>2012-09-22T08:24:39Z</time>
      </trkpt>
      <trkpt lat="45.75597" lon="4.62208">
        <ele>735</ele>
        <time>2012-09-22T08:24:42Z</time>
      </trkpt>
      <trkpt lat="45.75597" lon="4.62205">
        <ele>736</ele>
        <time>2012-09-22T08:24:43Z</time>
      </trkpt>
      <trkpt lat="45.75597" lon="4.62202">
        <ele>736</ele>
        <time>2012-09-22T08:24:44Z</time>
      </trkpt>
      <trkpt lat="45.75597" lon="4.622">
        <ele>736</ele>
        <time>2012-09-22T08:24:45Z</time>
      </trkpt>
      <trkpt lat="45.75597" lon="4.62197">
        <ele>736</ele>
        <time>2012-09-22T08:24:46Z</time>
      </trkpt>
      <trkpt lat="45.75597" lon="4.62195">
        <ele>736</ele>
        <time>2012-09-22T08:24:47Z</time>
      </trkpt>
      <trkpt lat="45.75597" lon="4.62189">
        <ele>737</ele>
        <time>2012-09-22T08:24:50Z</time>
      </trkpt>
      <trkpt lat="45.75597" lon="4.62186">
        <ele>737</ele>
        <time>2012-09-22T08:24:51Z</time>
      </trkpt>
      <trkpt lat="45.75597" lon="4.62184">
        <ele>737</ele>
        <time>2012-09-22T08:24:52Z</time>
      </trkpt>
      <trkpt lat="45.75598" lon="4.62183">
        <ele>737</ele>
        <time>2012-09-22T08:24:53Z</time>
      </trkpt>
      <trkpt lat="45.75598" lon="4.62181">
        <ele>737</ele>
        <time>2012-09-22T08:24:54Z</time>
      </trkpt>
      <trkpt lat="45.75598" lon="4.62179">
        <ele>737</ele>
        <time>2012-09-22T08:24:55Z</time>
      </trkpt>
      <trkpt lat="45.75598" lon="4.62177">
        <ele>737</ele>
        <time>2012-09-22T08:24:56Z</time>
      </trkpt>
      <trkpt lat="45.75598" lon="4.62175">
        <ele>738</ele>
        <time>2012-09-22T08:24:57Z</time>
      </trkpt>
      <trkpt lat="45.75598" lon="4.62173">
        <ele>738</ele>
        <time>2012-09-22T08:24:58Z</time>
      </trkpt>
      <trkpt lat="45.75598" lon="4.6215">
        <ele>739</ele>
        <time>2012-09-22T08:25:08Z</time>
      </trkpt>
      <trkpt lat="45.75598" lon="4.62147">
        <ele>740</ele>
        <time>2012-09-22T08:25:09Z</time>
      </trkpt>
      <trkpt lat="45.75598" lon="4.62145">
        <ele>740</ele>
        <time>2012-09-22T08:25:10Z</time>
      </trkpt>
      <trkpt lat="45.75598" lon="4.62143">
        <ele>740</ele>
        <time>2012-09-22T08:25:11Z</time>
      </trkpt>
      <trkpt lat="45.75598" lon="4.62141">
        <ele>740</ele>
        <time>2012-09-22T08:25:12Z</time>
      </trkpt>
      <trkpt lat="45.75599" lon="4.62123">
        <ele>742</ele>
        <time>2012-09-22T08:25:20Z</time>
      </trkpt>
      <trkpt lat="45.756" lon="4.62113">
        <ele>742</ele>
        <time>2012-09-22T08:25:24Z</time>
      </trkpt>
      <trkpt lat="45.75599" lon="4.62111">
        <ele>742</ele>
        <time>2012-09-22T08:25:25Z</time>
      </trkpt>
      <trkpt lat="45.75599" lon="4.62109">
        <ele>742</ele>
        <time>2012-09-22T08:25:26Z</time>
      </trkpt>
      <trkpt lat="45.75599" lon="4.62106">
        <ele>742</ele>
        <time>2012-09-22T08:25:27Z</time>
      </trkpt>
      <trkpt lat="45.756" lon="4.62104">
        <ele>743</ele>
        <time>2012-09-22T08:25:28Z</time>
      </trkpt>
      <trkpt lat="45.75602" lon="4.62088">
        <ele>743</ele>
        <time>2012-09-22T08:25:35Z</time>
      </trkpt>
      <trkpt lat="45.75604" lon="4.6207">
        <ele>745</ele>
        <time>2012-09-22T08:25:42Z</time>
      </trkpt>
      <trkpt lat="45.75604" lon="4.62049">
        <ele>746</ele>
        <time>2012-09-22T08:25:50Z</time>
      </trkpt>
      <trkpt lat="45.75603" lon="4.62039">
        <ele>747</ele>
        <time>2012-09-22T08:25:54Z</time>
      </trkpt>
      <trkpt lat="45.75603" lon="4.62036">
        <ele>747</ele>
        <time>2012-09-22T08:25:55Z</time>
      </trkpt>
      <trkpt lat="45.75603" lon="4.62034">
        <ele>747</ele>
        <time>2012-09-22T08:25:56Z</time>
      </trkpt>
      <trkpt lat="45.75602" lon="4.62031">
        <ele>746</ele>
        <time>2012-09-22T08:25:57Z</time>
      </trkpt>
      <trkpt lat="45.75602" lon="4.62028">
        <ele>747</ele>
        <time>2012-09-22T08:25:58Z</time>
      </trkpt>
      <trkpt lat="45.75602" lon="4.62025">
        <ele>747</ele>
        <time>2012-09-22T08:25:59Z</time>
      </trkpt>
      <trkpt lat="45.75602" lon="4.62022">
        <ele>747</ele>
        <time>2012-09-22T08:26:00Z</time>
      </trkpt>
      <trkpt lat="45.75602" lon="4.62015">
        <ele>748</ele>
        <time>2012-09-22T08:26:03Z</time>
      </trkpt>
      <trkpt lat="45.75602" lon="4.62013">
        <ele>747</ele>
        <time>2012-09-22T08:26:04Z</time>
      </trkpt>
      <trkpt lat="45.75602" lon="4.6201">
        <ele>748</ele>
        <time>2012-09-22T08:26:05Z</time>
      </trkpt>
      <trkpt lat="45.75602" lon="4.61986">
        <ele>748</ele>
        <time>2012-09-22T08:26:12Z</time>
      </trkpt>
      <trkpt lat="45.75599" lon="4.61967">
        <ele>749</ele>
        <time>2012-09-22T08:26:18Z</time>
      </trkpt>
      <trkpt lat="45.75598" lon="4.61954">
        <ele>749</ele>
        <time>2012-09-22T08:26:22Z</time>
      </trkpt>
      <trkpt lat="45.75599" lon="4.61948">
        <ele>749</ele>
        <time>2012-09-22T08:26:24Z</time>
      </trkpt>
      <trkpt lat="45.75599" lon="4.61945">
        <ele>749</ele>
        <time>2012-09-22T08:26:25Z</time>
      </trkpt>
      <trkpt lat="45.75599" lon="4.61942">
        <ele>750</ele>
        <time>2012-09-22T08:26:26Z</time>
      </trkpt>
      <trkpt lat="45.75597" lon="4.61926">
        <ele>750</ele>
        <time>2012-09-22T08:26:31Z</time>
      </trkpt>
      <trkpt lat="45.75597" lon="4.61922">
        <ele>751</ele>
        <time>2012-09-22T08:26:32Z</time>
      </trkpt>
      <trkpt lat="45.75597" lon="4.61919">
        <ele>751</ele>
        <time>2012-09-22T08:26:33Z</time>
      </trkpt>
      <trkpt lat="45.75597" lon="4.61915">
        <ele>751</ele>
        <time>2012-09-22T08:26:34Z</time>
      </trkpt>
      <trkpt lat="45.75597" lon="4.61912">
        <ele>750</ele>
        <time>2012-09-22T08:26:35Z</time>
      </trkpt>
      <trkpt lat="45.75597" lon="4.61908">
        <ele>751</ele>
        <time>2012-09-22T08:26:36Z</time>
      </trkpt>
      <trkpt lat="45.75599" lon="4.61889">
        <ele>752</ele>
        <time>2012-09-22T08:26:43Z</time>
      </trkpt>
      <trkpt lat="45.75598" lon="4.61865">
        <ele>752</ele>
        <time>2012-09-22T08:26:51Z</time>
      </trkpt>
      <trkpt lat="45.75597" lon="4.61862">
        <ele>753</ele>
        <time>2012-09-22T08:26:52Z</time>
      </trkpt>
      <trkpt lat="45.75596" lon="4.61859">
        <ele>753</ele>
        <time>2012-09-22T08:26:53Z</time>
      </trkpt>
      <trkpt lat="45.75595" lon="4.61856">
        <ele>753</ele>
        <time>2012-09-22T08:26:54Z</time>
      </trkpt>
      <trkpt lat="45.75595" lon="4.61853">
        <ele>753</ele>
        <time>2012-09-22T08:26:55Z</time>
      </trkpt>
      <trkpt lat="45.75595" lon="4.6185">
        <ele>753</ele>
        <time>2012-09-22T08:26:56Z</time>
      </trkpt>
      <trkpt lat="45.75595" lon="4.61847">
        <ele>753</ele>
        <time>2012-09-22T08:26:57Z</time>
      </trkpt>
      <trkpt lat="45.75595" lon="4.61845">
        <ele>753</ele>
        <time>2012-09-22T08:26:58Z</time>
      </trkpt>
      <trkpt lat="45.75595" lon="4.61843">
        <ele>754</ele>
        <time>2012-09-22T08:26:59Z</time>
      </trkpt>
      <trkpt lat="45.75597" lon="4.61829">
        <ele>754</ele>
        <time>2012-09-22T08:27:05Z</time>
      </trkpt>
      <trkpt lat="45.75598" lon="4.61827">
        <ele>754</ele>
        <time>2012-09-22T08:27:06Z</time>
      </trkpt>
      <trkpt lat="45.75598" lon="4.61825">
        <ele>754</ele>
        <time>2012-09-22T08:27:07Z</time>
      </trkpt>
      <trkpt lat="45.75599" lon="4.61822">
        <ele>755</ele>
        <time>2012-09-22T08:27:08Z</time>
      </trkpt>
      <trkpt lat="45.756" lon="4.6182">
        <ele>755</ele>
        <time>2012-09-22T08:27:09Z</time>
      </trkpt>
      <trkpt lat="45.756" lon="4.61817">
        <ele>755</ele>
        <time>2012-09-22T08:27:10Z</time>
      </trkpt>
      <trkpt lat="45.75601" lon="4.61814">
        <ele>755</ele>
        <time>2012-09-22T08:27:11Z</time>
      </trkpt>
      <trkpt lat="45.75604" lon="4.61807">
        <ele>755</ele>
        <time>2012-09-22T08:27:14Z</time>
      </trkpt>
      <trkpt lat="45.75605" lon="4.61805">
        <ele>755</ele>
        <time>2012-09-22T08:27:15Z</time>
      </trkpt>
      <trkpt lat="45.75606" lon="4.61803">
        <ele>756</ele>
        <time>2012-09-22T08:27:16Z</time>
      </trkpt>
      <trkpt lat="45.7561" lon="4.61794">
        <ele>756</ele>
        <time>2012-09-22T08:27:21Z</time>
      </trkpt>
      <trkpt lat="45.75609" lon="4.61791">
        <ele>756</ele>
        <time>2012-09-22T08:27:24Z</time>
      </trkpt>
      <trkpt lat="45.75608" lon="4.61791">
        <ele>757</ele>
        <time>2012-09-22T08:27:25Z</time>
      </trkpt>
      <trkpt lat="45.75607" lon="4.61792">
        <ele>757</ele>
        <time>2012-09-22T08:27:26Z</time>
      </trkpt>
      <trkpt lat="45.75605" lon="4.61793">
        <ele>757</ele>
        <time>2012-09-22T08:27:27Z</time>
      </trkpt>
      <trkpt lat="45.75604" lon="4.61793">
        <ele>757</ele>
        <time>2012-09-22T08:27:28Z</time>
      </trkpt>
      <trkpt lat="45.75602" lon="4.61792">
        <ele>758</ele>
        <time>2012-09-22T08:27:29Z</time>
      </trkpt>
      <trkpt lat="45.756" lon="4.61791">
        <ele>757</ele>
        <time>2012-09-22T08:27:30Z</time>
      </trkpt>
      <trkpt lat="45.75599" lon="4.6179">
        <ele>757</ele>
        <time>2012-09-22T08:27:31Z</time>
      </trkpt>
      <trkpt lat="45.75597" lon="4.61789">
        <ele>758</ele>
        <time>2012-09-22T08:27:32Z</time>
      </trkpt>
      <trkpt lat="45.75596" lon="4.61788">
        <ele>757</ele>
        <time>2012-09-22T08:27:33Z</time>
      </trkpt>
      <trkpt lat="45.75594" lon="4.61786">
        <ele>758</ele>
        <time>2012-09-22T08:27:34Z</time>
      </trkpt>
      <trkpt lat="45.75592" lon="4.61785">
        <ele>758</ele>
        <time>2012-09-22T08:27:35Z</time>
      </trkpt>
      <trkpt lat="45.7559" lon="4.61785">
        <ele>758</ele>
        <time>2012-09-22T08:27:36Z</time>
      </trkpt>
      <trkpt lat="45.75586" lon="4.61781">
        <ele>758</ele>
        <time>2012-09-22T08:27:39Z</time>
      </trkpt>
      <trkpt lat="45.75585" lon="4.61776">
        <ele>759</ele>
        <time>2012-09-22T08:27:42Z</time>
      </trkpt>
      <trkpt lat="45.75584" lon="4.61774">
        <ele>760</ele>
        <time>2012-09-22T08:27:43Z</time>
      </trkpt>
      <trkpt lat="45.75583" lon="4.61772">
        <ele>759</ele>
        <time>2012-09-22T08:27:44Z</time>
      </trkpt>
      <trkpt lat="45.75581" lon="4.61771">
        <ele>759</ele>
        <time>2012-09-22T08:27:45Z</time>
      </trkpt>
      <trkpt lat="45.75579" lon="4.6177">
        <ele>759</ele>
        <time>2012-09-22T08:27:46Z</time>
      </trkpt>
      <trkpt lat="45.75577" lon="4.61768">
        <ele>759</ele>
        <time>2012-09-22T08:27:47Z</time>
      </trkpt>
      <trkpt lat="45.75576" lon="4.61766">
        <ele>759</ele>
        <time>2012-09-22T08:27:48Z</time>
      </trkpt>
      <trkpt lat="45.75575" lon="4.61764">
        <ele>759</ele>
        <time>2012-09-22T08:27:49Z</time>
      </trkpt>
      <trkpt lat="45.75574" lon="4.61762">
        <ele>759</ele>
        <time>2012-09-22T08:27:50Z</time>
      </trkpt>
      <trkpt lat="45.75563" lon="4.61748">
        <ele>761</ele>
        <time>2012-09-22T08:27:57Z</time>
      </trkpt>
      <trkpt lat="45.75555" lon="4.61736">
        <ele>761</ele>
        <time>2012-09-22T08:28:06Z</time>
      </trkpt>
      <trkpt lat="45.7555" lon="4.6173">
        <ele>762</ele>
        <time>2012-09-22T08:28:10Z</time>
      </trkpt>
      <trkpt lat="45.75549" lon="4.61728">
        <ele>762</ele>
        <time>2012-09-22T08:28:11Z</time>
      </trkpt>
      <trkpt lat="45.75548" lon="4.61726">
        <ele>763</ele>
        <time>2012-09-22T08:28:12Z</time>
      </trkpt>
      <trkpt lat="45.75539" lon="4.61712">
        <ele>764</ele>
        <time>2012-09-22T08:28:20Z</time>
      </trkpt>
      <trkpt lat="45.7553" lon="4.617">
        <ele>765</ele>
        <time>2012-09-22T08:28:28Z</time>
      </trkpt>
      <trkpt lat="45.75522" lon="4.61689">
        <ele>766</ele>
        <time>2012-09-22T08:28:36Z</time>
      </trkpt>
      <trkpt lat="45.75513" lon="4.61679">
        <ele>767</ele>
        <time>2012-09-22T08:28:44Z</time>
      </trkpt>
      <trkpt lat="45.75501" lon="4.61668">
        <ele>768</ele>
        <time>2012-09-22T08:28:53Z</time>
      </trkpt>
      <trkpt lat="45.7549" lon="4.6166">
        <ele>769</ele>
        <time>2012-09-22T08:29:01Z</time>
      </trkpt>
      <trkpt lat="45.75479" lon="4.61651">
        <ele>771</ele>
        <time>2012-09-22T08:29:09Z</time>
      </trkpt>
      <trkpt lat="45.7547" lon="4.61646">
        <ele>772</ele>
        <time>2012-09-22T08:29:17Z</time>
      </trkpt>
      <trkpt lat="45.75458" lon="4.61639">
        <ele>774</ele>
        <time>2012-09-22T08:29:26Z</time>
      </trkpt>
      <trkpt lat="45.75447" lon="4.61635">
        <ele>775</ele>
        <time>2012-09-22T08:29:33Z</time>
      </trkpt>
      <trkpt lat="45.75435" lon="4.61632">
        <ele>776</ele>
        <time>2012-09-22T08:29:40Z</time>
      </trkpt>
      <trkpt lat="45.75418" lon="4.61625">
        <ele>776</ele>
        <time>2012-09-22T08:29:48Z</time>
      </trkpt>
      <trkpt lat="45.75402" lon="4.61618">
        <ele>777</ele>
        <time>2012-09-22T08:29:56Z</time>
      </trkpt>
      <trkpt lat="45.7539" lon="4.61611">
        <ele>778</ele>
        <time>2012-09-22T08:30:03Z</time>
      </trkpt>
      <trkpt lat="45.75373" lon="4.616">
        <ele>779</ele>
        <time>2012-09-22T08:30:12Z</time>
      </trkpt>
      <trkpt lat="45.75362" lon="4.61593">
        <ele>780</ele>
        <time>2012-09-22T08:30:19Z</time>
      </trkpt>
      <trkpt lat="45.75349" lon="4.61587">
        <ele>781</ele>
        <time>2012-09-22T08:30:25Z</time>
      </trkpt>
      <trkpt lat="45.75347" lon="4.61587">
        <ele>781</ele>
        <time>2012-09-22T08:30:26Z</time>
      </trkpt>
      <trkpt lat="45.75345" lon="4.61586">
        <ele>781</ele>
        <time>2012-09-22T08:30:27Z</time>
      </trkpt>
      <trkpt lat="45.75326" lon="4.61581">
        <ele>781</ele>
        <time>2012-09-22T08:30:35Z</time>
      </trkpt>
      <trkpt lat="45.75306" lon="4.6158">
        <ele>780</ele>
        <time>2012-09-22T08:30:43Z</time>
      </trkpt>
      <trkpt lat="45.75291" lon="4.61565">
        <ele>780</ele>
        <time>2012-09-22T08:30:50Z</time>
      </trkpt>
      <trkpt lat="45.7529" lon="4.61561">
        <ele>780</ele>
        <time>2012-09-22T08:30:51Z</time>
      </trkpt>
      <trkpt lat="45.75283" lon="4.61542">
        <ele>779</ele>
        <time>2012-09-22T08:30:55Z</time>
      </trkpt>
      <trkpt lat="45.75282" lon="4.61536">
        <ele>778</ele>
        <time>2012-09-22T08:30:56Z</time>
      </trkpt>
      <trkpt lat="45.75275" lon="4.6149">
        <ele>775</ele>
        <time>2012-09-22T08:31:02Z</time>
      </trkpt>
      <trkpt lat="45.75271" lon="4.61433">
        <ele>774</ele>
        <time>2012-09-22T08:31:07Z</time>
      </trkpt>
      <trkpt lat="45.75271" lon="4.61399">
        <ele>773</ele>
        <time>2012-09-22T08:31:10Z</time>
      </trkpt>
      <trkpt lat="45.75262" lon="4.6136">
        <ele>771</ele>
        <time>2012-09-22T08:31:14Z</time>
      </trkpt>
      <trkpt lat="45.75257" lon="4.61338">
        <ele>769</ele>
        <time>2012-09-22T08:31:16Z</time>
      </trkpt>
      <trkpt lat="45.75255" lon="4.61325">
        <ele>769</ele>
        <time>2012-09-22T08:31:17Z</time>
      </trkpt>
      <trkpt lat="45.75248" lon="4.6129">
        <ele>766</ele>
        <time>2012-09-22T08:31:20Z</time>
      </trkpt>
      <trkpt lat="45.75247" lon="4.61279">
        <ele>766</ele>
        <time>2012-09-22T08:31:21Z</time>
      </trkpt>
      <trkpt lat="45.75246" lon="4.6127">
        <ele>765</ele>
        <time>2012-09-22T08:31:22Z</time>
      </trkpt>
      <trkpt lat="45.75244" lon="4.6126">
        <ele>764</ele>
        <time>2012-09-22T08:31:23Z</time>
      </trkpt>
      <trkpt lat="45.75241" lon="4.61251">
        <ele>764</ele>
        <time>2012-09-22T08:31:24Z</time>
      </trkpt>
      <trkpt lat="45.75236" lon="4.61224">
        <ele>763</ele>
        <time>2012-09-22T08:31:27Z</time>
      </trkpt>
      <trkpt lat="45.75231" lon="4.61207">
        <ele>762</ele>
        <time>2012-09-22T08:31:29Z</time>
      </trkpt>
      <trkpt lat="45.75227" lon="4.61199">
        <ele>762</ele>
        <time>2012-09-22T08:31:30Z</time>
      </trkpt>
      <trkpt lat="45.75223" lon="4.61192">
        <ele>761</ele>
        <time>2012-09-22T08:31:31Z</time>
      </trkpt>
      <trkpt lat="45.75219" lon="4.61186">
        <ele>761</ele>
        <time>2012-09-22T08:31:32Z</time>
      </trkpt>
      <trkpt lat="45.75215" lon="4.61181">
        <ele>761</ele>
        <time>2012-09-22T08:31:33Z</time>
      </trkpt>
      <trkpt lat="45.75202" lon="4.61167">
        <ele>760</ele>
        <time>2012-09-22T08:31:36Z</time>
      </trkpt>
      <trkpt lat="45.75198" lon="4.61162">
        <ele>759</ele>
        <time>2012-09-22T08:31:37Z</time>
      </trkpt>
      <trkpt lat="45.75174" lon="4.6113">
        <ele>759</ele>
        <time>2012-09-22T08:31:43Z</time>
      </trkpt>
      <trkpt lat="45.75171" lon="4.61124">
        <ele>759</ele>
        <time>2012-09-22T08:31:44Z</time>
      </trkpt>
      <trkpt lat="45.75168" lon="4.61119">
        <ele>759</ele>
        <time>2012-09-22T08:31:45Z</time>
      </trkpt>
      <trkpt lat="45.75161" lon="4.61107">
        <ele>760</ele>
        <time>2012-09-22T08:31:48Z</time>
      </trkpt>
      <trkpt lat="45.75155" lon="4.611">
        <ele>759</ele>
        <time>2012-09-22T08:31:50Z</time>
      </trkpt>
      <trkpt lat="45.75146" lon="4.61081">
        <ele>759</ele>
        <time>2012-09-22T08:31:53Z</time>
      </trkpt>
      <trkpt lat="45.75144" lon="4.61075">
        <ele>758</ele>
        <time>2012-09-22T08:31:54Z</time>
      </trkpt>
      <trkpt lat="45.75143" lon="4.61069">
        <ele>759</ele>
        <time>2012-09-22T08:31:55Z</time>
      </trkpt>
      <trkpt lat="45.75141" lon="4.61063">
        <ele>758</ele>
        <time>2012-09-22T08:31:56Z</time>
      </trkpt>
      <trkpt lat="45.75139" lon="4.61057">
        <ele>758</ele>
        <time>2012-09-22T08:31:57Z</time>
      </trkpt>
      <trkpt lat="45.75136" lon="4.61051">
        <ele>758</ele>
        <time>2012-09-22T08:31:58Z</time>
      </trkpt>
      <trkpt lat="45.75131" lon="4.61045">
        <ele>757</ele>
        <time>2012-09-22T08:31:59Z</time>
      </trkpt>
      <trkpt lat="45.75125" lon="4.61042">
        <ele>756</ele>
        <time>2012-09-22T08:32:00Z</time>
      </trkpt>
      <trkpt lat="45.7512" lon="4.61039">
        <ele>755</ele>
        <time>2012-09-22T08:32:01Z</time>
      </trkpt>
      <trkpt lat="45.75114" lon="4.61037">
        <ele>755</ele>
        <time>2012-09-22T08:32:02Z</time>
      </trkpt>
      <trkpt lat="45.75102" lon="4.61034">
        <ele>755</ele>
        <time>2012-09-22T08:32:04Z</time>
      </trkpt>
      <trkpt lat="45.75081" lon="4.61032">
        <ele>755</ele>
        <time>2012-09-22T08:32:09Z</time>
      </trkpt>
      <trkpt lat="45.75073" lon="4.61031">
        <ele>755</ele>
        <time>2012-09-22T08:32:11Z</time>
      </trkpt>
      <trkpt lat="45.75064" lon="4.61032">
        <ele>755</ele>
        <time>2012-09-22T08:32:13Z</time>
      </trkpt>
      <trkpt lat="45.75059" lon="4.61033">
        <ele>755</ele>
        <time>2012-09-22T08:32:14Z</time>
      </trkpt>
      <trkpt lat="45.75036" lon="4.61037">
        <ele>756</ele>
        <time>2012-09-22T08:32:20Z</time>
      </trkpt>
      <trkpt lat="45.75013" lon="4.6104">
        <ele>757</ele>
        <time>2012-09-22T08:32:27Z</time>
      </trkpt>
      <trkpt lat="45.74996" lon="4.61046">
        <ele>758</ele>
        <time>2012-09-22T08:32:34Z</time>
      </trkpt>
      <trkpt lat="45.74982" lon="4.61047">
        <ele>758</ele>
        <time>2012-09-22T08:32:39Z</time>
      </trkpt>
      <trkpt lat="45.74971" lon="4.6105">
        <ele>756</ele>
        <time>2012-09-22T08:32:46Z</time>
      </trkpt>
      <trkpt lat="45.7497" lon="4.61052">
        <ele>755</ele>
        <time>2012-09-22T08:32:47Z</time>
      </trkpt>
      <trkpt lat="45.74957" lon="4.61061">
        <ele>754</ele>
        <time>2012-09-22T08:32:53Z</time>
      </trkpt>
      <trkpt lat="45.74924" lon="4.61082">
        <ele>752</ele>
        <time>2012-09-22T08:33:00Z</time>
      </trkpt>
      <trkpt lat="45.74897" lon="4.61098">
        <ele>751</ele>
        <time>2012-09-22T08:33:07Z</time>
      </trkpt>
      <trkpt lat="45.7488" lon="4.61098">
        <ele>750</ele>
        <time>2012-09-22T08:33:12Z</time>
      </trkpt>
      <trkpt lat="45.74866" lon="4.61097">
        <ele>747</ele>
        <time>2012-09-22T08:33:16Z</time>
      </trkpt>
      <trkpt lat="45.74847" lon="4.61098">
        <ele>744</ele>
        <time>2012-09-22T08:33:21Z</time>
      </trkpt>
      <trkpt lat="45.74844" lon="4.611">
        <ele>743</ele>
        <time>2012-09-22T08:33:22Z</time>
      </trkpt>
      <trkpt lat="45.74831" lon="4.61109">
        <ele>741</ele>
        <time>2012-09-22T08:33:26Z</time>
      </trkpt>
      <trkpt lat="45.74812" lon="4.6113">
        <ele>738</ele>
        <time>2012-09-22T08:33:32Z</time>
      </trkpt>
      <trkpt lat="45.74806" lon="4.61139">
        <ele>737</ele>
        <time>2012-09-22T08:33:34Z</time>
      </trkpt>
      <trkpt lat="45.74803" lon="4.61142">
        <ele>736</ele>
        <time>2012-09-22T08:33:35Z</time>
      </trkpt>
      <trkpt lat="45.748" lon="4.61143">
        <ele>736</ele>
        <time>2012-09-22T08:33:36Z</time>
      </trkpt>
      <trkpt lat="45.74797" lon="4.61145">
        <ele>736</ele>
        <time>2012-09-22T08:33:37Z</time>
      </trkpt>
      <trkpt lat="45.74795" lon="4.61147">
        <ele>736</ele>
        <time>2012-09-22T08:33:38Z</time>
      </trkpt>
      <trkpt lat="45.74793" lon="4.61149">
        <ele>735</ele>
        <time>2012-09-22T08:33:39Z</time>
      </trkpt>
      <trkpt lat="45.74792" lon="4.61152">
        <ele>735</ele>
        <time>2012-09-22T08:33:40Z</time>
      </trkpt>
      <trkpt lat="45.74791" lon="4.61154">
        <ele>734</ele>
        <time>2012-09-22T08:33:41Z</time>
      </trkpt>
      <trkpt lat="45.7479" lon="4.61155">
        <ele>735</ele>
        <time>2012-09-22T08:33:42Z</time>
      </trkpt>
      <trkpt lat="45.74789" lon="4.61158">
        <ele>735</ele>
        <time>2012-09-22T08:33:43Z</time>
      </trkpt>
      <trkpt lat="45.7479" lon="4.61161">
        <ele>735</ele>
        <time>2012-09-22T08:33:44Z</time>
      </trkpt>
      <trkpt lat="45.74792" lon="4.61161">
        <ele>736</ele>
        <time>2012-09-22T08:33:45Z</time>
      </trkpt>
      <trkpt lat="45.74792" lon="4.61159">
        <ele>735</ele>
        <time>2012-09-22T08:33:46Z</time>
      </trkpt>
      <trkpt lat="45.74792" lon="4.61157">
        <ele>735</ele>
        <time>2012-09-22T08:33:47Z</time>
      </trkpt>
      <trkpt lat="45.74791" lon="4.61155">
        <ele>735</ele>
        <time>2012-09-22T08:33:48Z</time>
      </trkpt>
      <trkpt lat="45.74791" lon="4.61156">
        <ele>736</ele>
        <time>2012-09-22T08:33:54Z</time>
      </trkpt>
      <trkpt lat="45.74791" lon="4.61156">
        <ele>736</ele>
        <time>2012-09-22T08:34:06Z</time>
      </trkpt>
      <trkpt lat="45.74789" lon="4.61155">
        <ele>736</ele>
        <time>2012-09-22T08:34:17Z</time>
      </trkpt>
      <trkpt lat="45.7479" lon="4.61153">
        <ele>736</ele>
        <time>2012-09-22T08:34:26Z</time>
      </trkpt>
      <trkpt lat="45.74791" lon="4.61152">
        <ele>735</ele>
        <time>2012-09-22T08:34:34Z</time>
      </trkpt>
      <trkpt lat="45.7479" lon="4.61152">
        <ele>736</ele>
        <time>2012-09-22T08:34:44Z</time>
      </trkpt>
      <trkpt lat="45.74787" lon="4.61153">
        <ele>736</ele>
        <time>2012-09-22T08:34:57Z</time>
      </trkpt>
      <trkpt lat="45.74787" lon="4.61153">
        <ele>736</ele>
        <time>2012-09-22T08:35:10Z</time>
      </trkpt>
      <trkpt lat="45.74786" lon="4.61153">
        <ele>736</ele>
        <time>2012-09-22T08:35:20Z</time>
      </trkpt>
      <trkpt lat="45.74787" lon="4.61153">
        <ele>736</ele>
        <time>2012-09-22T08:35:30Z</time>
      </trkpt>
      <trkpt lat="45.74787" lon="4.61152">
        <ele>736</ele>
        <time>2012-09-22T08:35:43Z</time>
      </trkpt>
      <trkpt lat="45.74788" lon="4.61153">
        <ele>736</ele>
        <time>2012-09-22T08:35:53Z</time>
      </trkpt>
      <trkpt lat="45.74786" lon="4.61152">
        <ele>736</ele>
        <time>2012-09-22T08:36:00Z</time>
      </trkpt>
      <trkpt lat="45.74779" lon="4.61147">
        <ele>736</ele>
        <time>2012-09-22T08:36:05Z</time>
      </trkpt>
      <trkpt lat="45.74769" lon="4.61139">
        <ele>736</ele>
        <time>2012-09-22T08:36:11Z</time>
      </trkpt>
      <trkpt lat="45.74769" lon="4.61136">
        <ele>736</ele>
        <time>2012-09-22T08:36:12Z</time>
      </trkpt>
      <trkpt lat="45.74771" lon="4.61133">
        <ele>736</ele>
        <time>2012-09-22T08:36:13Z</time>
      </trkpt>
      <trkpt lat="45.74773" lon="4.6113">
        <ele>736</ele>
        <time>2012-09-22T08:36:14Z</time>
      </trkpt>
      <trkpt lat="45.74776" lon="4.61126">
        <ele>736</ele>
        <time>2012-09-22T08:36:15Z</time>
      </trkpt>
      <trkpt lat="45.74779" lon="4.61123">
        <ele>736</ele>
        <time>2012-09-22T08:36:16Z</time>
      </trkpt>
      <trkpt lat="45.74782" lon="4.61119">
        <ele>736</ele>
        <time>2012-09-22T08:36:17Z</time>
      </trkpt>
      <trkpt lat="45.74784" lon="4.61115">
        <ele>735</ele>
        <time>2012-09-22T08:36:18Z</time>
      </trkpt>
      <trkpt lat="45.74787" lon="4.6111">
        <ele>735</ele>
        <time>2012-09-22T08:36:19Z</time>
      </trkpt>
      <trkpt lat="45.74793" lon="4.61102">
        <ele>735</ele>
        <time>2012-09-22T08:36:21Z</time>
      </trkpt>
      <trkpt lat="45.74797" lon="4.61099">
        <ele>734</ele>
        <time>2012-09-22T08:36:22Z</time>
      </trkpt>
      <trkpt lat="45.748" lon="4.61096">
        <ele>734</ele>
        <time>2012-09-22T08:36:23Z</time>
      </trkpt>
      <trkpt lat="45.74803" lon="4.61091">
        <ele>734</ele>
        <time>2012-09-22T08:36:24Z</time>
      </trkpt>
      <trkpt lat="45.74805" lon="4.61086">
        <ele>734</ele>
        <time>2012-09-22T08:36:25Z</time>
      </trkpt>
      <trkpt lat="45.7482" lon="4.61052">
        <ele>730</ele>
        <time>2012-09-22T08:36:31Z</time>
      </trkpt>
      <trkpt lat="45.74829" lon="4.61031">
        <ele>727</ele>
        <time>2012-09-22T08:36:34Z</time>
      </trkpt>
      <trkpt lat="45.74834" lon="4.61015">
        <ele>725</ele>
        <time>2012-09-22T08:36:36Z</time>
      </trkpt>
      <trkpt lat="45.74843" lon="4.60994">
        <ele>722</ele>
        <time>2012-09-22T08:36:39Z</time>
      </trkpt>
      <trkpt lat="45.74846" lon="4.60988">
        <ele>722</ele>
        <time>2012-09-22T08:36:40Z</time>
      </trkpt>
      <trkpt lat="45.74848" lon="4.60981">
        <ele>721</ele>
        <time>2012-09-22T08:36:41Z</time>
      </trkpt>
      <trkpt lat="45.74853" lon="4.60968">
        <ele>719</ele>
        <time>2012-09-22T08:36:43Z</time>
      </trkpt>
      <trkpt lat="45.74856" lon="4.60961">
        <ele>719</ele>
        <time>2012-09-22T08:36:44Z</time>
      </trkpt>
      <trkpt lat="45.74859" lon="4.60955">
        <ele>718</ele>
        <time>2012-09-22T08:36:45Z</time>
      </trkpt>
      <trkpt lat="45.74862" lon="4.6095">
        <ele>718</ele>
        <time>2012-09-22T08:36:46Z</time>
      </trkpt>
      <trkpt lat="45.74864" lon="4.60944">
        <ele>717</ele>
        <time>2012-09-22T08:36:47Z</time>
      </trkpt>
      <trkpt lat="45.74866" lon="4.60936">
        <ele>716</ele>
        <time>2012-09-22T08:36:48Z</time>
      </trkpt>
      <trkpt lat="45.74871" lon="4.6092">
        <ele>715</ele>
        <time>2012-09-22T08:36:50Z</time>
      </trkpt>
      <trkpt lat="45.74881" lon="4.60895">
        <ele>712</ele>
        <time>2012-09-22T08:36:53Z</time>
      </trkpt>
      <trkpt lat="45.74887" lon="4.60874">
        <ele>711</ele>
        <time>2012-09-22T08:36:56Z</time>
      </trkpt>
      <trkpt lat="45.7489" lon="4.60857">
        <ele>709</ele>
        <time>2012-09-22T08:36:58Z</time>
      </trkpt>
      <trkpt lat="45.74896" lon="4.60837">
        <ele>708</ele>
        <time>2012-09-22T08:37:00Z</time>
      </trkpt>
      <trkpt lat="45.74902" lon="4.60818">
        <ele>706</ele>
        <time>2012-09-22T08:37:02Z</time>
      </trkpt>
      <trkpt lat="45.74906" lon="4.60812">
        <ele>705</ele>
        <time>2012-09-22T08:37:03Z</time>
      </trkpt>
      <trkpt lat="45.74916" lon="4.60791">
        <ele>702</ele>
        <time>2012-09-22T08:37:07Z</time>
      </trkpt>
      <trkpt lat="45.74917" lon="4.60783">
        <ele>701</ele>
        <time>2012-09-22T08:37:08Z</time>
      </trkpt>
      <trkpt lat="45.74918" lon="4.60774">
        <ele>700</ele>
        <time>2012-09-22T08:37:09Z</time>
      </trkpt>
      <trkpt lat="45.74921" lon="4.60767">
        <ele>700</ele>
        <time>2012-09-22T08:37:10Z</time>
      </trkpt>
      <trkpt lat="45.74924" lon="4.60763">
        <ele>699</ele>
        <time>2012-09-22T08:37:11Z</time>
      </trkpt>
      <trkpt lat="45.74927" lon="4.60761">
        <ele>699</ele>
        <time>2012-09-22T08:37:12Z</time>
      </trkpt>
      <trkpt lat="45.74931" lon="4.60759">
        <ele>699</ele>
        <time>2012-09-22T08:37:13Z</time>
      </trkpt>
      <trkpt lat="45.74936" lon="4.60758">
        <ele>698</ele>
        <time>2012-09-22T08:37:14Z</time>
      </trkpt>
      <trkpt lat="45.7494" lon="4.60757">
        <ele>698</ele>
        <time>2012-09-22T08:37:15Z</time>
      </trkpt>
      <trkpt lat="45.74944" lon="4.60757">
        <ele>698</ele>
        <time>2012-09-22T08:37:16Z</time>
      </trkpt>
      <trkpt lat="45.74953" lon="4.60759">
        <ele>697</ele>
        <time>2012-09-22T08:37:18Z</time>
      </trkpt>
      <trkpt lat="45.74962" lon="4.60762">
        <ele>697</ele>
        <time>2012-09-22T08:37:20Z</time>
      </trkpt>
      <trkpt lat="45.74971" lon="4.60767">
        <ele>697</ele>
        <time>2012-09-22T08:37:22Z</time>
      </trkpt>
      <trkpt lat="45.74975" lon="4.6077">
        <ele>697</ele>
        <time>2012-09-22T08:37:23Z</time>
      </trkpt>
      <trkpt lat="45.74994" lon="4.60776">
        <ele>697</ele>
        <time>2012-09-22T08:37:28Z</time>
      </trkpt>
      <trkpt lat="45.75013" lon="4.60783">
        <ele>698</ele>
        <time>2012-09-22T08:37:35Z</time>
      </trkpt>
      <trkpt lat="45.75033" lon="4.60785">
        <ele>698</ele>
        <time>2012-09-22T08:37:41Z</time>
      </trkpt>
      <trkpt lat="45.75053" lon="4.60785">
        <ele>698</ele>
        <time>2012-09-22T08:37:47Z</time>
      </trkpt>
      <trkpt lat="45.75082" lon="4.60786">
        <ele>698</ele>
        <time>2012-09-22T08:37:55Z</time>
      </trkpt>
      <trkpt lat="45.75108" lon="4.60784">
        <ele>699</ele>
        <time>2012-09-22T08:38:02Z</time>
      </trkpt>
      <trkpt lat="45.75131" lon="4.6078">
        <ele>701</ele>
        <time>2012-09-22T08:38:09Z</time>
      </trkpt>
      <trkpt lat="45.75153" lon="4.60778">
        <ele>702</ele>
        <time>2012-09-22T08:38:17Z</time>
      </trkpt>
      <trkpt lat="45.75176" lon="4.60777">
        <ele>704</ele>
        <time>2012-09-22T08:38:25Z</time>
      </trkpt>
      <trkpt lat="45.75179" lon="4.60779">
        <ele>704</ele>
        <time>2012-09-22T08:38:26Z</time>
      </trkpt>
      <trkpt lat="45.75182" lon="4.60781">
        <ele>704</ele>
        <time>2012-09-22T08:38:27Z</time>
      </trkpt>
      <trkpt lat="45.75186" lon="4.60782">
        <ele>704</ele>
        <time>2012-09-22T08:38:28Z</time>
      </trkpt>
      <trkpt lat="45.75188" lon="4.60784">
        <ele>704</ele>
        <time>2012-09-22T08:38:29Z</time>
      </trkpt>
      <trkpt lat="45.75204" lon="4.60792">
        <ele>704</ele>
        <time>2012-09-22T08:38:35Z</time>
      </trkpt>
      <trkpt lat="45.75209" lon="4.60802">
        <ele>704</ele>
        <time>2012-09-22T08:38:38Z</time>
      </trkpt>
      <trkpt lat="45.7522" lon="4.60829">
        <ele>704</ele>
        <time>2012-09-22T08:38:45Z</time>
      </trkpt>
      <trkpt lat="45.75229" lon="4.60848">
        <ele>704</ele>
        <time>2012-09-22T08:38:51Z</time>
      </trkpt>
      <trkpt lat="45.75231" lon="4.60852">
        <ele>703</ele>
        <time>2012-09-22T08:38:52Z</time>
      </trkpt>
      <trkpt lat="45.75232" lon="4.60856">
        <ele>704</ele>
        <time>2012-09-22T08:38:53Z</time>
      </trkpt>
      <trkpt lat="45.75234" lon="4.6086">
        <ele>704</ele>
        <time>2012-09-22T08:38:54Z</time>
      </trkpt>
      <trkpt lat="45.75246" lon="4.6088">
        <ele>704</ele>
        <time>2012-09-22T08:39:01Z</time>
      </trkpt>
      <trkpt lat="45.75258" lon="4.609">
        <ele>704</ele>
        <time>2012-09-22T08:39:08Z</time>
      </trkpt>
      <trkpt lat="45.75273" lon="4.60913">
        <ele>705</ele>
        <time>2012-09-22T08:39:14Z</time>
      </trkpt>
      <trkpt lat="45.75287" lon="4.60926">
        <ele>707</ele>
        <time>2012-09-22T08:39:21Z</time>
      </trkpt>
      <trkpt lat="45.75299" lon="4.6095">
        <ele>708</ele>
        <time>2012-09-22T08:39:27Z</time>
      </trkpt>
      <trkpt lat="45.753" lon="4.60954">
        <ele>708</ele>
        <time>2012-09-22T08:39:28Z</time>
      </trkpt>
      <trkpt lat="45.75301" lon="4.60957">
        <ele>708</ele>
        <time>2012-09-22T08:39:29Z</time>
      </trkpt>
      <trkpt lat="45.75301" lon="4.6096">
        <ele>708</ele>
        <time>2012-09-22T08:39:30Z</time>
      </trkpt>
      <trkpt lat="45.75304" lon="4.60963">
        <ele>708</ele>
        <time>2012-09-22T08:39:31Z</time>
      </trkpt>
      <trkpt lat="45.75307" lon="4.60966">
        <ele>708</ele>
        <time>2012-09-22T08:39:32Z</time>
      </trkpt>
      <trkpt lat="45.75309" lon="4.6097">
        <ele>708</ele>
        <time>2012-09-22T08:39:33Z</time>
      </trkpt>
      <trkpt lat="45.75312" lon="4.60974">
        <ele>708</ele>
        <time>2012-09-22T08:39:34Z</time>
      </trkpt>
      <trkpt lat="45.75314" lon="4.60977">
        <ele>708</ele>
        <time>2012-09-22T08:39:35Z</time>
      </trkpt>
      <trkpt lat="45.75316" lon="4.6098">
        <ele>708</ele>
        <time>2012-09-22T08:39:36Z</time>
      </trkpt>
      <trkpt lat="45.75318" lon="4.60981">
        <ele>708</ele>
        <time>2012-09-22T08:39:37Z</time>
      </trkpt>
      <trkpt lat="45.75321" lon="4.60985">
        <ele>708</ele>
        <time>2012-09-22T08:39:38Z</time>
      </trkpt>
      <trkpt lat="45.75323" lon="4.60988">
        <ele>708</ele>
        <time>2012-09-22T08:39:39Z</time>
      </trkpt>
      <trkpt lat="45.75325" lon="4.60991">
        <ele>707</ele>
        <time>2012-09-22T08:39:40Z</time>
      </trkpt>
      <trkpt lat="45.75328" lon="4.60994">
        <ele>708</ele>
        <time>2012-09-22T08:39:41Z</time>
      </trkpt>
      <trkpt lat="45.75342" lon="4.61006">
        <ele>707</ele>
        <time>2012-09-22T08:39:46Z</time>
      </trkpt>
      <trkpt lat="45.75358" lon="4.61018">
        <ele>704</ele>
        <time>2012-09-22T08:39:52Z</time>
      </trkpt>
      <trkpt lat="45.75366" lon="4.61019">
        <ele>702</ele>
        <time>2012-09-22T08:39:53Z</time>
      </trkpt>
      <trkpt lat="45.75379" lon="4.6102">
        <ele>702</ele>
        <time>2012-09-22T08:39:55Z</time>
      </trkpt>
      <trkpt lat="45.7541" lon="4.61024">
        <ele>699</ele>
        <time>2012-09-22T08:39:59Z</time>
      </trkpt>
      <trkpt lat="45.75427" lon="4.61024">
        <ele>699</ele>
        <time>2012-09-22T08:40:01Z</time>
      </trkpt>
      <trkpt lat="45.75434" lon="4.61026">
        <ele>699</ele>
        <time>2012-09-22T08:40:02Z</time>
      </trkpt>
      <trkpt lat="45.7545" lon="4.61034">
        <ele>700</ele>
        <time>2012-09-22T08:40:06Z</time>
      </trkpt>
      <trkpt lat="45.75456" lon="4.61038">
        <ele>701</ele>
        <time>2012-09-22T08:40:08Z</time>
      </trkpt>
      <trkpt lat="45.75459" lon="4.61039">
        <ele>701</ele>
        <time>2012-09-22T08:40:09Z</time>
      </trkpt>
      <trkpt lat="45.75462" lon="4.6104">
        <ele>701</ele>
        <time>2012-09-22T08:40:10Z</time>
      </trkpt>
      <trkpt lat="45.75469" lon="4.61047">
        <ele>703</ele>
        <time>2012-09-22T08:40:14Z</time>
      </trkpt>
      <trkpt lat="45.75482" lon="4.61056">
        <ele>704</ele>
        <time>2012-09-22T08:40:20Z</time>
      </trkpt>
      <trkpt lat="45.75494" lon="4.61068">
        <ele>706</ele>
        <time>2012-09-22T08:40:26Z</time>
      </trkpt>
      <trkpt lat="45.75496" lon="4.61073">
        <ele>706</ele>
        <time>2012-09-22T08:40:28Z</time>
      </trkpt>
      <trkpt lat="45.75498" lon="4.61074">
        <ele>706</ele>
        <time>2012-09-22T08:40:29Z</time>
      </trkpt>
      <trkpt lat="45.75516" lon="4.61089">
        <ele>709</ele>
        <time>2012-09-22T08:40:37Z</time>
      </trkpt>
      <trkpt lat="45.75528" lon="4.61099">
        <ele>710</ele>
        <time>2012-09-22T08:40:45Z</time>
      </trkpt>
      <trkpt lat="45.75531" lon="4.61102">
        <ele>710</ele>
        <time>2012-09-22T08:40:47Z</time>
      </trkpt>
      <trkpt lat="45.75534" lon="4.61106">
        <ele>710</ele>
        <time>2012-09-22T08:40:50Z</time>
      </trkpt>
      <trkpt lat="45.75536" lon="4.61107">
        <ele>710</ele>
        <time>2012-09-22T08:40:51Z</time>
      </trkpt>
      <trkpt lat="45.75537" lon="4.61108">
        <ele>710</ele>
        <time>2012-09-22T08:40:52Z</time>
      </trkpt>
      <trkpt lat="45.75539" lon="4.61109">
        <ele>709</ele>
        <time>2012-09-22T08:40:53Z</time>
      </trkpt>
      <trkpt lat="45.75543" lon="4.61113">
        <ele>710</ele>
        <time>2012-09-22T08:40:56Z</time>
      </trkpt>
      <trkpt lat="45.75545" lon="4.61115">
        <ele>710</ele>
        <time>2012-09-22T08:40:57Z</time>
      </trkpt>
      <trkpt lat="45.75546" lon="4.61117">
        <ele>710</ele>
        <time>2012-09-22T08:40:58Z</time>
      </trkpt>
      <trkpt lat="45.75548" lon="4.61118">
        <ele>709</ele>
        <time>2012-09-22T08:40:59Z</time>
      </trkpt>
      <trkpt lat="45.7555" lon="4.61119">
        <ele>710</ele>
        <time>2012-09-22T08:41:00Z</time>
      </trkpt>
      <trkpt lat="45.75552" lon="4.61121">
        <ele>710</ele>
        <time>2012-09-22T08:41:01Z</time>
      </trkpt>
      <trkpt lat="45.75554" lon="4.61123">
        <ele>711</ele>
        <time>2012-09-22T08:41:02Z</time>
      </trkpt>
      <trkpt lat="45.75571" lon="4.61137">
        <ele>711</ele>
        <time>2012-09-22T08:41:09Z</time>
      </trkpt>
      <trkpt lat="45.75584" lon="4.61155">
        <ele>711</ele>
        <time>2012-09-22T08:41:17Z</time>
      </trkpt>
      <trkpt lat="45.75586" lon="4.61157">
        <ele>711</ele>
        <time>2012-09-22T08:41:18Z</time>
      </trkpt>
      <trkpt lat="45.75597" lon="4.61166">
        <ele>712</ele>
        <time>2012-09-22T08:41:24Z</time>
      </trkpt>
      <trkpt lat="45.75602" lon="4.61174">
        <ele>712</ele>
        <time>2012-09-22T08:41:27Z</time>
      </trkpt>
      <trkpt lat="45.75604" lon="4.61177">
        <ele>712</ele>
        <time>2012-09-22T08:41:28Z</time>
      </trkpt>
      <trkpt lat="45.75605" lon="4.61178">
        <ele>712</ele>
        <time>2012-09-22T08:41:29Z</time>
      </trkpt>
      <trkpt lat="45.75607" lon="4.61179">
        <ele>712</ele>
        <time>2012-09-22T08:41:30Z</time>
      </trkpt>
      <trkpt lat="45.75609" lon="4.6118">
        <ele>713</ele>
        <time>2012-09-22T08:41:31Z</time>
      </trkpt>
      <trkpt lat="45.75611" lon="4.61182">
        <ele>712</ele>
        <time>2012-09-22T08:41:32Z</time>
      </trkpt>
      <trkpt lat="45.75613" lon="4.61183">
        <ele>713</ele>
        <time>2012-09-22T08:41:33Z</time>
      </trkpt>
      <trkpt lat="45.75614" lon="4.61186">
        <ele>713</ele>
        <time>2012-09-22T08:41:34Z</time>
      </trkpt>
      <trkpt lat="45.75616" lon="4.61189">
        <ele>713</ele>
        <time>2012-09-22T08:41:35Z</time>
      </trkpt>
      <trkpt lat="45.7563" lon="4.61207">
        <ele>714</ele>
        <time>2012-09-22T08:41:43Z</time>
      </trkpt>
      <trkpt lat="45.75643" lon="4.61221">
        <ele>714</ele>
        <time>2012-09-22T08:41:49Z</time>
      </trkpt>
      <trkpt lat="45.75654" lon="4.61237">
        <ele>715</ele>
        <time>2012-09-22T08:41:55Z</time>
      </trkpt>
      <trkpt lat="45.75656" lon="4.61239">
        <ele>715</ele>
        <time>2012-09-22T08:41:56Z</time>
      </trkpt>
      <trkpt lat="45.75669" lon="4.61261">
        <ele>716</ele>
        <time>2012-09-22T08:42:04Z</time>
      </trkpt>
      <trkpt lat="45.75672" lon="4.61267">
        <ele>716</ele>
        <time>2012-09-22T08:42:07Z</time>
      </trkpt>
      <trkpt lat="45.75673" lon="4.61269">
        <ele>716</ele>
        <time>2012-09-22T08:42:08Z</time>
      </trkpt>
      <trkpt lat="45.75674" lon="4.61272">
        <ele>717</ele>
        <time>2012-09-22T08:42:09Z</time>
      </trkpt>
      <trkpt lat="45.75675" lon="4.61275">
        <ele>717</ele>
        <time>2012-09-22T08:42:10Z</time>
      </trkpt>
      <trkpt lat="45.75677" lon="4.61277">
        <ele>717</ele>
        <time>2012-09-22T08:42:11Z</time>
      </trkpt>
      <trkpt lat="45.75678" lon="4.61279">
        <ele>717</ele>
        <time>2012-09-22T08:42:12Z</time>
      </trkpt>
      <trkpt lat="45.75679" lon="4.61281">
        <ele>717</ele>
        <time>2012-09-22T08:42:13Z</time>
      </trkpt>
      <trkpt lat="45.75681" lon="4.61283">
        <ele>717</ele>
        <time>2012-09-22T08:42:14Z</time>
      </trkpt>
      <trkpt lat="45.75692" lon="4.61298">
        <ele>719</ele>
        <time>2012-09-22T08:42:21Z</time>
      </trkpt>
      <trkpt lat="45.75693" lon="4.613">
        <ele>719</ele>
        <time>2012-09-22T08:42:22Z</time>
      </trkpt>
      <trkpt lat="45.75694" lon="4.61303">
        <ele>719</ele>
        <time>2012-09-22T08:42:23Z</time>
      </trkpt>
      <trkpt lat="45.75699" lon="4.61312">
        <ele>720</ele>
        <time>2012-09-22T08:42:27Z</time>
      </trkpt>
      <trkpt lat="45.75701" lon="4.61314">
        <ele>720</ele>
        <time>2012-09-22T08:42:28Z</time>
      </trkpt>
      <trkpt lat="45.75705" lon="4.61319">
        <ele>720</ele>
        <time>2012-09-22T08:42:31Z</time>
      </trkpt>
      <trkpt lat="45.75705" lon="4.61321">
        <ele>720</ele>
        <time>2012-09-22T08:42:32Z</time>
      </trkpt>
      <trkpt lat="45.75706" lon="4.61323">
        <ele>721</ele>
        <time>2012-09-22T08:42:33Z</time>
      </trkpt>
      <trkpt lat="45.75707" lon="4.61325">
        <ele>721</ele>
        <time>2012-09-22T08:42:34Z</time>
      </trkpt>
      <trkpt lat="45.75708" lon="4.61327">
        <ele>721</ele>
        <time>2012-09-22T08:42:35Z</time>
      </trkpt>
      <trkpt lat="45.75709" lon="4.61329">
        <ele>721</ele>
        <time>2012-09-22T08:42:36Z</time>
      </trkpt>
      <trkpt lat="45.75713" lon="4.61335">
        <ele>722</ele>
        <time>2012-09-22T08:42:39Z</time>
      </trkpt>
      <trkpt lat="45.75714" lon="4.61337">
        <ele>722</ele>
        <time>2012-09-22T08:42:40Z</time>
      </trkpt>
      <trkpt lat="45.75719" lon="4.6135">
        <ele>722</ele>
        <time>2012-09-22T08:42:48Z</time>
      </trkpt>
      <trkpt lat="45.75726" lon="4.61354">
        <ele>722</ele>
        <time>2012-09-22T08:43:01Z</time>
      </trkpt>
      <trkpt lat="45.75726" lon="4.61354">
        <ele>723</ele>
        <time>2012-09-22T08:43:16Z</time>
      </trkpt>
      <trkpt lat="45.75725" lon="4.61358">
        <ele>722</ele>
        <time>2012-09-22T08:43:23Z</time>
      </trkpt>
      <trkpt lat="45.75725" lon="4.61366">
        <ele>724</ele>
        <time>2012-09-22T08:43:30Z</time>
      </trkpt>
      <trkpt lat="45.75727" lon="4.61367">
        <ele>723</ele>
        <time>2012-09-22T08:43:40Z</time>
      </trkpt>
      <trkpt lat="45.75726" lon="4.61367">
        <ele>724</ele>
        <time>2012-09-22T08:43:58Z</time>
      </trkpt>
      <trkpt lat="45.75724" lon="4.6137">
        <ele>724</ele>
        <time>2012-09-22T08:44:19Z</time>
      </trkpt>
      <trkpt lat="45.75727" lon="4.6136">
        <ele>723</ele>
        <time>2012-09-22T08:44:43Z</time>
      </trkpt>
      <trkpt lat="45.75729" lon="4.61362">
        <ele>724</ele>
        <time>2012-09-22T08:45:03Z</time>
      </trkpt>
      <trkpt lat="45.75728" lon="4.61361">
        <ele>724</ele>
        <time>2012-09-22T08:45:19Z</time>
      </trkpt>
      <trkpt lat="45.75723" lon="4.61364">
        <ele>724</ele>
        <time>2012-09-22T08:45:40Z</time>
      </trkpt>
      <trkpt lat="45.75726" lon="4.61365">
        <ele>724</ele>
        <time>2012-09-22T08:45:56Z</time>
      </trkpt>
      <trkpt lat="45.75724" lon="4.6137">
        <ele>724</ele>
        <time>2012-09-22T08:46:16Z</time>
      </trkpt>
      <trkpt lat="45.75724" lon="4.6137">
        <ele>724</ele>
        <time>2012-09-22T08:46:36Z</time>
      </trkpt>
      <trkpt lat="45.75726" lon="4.61366">
        <ele>724</ele>
        <time>2012-09-22T08:46:51Z</time>
      </trkpt>
      <trkpt lat="45.75726" lon="4.61364">
        <ele>724</ele>
        <time>2012-09-22T08:47:10Z</time>
      </trkpt>
      <trkpt lat="45.75727" lon="4.61365">
        <ele>724</ele>
        <time>2012-09-22T08:47:30Z</time>
      </trkpt>
      <trkpt lat="45.75728" lon="4.61363">
        <ele>724</ele>
        <time>2012-09-22T08:47:49Z</time>
      </trkpt>
      <trkpt lat="45.75728" lon="4.61358">
        <ele>724</ele>
        <time>2012-09-22T08:48:11Z</time>
      </trkpt>
      <trkpt lat="45.75729" lon="4.61359">
        <ele>724</ele>
        <time>2012-09-22T08:48:30Z</time>
      </trkpt>
      <trkpt lat="45.75733" lon="4.61355">
        <ele>724</ele>
        <time>2012-09-22T08:48:50Z</time>
      </trkpt>
      <trkpt lat="45.75731" lon="4.61356">
        <ele>725</ele>
        <time>2012-09-22T08:49:12Z</time>
      </trkpt>
      <trkpt lat="45.75731" lon="4.61359">
        <ele>724</ele>
        <time>2012-09-22T08:49:27Z</time>
      </trkpt>
      <trkpt lat="45.75729" lon="4.61355">
        <ele>725</ele>
        <time>2012-09-22T08:49:50Z</time>
      </trkpt>
      <trkpt lat="45.75728" lon="4.61359">
        <ele>724</ele>
        <time>2012-09-22T08:50:07Z</time>
      </trkpt>
      <trkpt lat="45.75727" lon="4.61359">
        <ele>725</ele>
        <time>2012-09-22T08:50:23Z</time>
      </trkpt>
      <trkpt lat="45.75724" lon="4.61356">
        <ele>724</ele>
        <time>2012-09-22T08:50:45Z</time>
      </trkpt>
      <trkpt lat="45.75732" lon="4.61364">
        <ele>725</ele>
        <time>2012-09-22T08:51:12Z</time>
      </trkpt>
      <trkpt lat="45.7574" lon="4.61359">
        <ele>725</ele>
        <time>2012-09-22T08:51:37Z</time>
      </trkpt>
      <trkpt lat="45.75742" lon="4.61357">
        <ele>726</ele>
        <time>2012-09-22T08:52:03Z</time>
      </trkpt>
      <trkpt lat="45.75737" lon="4.61354">
        <ele>725</ele>
        <time>2012-09-22T08:52:20Z</time>
      </trkpt>
      <trkpt lat="45.75734" lon="4.61349">
        <ele>726</ele>
        <time>2012-09-22T08:52:46Z</time>
      </trkpt>
      <trkpt lat="45.75735" lon="4.61347">
        <ele>725</ele>
        <time>2012-09-22T08:53:06Z</time>
      </trkpt>
      <trkpt lat="45.75733" lon="4.61349">
        <ele>725</ele>
        <time>2012-09-22T08:53:28Z</time>
      </trkpt>
      <trkpt lat="45.75727" lon="4.61362">
        <ele>725</ele>
        <time>2012-09-22T08:53:51Z</time>
      </trkpt>
      <trkpt lat="45.75728" lon="4.61361">
        <ele>725</ele>
        <time>2012-09-22T08:54:11Z</time>
      </trkpt>
      <trkpt lat="45.7574" lon="4.61355">
        <ele>726</ele>
        <time>2012-09-22T08:54:30Z</time>
      </trkpt>
      <trkpt lat="45.75733" lon="4.61358">
        <ele>726</ele>
        <time>2012-09-22T08:54:54Z</time>
      </trkpt>
      <trkpt lat="45.75737" lon="4.61357">
        <ele>726</ele>
        <time>2012-09-22T08:55:16Z</time>
      </trkpt>
      <trkpt lat="45.75736" lon="4.61368">
        <ele>726</ele>
        <time>2012-09-22T08:55:38Z</time>
      </trkpt>
      <trkpt lat="45.75732" lon="4.61361">
        <ele>726</ele>
        <time>2012-09-22T08:56:03Z</time>
      </trkpt>
      <trkpt lat="45.75731" lon="4.6136">
        <ele>726</ele>
        <time>2012-09-22T08:56:26Z</time>
      </trkpt>
      <trkpt lat="45.7573" lon="4.61357">
        <ele>727</ele>
        <time>2012-09-22T08:56:51Z</time>
      </trkpt>
      <trkpt lat="45.75731" lon="4.61357">
        <ele>726</ele>
        <time>2012-09-22T08:57:06Z</time>
      </trkpt>
      <trkpt lat="45.75731" lon="4.61368">
        <ele>727</ele>
        <time>2012-09-22T08:57:30Z</time>
      </trkpt>
      <trkpt lat="45.7573" lon="4.61363">
        <ele>726</ele>
        <time>2012-09-22T08:57:55Z</time>
      </trkpt>
      <trkpt lat="45.75729" lon="4.6136">
        <ele>726</ele>
        <time>2012-09-22T08:58:17Z</time>
      </trkpt>
      <trkpt lat="45.75732" lon="4.61357">
        <ele>727</ele>
        <time>2012-09-22T08:58:36Z</time>
      </trkpt>
      <trkpt lat="45.75732" lon="4.61357">
        <ele>726</ele>
        <time>2012-09-22T08:59:01Z</time>
      </trkpt>
      <trkpt lat="45.75732" lon="4.61356">
        <ele>726</ele>
        <time>2012-09-22T08:59:24Z</time>
      </trkpt>
      <trkpt lat="45.75728" lon="4.6135">
        <ele>726</ele>
        <time>2012-09-22T08:59:47Z</time>
      </trkpt>
      <trkpt lat="45.75732" lon="4.61366">
        <ele>727</ele>
        <time>2012-09-22T09:00:08Z</time>
      </trkpt>
      <trkpt lat="45.7573" lon="4.61362">
        <ele>727</ele>
        <time>2012-09-22T09:00:32Z</time>
      </trkpt>
      <trkpt lat="45.7573" lon="4.61361">
        <ele>727</ele>
        <time>2012-09-22T09:00:44Z</time>
      </trkpt>
      <trkpt lat="45.75733" lon="4.61359">
        <ele>727</ele>
        <time>2012-09-22T09:01:02Z</time>
      </trkpt>
      <trkpt lat="45.75731" lon="4.61362">
        <ele>727</ele>
        <time>2012-09-22T09:01:17Z</time>
      </trkpt>
      <trkpt lat="45.75732" lon="4.61359">
        <ele>727</ele>
        <time>2012-09-22T09:01:33Z</time>
      </trkpt>
      <trkpt lat="45.75734" lon="4.61354">
        <ele>727</ele>
        <time>2012-09-22T09:01:43Z</time>
      </trkpt>
      <trkpt lat="45.75737" lon="4.61363">
        <ele>726</ele>
        <time>2012-09-22T09:01:48Z</time>
      </trkpt>
      <trkpt lat="45.75738" lon="4.61368">
        <ele>727</ele>
        <time>2012-09-22T09:01:50Z</time>
      </trkpt>
      <trkpt lat="45.75737" lon="4.6137">
        <ele>726</ele>
        <time>2012-09-22T09:01:51Z</time>
      </trkpt>
      <trkpt lat="45.75738" lon="4.61391">
        <ele>727</ele>
        <time>2012-09-22T09:01:58Z</time>
      </trkpt>
      <trkpt lat="45.75735" lon="4.61412">
        <ele>728</ele>
        <time>2012-09-22T09:02:05Z</time>
      </trkpt>
      <trkpt lat="45.75733" lon="4.61429">
        <ele>728</ele>
        <time>2012-09-22T09:02:11Z</time>
      </trkpt>
      <trkpt lat="45.75728" lon="4.61452">
        <ele>729</ele>
        <time>2012-09-22T09:02:19Z</time>
      </trkpt>
      <trkpt lat="45.75722" lon="4.61473">
        <ele>731</ele>
        <time>2012-09-22T09:02:28Z</time>
      </trkpt>
      <trkpt lat="45.75719" lon="4.61491">
        <ele>733</ele>
        <time>2012-09-22T09:02:36Z</time>
      </trkpt>
      <trkpt lat="45.75716" lon="4.61511">
        <ele>734</ele>
        <time>2012-09-22T09:02:45Z</time>
      </trkpt>
      <trkpt lat="45.75715" lon="4.6153">
        <ele>736</ele>
        <time>2012-09-22T09:02:54Z</time>
      </trkpt>
      <trkpt lat="45.75713" lon="4.61543">
        <ele>737</ele>
        <time>2012-09-22T09:03:02Z</time>
      </trkpt>
      <trkpt lat="45.75714" lon="4.61558">
        <ele>738</ele>
        <time>2012-09-22T09:03:09Z</time>
      </trkpt>
      <trkpt lat="45.75713" lon="4.61577">
        <ele>739</ele>
        <time>2012-09-22T09:03:18Z</time>
      </trkpt>
      <trkpt lat="45.75715" lon="4.6159">
        <ele>741</ele>
        <time>2012-09-22T09:03:25Z</time>
      </trkpt>
      <trkpt lat="45.75713" lon="4.61604">
        <ele>743</ele>
        <time>2012-09-22T09:03:32Z</time>
      </trkpt>
      <trkpt lat="45.75713" lon="4.61623">
        <ele>744</ele>
        <time>2012-09-22T09:03:41Z</time>
      </trkpt>
      <trkpt lat="45.75711" lon="4.61636">
        <ele>746</ele>
        <time>2012-09-22T09:03:49Z</time>
      </trkpt>
      <trkpt lat="45.75708" lon="4.61655">
        <ele>747</ele>
        <time>2012-09-22T09:03:57Z</time>
      </trkpt>
      <trkpt lat="45.75708" lon="4.61658">
        <ele>748</ele>
        <time>2012-09-22T09:03:58Z</time>
      </trkpt>
      <trkpt lat="45.75708" lon="4.6166">
        <ele>747</ele>
        <time>2012-09-22T09:03:59Z</time>
      </trkpt>
      <trkpt lat="45.75707" lon="4.61662">
        <ele>748</ele>
        <time>2012-09-22T09:04:00Z</time>
      </trkpt>
      <trkpt lat="45.75707" lon="4.61664">
        <ele>748</ele>
        <time>2012-09-22T09:04:01Z</time>
      </trkpt>
      <trkpt lat="45.75706" lon="4.61667">
        <ele>748</ele>
        <time>2012-09-22T09:04:02Z</time>
      </trkpt>
      <trkpt lat="45.75705" lon="4.61669">
        <ele>748</ele>
        <time>2012-09-22T09:04:03Z</time>
      </trkpt>
      <trkpt lat="45.75704" lon="4.6167">
        <ele>749</ele>
        <time>2012-09-22T09:04:04Z</time>
      </trkpt>
      <trkpt lat="45.75702" lon="4.61672">
        <ele>749</ele>
        <time>2012-09-22T09:04:05Z</time>
      </trkpt>
      <trkpt lat="45.75701" lon="4.61673">
        <ele>749</ele>
        <time>2012-09-22T09:04:06Z</time>
      </trkpt>
      <trkpt lat="45.75695" lon="4.61675">
        <ele>750</ele>
        <time>2012-09-22T09:04:10Z</time>
      </trkpt>
      <trkpt lat="45.75694" lon="4.61675">
        <ele>751</ele>
        <time>2012-09-22T09:04:11Z</time>
      </trkpt>
      <trkpt lat="45.75693" lon="4.61673">
        <ele>751</ele>
        <time>2012-09-22T09:04:12Z</time>
      </trkpt>
      <trkpt lat="45.75692" lon="4.61671">
        <ele>751</ele>
        <time>2012-09-22T09:04:13Z</time>
      </trkpt>
      <trkpt lat="45.7569" lon="4.6167">
        <ele>751</ele>
        <time>2012-09-22T09:04:14Z</time>
      </trkpt>
      <trkpt lat="45.7569" lon="4.61668">
        <ele>751</ele>
        <time>2012-09-22T09:04:15Z</time>
      </trkpt>
      <trkpt lat="45.75689" lon="4.61666">
        <ele>751</ele>
        <time>2012-09-22T09:04:16Z</time>
      </trkpt>
      <trkpt lat="45.75688" lon="4.61664">
        <ele>752</ele>
        <time>2012-09-22T09:04:17Z</time>
      </trkpt>
      <trkpt lat="45.75688" lon="4.61662">
        <ele>752</ele>
        <time>2012-09-22T09:04:18Z</time>
      </trkpt>
      <trkpt lat="45.75687" lon="4.61661">
        <ele>752</ele>
        <time>2012-09-22T09:04:19Z</time>
      </trkpt>
      <trkpt lat="45.75686" lon="4.61659">
        <ele>752</ele>
        <time>2012-09-22T09:04:20Z</time>
      </trkpt>
      <trkpt lat="45.75685" lon="4.61658">
        <ele>752</ele>
        <time>2012-09-22T09:04:21Z</time>
      </trkpt>
      <trkpt lat="45.75683" lon="4.61657">
        <ele>752</ele>
        <time>2012-09-22T09:04:22Z</time>
      </trkpt>
      <trkpt lat="45.75682" lon="4.61655">
        <ele>753</ele>
        <time>2012-09-22T09:04:23Z</time>
      </trkpt>
      <trkpt lat="45.75682" lon="4.61653">
        <ele>753</ele>
        <time>2012-09-22T09:04:24Z</time>
      </trkpt>
      <trkpt lat="45.75681" lon="4.61651">
        <ele>753</ele>
        <time>2012-09-22T09:04:25Z</time>
      </trkpt>
      <trkpt lat="45.75674" lon="4.61635">
        <ele>754</ele>
        <time>2012-09-22T09:04:34Z</time>
      </trkpt>
      <trkpt lat="45.75668" lon="4.61619">
        <ele>755</ele>
        <time>2012-09-22T09:04:43Z</time>
      </trkpt>
      <trkpt lat="45.75659" lon="4.61607">
        <ele>757</ele>
        <time>2012-09-22T09:04:51Z</time>
      </trkpt>
      <trkpt lat="45.75658" lon="4.61606">
        <ele>757</ele>
        <time>2012-09-22T09:04:52Z</time>
      </trkpt>
      <trkpt lat="45.75656" lon="4.61605">
        <ele>758</ele>
        <time>2012-09-22T09:04:53Z</time>
      </trkpt>
      <trkpt lat="45.75653" lon="4.61602">
        <ele>758</ele>
        <time>2012-09-22T09:04:55Z</time>
      </trkpt>
      <trkpt lat="45.75652" lon="4.61602">
        <ele>758</ele>
        <time>2012-09-22T09:04:56Z</time>
      </trkpt>
      <trkpt lat="45.75651" lon="4.61602">
        <ele>759</ele>
        <time>2012-09-22T09:04:57Z</time>
      </trkpt>
      <trkpt lat="45.7565" lon="4.61604">
        <ele>759</ele>
        <time>2012-09-22T09:04:58Z</time>
      </trkpt>
      <trkpt lat="45.75649" lon="4.61605">
        <ele>759</ele>
        <time>2012-09-22T09:04:59Z</time>
      </trkpt>
      <trkpt lat="45.75648" lon="4.61609">
        <ele>759</ele>
        <time>2012-09-22T09:05:02Z</time>
      </trkpt>
      <trkpt lat="45.75648" lon="4.61611">
        <ele>760</ele>
        <time>2012-09-22T09:05:03Z</time>
      </trkpt>
      <trkpt lat="45.75648" lon="4.61613">
        <ele>760</ele>
        <time>2012-09-22T09:05:04Z</time>
      </trkpt>
      <trkpt lat="45.75646" lon="4.61629">
        <ele>761</ele>
        <time>2012-09-22T09:05:12Z</time>
      </trkpt>
      <trkpt lat="45.75641" lon="4.61644">
        <ele>762</ele>
        <time>2012-09-22T09:05:20Z</time>
      </trkpt>
      <trkpt lat="45.75639" lon="4.61661">
        <ele>763</ele>
        <time>2012-09-22T09:05:27Z</time>
      </trkpt>
      <trkpt lat="45.75635" lon="4.61681">
        <ele>764</ele>
        <time>2012-09-22T09:05:36Z</time>
      </trkpt>
      <trkpt lat="45.75632" lon="4.61685">
        <ele>764</ele>
        <time>2012-09-22T09:05:39Z</time>
      </trkpt>
      <trkpt lat="45.75631" lon="4.61686">
        <ele>764</ele>
        <time>2012-09-22T09:05:40Z</time>
      </trkpt>
      <trkpt lat="45.7563" lon="4.61686">
        <ele>764</ele>
        <time>2012-09-22T09:05:41Z</time>
      </trkpt>
      <trkpt lat="45.75629" lon="4.61687">
        <ele>764</ele>
        <time>2012-09-22T09:05:42Z</time>
      </trkpt>
      <trkpt lat="45.75628" lon="4.61688">
        <ele>764</ele>
        <time>2012-09-22T09:05:43Z</time>
      </trkpt>
      <trkpt lat="45.75626" lon="4.6169">
        <ele>765</ele>
        <time>2012-09-22T09:05:44Z</time>
      </trkpt>
      <trkpt lat="45.75625" lon="4.61692">
        <ele>765</ele>
        <time>2012-09-22T09:05:45Z</time>
      </trkpt>
      <trkpt lat="45.75624" lon="4.61693">
        <ele>765</ele>
        <time>2012-09-22T09:05:46Z</time>
      </trkpt>
      <trkpt lat="45.75623" lon="4.61695">
        <ele>765</ele>
        <time>2012-09-22T09:05:47Z</time>
      </trkpt>
      <trkpt lat="45.75623" lon="4.61697">
        <ele>765</ele>
        <time>2012-09-22T09:05:48Z</time>
      </trkpt>
      <trkpt lat="45.75619" lon="4.61714">
        <ele>765</ele>
        <time>2012-09-22T09:05:55Z</time>
      </trkpt>
      <trkpt lat="45.75621" lon="4.61743">
        <ele>765</ele>
        <time>2012-09-22T09:06:04Z</time>
      </trkpt>
      <trkpt lat="45.75625" lon="4.61769">
        <ele>764</ele>
        <time>2012-09-22T09:06:12Z</time>
      </trkpt>
      <trkpt lat="45.75627" lon="4.61786">
        <ele>765</ele>
        <time>2012-09-22T09:06:17Z</time>
      </trkpt>
      <trkpt lat="45.75627" lon="4.61789">
        <ele>765</ele>
        <time>2012-09-22T09:06:18Z</time>
      </trkpt>
      <trkpt lat="45.75627" lon="4.61792">
        <ele>765</ele>
        <time>2012-09-22T09:06:19Z</time>
      </trkpt>
      <trkpt lat="45.75627" lon="4.61794">
        <ele>765</ele>
        <time>2012-09-22T09:06:20Z</time>
      </trkpt>
      <trkpt lat="45.75627" lon="4.61796">
        <ele>766</ele>
        <time>2012-09-22T09:06:21Z</time>
      </trkpt>
      <trkpt lat="45.75627" lon="4.61798">
        <ele>766</ele>
        <time>2012-09-22T09:06:22Z</time>
      </trkpt>
      <trkpt lat="45.75628" lon="4.61799">
        <ele>766</ele>
        <time>2012-09-22T09:06:23Z</time>
      </trkpt>
      <trkpt lat="45.75629" lon="4.618">
        <ele>766</ele>
        <time>2012-09-22T09:06:24Z</time>
      </trkpt>
      <trkpt lat="45.7563" lon="4.61803">
        <ele>766</ele>
        <time>2012-09-22T09:06:25Z</time>
      </trkpt>
      <trkpt lat="45.75631" lon="4.61805">
        <ele>767</ele>
        <time>2012-09-22T09:06:26Z</time>
      </trkpt>
      <trkpt lat="45.75632" lon="4.61824">
        <ele>768</ele>
        <time>2012-09-22T09:06:32Z</time>
      </trkpt>
      <trkpt lat="45.75633" lon="4.61834">
        <ele>768</ele>
        <time>2012-09-22T09:06:35Z</time>
      </trkpt>
      <trkpt lat="45.75634" lon="4.61837">
        <ele>768</ele>
        <time>2012-09-22T09:06:36Z</time>
      </trkpt>
      <trkpt lat="45.75634" lon="4.6184">
        <ele>768</ele>
        <time>2012-09-22T09:06:37Z</time>
      </trkpt>
      <trkpt lat="45.75635" lon="4.61843">
        <ele>768</ele>
        <time>2012-09-22T09:06:38Z</time>
      </trkpt>
      <trkpt lat="45.75636" lon="4.61846">
        <ele>769</ele>
        <time>2012-09-22T09:06:39Z</time>
      </trkpt>
      <trkpt lat="45.75642" lon="4.61862">
        <ele>769</ele>
        <time>2012-09-22T09:06:46Z</time>
      </trkpt>
      <trkpt lat="45.75647" lon="4.61872">
        <ele>770</ele>
        <time>2012-09-22T09:06:50Z</time>
      </trkpt>
      <trkpt lat="45.75648" lon="4.61875">
        <ele>770</ele>
        <time>2012-09-22T09:06:51Z</time>
      </trkpt>
      <trkpt lat="45.75653" lon="4.61897">
        <ele>771</ele>
        <time>2012-09-22T09:06:58Z</time>
      </trkpt>
      <trkpt lat="45.75658" lon="4.61922">
        <ele>771</ele>
        <time>2012-09-22T09:07:04Z</time>
      </trkpt>
      <trkpt lat="45.75664" lon="4.61956">
        <ele>772</ele>
        <time>2012-09-22T09:07:11Z</time>
      </trkpt>
      <trkpt lat="45.75665" lon="4.61961">
        <ele>771</ele>
        <time>2012-09-22T09:07:12Z</time>
      </trkpt>
      <trkpt lat="45.75666" lon="4.61965">
        <ele>771</ele>
        <time>2012-09-22T09:07:13Z</time>
      </trkpt>
      <trkpt lat="45.75667" lon="4.61969">
        <ele>771</ele>
        <time>2012-09-22T09:07:14Z</time>
      </trkpt>
      <trkpt lat="45.75668" lon="4.61972">
        <ele>771</ele>
        <time>2012-09-22T09:07:15Z</time>
      </trkpt>
      <trkpt lat="45.75669" lon="4.61975">
        <ele>771</ele>
        <time>2012-09-22T09:07:16Z</time>
      </trkpt>
      <trkpt lat="45.7567" lon="4.61979">
        <ele>771</ele>
        <time>2012-09-22T09:07:17Z</time>
      </trkpt>
      <trkpt lat="45.75672" lon="4.62004">
        <ele>771</ele>
        <time>2012-09-22T09:07:23Z</time>
      </trkpt>
      <trkpt lat="45.75675" lon="4.62038">
        <ele>772</ele>
        <time>2012-09-22T09:07:31Z</time>
      </trkpt>
      <trkpt lat="45.75676" lon="4.62063">
        <ele>772</ele>
        <time>2012-09-22T09:07:37Z</time>
      </trkpt>
      <trkpt lat="45.75679" lon="4.62081">
        <ele>772</ele>
        <time>2012-09-22T09:07:42Z</time>
      </trkpt>
      <trkpt lat="45.75676" lon="4.62106">
        <ele>773</ele>
        <time>2012-09-22T09:07:48Z</time>
      </trkpt>
      <trkpt lat="45.75675" lon="4.62131">
        <ele>772</ele>
        <time>2012-09-22T09:07:54Z</time>
      </trkpt>
      <trkpt lat="45.75675" lon="4.62165">
        <ele>773</ele>
        <time>2012-09-22T09:08:01Z</time>
      </trkpt>
      <trkpt lat="45.75676" lon="4.6219">
        <ele>772</ele>
        <time>2012-09-22T09:08:06Z</time>
      </trkpt>
      <trkpt lat="45.75678" lon="4.62197">
        <ele>771</ele>
        <time>2012-09-22T09:08:08Z</time>
      </trkpt>
      <trkpt lat="45.75678" lon="4.622">
        <ele>771</ele>
        <time>2012-09-22T09:08:09Z</time>
      </trkpt>
      <trkpt lat="45.75678" lon="4.62203">
        <ele>771</ele>
        <time>2012-09-22T09:08:10Z</time>
      </trkpt>
      <trkpt lat="45.75683" lon="4.62235">
        <ele>771</ele>
        <time>2012-09-22T09:08:16Z</time>
      </trkpt>
      <trkpt lat="45.75688" lon="4.62283">
        <ele>770</ele>
        <time>2012-09-22T09:08:23Z</time>
      </trkpt>
      <trkpt lat="45.7569" lon="4.62296">
        <ele>770</ele>
        <time>2012-09-22T09:08:25Z</time>
      </trkpt>
      <trkpt lat="45.75691" lon="4.62302">
        <ele>770</ele>
        <time>2012-09-22T09:08:26Z</time>
      </trkpt>
      <trkpt lat="45.75698" lon="4.62339">
        <ele>770</ele>
        <time>2012-09-22T09:08:29Z</time>
      </trkpt>
      <trkpt lat="45.75701" lon="4.62378">
        <ele>770</ele>
        <time>2012-09-22T09:08:35Z</time>
      </trkpt>
      <trkpt lat="45.75698" lon="4.62391">
        <ele>769</ele>
        <time>2012-09-22T09:08:39Z</time>
      </trkpt>
      <trkpt lat="45.757" lon="4.62393">
        <ele>769</ele>
        <time>2012-09-22T09:08:40Z</time>
      </trkpt>
      <trkpt lat="45.75702" lon="4.62394">
        <ele>769</ele>
        <time>2012-09-22T09:08:41Z</time>
      </trkpt>
      <trkpt lat="45.75704" lon="4.62395">
        <ele>771</ele>
        <time>2012-09-22T09:08:42Z</time>
      </trkpt>
      <trkpt lat="45.75705" lon="4.62398">
        <ele>771</ele>
        <time>2012-09-22T09:08:43Z</time>
      </trkpt>
      <trkpt lat="45.75706" lon="4.62401">
        <ele>771</ele>
        <time>2012-09-22T09:08:44Z</time>
      </trkpt>
      <trkpt lat="45.75705" lon="4.62405">
        <ele>771</ele>
        <time>2012-09-22T09:08:45Z</time>
      </trkpt>
      <trkpt lat="45.75705" lon="4.62409">
        <ele>771</ele>
        <time>2012-09-22T09:08:46Z</time>
      </trkpt>
      <trkpt lat="45.75706" lon="4.62412">
        <ele>771</ele>
        <time>2012-09-22T09:08:47Z</time>
      </trkpt>
      <trkpt lat="45.75706" lon="4.62416">
        <ele>771</ele>
        <time>2012-09-22T09:08:48Z</time>
      </trkpt>
      <trkpt lat="45.75706" lon="4.62419">
        <ele>770</ele>
        <time>2012-09-22T09:08:49Z</time>
      </trkpt>
      <trkpt lat="45.75706" lon="4.62423">
        <ele>771</ele>
        <time>2012-09-22T09:08:50Z</time>
      </trkpt>
      <trkpt lat="45.75708" lon="4.62457">
        <ele>771</ele>
        <time>2012-09-22T09:08:57Z</time>
      </trkpt>
      <trkpt lat="45.75708" lon="4.62491">
        <ele>771</ele>
        <time>2012-09-22T09:09:04Z</time>
      </trkpt>
      <trkpt lat="45.75711" lon="4.62544">
        <ele>771</ele>
        <time>2012-09-22T09:09:14Z</time>
      </trkpt>
      <trkpt lat="45.75712" lon="4.62588">
        <ele>770</ele>
        <time>2012-09-22T09:09:22Z</time>
      </trkpt>
      <trkpt lat="45.75714" lon="4.62634">
        <ele>770</ele>
        <time>2012-09-22T09:09:30Z</time>
      </trkpt>
      <trkpt lat="45.75717" lon="4.62659">
        <ele>769</ele>
        <time>2012-09-22T09:09:34Z</time>
      </trkpt>
      <trkpt lat="45.75718" lon="4.62665">
        <ele>769</ele>
        <time>2012-09-22T09:09:35Z</time>
      </trkpt>
      <trkpt lat="45.75719" lon="4.62672">
        <ele>769</ele>
        <time>2012-09-22T09:09:36Z</time>
      </trkpt>
      <trkpt lat="45.7572" lon="4.6268">
        <ele>769</ele>
        <time>2012-09-22T09:09:37Z</time>
      </trkpt>
      <trkpt lat="45.75722" lon="4.62687">
        <ele>768</ele>
        <time>2012-09-22T09:09:38Z</time>
      </trkpt>
      <trkpt lat="45.75723" lon="4.62694">
        <ele>768</ele>
        <time>2012-09-22T09:09:39Z</time>
      </trkpt>
      <trkpt lat="45.7573" lon="4.6274">
        <ele>766</ele>
        <time>2012-09-22T09:09:45Z</time>
      </trkpt>
      <trkpt lat="45.75732" lon="4.62746">
        <ele>766</ele>
        <time>2012-09-22T09:09:46Z</time>
      </trkpt>
      <trkpt lat="45.75739" lon="4.62759">
        <ele>766</ele>
        <time>2012-09-22T09:09:48Z</time>
      </trkpt>
      <trkpt lat="45.75743" lon="4.62765">
        <ele>765</ele>
        <time>2012-09-22T09:09:49Z</time>
      </trkpt>
      <trkpt lat="45.75752" lon="4.62777">
        <ele>765</ele>
        <time>2012-09-22T09:09:51Z</time>
      </trkpt>
      <trkpt lat="45.75757" lon="4.62781">
        <ele>764</ele>
        <time>2012-09-22T09:09:52Z</time>
      </trkpt>
      <trkpt lat="45.75799" lon="4.62805">
        <ele>764</ele>
        <time>2012-09-22T09:10:00Z</time>
      </trkpt>
      <trkpt lat="45.75841" lon="4.62816">
        <ele>765</ele>
        <time>2012-09-22T09:10:08Z</time>
      </trkpt>
      <trkpt lat="45.75852" lon="4.62818">
        <ele>764</ele>
        <time>2012-09-22T09:10:10Z</time>
      </trkpt>
      <trkpt lat="45.75858" lon="4.62819">
        <ele>765</ele>
        <time>2012-09-22T09:10:11Z</time>
      </trkpt>
      <trkpt lat="45.75872" lon="4.62822">
        <ele>764</ele>
        <time>2012-09-22T09:10:14Z</time>
      </trkpt>
      <trkpt lat="45.75877" lon="4.62823">
        <ele>764</ele>
        <time>2012-09-22T09:10:15Z</time>
      </trkpt>
      <trkpt lat="45.75883" lon="4.62824">
        <ele>764</ele>
        <time>2012-09-22T09:10:16Z</time>
      </trkpt>
      <trkpt lat="45.75911" lon="4.62826">
        <ele>764</ele>
        <time>2012-09-22T09:10:21Z</time>
      </trkpt>
      <trkpt lat="45.75915" lon="4.62826">
        <ele>763</ele>
        <time>2012-09-22T09:10:22Z</time>
      </trkpt>
      <trkpt lat="45.75919" lon="4.62824">
        <ele>764</ele>
        <time>2012-09-22T09:10:23Z</time>
      </trkpt>
      <trkpt lat="45.75928" lon="4.62822">
        <ele>764</ele>
        <time>2012-09-22T09:10:25Z</time>
      </trkpt>
      <trkpt lat="45.75954" lon="4.62812">
        <ele>763</ele>
        <time>2012-09-22T09:10:30Z</time>
      </trkpt>
      <trkpt lat="45.7596" lon="4.62808">
        <ele>763</ele>
        <time>2012-09-22T09:10:31Z</time>
      </trkpt>
      <trkpt lat="45.75965" lon="4.62804">
        <ele>762</ele>
        <time>2012-09-22T09:10:32Z</time>
      </trkpt>
      <trkpt lat="45.7597" lon="4.628">
        <ele>762</ele>
        <time>2012-09-22T09:10:33Z</time>
      </trkpt>
      <trkpt lat="45.75975" lon="4.62795">
        <ele>762</ele>
        <time>2012-09-22T09:10:34Z</time>
      </trkpt>
      <trkpt lat="45.75979" lon="4.62789">
        <ele>762</ele>
        <time>2012-09-22T09:10:35Z</time>
      </trkpt>
      <trkpt lat="45.75983" lon="4.62783">
        <ele>761</ele>
        <time>2012-09-22T09:10:36Z</time>
      </trkpt>
      <trkpt lat="45.75986" lon="4.62778">
        <ele>761</ele>
        <time>2012-09-22T09:10:37Z</time>
      </trkpt>
      <trkpt lat="45.75989" lon="4.62769">
        <ele>761</ele>
        <time>2012-09-22T09:10:41Z</time>
      </trkpt>
      <trkpt lat="45.75995" lon="4.62763">
        <ele>761</ele>
        <time>2012-09-22T09:10:47Z</time>
      </trkpt>
      <trkpt lat="45.76002" lon="4.62754">
        <ele>760</ele>
        <time>2012-09-22T09:10:53Z</time>
      </trkpt>
      <trkpt lat="45.76004" lon="4.62752">
        <ele>760</ele>
        <time>2012-09-22T09:10:55Z</time>
      </trkpt>
      <trkpt lat="45.76006" lon="4.62747">
        <ele>760</ele>
        <time>2012-09-22T09:10:58Z</time>
      </trkpt>
      <trkpt lat="45.76007" lon="4.62745">
        <ele>760</ele>
        <time>2012-09-22T09:10:59Z</time>
      </trkpt>
      <trkpt lat="45.76013" lon="4.62729">
        <ele>758</ele>
        <time>2012-09-22T09:11:05Z</time>
      </trkpt>
      <trkpt lat="45.76024" lon="4.62704">
        <ele>757</ele>
        <time>2012-09-22T09:11:09Z</time>
      </trkpt>
      <trkpt lat="45.76033" lon="4.62692">
        <ele>757</ele>
        <time>2012-09-22T09:11:11Z</time>
      </trkpt>
      <trkpt lat="45.76037" lon="4.62687">
        <ele>756</ele>
        <time>2012-09-22T09:11:12Z</time>
      </trkpt>
      <trkpt lat="45.76041" lon="4.62685">
        <ele>756</ele>
        <time>2012-09-22T09:11:13Z</time>
      </trkpt>
      <trkpt lat="45.76043" lon="4.62679">
        <ele>755</ele>
        <time>2012-09-22T09:11:16Z</time>
      </trkpt>
      <trkpt lat="45.76044" lon="4.62679">
        <ele>755</ele>
        <time>2012-09-22T09:11:17Z</time>
      </trkpt>
      <trkpt lat="45.76044" lon="4.62688">
        <ele>752</ele>
        <time>2012-09-22T09:11:22Z</time>
      </trkpt>
      <trkpt lat="45.76044" lon="4.62691">
        <ele>751</ele>
        <time>2012-09-22T09:11:24Z</time>
      </trkpt>
      <trkpt lat="45.76045" lon="4.62695">
        <ele>749</ele>
        <time>2012-09-22T09:11:27Z</time>
      </trkpt>
      <trkpt lat="45.7605" lon="4.62702">
        <ele>746</ele>
        <time>2012-09-22T09:11:34Z</time>
      </trkpt>
      <trkpt lat="45.76049" lon="4.62715">
        <ele>745</ele>
        <time>2012-09-22T09:11:37Z</time>
      </trkpt>
      <trkpt lat="45.7605" lon="4.62719">
        <ele>745</ele>
        <time>2012-09-22T09:11:38Z</time>
      </trkpt>
      <trkpt lat="45.76051" lon="4.62724">
        <ele>745</ele>
        <time>2012-09-22T09:11:39Z</time>
      </trkpt>
      <trkpt lat="45.76052" lon="4.62729">
        <ele>745</ele>
        <time>2012-09-22T09:11:40Z</time>
      </trkpt>
      <trkpt lat="45.76054" lon="4.62736">
        <ele>744</ele>
        <time>2012-09-22T09:11:41Z</time>
      </trkpt>
      <trkpt lat="45.76055" lon="4.62741">
        <ele>744</ele>
        <time>2012-09-22T09:11:42Z</time>
      </trkpt>
      <trkpt lat="45.76056" lon="4.62763">
        <ele>744</ele>
        <time>2012-09-22T09:11:45Z</time>
      </trkpt>
      <trkpt lat="45.76059" lon="4.62807">
        <ele>742</ele>
        <time>2012-09-22T09:11:51Z</time>
      </trkpt>
      <trkpt lat="45.76056" lon="4.62812">
        <ele>742</ele>
        <time>2012-09-22T09:11:52Z</time>
      </trkpt>
      <trkpt lat="45.76049" lon="4.62831">
        <ele>741</ele>
        <time>2012-09-22T09:11:55Z</time>
      </trkpt>
      <trkpt lat="45.7605" lon="4.6284">
        <ele>741</ele>
        <time>2012-09-22T09:11:56Z</time>
      </trkpt>
      <trkpt lat="45.76054" lon="4.62846">
        <ele>740</ele>
        <time>2012-09-22T09:11:58Z</time>
      </trkpt>
      <trkpt lat="45.76058" lon="4.62844">
        <ele>739</ele>
        <time>2012-09-22T09:11:59Z</time>
      </trkpt>
      <trkpt lat="45.76062" lon="4.62841">
        <ele>739</ele>
        <time>2012-09-22T09:12:00Z</time>
      </trkpt>
      <trkpt lat="45.76066" lon="4.62838">
        <ele>739</ele>
        <time>2012-09-22T09:12:01Z</time>
      </trkpt>
      <trkpt lat="45.7607" lon="4.62834">
        <ele>738</ele>
        <time>2012-09-22T09:12:02Z</time>
      </trkpt>
      <trkpt lat="45.76074" lon="4.62829">
        <ele>738</ele>
        <time>2012-09-22T09:12:03Z</time>
      </trkpt>
      <trkpt lat="45.76086" lon="4.62807">
        <ele>737</ele>
        <time>2012-09-22T09:12:07Z</time>
      </trkpt>
      <trkpt lat="45.76092" lon="4.62791">
        <ele>736</ele>
        <time>2012-09-22T09:12:10Z</time>
      </trkpt>
      <trkpt lat="45.76095" lon="4.62785">
        <ele>736</ele>
        <time>2012-09-22T09:12:11Z</time>
      </trkpt>
      <trkpt lat="45.76099" lon="4.6278">
        <ele>735</ele>
        <time>2012-09-22T09:12:12Z</time>
      </trkpt>
      <trkpt lat="45.76106" lon="4.62771">
        <ele>734</ele>
        <time>2012-09-22T09:12:14Z</time>
      </trkpt>
      <trkpt lat="45.76111" lon="4.62769">
        <ele>735</ele>
        <time>2012-09-22T09:12:15Z</time>
      </trkpt>
      <trkpt lat="45.76116" lon="4.62769">
        <ele>734</ele>
        <time>2012-09-22T09:12:16Z</time>
      </trkpt>
      <trkpt lat="45.7612" lon="4.62772">
        <ele>734</ele>
        <time>2012-09-22T09:12:17Z</time>
      </trkpt>
      <trkpt lat="45.76125" lon="4.62776">
        <ele>733</ele>
        <time>2012-09-22T09:12:18Z</time>
      </trkpt>
      <trkpt lat="45.7613" lon="4.62781">
        <ele>733</ele>
        <time>2012-09-22T09:12:19Z</time>
      </trkpt>
      <trkpt lat="45.76134" lon="4.62787">
        <ele>733</ele>
        <time>2012-09-22T09:12:20Z</time>
      </trkpt>
      <trkpt lat="45.76138" lon="4.62793">
        <ele>733</ele>
        <time>2012-09-22T09:12:21Z</time>
      </trkpt>
      <trkpt lat="45.76142" lon="4.628">
        <ele>732</ele>
        <time>2012-09-22T09:12:22Z</time>
      </trkpt>
      <trkpt lat="45.7615" lon="4.62816">
        <ele>731</ele>
        <time>2012-09-22T09:12:24Z</time>
      </trkpt>
      <trkpt lat="45.76152" lon="4.62824">
        <ele>730</ele>
        <time>2012-09-22T09:12:25Z</time>
      </trkpt>
      <trkpt lat="45.76155" lon="4.62833">
        <ele>730</ele>
        <time>2012-09-22T09:12:26Z</time>
      </trkpt>
      <trkpt lat="45.76158" lon="4.62842">
        <ele>730</ele>
        <time>2012-09-22T09:12:27Z</time>
      </trkpt>
      <trkpt lat="45.76161" lon="4.62849">
        <ele>730</ele>
        <time>2012-09-22T09:12:28Z</time>
      </trkpt>
      <trkpt lat="45.76165" lon="4.62856">
        <ele>730</ele>
        <time>2012-09-22T09:12:29Z</time>
      </trkpt>
      <trkpt lat="45.76173" lon="4.62868">
        <ele>729</ele>
        <time>2012-09-22T09:12:31Z</time>
      </trkpt>
      <trkpt lat="45.7618" lon="4.62869">
        <ele>729</ele>
        <time>2012-09-22T09:12:32Z</time>
      </trkpt>
      <trkpt lat="45.76198" lon="4.6287">
        <ele>728</ele>
        <time>2012-09-22T09:12:35Z</time>
      </trkpt>
      <trkpt lat="45.76204" lon="4.62871">
        <ele>727</ele>
        <time>2012-09-22T09:12:36Z</time>
      </trkpt>
      <trkpt lat="45.76244" lon="4.6287">
        <ele>727</ele>
        <time>2012-09-22T09:12:42Z</time>
      </trkpt>
      <trkpt lat="45.76249" lon="4.62871">
        <ele>726</ele>
        <time>2012-09-22T09:12:43Z</time>
      </trkpt>
      <trkpt lat="45.76267" lon="4.62883">
        <ele>726</ele>
        <time>2012-09-22T09:12:48Z</time>
      </trkpt>
      <trkpt lat="45.76278" lon="4.62902">
        <ele>725</ele>
        <time>2012-09-22T09:12:54Z</time>
      </trkpt>
      <trkpt lat="45.76289" lon="4.62924">
        <ele>727</ele>
        <time>2012-09-22T09:13:01Z</time>
      </trkpt>
      <trkpt lat="45.7629" lon="4.62927">
        <ele>728</ele>
        <time>2012-09-22T09:13:02Z</time>
      </trkpt>
      <trkpt lat="45.76293" lon="4.62929">
        <ele>728</ele>
        <time>2012-09-22T09:13:03Z</time>
      </trkpt>
      <trkpt lat="45.76296" lon="4.6293">
        <ele>728</ele>
        <time>2012-09-22T09:13:04Z</time>
      </trkpt>
      <trkpt lat="45.76299" lon="4.62931">
        <ele>728</ele>
        <time>2012-09-22T09:13:05Z</time>
      </trkpt>
      <trkpt lat="45.76302" lon="4.62932">
        <ele>728</ele>
        <time>2012-09-22T09:13:06Z</time>
      </trkpt>
      <trkpt lat="45.76306" lon="4.62933">
        <ele>728</ele>
        <time>2012-09-22T09:13:07Z</time>
      </trkpt>
      <trkpt lat="45.76308" lon="4.62934">
        <ele>729</ele>
        <time>2012-09-22T09:13:08Z</time>
      </trkpt>
      <trkpt lat="45.76311" lon="4.62935">
        <ele>729</ele>
        <time>2012-09-22T09:13:09Z</time>
      </trkpt>
      <trkpt lat="45.76324" lon="4.62948">
        <ele>730</ele>
        <time>2012-09-22T09:13:15Z</time>
      </trkpt>
      <trkpt lat="45.76336" lon="4.6296">
        <ele>731</ele>
        <time>2012-09-22T09:13:21Z</time>
      </trkpt>
      <trkpt lat="45.76347" lon="4.62969">
        <ele>733</ele>
        <time>2012-09-22T09:13:28Z</time>
      </trkpt>
      <trkpt lat="45.76364" lon="4.62982">
        <ele>734</ele>
        <time>2012-09-22T09:13:38Z</time>
      </trkpt>
      <trkpt lat="45.76376" lon="4.62988">
        <ele>735</ele>
        <time>2012-09-22T09:13:45Z</time>
      </trkpt>
      <trkpt lat="45.7638" lon="4.62993">
        <ele>735</ele>
        <time>2012-09-22T09:13:48Z</time>
      </trkpt>
      <trkpt lat="45.7639" lon="4.63004">
        <ele>736</ele>
        <time>2012-09-22T09:13:54Z</time>
      </trkpt>
      <trkpt lat="45.76398" lon="4.63016">
        <ele>736</ele>
        <time>2012-09-22T09:14:01Z</time>
      </trkpt>
      <trkpt lat="45.76399" lon="4.63017">
        <ele>737</ele>
        <time>2012-09-22T09:14:02Z</time>
      </trkpt>
      <trkpt lat="45.76401" lon="4.63018">
        <ele>737</ele>
        <time>2012-09-22T09:14:03Z</time>
      </trkpt>
      <trkpt lat="45.76402" lon="4.63019">
        <ele>738</ele>
        <time>2012-09-22T09:14:04Z</time>
      </trkpt>
      <trkpt lat="45.76404" lon="4.6302">
        <ele>737</ele>
        <time>2012-09-22T09:14:05Z</time>
      </trkpt>
      <trkpt lat="45.76416" lon="4.6303">
        <ele>737</ele>
        <time>2012-09-22T09:14:11Z</time>
      </trkpt>
      <trkpt lat="45.7643" lon="4.63045">
        <ele>737</ele>
        <time>2012-09-22T09:14:17Z</time>
      </trkpt>
      <trkpt lat="45.7644" lon="4.63053">
        <ele>737</ele>
        <time>2012-09-22T09:14:24Z</time>
      </trkpt>
      <trkpt lat="45.76445" lon="4.63056">
        <ele>737</ele>
        <time>2012-09-22T09:14:28Z</time>
      </trkpt>
      <trkpt lat="45.7645" lon="4.63059">
        <ele>736</ele>
        <time>2012-09-22T09:14:31Z</time>
      </trkpt>
      <trkpt lat="45.7648" lon="4.63071">
        <ele>734</ele>
        <time>2012-09-22T09:14:38Z</time>
      </trkpt>
      <trkpt lat="45.76497" lon="4.63076">
        <ele>734</ele>
        <time>2012-09-22T09:14:43Z</time>
      </trkpt>
      <trkpt lat="45.76522" lon="4.63074">
        <ele>734</ele>
        <time>2012-09-22T09:14:47Z</time>
      </trkpt>
      <trkpt lat="45.76526" lon="4.63073">
        <ele>734</ele>
        <time>2012-09-22T09:14:48Z</time>
      </trkpt>
      <trkpt lat="45.76531" lon="4.63074">
        <ele>734</ele>
        <time>2012-09-22T09:14:49Z</time>
      </trkpt>
      <trkpt lat="45.76559" lon="4.63066">
        <ele>735</ele>
        <time>2012-09-22T09:14:56Z</time>
      </trkpt>
      <trkpt lat="45.76574" lon="4.63064">
        <ele>735</ele>
        <time>2012-09-22T09:15:01Z</time>
      </trkpt>
      <trkpt lat="45.76576" lon="4.63064">
        <ele>736</ele>
        <time>2012-09-22T09:15:02Z</time>
      </trkpt>
      <trkpt lat="45.76578" lon="4.63062">
        <ele>736</ele>
        <time>2012-09-22T09:15:03Z</time>
      </trkpt>
      <trkpt lat="45.76586" lon="4.63058">
        <ele>737</ele>
        <time>2012-09-22T09:15:07Z</time>
      </trkpt>
      <trkpt lat="45.76592" lon="4.63055">
        <ele>738</ele>
        <time>2012-09-22T09:15:13Z</time>
      </trkpt>
      <trkpt lat="45.76607" lon="4.63047">
        <ele>738</ele>
        <time>2012-09-22T09:15:20Z</time>
      </trkpt>
      <trkpt lat="45.76619" lon="4.63038">
        <ele>739</ele>
        <time>2012-09-22T09:15:27Z</time>
      </trkpt>
      <trkpt lat="45.76636" lon="4.63021">
        <ele>739</ele>
        <time>2012-09-22T09:15:33Z</time>
      </trkpt>
      <trkpt lat="45.76652" lon="4.63">
        <ele>738</ele>
        <time>2012-09-22T09:15:38Z</time>
      </trkpt>
      <trkpt lat="45.76656" lon="4.63">
        <ele>738</ele>
        <time>2012-09-22T09:15:39Z</time>
      </trkpt>
      <trkpt lat="45.76659" lon="4.63001">
        <ele>738</ele>
        <time>2012-09-22T09:15:40Z</time>
      </trkpt>
      <trkpt lat="45.76662" lon="4.63003">
        <ele>738</ele>
        <time>2012-09-22T09:15:41Z</time>
      </trkpt>
      <trkpt lat="45.76665" lon="4.63004">
        <ele>738</ele>
        <time>2012-09-22T09:15:42Z</time>
      </trkpt>
      <trkpt lat="45.76668" lon="4.63004">
        <ele>738</ele>
        <time>2012-09-22T09:15:43Z</time>
      </trkpt>
      <trkpt lat="45.76671" lon="4.63003">
        <ele>738</ele>
        <time>2012-09-22T09:15:44Z</time>
      </trkpt>
      <trkpt lat="45.76687" lon="4.63006">
        <ele>739</ele>
        <time>2012-09-22T09:15:51Z</time>
      </trkpt>
      <trkpt lat="45.76696" lon="4.63021">
        <ele>740</ele>
        <time>2012-09-22T09:15:57Z</time>
      </trkpt>
      <trkpt lat="45.76702" lon="4.63029">
        <ele>742</ele>
        <time>2012-09-22T09:16:03Z</time>
      </trkpt>
      <trkpt lat="45.76704" lon="4.63031">
        <ele>742</ele>
        <time>2012-09-22T09:16:05Z</time>
      </trkpt>
      <trkpt lat="45.76705" lon="4.63036">
        <ele>743</ele>
        <time>2012-09-22T09:16:07Z</time>
      </trkpt>
      <trkpt lat="45.76706" lon="4.6304">
        <ele>743</ele>
        <time>2012-09-22T09:16:09Z</time>
      </trkpt>
      <trkpt lat="45.76708" lon="4.63043">
        <ele>743</ele>
        <time>2012-09-22T09:16:10Z</time>
      </trkpt>
      <trkpt lat="45.7671" lon="4.63046">
        <ele>743</ele>
        <time>2012-09-22T09:16:11Z</time>
      </trkpt>
      <trkpt lat="45.76712" lon="4.6305">
        <ele>744</ele>
        <time>2012-09-22T09:16:12Z</time>
      </trkpt>
      <trkpt lat="45.76714" lon="4.63053">
        <ele>744</ele>
        <time>2012-09-22T09:16:13Z</time>
      </trkpt>
      <trkpt lat="45.76715" lon="4.63056">
        <ele>744</ele>
        <time>2012-09-22T09:16:14Z</time>
      </trkpt>
      <trkpt lat="45.76718" lon="4.63061">
        <ele>744</ele>
        <time>2012-09-22T09:16:16Z</time>
      </trkpt>
      <trkpt lat="45.76719" lon="4.63062">
        <ele>745</ele>
        <time>2012-09-22T09:16:17Z</time>
      </trkpt>
      <trkpt lat="45.76722" lon="4.63067">
        <ele>745</ele>
        <time>2012-09-22T09:16:20Z</time>
      </trkpt>
      <trkpt lat="45.76723" lon="4.63068">
        <ele>745</ele>
        <time>2012-09-22T09:16:21Z</time>
      </trkpt>
      <trkpt lat="45.76725" lon="4.63073">
        <ele>745</ele>
        <time>2012-09-22T09:16:27Z</time>
      </trkpt>
      <trkpt lat="45.76722" lon="4.63075">
        <ele>745</ele>
        <time>2012-09-22T09:16:42Z</time>
      </trkpt>
      <trkpt lat="45.76722" lon="4.63075">
        <ele>745</ele>
        <time>2012-09-22T09:16:55Z</time>
      </trkpt>
      <trkpt lat="45.76721" lon="4.63078">
        <ele>745</ele>
        <time>2012-09-22T09:17:12Z</time>
      </trkpt>
      <trkpt lat="45.76718" lon="4.63084">
        <ele>746</ele>
        <time>2012-09-22T09:17:32Z</time>
      </trkpt>
      <trkpt lat="45.76724" lon="4.63074">
        <ele>746</ele>
        <time>2012-09-22T09:17:48Z</time>
      </trkpt>
      <trkpt lat="45.7673" lon="4.63083">
        <ele>746</ele>
        <time>2012-09-22T09:17:58Z</time>
      </trkpt>
      <trkpt lat="45.76732" lon="4.63086">
        <ele>746</ele>
        <time>2012-09-22T09:18:00Z</time>
      </trkpt>
      <trkpt lat="45.76735" lon="4.63091">
        <ele>746</ele>
        <time>2012-09-22T09:18:03Z</time>
      </trkpt>
      <trkpt lat="45.76735" lon="4.63094">
        <ele>746</ele>
        <time>2012-09-22T09:18:04Z</time>
      </trkpt>
      <trkpt lat="45.76736" lon="4.63097">
        <ele>746</ele>
        <time>2012-09-22T09:18:05Z</time>
      </trkpt>
      <trkpt lat="45.76737" lon="4.63099">
        <ele>746</ele>
        <time>2012-09-22T09:18:06Z</time>
      </trkpt>
      <trkpt lat="45.76738" lon="4.63102">
        <ele>746</ele>
        <time>2012-09-22T09:18:07Z</time>
      </trkpt>
      <trkpt lat="45.76739" lon="4.63104">
        <ele>746</ele>
        <time>2012-09-22T09:18:08Z</time>
      </trkpt>
      <trkpt lat="45.7674" lon="4.63106">
        <ele>746</ele>
        <time>2012-09-22T09:18:09Z</time>
      </trkpt>
      <trkpt lat="45.76741" lon="4.63107">
        <ele>746</ele>
        <time>2012-09-22T09:18:10Z</time>
      </trkpt>
      <trkpt lat="45.76755" lon="4.63123">
        <ele>746</ele>
        <time>2012-09-22T09:18:16Z</time>
      </trkpt>
      <trkpt lat="45.76767" lon="4.63139">
        <ele>745</ele>
        <time>2012-09-22T09:18:22Z</time>
      </trkpt>
      <trkpt lat="45.76784" lon="4.63157">
        <ele>745</ele>
        <time>2012-09-22T09:18:29Z</time>
      </trkpt>
      <trkpt lat="45.76798" lon="4.63166">
        <ele>744</ele>
        <time>2012-09-22T09:18:33Z</time>
      </trkpt>
      <trkpt lat="45.76806" lon="4.63178">
        <ele>743</ele>
        <time>2012-09-22T09:18:35Z</time>
      </trkpt>
      <trkpt lat="45.7681" lon="4.63186">
        <ele>742</ele>
        <time>2012-09-22T09:18:36Z</time>
      </trkpt>
      <trkpt lat="45.76815" lon="4.63195">
        <ele>741</ele>
        <time>2012-09-22T09:18:37Z</time>
      </trkpt>
      <trkpt lat="45.7682" lon="4.63202">
        <ele>742</ele>
        <time>2012-09-22T09:18:38Z</time>
      </trkpt>
      <trkpt lat="45.76824" lon="4.63205">
        <ele>741</ele>
        <time>2012-09-22T09:18:39Z</time>
      </trkpt>
      <trkpt lat="45.76829" lon="4.63209">
        <ele>740</ele>
        <time>2012-09-22T09:18:40Z</time>
      </trkpt>
      <trkpt lat="45.76833" lon="4.63213">
        <ele>740</ele>
        <time>2012-09-22T09:18:41Z</time>
      </trkpt>
      <trkpt lat="45.76839" lon="4.63216">
        <ele>740</ele>
        <time>2012-09-22T09:18:42Z</time>
      </trkpt>
      <trkpt lat="45.76844" lon="4.63217">
        <ele>740</ele>
        <time>2012-09-22T09:18:43Z</time>
      </trkpt>
      <trkpt lat="45.76849" lon="4.63219">
        <ele>739</ele>
        <time>2012-09-22T09:18:44Z</time>
      </trkpt>
      <trkpt lat="45.76855" lon="4.63221">
        <ele>739</ele>
        <time>2012-09-22T09:18:45Z</time>
      </trkpt>
      <trkpt lat="45.76862" lon="4.63225">
        <ele>738</ele>
        <time>2012-09-22T09:18:46Z</time>
      </trkpt>
      <trkpt lat="45.76868" lon="4.6323">
        <ele>738</ele>
        <time>2012-09-22T09:18:47Z</time>
      </trkpt>
      <trkpt lat="45.76887" lon="4.63244">
        <ele>737</ele>
        <time>2012-09-22T09:18:50Z</time>
      </trkpt>
      <trkpt lat="45.76894" lon="4.63248">
        <ele>737</ele>
        <time>2012-09-22T09:18:51Z</time>
      </trkpt>
      <trkpt lat="45.769" lon="4.63251">
        <ele>737</ele>
        <time>2012-09-22T09:18:52Z</time>
      </trkpt>
      <trkpt lat="45.76907" lon="4.63252">
        <ele>737</ele>
        <time>2012-09-22T09:18:53Z</time>
      </trkpt>
      <trkpt lat="45.76913" lon="4.63253">
        <ele>737</ele>
        <time>2012-09-22T09:18:54Z</time>
      </trkpt>
      <trkpt lat="45.7692" lon="4.63256">
        <ele>736</ele>
        <time>2012-09-22T09:18:55Z</time>
      </trkpt>
      <trkpt lat="45.76926" lon="4.63258">
        <ele>736</ele>
        <time>2012-09-22T09:18:56Z</time>
      </trkpt>
      <trkpt lat="45.76931" lon="4.63261">
        <ele>737</ele>
        <time>2012-09-22T09:18:57Z</time>
      </trkpt>
      <trkpt lat="45.76936" lon="4.63263">
        <ele>736</ele>
        <time>2012-09-22T09:18:58Z</time>
      </trkpt>
      <trkpt lat="45.76941" lon="4.63263">
        <ele>736</ele>
        <time>2012-09-22T09:18:59Z</time>
      </trkpt>
      <trkpt lat="45.76945" lon="4.63261">
        <ele>736</ele>
        <time>2012-09-22T09:19:00Z</time>
      </trkpt>
      <trkpt lat="45.76949" lon="4.6326">
        <ele>736</ele>
        <time>2012-09-22T09:19:01Z</time>
      </trkpt>
      <trkpt lat="45.76953" lon="4.63257">
        <ele>736</ele>
        <time>2012-09-22T09:19:02Z</time>
      </trkpt>
      <trkpt lat="45.76957" lon="4.63254">
        <ele>735</ele>
        <time>2012-09-22T09:19:03Z</time>
      </trkpt>
      <trkpt lat="45.76961" lon="4.63248">
        <ele>734</ele>
        <time>2012-09-22T09:19:04Z</time>
      </trkpt>
      <trkpt lat="45.76977" lon="4.63232">
        <ele>731</ele>
        <time>2012-09-22T09:19:07Z</time>
      </trkpt>
      <trkpt lat="45.76986" lon="4.63228">
        <ele>729</ele>
        <time>2012-09-22T09:19:08Z</time>
      </trkpt>
      <trkpt lat="45.76994" lon="4.63224">
        <ele>728</ele>
        <time>2012-09-22T09:19:09Z</time>
      </trkpt>
      <trkpt lat="45.77018" lon="4.63215">
        <ele>724</ele>
        <time>2012-09-22T09:19:12Z</time>
      </trkpt>
      <trkpt lat="45.77036" lon="4.63209">
        <ele>722</ele>
        <time>2012-09-22T09:19:14Z</time>
      </trkpt>
      <trkpt lat="45.77071" lon="4.63207">
        <ele>718</ele>
        <time>2012-09-22T09:19:18Z</time>
      </trkpt>
      <trkpt lat="45.77085" lon="4.63205">
        <ele>717</ele>
        <time>2012-09-22T09:19:20Z</time>
      </trkpt>
      <trkpt lat="45.7709" lon="4.63204">
        <ele>716</ele>
        <time>2012-09-22T09:19:21Z</time>
      </trkpt>
      <trkpt lat="45.77096" lon="4.632">
        <ele>716</ele>
        <time>2012-09-22T09:19:22Z</time>
      </trkpt>
      <trkpt lat="45.77101" lon="4.63198">
        <ele>715</ele>
        <time>2012-09-22T09:19:23Z</time>
      </trkpt>
      <trkpt lat="45.77112" lon="4.63191">
        <ele>713</ele>
        <time>2012-09-22T09:19:27Z</time>
      </trkpt>
      <trkpt lat="45.77114" lon="4.63191">
        <ele>713</ele>
        <time>2012-09-22T09:19:28Z</time>
      </trkpt>
      <trkpt lat="45.77116" lon="4.63191">
        <ele>713</ele>
        <time>2012-09-22T09:19:29Z</time>
      </trkpt>
      <trkpt lat="45.77118" lon="4.6319">
        <ele>713</ele>
        <time>2012-09-22T09:19:30Z</time>
      </trkpt>
      <trkpt lat="45.7712" lon="4.6319">
        <ele>713</ele>
        <time>2012-09-22T09:19:31Z</time>
      </trkpt>
      <trkpt lat="45.77121" lon="4.63193">
        <ele>714</ele>
        <time>2012-09-22T09:19:34Z</time>
      </trkpt>
      <trkpt lat="45.77121" lon="4.63196">
        <ele>715</ele>
        <time>2012-09-22T09:19:35Z</time>
      </trkpt>
      <trkpt lat="45.7712" lon="4.63204">
        <ele>715</ele>
        <time>2012-09-22T09:19:37Z</time>
      </trkpt>
      <trkpt lat="45.77122" lon="4.63214">
        <ele>715</ele>
        <time>2012-09-22T09:19:41Z</time>
      </trkpt>
      <trkpt lat="45.77122" lon="4.6322">
        <ele>717</ele>
        <time>2012-09-22T09:19:44Z</time>
      </trkpt>
      <trkpt lat="45.77122" lon="4.63223">
        <ele>718</ele>
        <time>2012-09-22T09:19:46Z</time>
      </trkpt>
      <trkpt lat="45.77122" lon="4.63227">
        <ele>718</ele>
        <time>2012-09-22T09:19:48Z</time>
      </trkpt>
      <trkpt lat="45.77124" lon="4.63235">
        <ele>720</ele>
        <time>2012-09-22T09:19:51Z</time>
      </trkpt>
      <trkpt lat="45.77125" lon="4.63238">
        <ele>721</ele>
        <time>2012-09-22T09:19:52Z</time>
      </trkpt>
      <trkpt lat="45.77134" lon="4.63248">
        <ele>722</ele>
        <time>2012-09-22T09:20:00Z</time>
      </trkpt>
      <trkpt lat="45.77144" lon="4.63244">
        <ele>720</ele>
        <time>2012-09-22T09:20:07Z</time>
      </trkpt>
      <trkpt lat="45.7715" lon="4.63239">
        <ele>718</ele>
        <time>2012-09-22T09:20:12Z</time>
      </trkpt>
      <trkpt lat="45.77167" lon="4.63225">
        <ele>717</ele>
        <time>2012-09-22T09:20:18Z</time>
      </trkpt>
      <trkpt lat="45.77182" lon="4.63204">
        <ele>717</ele>
        <time>2012-09-22T09:20:23Z</time>
      </trkpt>
      <trkpt lat="45.7719" lon="4.63187">
        <ele>716</ele>
        <time>2012-09-22T09:20:26Z</time>
      </trkpt>
      <trkpt lat="45.77196" lon="4.63162">
        <ele>714</ele>
        <time>2012-09-22T09:20:31Z</time>
      </trkpt>
      <trkpt lat="45.77198" lon="4.63137">
        <ele>711</ele>
        <time>2012-09-22T09:20:36Z</time>
      </trkpt>
      <trkpt lat="45.77198" lon="4.63133">
        <ele>711</ele>
        <time>2012-09-22T09:20:37Z</time>
      </trkpt>
      <trkpt lat="45.77183" lon="4.63114">
        <ele>709</ele>
        <time>2012-09-22T09:20:43Z</time>
      </trkpt>
      <trkpt lat="45.77182" lon="4.6311">
        <ele>708</ele>
        <time>2012-09-22T09:20:44Z</time>
      </trkpt>
      <trkpt lat="45.77182" lon="4.63106">
        <ele>708</ele>
        <time>2012-09-22T09:20:45Z</time>
      </trkpt>
      <trkpt lat="45.77185" lon="4.63101">
        <ele>708</ele>
        <time>2012-09-22T09:20:46Z</time>
      </trkpt>
      <trkpt lat="45.77198" lon="4.63073">
        <ele>708</ele>
        <time>2012-09-22T09:20:52Z</time>
      </trkpt>
      <trkpt lat="45.77207" lon="4.63062">
        <ele>707</ele>
        <time>2012-09-22T09:20:56Z</time>
      </trkpt>
      <trkpt lat="45.77207" lon="4.63058">
        <ele>708</ele>
        <time>2012-09-22T09:20:57Z</time>
      </trkpt>
      <trkpt lat="45.77207" lon="4.63054">
        <ele>708</ele>
        <time>2012-09-22T09:20:58Z</time>
      </trkpt>
      <trkpt lat="45.77206" lon="4.63052">
        <ele>707</ele>
        <time>2012-09-22T09:20:59Z</time>
      </trkpt>
      <trkpt lat="45.77204" lon="4.63044">
        <ele>707</ele>
        <time>2012-09-22T09:21:03Z</time>
      </trkpt>
      <trkpt lat="45.77203" lon="4.63036">
        <ele>706</ele>
        <time>2012-09-22T09:21:08Z</time>
      </trkpt>
      <trkpt lat="45.77202" lon="4.63034">
        <ele>706</ele>
        <time>2012-09-22T09:21:09Z</time>
      </trkpt>
      <trkpt lat="45.77201" lon="4.6303">
        <ele>706</ele>
        <time>2012-09-22T09:21:11Z</time>
      </trkpt>
      <trkpt lat="45.77201" lon="4.63027">
        <ele>706</ele>
        <time>2012-09-22T09:21:12Z</time>
      </trkpt>
      <trkpt lat="45.772" lon="4.63024">
        <ele>706</ele>
        <time>2012-09-22T09:21:13Z</time>
      </trkpt>
      <trkpt lat="45.7719" lon="4.63001">
        <ele>704</ele>
        <time>2012-09-22T09:21:18Z</time>
      </trkpt>
      <trkpt lat="45.77183" lon="4.62995">
        <ele>703</ele>
        <time>2012-09-22T09:21:20Z</time>
      </trkpt>
      <trkpt lat="45.77179" lon="4.62993">
        <ele>703</ele>
        <time>2012-09-22T09:21:21Z</time>
      </trkpt>
      <trkpt lat="45.77175" lon="4.62991">
        <ele>703</ele>
        <time>2012-09-22T09:21:22Z</time>
      </trkpt>
      <trkpt lat="45.77171" lon="4.62988">
        <ele>702</ele>
        <time>2012-09-22T09:21:23Z</time>
      </trkpt>
      <trkpt lat="45.77168" lon="4.62985">
        <ele>701</ele>
        <time>2012-09-22T09:21:24Z</time>
      </trkpt>
      <trkpt lat="45.77165" lon="4.6298">
        <ele>701</ele>
        <time>2012-09-22T09:21:25Z</time>
      </trkpt>
      <trkpt lat="45.77162" lon="4.62973">
        <ele>700</ele>
        <time>2012-09-22T09:21:27Z</time>
      </trkpt>
      <trkpt lat="45.77162" lon="4.62946">
        <ele>699</ele>
        <time>2012-09-22T09:21:31Z</time>
      </trkpt>
      <trkpt lat="45.77163" lon="4.62921">
        <ele>698</ele>
        <time>2012-09-22T09:21:36Z</time>
      </trkpt>
      <trkpt lat="45.77163" lon="4.62908">
        <ele>697</ele>
        <time>2012-09-22T09:21:38Z</time>
      </trkpt>
      <trkpt lat="45.77159" lon="4.62861">
        <ele>694</ele>
        <time>2012-09-22T09:21:43Z</time>
      </trkpt>
      <trkpt lat="45.77158" lon="4.62852">
        <ele>694</ele>
        <time>2012-09-22T09:21:44Z</time>
      </trkpt>
      <trkpt lat="45.77159" lon="4.62841">
        <ele>694</ele>
        <time>2012-09-22T09:21:45Z</time>
      </trkpt>
      <trkpt lat="45.77162" lon="4.62803">
        <ele>693</ele>
        <time>2012-09-22T09:21:49Z</time>
      </trkpt>
      <trkpt lat="45.77158" lon="4.62743">
        <ele>690</ele>
        <time>2012-09-22T09:21:54Z</time>
      </trkpt>
      <trkpt lat="45.77156" lon="4.6273">
        <ele>689</ele>
        <time>2012-09-22T09:21:55Z</time>
      </trkpt>
      <trkpt lat="45.77153" lon="4.62719">
        <ele>689</ele>
        <time>2012-09-22T09:21:56Z</time>
      </trkpt>
      <trkpt lat="45.77148" lon="4.62697">
        <ele>687</ele>
        <time>2012-09-22T09:21:58Z</time>
      </trkpt>
      <trkpt lat="45.77148" lon="4.62686">
        <ele>687</ele>
        <time>2012-09-22T09:21:59Z</time>
      </trkpt>
      <trkpt lat="45.77149" lon="4.62676">
        <ele>687</ele>
        <time>2012-09-22T09:22:00Z</time>
      </trkpt>
      <trkpt lat="45.77152" lon="4.62639">
        <ele>685</ele>
        <time>2012-09-22T09:22:04Z</time>
      </trkpt>
      <trkpt lat="45.7715" lon="4.6262">
        <ele>684</ele>
        <time>2012-09-22T09:22:06Z</time>
      </trkpt>
      <trkpt lat="45.77147" lon="4.62613">
        <ele>684</ele>
        <time>2012-09-22T09:22:07Z</time>
      </trkpt>
      <trkpt lat="45.77136" lon="4.6259">
        <ele>682</ele>
        <time>2012-09-22T09:22:11Z</time>
      </trkpt>
      <trkpt lat="45.77136" lon="4.62586">
        <ele>682</ele>
        <time>2012-09-22T09:22:12Z</time>
      </trkpt>
      <trkpt lat="45.77135" lon="4.62581">
        <ele>681</ele>
        <time>2012-09-22T09:22:13Z</time>
      </trkpt>
      <trkpt lat="45.77135" lon="4.62576">
        <ele>680</ele>
        <time>2012-09-22T09:22:14Z</time>
      </trkpt>
      <trkpt lat="45.77135" lon="4.6257">
        <ele>680</ele>
        <time>2012-09-22T09:22:15Z</time>
      </trkpt>
      <trkpt lat="45.77135" lon="4.62564">
        <ele>679</ele>
        <time>2012-09-22T09:22:16Z</time>
      </trkpt>
      <trkpt lat="45.77135" lon="4.62558">
        <ele>678</ele>
        <time>2012-09-22T09:22:17Z</time>
      </trkpt>
      <trkpt lat="45.77136" lon="4.62552">
        <ele>678</ele>
        <time>2012-09-22T09:22:18Z</time>
      </trkpt>
      <trkpt lat="45.77138" lon="4.62547">
        <ele>676</ele>
        <time>2012-09-22T09:22:19Z</time>
      </trkpt>
      <trkpt lat="45.77141" lon="4.62542">
        <ele>676</ele>
        <time>2012-09-22T09:22:20Z</time>
      </trkpt>
      <trkpt lat="45.77143" lon="4.62536">
        <ele>675</ele>
        <time>2012-09-22T09:22:21Z</time>
      </trkpt>
      <trkpt lat="45.77146" lon="4.62529">
        <ele>674</ele>
        <time>2012-09-22T09:22:22Z</time>
      </trkpt>
      <trkpt lat="45.77149" lon="4.62522">
        <ele>674</ele>
        <time>2012-09-22T09:22:23Z</time>
      </trkpt>
      <trkpt lat="45.77151" lon="4.62514">
        <ele>674</ele>
        <time>2012-09-22T09:22:24Z</time>
      </trkpt>
      <trkpt lat="45.77158" lon="4.62497">
        <ele>673</ele>
        <time>2012-09-22T09:22:26Z</time>
      </trkpt>
      <trkpt lat="45.77161" lon="4.62488">
        <ele>673</ele>
        <time>2012-09-22T09:22:27Z</time>
      </trkpt>
      <trkpt lat="45.77167" lon="4.62471">
        <ele>671</ele>
        <time>2012-09-22T09:22:29Z</time>
      </trkpt>
      <trkpt lat="45.7717" lon="4.62463">
        <ele>671</ele>
        <time>2012-09-22T09:22:30Z</time>
      </trkpt>
      <trkpt lat="45.77178" lon="4.62448">
        <ele>670</ele>
        <time>2012-09-22T09:22:32Z</time>
      </trkpt>
      <trkpt lat="45.77186" lon="4.62435">
        <ele>669</ele>
        <time>2012-09-22T09:22:34Z</time>
      </trkpt>
      <trkpt lat="45.7719" lon="4.6243">
        <ele>669</ele>
        <time>2012-09-22T09:22:35Z</time>
      </trkpt>
      <trkpt lat="45.77194" lon="4.62425">
        <ele>668</ele>
        <time>2012-09-22T09:22:36Z</time>
      </trkpt>
      <trkpt lat="45.77198" lon="4.62422">
        <ele>668</ele>
        <time>2012-09-22T09:22:37Z</time>
      </trkpt>
      <trkpt lat="45.77203" lon="4.6242">
        <ele>667</ele>
        <time>2012-09-22T09:22:38Z</time>
      </trkpt>
      <trkpt lat="45.77207" lon="4.62417">
        <ele>667</ele>
        <time>2012-09-22T09:22:39Z</time>
      </trkpt>
      <trkpt lat="45.77216" lon="4.62412">
        <ele>665</ele>
        <time>2012-09-22T09:22:41Z</time>
      </trkpt>
      <trkpt lat="45.7722" lon="4.62407">
        <ele>665</ele>
        <time>2012-09-22T09:22:42Z</time>
      </trkpt>
      <trkpt lat="45.77222" lon="4.62402">
        <ele>664</ele>
        <time>2012-09-22T09:22:43Z</time>
      </trkpt>
      <trkpt lat="45.77229" lon="4.62384">
        <ele>662</ele>
        <time>2012-09-22T09:22:48Z</time>
      </trkpt>
      <trkpt lat="45.7723" lon="4.62357">
        <ele>661</ele>
        <time>2012-09-22T09:22:53Z</time>
      </trkpt>
      <trkpt lat="45.77231" lon="4.62344">
        <ele>660</ele>
        <time>2012-09-22T09:22:55Z</time>
      </trkpt>
      <trkpt lat="45.77231" lon="4.62337">
        <ele>660</ele>
        <time>2012-09-22T09:22:56Z</time>
      </trkpt>
      <trkpt lat="45.7723" lon="4.62322">
        <ele>658</ele>
        <time>2012-09-22T09:22:58Z</time>
      </trkpt>
      <trkpt lat="45.7723" lon="4.62314">
        <ele>657</ele>
        <time>2012-09-22T09:22:59Z</time>
      </trkpt>
      <trkpt lat="45.7723" lon="4.62305">
        <ele>656</ele>
        <time>2012-09-22T09:23:00Z</time>
      </trkpt>
      <trkpt lat="45.77229" lon="4.62296">
        <ele>655</ele>
        <time>2012-09-22T09:23:01Z</time>
      </trkpt>
      <trkpt lat="45.77227" lon="4.62262">
        <ele>652</ele>
        <time>2012-09-22T09:23:05Z</time>
      </trkpt>
      <trkpt lat="45.77227" lon="4.62247">
        <ele>649</ele>
        <time>2012-09-22T09:23:07Z</time>
      </trkpt>
      <trkpt lat="45.77231" lon="4.62222">
        <ele>646</ele>
        <time>2012-09-22T09:23:11Z</time>
      </trkpt>
      <trkpt lat="45.77232" lon="4.62216">
        <ele>645</ele>
        <time>2012-09-22T09:23:12Z</time>
      </trkpt>
      <trkpt lat="45.77235" lon="4.62202">
        <ele>642</ele>
        <time>2012-09-22T09:23:14Z</time>
      </trkpt>
      <trkpt lat="45.77236" lon="4.62195">
        <ele>641</ele>
        <time>2012-09-22T09:23:15Z</time>
      </trkpt>
      <trkpt lat="45.77237" lon="4.62173">
        <ele>637</ele>
        <time>2012-09-22T09:23:18Z</time>
      </trkpt>
      <trkpt lat="45.77238" lon="4.6216">
        <ele>634</ele>
        <time>2012-09-22T09:23:20Z</time>
      </trkpt>
      <trkpt lat="45.77237" lon="4.62143">
        <ele>630</ele>
        <time>2012-09-22T09:23:24Z</time>
      </trkpt>
      <trkpt lat="45.77236" lon="4.6214">
        <ele>629</ele>
        <time>2012-09-22T09:23:25Z</time>
      </trkpt>
      <trkpt lat="45.77235" lon="4.62137">
        <ele>628</ele>
        <time>2012-09-22T09:23:26Z</time>
      </trkpt>
      <trkpt lat="45.77233" lon="4.62132">
        <ele>627</ele>
        <time>2012-09-22T09:23:27Z</time>
      </trkpt>
      <trkpt lat="45.77232" lon="4.62127">
        <ele>627</ele>
        <time>2012-09-22T09:23:28Z</time>
      </trkpt>
      <trkpt lat="45.7723" lon="4.62123">
        <ele>625</ele>
        <time>2012-09-22T09:23:29Z</time>
      </trkpt>
      <trkpt lat="45.77228" lon="4.62114">
        <ele>624</ele>
        <time>2012-09-22T09:23:31Z</time>
      </trkpt>
      <trkpt lat="45.77228" lon="4.6211">
        <ele>624</ele>
        <time>2012-09-22T09:23:32Z</time>
      </trkpt>
      <trkpt lat="45.77228" lon="4.62106">
        <ele>623</ele>
        <time>2012-09-22T09:23:33Z</time>
      </trkpt>
      <trkpt lat="45.77228" lon="4.62103">
        <ele>622</ele>
        <time>2012-09-22T09:23:34Z</time>
      </trkpt>
      <trkpt lat="45.7723" lon="4.62098">
        <ele>621</ele>
        <time>2012-09-22T09:23:35Z</time>
      </trkpt>
      <trkpt lat="45.77229" lon="4.62093">
        <ele>620</ele>
        <time>2012-09-22T09:23:36Z</time>
      </trkpt>
      <trkpt lat="45.77228" lon="4.62088">
        <ele>620</ele>
        <time>2012-09-22T09:23:37Z</time>
      </trkpt>
      <trkpt lat="45.77226" lon="4.62085">
        <ele>619</ele>
        <time>2012-09-22T09:23:38Z</time>
      </trkpt>
      <trkpt lat="45.77224" lon="4.62081">
        <ele>620</ele>
        <time>2012-09-22T09:23:39Z</time>
      </trkpt>
      <trkpt lat="45.77223" lon="4.62079">
        <ele>619</ele>
        <time>2012-09-22T09:23:40Z</time>
      </trkpt>
      <trkpt lat="45.7722" lon="4.62075">
        <ele>618</ele>
        <time>2012-09-22T09:23:41Z</time>
      </trkpt>
      <trkpt lat="45.77217" lon="4.62072">
        <ele>618</ele>
        <time>2012-09-22T09:23:42Z</time>
      </trkpt>
      <trkpt lat="45.77214" lon="4.62068">
        <ele>617</ele>
        <time>2012-09-22T09:23:43Z</time>
      </trkpt>
      <trkpt lat="45.77211" lon="4.62065">
        <ele>616</ele>
        <time>2012-09-22T09:23:44Z</time>
      </trkpt>
      <trkpt lat="45.7721" lon="4.62061">
        <ele>615</ele>
        <time>2012-09-22T09:23:45Z</time>
      </trkpt>
      <trkpt lat="45.7721" lon="4.62056">
        <ele>615</ele>
        <time>2012-09-22T09:23:46Z</time>
      </trkpt>
      <trkpt lat="45.77207" lon="4.62036">
        <ele>612</ele>
        <time>2012-09-22T09:23:50Z</time>
      </trkpt>
      <trkpt lat="45.77207" lon="4.62014">
        <ele>609</ele>
        <time>2012-09-22T09:23:54Z</time>
      </trkpt>
      <trkpt lat="45.77204" lon="4.61997">
        <ele>606</ele>
        <time>2012-09-22T09:23:58Z</time>
      </trkpt>
      <trkpt lat="45.77196" lon="4.61986">
        <ele>603</ele>
        <time>2012-09-22T09:24:02Z</time>
      </trkpt>
      <trkpt lat="45.77193" lon="4.61986">
        <ele>602</ele>
        <time>2012-09-22T09:24:03Z</time>
      </trkpt>
      <trkpt lat="45.7718" lon="4.61998">
        <ele>600</ele>
        <time>2012-09-22T09:24:09Z</time>
      </trkpt>
      <trkpt lat="45.77162" lon="4.61998">
        <ele>595</ele>
        <time>2012-09-22T09:24:13Z</time>
      </trkpt>
      <trkpt lat="45.77158" lon="4.61998">
        <ele>595</ele>
        <time>2012-09-22T09:24:14Z</time>
      </trkpt>
      <trkpt lat="45.7715" lon="4.61993">
        <ele>592</ele>
        <time>2012-09-22T09:24:18Z</time>
      </trkpt>
      <trkpt lat="45.77147" lon="4.61984">
        <ele>588</ele>
        <time>2012-09-22T09:24:22Z</time>
      </trkpt>
      <trkpt lat="45.77134" lon="4.61974">
        <ele>585</ele>
        <time>2012-09-22T09:24:26Z</time>
      </trkpt>
      <trkpt lat="45.77127" lon="4.61963">
        <ele>582</ele>
        <time>2012-09-22T09:24:30Z</time>
      </trkpt>
      <trkpt lat="45.77125" lon="4.6196">
        <ele>581</ele>
        <time>2012-09-22T09:24:43Z</time>
      </trkpt>
      <trkpt lat="45.77118" lon="4.61962">
        <ele>582</ele>
        <time>2012-09-22T09:24:58Z</time>
      </trkpt>
      <trkpt lat="45.77118" lon="4.61968">
        <ele>582</ele>
        <time>2012-09-22T09:25:15Z</time>
      </trkpt>
      <trkpt lat="45.77115" lon="4.61968">
        <ele>582</ele>
        <time>2012-09-22T09:25:26Z</time>
      </trkpt>
      <trkpt lat="45.77124" lon="4.61966">
        <ele>582</ele>
        <time>2012-09-22T09:25:39Z</time>
      </trkpt>
      <trkpt lat="45.77123" lon="4.61961">
        <ele>582</ele>
        <time>2012-09-22T09:25:57Z</time>
      </trkpt>
      <trkpt lat="45.77126" lon="4.61955">
        <ele>582</ele>
        <time>2012-09-22T09:26:12Z</time>
      </trkpt>
      <trkpt lat="45.77127" lon="4.61952">
        <ele>583</ele>
        <time>2012-09-22T09:26:28Z</time>
      </trkpt>
      <trkpt lat="45.77122" lon="4.61953">
        <ele>582</ele>
        <time>2012-09-22T09:26:42Z</time>
      </trkpt>
      <trkpt lat="45.77119" lon="4.61951">
        <ele>582</ele>
        <time>2012-09-22T09:27:00Z</time>
      </trkpt>
      <trkpt lat="45.77115" lon="4.61957">
        <ele>582</ele>
        <time>2012-09-22T09:27:14Z</time>
      </trkpt>
      <trkpt lat="45.77112" lon="4.61962">
        <ele>583</ele>
        <time>2012-09-22T09:27:32Z</time>
      </trkpt>
      <trkpt lat="45.77122" lon="4.61962">
        <ele>582</ele>
        <time>2012-09-22T09:27:51Z</time>
      </trkpt>
      <trkpt lat="45.77125" lon="4.61949">
        <ele>583</ele>
        <time>2012-09-22T09:28:09Z</time>
      </trkpt>
      <trkpt lat="45.77125" lon="4.61945">
        <ele>583</ele>
        <time>2012-09-22T09:28:27Z</time>
      </trkpt>
      <trkpt lat="45.77123" lon="4.61952">
        <ele>583</ele>
        <time>2012-09-22T09:28:44Z</time>
      </trkpt>
      <trkpt lat="45.77122" lon="4.61952">
        <ele>583</ele>
        <time>2012-09-22T09:29:02Z</time>
      </trkpt>
      <trkpt lat="45.77123" lon="4.61952">
        <ele>583</ele>
        <time>2012-09-22T09:29:04Z</time>
      </trkpt>
      <trkpt lat="45.77125" lon="4.61951">
        <ele>583</ele>
        <time>2012-09-22T09:29:05Z</time>
      </trkpt>
      <trkpt lat="45.77127" lon="4.61949">
        <ele>582</ele>
        <time>2012-09-22T09:29:06Z</time>
      </trkpt>
      <trkpt lat="45.77128" lon="4.61947">
        <ele>582</ele>
        <time>2012-09-22T09:29:07Z</time>
      </trkpt>
      <trkpt lat="45.7713" lon="4.61945">
        <ele>582</ele>
        <time>2012-09-22T09:29:08Z</time>
      </trkpt>
      <trkpt lat="45.77133" lon="4.61943">
        <ele>581</ele>
        <time>2012-09-22T09:29:09Z</time>
      </trkpt>
      <trkpt lat="45.77136" lon="4.61939">
        <ele>581</ele>
        <time>2012-09-22T09:29:10Z</time>
      </trkpt>
      <trkpt lat="45.77138" lon="4.61935">
        <ele>581</ele>
        <time>2012-09-22T09:29:11Z</time>
      </trkpt>
      <trkpt lat="45.77145" lon="4.61914">
        <ele>579</ele>
        <time>2012-09-22T09:29:17Z</time>
      </trkpt>
      <trkpt lat="45.77145" lon="4.61911">
        <ele>579</ele>
        <time>2012-09-22T09:29:18Z</time>
      </trkpt>
      <trkpt lat="45.77145" lon="4.61907">
        <ele>579</ele>
        <time>2012-09-22T09:29:19Z</time>
      </trkpt>
      <trkpt lat="45.77144" lon="4.6189">
        <ele>577</ele>
        <time>2012-09-22T09:29:23Z</time>
      </trkpt>
      <trkpt lat="45.77146" lon="4.61885">
        <ele>577</ele>
        <time>2012-09-22T09:29:24Z</time>
      </trkpt>
      <trkpt lat="45.77148" lon="4.61879">
        <ele>576</ele>
        <time>2012-09-22T09:29:25Z</time>
      </trkpt>
      <trkpt lat="45.77149" lon="4.61873">
        <ele>576</ele>
        <time>2012-09-22T09:29:26Z</time>
      </trkpt>
      <trkpt lat="45.7715" lon="4.61867">
        <ele>576</ele>
        <time>2012-09-22T09:29:27Z</time>
      </trkpt>
      <trkpt lat="45.77152" lon="4.6186">
        <ele>576</ele>
        <time>2012-09-22T09:29:28Z</time>
      </trkpt>
      <trkpt lat="45.77156" lon="4.61848">
        <ele>575</ele>
        <time>2012-09-22T09:29:30Z</time>
      </trkpt>
      <trkpt lat="45.77167" lon="4.61828">
        <ele>575</ele>
        <time>2012-09-22T09:29:34Z</time>
      </trkpt>
      <trkpt lat="45.77187" lon="4.61808">
        <ele>575</ele>
        <time>2012-09-22T09:29:38Z</time>
      </trkpt>
      <trkpt lat="45.77213" lon="4.61798">
        <ele>573</ele>
        <time>2012-09-22T09:29:44Z</time>
      </trkpt>
      <trkpt lat="45.77227" lon="4.61795">
        <ele>572</ele>
        <time>2012-09-22T09:29:46Z</time>
      </trkpt>
      <trkpt lat="45.77233" lon="4.61795">
        <ele>572</ele>
        <time>2012-09-22T09:29:47Z</time>
      </trkpt>
      <trkpt lat="45.77248" lon="4.61801">
        <ele>571</ele>
        <time>2012-09-22T09:29:50Z</time>
      </trkpt>
      <trkpt lat="45.77253" lon="4.61805">
        <ele>571</ele>
        <time>2012-09-22T09:29:51Z</time>
      </trkpt>
      <trkpt lat="45.77262" lon="4.61813">
        <ele>570</ele>
        <time>2012-09-22T09:29:53Z</time>
      </trkpt>
      <trkpt lat="45.77273" lon="4.61829">
        <ele>569</ele>
        <time>2012-09-22T09:29:56Z</time>
      </trkpt>
      <trkpt lat="45.77276" lon="4.61835">
        <ele>569</ele>
        <time>2012-09-22T09:29:57Z</time>
      </trkpt>
      <trkpt lat="45.77279" lon="4.6184">
        <ele>569</ele>
        <time>2012-09-22T09:29:58Z</time>
      </trkpt>
      <trkpt lat="45.77282" lon="4.61845">
        <ele>569</ele>
        <time>2012-09-22T09:29:59Z</time>
      </trkpt>
      <trkpt lat="45.77284" lon="4.61851">
        <ele>569</ele>
        <time>2012-09-22T09:30:00Z</time>
      </trkpt>
      <trkpt lat="45.77292" lon="4.61866">
        <ele>568</ele>
        <time>2012-09-22T09:30:03Z</time>
      </trkpt>
      <trkpt lat="45.77295" lon="4.61871">
        <ele>568</ele>
        <time>2012-09-22T09:30:04Z</time>
      </trkpt>
      <trkpt lat="45.77297" lon="4.61875">
        <ele>567</ele>
        <time>2012-09-22T09:30:05Z</time>
      </trkpt>
      <trkpt lat="45.773" lon="4.61879">
        <ele>566</ele>
        <time>2012-09-22T09:30:06Z</time>
      </trkpt>
      <trkpt lat="45.77303" lon="4.61884">
        <ele>565</ele>
        <time>2012-09-22T09:30:07Z</time>
      </trkpt>
      <trkpt lat="45.77307" lon="4.61888">
        <ele>563</ele>
        <time>2012-09-22T09:30:08Z</time>
      </trkpt>
      <trkpt lat="45.77311" lon="4.61893">
        <ele>563</ele>
        <time>2012-09-22T09:30:09Z</time>
      </trkpt>
      <trkpt lat="45.77315" lon="4.61898">
        <ele>563</ele>
        <time>2012-09-22T09:30:10Z</time>
      </trkpt>
      <trkpt lat="45.77319" lon="4.61902">
        <ele>562</ele>
        <time>2012-09-22T09:30:11Z</time>
      </trkpt>
      <trkpt lat="45.77323" lon="4.61907">
        <ele>561</ele>
        <time>2012-09-22T09:30:12Z</time>
      </trkpt>
      <trkpt lat="45.77326" lon="4.61912">
        <ele>561</ele>
        <time>2012-09-22T09:30:13Z</time>
      </trkpt>
      <trkpt lat="45.7733" lon="4.61918">
        <ele>560</ele>
        <time>2012-09-22T09:30:14Z</time>
      </trkpt>
      <trkpt lat="45.77334" lon="4.61924">
        <ele>560</ele>
        <time>2012-09-22T09:30:15Z</time>
      </trkpt>
      <trkpt lat="45.77339" lon="4.61929">
        <ele>558</ele>
        <time>2012-09-22T09:30:16Z</time>
      </trkpt>
      <trkpt lat="45.77343" lon="4.61934">
        <ele>557</ele>
        <time>2012-09-22T09:30:17Z</time>
      </trkpt>
      <trkpt lat="45.77348" lon="4.61939">
        <ele>556</ele>
        <time>2012-09-22T09:30:18Z</time>
      </trkpt>
      <trkpt lat="45.77353" lon="4.61943">
        <ele>554</ele>
        <time>2012-09-22T09:30:19Z</time>
      </trkpt>
      <trkpt lat="45.77358" lon="4.61946">
        <ele>554</ele>
        <time>2012-09-22T09:30:20Z</time>
      </trkpt>
      <trkpt lat="45.77369" lon="4.61953">
        <ele>551</ele>
        <time>2012-09-22T09:30:22Z</time>
      </trkpt>
      <trkpt lat="45.77375" lon="4.61958">
        <ele>550</ele>
        <time>2012-09-22T09:30:23Z</time>
      </trkpt>
      <trkpt lat="45.77381" lon="4.61961">
        <ele>549</ele>
        <time>2012-09-22T09:30:24Z</time>
      </trkpt>
      <trkpt lat="45.77387" lon="4.61963">
        <ele>548</ele>
        <time>2012-09-22T09:30:25Z</time>
      </trkpt>
      <trkpt lat="45.77393" lon="4.61965">
        <ele>546</ele>
        <time>2012-09-22T09:30:26Z</time>
      </trkpt>
      <trkpt lat="45.77409" lon="4.61971">
        <ele>543</ele>
        <time>2012-09-22T09:30:29Z</time>
      </trkpt>
      <trkpt lat="45.77414" lon="4.61973">
        <ele>541</ele>
        <time>2012-09-22T09:30:30Z</time>
      </trkpt>
      <trkpt lat="45.77426" lon="4.61976">
        <ele>540</ele>
        <time>2012-09-22T09:30:32Z</time>
      </trkpt>
      <trkpt lat="45.77431" lon="4.61976">
        <ele>538</ele>
        <time>2012-09-22T09:30:33Z</time>
      </trkpt>
      <trkpt lat="45.77437" lon="4.61975">
        <ele>537</ele>
        <time>2012-09-22T09:30:34Z</time>
      </trkpt>
      <trkpt lat="45.77442" lon="4.61973">
        <ele>536</ele>
        <time>2012-09-22T09:30:35Z</time>
      </trkpt>
      <trkpt lat="45.77448" lon="4.61971">
        <ele>535</ele>
        <time>2012-09-22T09:30:36Z</time>
      </trkpt>
      <trkpt lat="45.77468" lon="4.61966">
        <ele>531</ele>
        <time>2012-09-22T09:30:39Z</time>
      </trkpt>
      <trkpt lat="45.77482" lon="4.61965">
        <ele>529</ele>
        <time>2012-09-22T09:30:41Z</time>
      </trkpt>
      <trkpt lat="45.77488" lon="4.61967">
        <ele>527</ele>
        <time>2012-09-22T09:30:42Z</time>
      </trkpt>
      <trkpt lat="45.77495" lon="4.61968">
        <ele>527</ele>
        <time>2012-09-22T09:30:43Z</time>
      </trkpt>
      <trkpt lat="45.77515" lon="4.61974">
        <ele>523</ele>
        <time>2012-09-22T09:30:46Z</time>
      </trkpt>
      <trkpt lat="45.7753" lon="4.61977">
        <ele>521</ele>
        <time>2012-09-22T09:30:48Z</time>
      </trkpt>
      <trkpt lat="45.77548" lon="4.61976">
        <ele>518</ele>
        <time>2012-09-22T09:30:51Z</time>
      </trkpt>
      <trkpt lat="45.77556" lon="4.61979">
        <ele>517</ele>
        <time>2012-09-22T09:30:55Z</time>
      </trkpt>
      <trkpt lat="45.77558" lon="4.61978">
        <ele>517</ele>
        <time>2012-09-22T09:30:59Z</time>
      </trkpt>
      <trkpt lat="45.77553" lon="4.61983">
        <ele>517</ele>
        <time>2012-09-22T09:31:05Z</time>
      </trkpt>
      <trkpt lat="45.7755" lon="4.61984">
        <ele>517</ele>
        <time>2012-09-22T09:31:08Z</time>
      </trkpt>
      <trkpt lat="45.77551" lon="4.61988">
        <ele>517</ele>
        <time>2012-09-22T09:31:11Z</time>
      </trkpt>
      <trkpt lat="45.77561" lon="4.61995">
        <ele>518</ele>
        <time>2012-09-22T09:31:19Z</time>
      </trkpt>
      <trkpt lat="45.77562" lon="4.61997">
        <ele>519</ele>
        <time>2012-09-22T09:31:20Z</time>
      </trkpt>
      <trkpt lat="45.77564" lon="4.61998">
        <ele>520</ele>
        <time>2012-09-22T09:31:21Z</time>
      </trkpt>
      <trkpt lat="45.77573" lon="4.62011">
        <ele>520</ele>
        <time>2012-09-22T09:31:29Z</time>
      </trkpt>
      <trkpt lat="45.77578" lon="4.62027">
        <ele>521</ele>
        <time>2012-09-22T09:31:37Z</time>
      </trkpt>
      <trkpt lat="45.7758" lon="4.62035">
        <ele>522</ele>
        <time>2012-09-22T09:31:41Z</time>
      </trkpt>
      <trkpt lat="45.77581" lon="4.62047">
        <ele>523</ele>
        <time>2012-09-22T09:31:48Z</time>
      </trkpt>
      <trkpt lat="45.77581" lon="4.6205">
        <ele>523</ele>
        <time>2012-09-22T09:31:49Z</time>
      </trkpt>
      <trkpt lat="45.77581" lon="4.62051">
        <ele>523</ele>
        <time>2012-09-22T09:31:50Z</time>
      </trkpt>
      <trkpt lat="45.7758" lon="4.62053">
        <ele>523</ele>
        <time>2012-09-22T09:31:51Z</time>
      </trkpt>
      <trkpt lat="45.77579" lon="4.62055">
        <ele>523</ele>
        <time>2012-09-22T09:31:52Z</time>
      </trkpt>
      <trkpt lat="45.77579" lon="4.62057">
        <ele>523</ele>
        <time>2012-09-22T09:31:53Z</time>
      </trkpt>
      <trkpt lat="45.77576" lon="4.62073">
        <ele>522</ele>
        <time>2012-09-22T09:32:00Z</time>
      </trkpt>
      <trkpt lat="45.7757" lon="4.62088">
        <ele>523</ele>
        <time>2012-09-22T09:32:06Z</time>
      </trkpt>
      <trkpt lat="45.77568" lon="4.62092">
        <ele>523</ele>
        <time>2012-09-22T09:32:08Z</time>
      </trkpt>
      <trkpt lat="45.77567" lon="4.62093">
        <ele>523</ele>
        <time>2012-09-22T09:32:09Z</time>
      </trkpt>
      <trkpt lat="45.77565" lon="4.62095">
        <ele>523</ele>
        <time>2012-09-22T09:32:10Z</time>
      </trkpt>
      <trkpt lat="45.77559" lon="4.62098">
        <ele>524</ele>
        <time>2012-09-22T09:32:17Z</time>
      </trkpt>
      <trkpt lat="45.77555" lon="4.62105">
        <ele>524</ele>
        <time>2012-09-22T09:32:23Z</time>
      </trkpt>
      <trkpt lat="45.77545" lon="4.62117">
        <ele>525</ele>
        <time>2012-09-22T09:32:29Z</time>
      </trkpt>
      <trkpt lat="45.77538" lon="4.62126">
        <ele>525</ele>
        <time>2012-09-22T09:32:32Z</time>
      </trkpt>
      <trkpt lat="45.77531" lon="4.62142">
        <ele>526</ele>
        <time>2012-09-22T09:32:38Z</time>
      </trkpt>
      <trkpt lat="45.77525" lon="4.62154">
        <ele>529</ele>
        <time>2012-09-22T09:32:46Z</time>
      </trkpt>
      <trkpt lat="45.77523" lon="4.62162">
        <ele>531</ele>
        <time>2012-09-22T09:32:50Z</time>
      </trkpt>
      <trkpt lat="45.7752" lon="4.6217">
        <ele>532</ele>
        <time>2012-09-22T09:32:55Z</time>
      </trkpt>
      <trkpt lat="45.77519" lon="4.6218">
        <ele>532</ele>
        <time>2012-09-22T09:33:03Z</time>
      </trkpt>
      <trkpt lat="45.77517" lon="4.62201">
        <ele>534</ele>
        <time>2012-09-22T09:33:13Z</time>
      </trkpt>
      <trkpt lat="45.77516" lon="4.62205">
        <ele>533</ele>
        <time>2012-09-22T09:33:20Z</time>
      </trkpt>
      <trkpt lat="45.77513" lon="4.62212">
        <ele>533</ele>
        <time>2012-09-22T09:33:30Z</time>
      </trkpt>
      <trkpt lat="45.7751" lon="4.6222">
        <ele>533</ele>
        <time>2012-09-22T09:33:39Z</time>
      </trkpt>
      <trkpt lat="45.77508" lon="4.62232">
        <ele>535</ele>
        <time>2012-09-22T09:33:47Z</time>
      </trkpt>
      <trkpt lat="45.77506" lon="4.62241">
        <ele>535</ele>
        <time>2012-09-22T09:33:52Z</time>
      </trkpt>
      <trkpt lat="45.77505" lon="4.62243">
        <ele>535</ele>
        <time>2012-09-22T09:33:53Z</time>
      </trkpt>
      <trkpt lat="45.77504" lon="4.62245">
        <ele>536</ele>
        <time>2012-09-22T09:33:54Z</time>
      </trkpt>
      <trkpt lat="45.77503" lon="4.62247">
        <ele>535</ele>
        <time>2012-09-22T09:33:55Z</time>
      </trkpt>
      <trkpt lat="45.77502" lon="4.6225">
        <ele>536</ele>
        <time>2012-09-22T09:33:56Z</time>
      </trkpt>
      <trkpt lat="45.77501" lon="4.62252">
        <ele>536</ele>
        <time>2012-09-22T09:33:57Z</time>
      </trkpt>
      <trkpt lat="45.775" lon="4.6226">
        <ele>537</ele>
        <time>2012-09-22T09:34:01Z</time>
      </trkpt>
      <trkpt lat="45.77496" lon="4.62271">
        <ele>538</ele>
        <time>2012-09-22T09:34:08Z</time>
      </trkpt>
      <trkpt lat="45.77496" lon="4.62273">
        <ele>539</ele>
        <time>2012-09-22T09:34:09Z</time>
      </trkpt>
      <trkpt lat="45.77494" lon="4.6228">
        <ele>540</ele>
        <time>2012-09-22T09:34:14Z</time>
      </trkpt>
      <trkpt lat="45.77494" lon="4.62284">
        <ele>540</ele>
        <time>2012-09-22T09:34:17Z</time>
      </trkpt>
      <trkpt lat="45.77493" lon="4.62288">
        <ele>541</ele>
        <time>2012-09-22T09:34:19Z</time>
      </trkpt>
      <trkpt lat="45.77493" lon="4.623">
        <ele>543</ele>
        <time>2012-09-22T09:34:27Z</time>
      </trkpt>
      <trkpt lat="45.77493" lon="4.6231">
        <ele>544</ele>
        <time>2012-09-22T09:34:34Z</time>
      </trkpt>
      <trkpt lat="45.77494" lon="4.62324">
        <ele>545</ele>
        <time>2012-09-22T09:34:42Z</time>
      </trkpt>
      <trkpt lat="45.77494" lon="4.62329">
        <ele>546</ele>
        <time>2012-09-22T09:34:45Z</time>
      </trkpt>
      <trkpt lat="45.77495" lon="4.62331">
        <ele>546</ele>
        <time>2012-09-22T09:34:46Z</time>
      </trkpt>
      <trkpt lat="45.77495" lon="4.62344">
        <ele>547</ele>
        <time>2012-09-22T09:34:52Z</time>
      </trkpt>
      <trkpt lat="45.77498" lon="4.6236">
        <ele>547</ele>
        <time>2012-09-22T09:34:58Z</time>
      </trkpt>
      <trkpt lat="45.775" lon="4.62363">
        <ele>547</ele>
        <time>2012-09-22T09:34:59Z</time>
      </trkpt>
      <trkpt lat="45.77501" lon="4.62367">
        <ele>547</ele>
        <time>2012-09-22T09:35:00Z</time>
      </trkpt>
      <trkpt lat="45.77504" lon="4.62372">
        <ele>546</ele>
        <time>2012-09-22T09:35:01Z</time>
      </trkpt>
      <trkpt lat="45.77506" lon="4.62375">
        <ele>546</ele>
        <time>2012-09-22T09:35:02Z</time>
      </trkpt>
      <trkpt lat="45.77509" lon="4.62378">
        <ele>546</ele>
        <time>2012-09-22T09:35:03Z</time>
      </trkpt>
      <trkpt lat="45.77512" lon="4.6238">
        <ele>546</ele>
        <time>2012-09-22T09:35:04Z</time>
      </trkpt>
      <trkpt lat="45.77515" lon="4.62382">
        <ele>546</ele>
        <time>2012-09-22T09:35:05Z</time>
      </trkpt>
      <trkpt lat="45.77518" lon="4.62383">
        <ele>546</ele>
        <time>2012-09-22T09:35:06Z</time>
      </trkpt>
      <trkpt lat="45.77521" lon="4.62383">
        <ele>546</ele>
        <time>2012-09-22T09:35:07Z</time>
      </trkpt>
      <trkpt lat="45.77531" lon="4.62388">
        <ele>546</ele>
        <time>2012-09-22T09:35:13Z</time>
      </trkpt>
      <trkpt lat="45.77533" lon="4.62389">
        <ele>547</ele>
        <time>2012-09-22T09:35:14Z</time>
      </trkpt>
      <trkpt lat="45.77535" lon="4.62389">
        <ele>547</ele>
        <time>2012-09-22T09:35:15Z</time>
      </trkpt>
      <trkpt lat="45.77537" lon="4.6239">
        <ele>547</ele>
        <time>2012-09-22T09:35:16Z</time>
      </trkpt>
      <trkpt lat="45.7754" lon="4.62392">
        <ele>547</ele>
        <time>2012-09-22T09:35:17Z</time>
      </trkpt>
      <trkpt lat="45.7756" lon="4.62406">
        <ele>548</ele>
        <time>2012-09-22T09:35:26Z</time>
      </trkpt>
      <trkpt lat="45.77576" lon="4.62422">
        <ele>548</ele>
        <time>2012-09-22T09:35:33Z</time>
      </trkpt>
      <trkpt lat="45.77596" lon="4.62437">
        <ele>548</ele>
        <time>2012-09-22T09:35:40Z</time>
      </trkpt>
      <trkpt lat="45.77624" lon="4.62462">
        <ele>549</ele>
        <time>2012-09-22T09:35:49Z</time>
      </trkpt>
      <trkpt lat="45.77639" lon="4.62479">
        <ele>550</ele>
        <time>2012-09-22T09:35:55Z</time>
      </trkpt>
      <trkpt lat="45.77654" lon="4.62497">
        <ele>550</ele>
        <time>2012-09-22T09:36:01Z</time>
      </trkpt>
      <trkpt lat="45.77673" lon="4.62521">
        <ele>550</ele>
        <time>2012-09-22T09:36:08Z</time>
      </trkpt>
      <trkpt lat="45.77687" lon="4.62542">
        <ele>550</ele>
        <time>2012-09-22T09:36:14Z</time>
      </trkpt>
      <trkpt lat="45.77703" lon="4.62561">
        <ele>550</ele>
        <time>2012-09-22T09:36:20Z</time>
      </trkpt>
      <trkpt lat="45.7772" lon="4.62584">
        <ele>550</ele>
        <time>2012-09-22T09:36:26Z</time>
      </trkpt>
      <trkpt lat="45.77743" lon="4.62617">
        <ele>550</ele>
        <time>2012-09-22T09:36:33Z</time>
      </trkpt>
      <trkpt lat="45.77749" lon="4.62628">
        <ele>549</ele>
        <time>2012-09-22T09:36:35Z</time>
      </trkpt>
      <trkpt lat="45.77751" lon="4.62634">
        <ele>548</ele>
        <time>2012-09-22T09:36:36Z</time>
      </trkpt>
      <trkpt lat="45.77754" lon="4.6264">
        <ele>549</ele>
        <time>2012-09-22T09:36:37Z</time>
      </trkpt>
      <trkpt lat="45.77756" lon="4.62646">
        <ele>548</ele>
        <time>2012-09-22T09:36:38Z</time>
      </trkpt>
      <trkpt lat="45.77758" lon="4.62653">
        <ele>547</ele>
        <time>2012-09-22T09:36:39Z</time>
      </trkpt>
      <trkpt lat="45.77759" lon="4.6266">
        <ele>547</ele>
        <time>2012-09-22T09:36:40Z</time>
      </trkpt>
      <trkpt lat="45.7776" lon="4.62667">
        <ele>546</ele>
        <time>2012-09-22T09:36:41Z</time>
      </trkpt>
      <trkpt lat="45.7776" lon="4.62673">
        <ele>545</ele>
        <time>2012-09-22T09:36:42Z</time>
      </trkpt>
      <trkpt lat="45.7776" lon="4.62678">
        <ele>545</ele>
        <time>2012-09-22T09:36:43Z</time>
      </trkpt>
      <trkpt lat="45.77758" lon="4.62684">
        <ele>544</ele>
        <time>2012-09-22T09:36:44Z</time>
      </trkpt>
      <trkpt lat="45.77754" lon="4.6269">
        <ele>543</ele>
        <time>2012-09-22T09:36:45Z</time>
      </trkpt>
      <trkpt lat="45.77749" lon="4.62696">
        <ele>542</ele>
        <time>2012-09-22T09:36:46Z</time>
      </trkpt>
      <trkpt lat="45.77745" lon="4.62702">
        <ele>542</ele>
        <time>2012-09-22T09:36:47Z</time>
      </trkpt>
      <trkpt lat="45.7774" lon="4.62708">
        <ele>542</ele>
        <time>2012-09-22T09:36:48Z</time>
      </trkpt>
      <trkpt lat="45.77724" lon="4.62724">
        <ele>541</ele>
        <time>2012-09-22T09:36:51Z</time>
      </trkpt>
      <trkpt lat="45.77716" lon="4.62731">
        <ele>541</ele>
        <time>2012-09-22T09:36:53Z</time>
      </trkpt>
      <trkpt lat="45.77712" lon="4.62735">
        <ele>541</ele>
        <time>2012-09-22T09:36:54Z</time>
      </trkpt>
      <trkpt lat="45.77709" lon="4.62738">
        <ele>541</ele>
        <time>2012-09-22T09:36:55Z</time>
      </trkpt>
      <trkpt lat="45.77706" lon="4.6274">
        <ele>542</ele>
        <time>2012-09-22T09:36:56Z</time>
      </trkpt>
      <trkpt lat="45.77702" lon="4.62742">
        <ele>542</ele>
        <time>2012-09-22T09:36:57Z</time>
      </trkpt>
      <trkpt lat="45.77699" lon="4.62745">
        <ele>542</ele>
        <time>2012-09-22T09:36:58Z</time>
      </trkpt>
      <trkpt lat="45.77697" lon="4.62747">
        <ele>542</ele>
        <time>2012-09-22T09:36:59Z</time>
      </trkpt>
      <trkpt lat="45.77695" lon="4.62749">
        <ele>542</ele>
        <time>2012-09-22T09:37:00Z</time>
      </trkpt>
      <trkpt lat="45.77693" lon="4.6275">
        <ele>543</ele>
        <time>2012-09-22T09:37:01Z</time>
      </trkpt>
      <trkpt lat="45.77691" lon="4.62752">
        <ele>543</ele>
        <time>2012-09-22T09:37:02Z</time>
      </trkpt>
      <trkpt lat="45.77689" lon="4.62754">
        <ele>543</ele>
        <time>2012-09-22T09:37:03Z</time>
      </trkpt>
      <trkpt lat="45.77687" lon="4.62756">
        <ele>544</ele>
        <time>2012-09-22T09:37:04Z</time>
      </trkpt>
      <trkpt lat="45.77686" lon="4.62757">
        <ele>544</ele>
        <time>2012-09-22T09:37:05Z</time>
      </trkpt>
      <trkpt lat="45.77677" lon="4.6277">
        <ele>546</ele>
        <time>2012-09-22T09:37:12Z</time>
      </trkpt>
      <trkpt lat="45.77666" lon="4.62786">
        <ele>547</ele>
        <time>2012-09-22T09:37:18Z</time>
      </trkpt>
      <trkpt lat="45.77655" lon="4.62804">
        <ele>548</ele>
        <time>2012-09-22T09:37:24Z</time>
      </trkpt>
      <trkpt lat="45.7765" lon="4.62813">
        <ele>549</ele>
        <time>2012-09-22T09:37:28Z</time>
      </trkpt>
      <trkpt lat="45.7765" lon="4.62816">
        <ele>549</ele>
        <time>2012-09-22T09:37:29Z</time>
      </trkpt>
      <trkpt lat="45.77649" lon="4.62824">
        <ele>549</ele>
        <time>2012-09-22T09:37:33Z</time>
      </trkpt>
      <trkpt lat="45.77649" lon="4.62826">
        <ele>549</ele>
        <time>2012-09-22T09:37:34Z</time>
      </trkpt>
      <trkpt lat="45.77646" lon="4.62833">
        <ele>550</ele>
        <time>2012-09-22T09:37:37Z</time>
      </trkpt>
      <trkpt lat="45.77644" lon="4.62836">
        <ele>550</ele>
        <time>2012-09-22T09:37:38Z</time>
      </trkpt>
      <trkpt lat="45.77644" lon="4.62838">
        <ele>550</ele>
        <time>2012-09-22T09:37:39Z</time>
      </trkpt>
      <trkpt lat="45.77645" lon="4.62852">
        <ele>551</ele>
        <time>2012-09-22T09:37:45Z</time>
      </trkpt>
      <trkpt lat="45.77644" lon="4.62862">
        <ele>552</ele>
        <time>2012-09-22T09:37:50Z</time>
      </trkpt>
      <trkpt lat="45.77644" lon="4.62865">
        <ele>552</ele>
        <time>2012-09-22T09:37:52Z</time>
      </trkpt>
      <trkpt lat="45.77647" lon="4.62877">
        <ele>554</ele>
        <time>2012-09-22T09:37:57Z</time>
      </trkpt>
      <trkpt lat="45.77653" lon="4.62891">
        <ele>555</ele>
        <time>2012-09-22T09:38:03Z</time>
      </trkpt>
      <trkpt lat="45.77654" lon="4.62893">
        <ele>555</ele>
        <time>2012-09-22T09:38:04Z</time>
      </trkpt>
      <trkpt lat="45.77656" lon="4.62904">
        <ele>556</ele>
        <time>2012-09-22T09:38:09Z</time>
      </trkpt>
      <trkpt lat="45.77661" lon="4.62918">
        <ele>557</ele>
        <time>2012-09-22T09:38:16Z</time>
      </trkpt>
      <trkpt lat="45.77667" lon="4.62934">
        <ele>558</ele>
        <time>2012-09-22T09:38:24Z</time>
      </trkpt>
      <trkpt lat="45.77669" lon="4.62937">
        <ele>558</ele>
        <time>2012-09-22T09:38:26Z</time>
      </trkpt>
      <trkpt lat="45.77669" lon="4.62938">
        <ele>559</ele>
        <time>2012-09-22T09:38:27Z</time>
      </trkpt>
      <trkpt lat="45.7767" lon="4.6294">
        <ele>559</ele>
        <time>2012-09-22T09:38:28Z</time>
      </trkpt>
      <trkpt lat="45.7767" lon="4.62943">
        <ele>560</ele>
        <time>2012-09-22T09:38:29Z</time>
      </trkpt>
      <trkpt lat="45.77671" lon="4.62944">
        <ele>560</ele>
        <time>2012-09-22T09:38:30Z</time>
      </trkpt>
      <trkpt lat="45.77671" lon="4.62945">
        <ele>559</ele>
        <time>2012-09-22T09:38:31Z</time>
      </trkpt>
      <trkpt lat="45.77672" lon="4.62947">
        <ele>560</ele>
        <time>2012-09-22T09:38:32Z</time>
      </trkpt>
      <trkpt lat="45.77673" lon="4.62948">
        <ele>560</ele>
        <time>2012-09-22T09:38:33Z</time>
      </trkpt>
      <trkpt lat="45.77675" lon="4.62953">
        <ele>561</ele>
        <time>2012-09-22T09:38:36Z</time>
      </trkpt>
      <trkpt lat="45.77676" lon="4.62954">
        <ele>561</ele>
        <time>2012-09-22T09:38:37Z</time>
      </trkpt>
      <trkpt lat="45.77677" lon="4.62956">
        <ele>561</ele>
        <time>2012-09-22T09:38:38Z</time>
      </trkpt>
      <trkpt lat="45.77678" lon="4.62959">
        <ele>561</ele>
        <time>2012-09-22T09:38:40Z</time>
      </trkpt>
      <trkpt lat="45.77681" lon="4.62967">
        <ele>562</ele>
        <time>2012-09-22T09:38:45Z</time>
      </trkpt>
      <trkpt lat="45.77682" lon="4.62969">
        <ele>563</ele>
        <time>2012-09-22T09:38:46Z</time>
      </trkpt>
      <trkpt lat="45.77683" lon="4.6297">
        <ele>562</ele>
        <time>2012-09-22T09:38:47Z</time>
      </trkpt>
      <trkpt lat="45.77684" lon="4.62973">
        <ele>563</ele>
        <time>2012-09-22T09:38:48Z</time>
      </trkpt>
      <trkpt lat="45.77685" lon="4.62975">
        <ele>563</ele>
        <time>2012-09-22T09:38:49Z</time>
      </trkpt>
      <trkpt lat="45.77691" lon="4.62994">
        <ele>565</ele>
        <time>2012-09-22T09:38:59Z</time>
      </trkpt>
      <trkpt lat="45.77695" lon="4.63005">
        <ele>567</ele>
        <time>2012-09-22T09:39:06Z</time>
      </trkpt>
      <trkpt lat="45.77698" lon="4.63013">
        <ele>569</ele>
        <time>2012-09-22T09:39:13Z</time>
      </trkpt>
      <trkpt lat="45.77701" lon="4.63024">
        <ele>570</ele>
        <time>2012-09-22T09:39:20Z</time>
      </trkpt>
      <trkpt lat="45.77704" lon="4.63029">
        <ele>571</ele>
        <time>2012-09-22T09:39:23Z</time>
      </trkpt>
      <trkpt lat="45.77706" lon="4.63036">
        <ele>572</ele>
        <time>2012-09-22T09:39:27Z</time>
      </trkpt>
      <trkpt lat="45.77706" lon="4.63037">
        <ele>572</ele>
        <time>2012-09-22T09:39:28Z</time>
      </trkpt>
      <trkpt lat="45.77711" lon="4.63048">
        <ele>573</ele>
        <time>2012-09-22T09:39:36Z</time>
      </trkpt>
      <trkpt lat="45.77712" lon="4.63059">
        <ele>575</ele>
        <time>2012-09-22T09:39:44Z</time>
      </trkpt>
      <trkpt lat="45.77715" lon="4.63067">
        <ele>576</ele>
        <time>2012-09-22T09:39:49Z</time>
      </trkpt>
      <trkpt lat="45.77716" lon="4.63076">
        <ele>577</ele>
        <time>2012-09-22T09:39:55Z</time>
      </trkpt>
      <trkpt lat="45.77716" lon="4.63086">
        <ele>578</ele>
        <time>2012-09-22T09:40:02Z</time>
      </trkpt>
      <trkpt lat="45.77716" lon="4.63094">
        <ele>579</ele>
        <time>2012-09-22T09:40:07Z</time>
      </trkpt>
      <trkpt lat="45.77718" lon="4.63099">
        <ele>580</ele>
        <time>2012-09-22T09:40:10Z</time>
      </trkpt>
      <trkpt lat="45.77718" lon="4.63103">
        <ele>580</ele>
        <time>2012-09-22T09:40:12Z</time>
      </trkpt>
      <trkpt lat="45.77718" lon="4.63118">
        <ele>581</ele>
        <time>2012-09-22T09:40:19Z</time>
      </trkpt>
      <trkpt lat="45.77719" lon="4.63121">
        <ele>581</ele>
        <time>2012-09-22T09:40:20Z</time>
      </trkpt>
      <trkpt lat="45.7772" lon="4.63139">
        <ele>583</ele>
        <time>2012-09-22T09:40:28Z</time>
      </trkpt>
      <trkpt lat="45.77721" lon="4.63154">
        <ele>585</ele>
        <time>2012-09-22T09:40:36Z</time>
      </trkpt>
      <trkpt lat="45.77721" lon="4.63166">
        <ele>585</ele>
        <time>2012-09-22T09:40:41Z</time>
      </trkpt>
      <trkpt lat="45.77722" lon="4.63169">
        <ele>585</ele>
        <time>2012-09-22T09:40:42Z</time>
      </trkpt>
      <trkpt lat="45.77722" lon="4.63171">
        <ele>585</ele>
        <time>2012-09-22T09:40:43Z</time>
      </trkpt>
      <trkpt lat="45.77723" lon="4.63186">
        <ele>586</ele>
        <time>2012-09-22T09:40:49Z</time>
      </trkpt>
      <trkpt lat="45.77724" lon="4.63194">
        <ele>586</ele>
        <time>2012-09-22T09:40:52Z</time>
      </trkpt>
      <trkpt lat="45.77724" lon="4.63206">
        <ele>587</ele>
        <time>2012-09-22T09:40:58Z</time>
      </trkpt>
      <trkpt lat="45.77723" lon="4.63219">
        <ele>588</ele>
        <time>2012-09-22T09:41:05Z</time>
      </trkpt>
      <trkpt lat="45.77723" lon="4.63231">
        <ele>588</ele>
        <time>2012-09-22T09:41:11Z</time>
      </trkpt>
      <trkpt lat="45.77723" lon="4.63238">
        <ele>589</ele>
        <time>2012-09-22T09:41:14Z</time>
      </trkpt>
      <trkpt lat="45.77715" lon="4.63257">
        <ele>590</ele>
        <time>2012-09-22T09:41:20Z</time>
      </trkpt>
      <trkpt lat="45.77704" lon="4.63275">
        <ele>591</ele>
        <time>2012-09-22T09:41:26Z</time>
      </trkpt>
      <trkpt lat="45.77698" lon="4.63284">
        <ele>592</ele>
        <time>2012-09-22T09:41:31Z</time>
      </trkpt>
      <trkpt lat="45.77694" lon="4.63287">
        <ele>592</ele>
        <time>2012-09-22T09:41:34Z</time>
      </trkpt>
      <trkpt lat="45.77681" lon="4.63299">
        <ele>591</ele>
        <time>2012-09-22T09:41:40Z</time>
      </trkpt>
      <trkpt lat="45.77676" lon="4.63304">
        <ele>590</ele>
        <time>2012-09-22T09:41:42Z</time>
      </trkpt>
      <trkpt lat="45.77675" lon="4.63305">
        <ele>591</ele>
        <time>2012-09-22T09:41:43Z</time>
      </trkpt>
      <trkpt lat="45.7766" lon="4.63312">
        <ele>591</ele>
        <time>2012-09-22T09:41:51Z</time>
      </trkpt>
      <trkpt lat="45.77651" lon="4.63319">
        <ele>591</ele>
        <time>2012-09-22T09:41:56Z</time>
      </trkpt>
      <trkpt lat="45.7764" lon="4.63324">
        <ele>593</ele>
        <time>2012-09-22T09:42:02Z</time>
      </trkpt>
      <trkpt lat="45.77632" lon="4.63332">
        <ele>593</ele>
        <time>2012-09-22T09:42:03Z</time>
      </trkpt>
      <trkpt lat="45.77616" lon="4.63346">
        <ele>594</ele>
        <time>2012-09-22T09:42:07Z</time>
      </trkpt>
      <trkpt lat="45.7761" lon="4.63351">
        <ele>595</ele>
        <time>2012-09-22T09:42:10Z</time>
      </trkpt>
      <trkpt lat="45.77592" lon="4.6336">
        <ele>597</ele>
        <time>2012-09-22T09:42:18Z</time>
      </trkpt>
      <trkpt lat="45.77582" lon="4.63366">
        <ele>599</ele>
        <time>2012-09-22T09:42:24Z</time>
      </trkpt>
      <trkpt lat="45.77572" lon="4.63373">
        <ele>600</ele>
        <time>2012-09-22T09:42:31Z</time>
      </trkpt>
      <trkpt lat="45.77563" lon="4.63379">
        <ele>600</ele>
        <time>2012-09-22T09:42:37Z</time>
      </trkpt>
      <trkpt lat="45.77552" lon="4.63387">
        <ele>601</ele>
        <time>2012-09-22T09:42:43Z</time>
      </trkpt>
      <trkpt lat="45.77548" lon="4.63389">
        <ele>601</ele>
        <time>2012-09-22T09:42:45Z</time>
      </trkpt>
      <trkpt lat="45.77546" lon="4.6339">
        <ele>601</ele>
        <time>2012-09-22T09:42:46Z</time>
      </trkpt>
      <trkpt lat="45.77543" lon="4.63391">
        <ele>601</ele>
        <time>2012-09-22T09:42:47Z</time>
      </trkpt>
      <trkpt lat="45.77533" lon="4.634">
        <ele>601</ele>
        <time>2012-09-22T09:42:53Z</time>
      </trkpt>
      <trkpt lat="45.77523" lon="4.63413">
        <ele>602</ele>
        <time>2012-09-22T09:42:59Z</time>
      </trkpt>
      <trkpt lat="45.77517" lon="4.63439">
        <ele>602</ele>
        <time>2012-09-22T09:43:06Z</time>
      </trkpt>
      <trkpt lat="45.77518" lon="4.63469">
        <ele>603</ele>
        <time>2012-09-22T09:43:13Z</time>
      </trkpt>
      <trkpt lat="45.77524" lon="4.63493">
        <ele>605</ele>
        <time>2012-09-22T09:43:20Z</time>
      </trkpt>
      <trkpt lat="45.77527" lon="4.63514">
        <ele>605</ele>
        <time>2012-09-22T09:43:26Z</time>
      </trkpt>
      <trkpt lat="45.77528" lon="4.63533">
        <ele>607</ele>
        <time>2012-09-22T09:43:33Z</time>
      </trkpt>
      <trkpt lat="45.7753" lon="4.63544">
        <ele>607</ele>
        <time>2012-09-22T09:43:37Z</time>
      </trkpt>
      <trkpt lat="45.77531" lon="4.63547">
        <ele>608</ele>
        <time>2012-09-22T09:43:38Z</time>
      </trkpt>
      <trkpt lat="45.77534" lon="4.63552">
        <ele>608</ele>
        <time>2012-09-22T09:43:40Z</time>
      </trkpt>
      <trkpt lat="45.77535" lon="4.63555">
        <ele>608</ele>
        <time>2012-09-22T09:43:41Z</time>
      </trkpt>
      <trkpt lat="45.77536" lon="4.63557">
        <ele>608</ele>
        <time>2012-09-22T09:43:42Z</time>
      </trkpt>
      <trkpt lat="45.77537" lon="4.63561">
        <ele>608</ele>
        <time>2012-09-22T09:43:43Z</time>
      </trkpt>
      <trkpt lat="45.77538" lon="4.63564">
        <ele>608</ele>
        <time>2012-09-22T09:43:44Z</time>
      </trkpt>
      <trkpt lat="45.77539" lon="4.63567">
        <ele>609</ele>
        <time>2012-09-22T09:43:45Z</time>
      </trkpt>
      <trkpt lat="45.77542" lon="4.63585">
        <ele>609</ele>
        <time>2012-09-22T09:43:51Z</time>
      </trkpt>
      <trkpt lat="45.77545" lon="4.63593">
        <ele>610</ele>
        <time>2012-09-22T09:43:54Z</time>
      </trkpt>
      <trkpt lat="45.77547" lon="4.63597">
        <ele>610</ele>
        <time>2012-09-22T09:43:55Z</time>
      </trkpt>
      <trkpt lat="45.77547" lon="4.63601">
        <ele>610</ele>
        <time>2012-09-22T09:43:56Z</time>
      </trkpt>
      <trkpt lat="45.77551" lon="4.63626">
        <ele>611</ele>
        <time>2012-09-22T09:44:03Z</time>
      </trkpt>
      <trkpt lat="45.77556" lon="4.6365">
        <ele>612</ele>
        <time>2012-09-22T09:44:10Z</time>
      </trkpt>
      <trkpt lat="45.77558" lon="4.63667">
        <ele>613</ele>
        <time>2012-09-22T09:44:16Z</time>
      </trkpt>
      <trkpt lat="45.77559" lon="4.63684">
        <ele>614</ele>
        <time>2012-09-22T09:44:23Z</time>
      </trkpt>
      <trkpt lat="45.77562" lon="4.63706">
        <ele>615</ele>
        <time>2012-09-22T09:44:30Z</time>
      </trkpt>
      <trkpt lat="45.77565" lon="4.63719">
        <ele>616</ele>
        <time>2012-09-22T09:44:35Z</time>
      </trkpt>
      <trkpt lat="45.77572" lon="4.6374">
        <ele>617</ele>
        <time>2012-09-22T09:44:42Z</time>
      </trkpt>
      <trkpt lat="45.77575" lon="4.63757">
        <ele>618</ele>
        <time>2012-09-22T09:44:48Z</time>
      </trkpt>
      <trkpt lat="45.77575" lon="4.63759">
        <ele>619</ele>
        <time>2012-09-22T09:44:49Z</time>
      </trkpt>
      <trkpt lat="45.77576" lon="4.63762">
        <ele>619</ele>
        <time>2012-09-22T09:44:50Z</time>
      </trkpt>
      <trkpt lat="45.77582" lon="4.63785">
        <ele>620</ele>
        <time>2012-09-22T09:44:58Z</time>
      </trkpt>
      <trkpt lat="45.77587" lon="4.63804">
        <ele>621</ele>
        <time>2012-09-22T09:45:05Z</time>
      </trkpt>
      <trkpt lat="45.77588" lon="4.63823">
        <ele>622</ele>
        <time>2012-09-22T09:45:12Z</time>
      </trkpt>
      <trkpt lat="45.77588" lon="4.63838">
        <ele>622</ele>
        <time>2012-09-22T09:45:19Z</time>
      </trkpt>
      <trkpt lat="45.77589" lon="4.63845">
        <ele>622</ele>
        <time>2012-09-22T09:45:22Z</time>
      </trkpt>
      <trkpt lat="45.77602" lon="4.63853">
        <ele>621</ele>
        <time>2012-09-22T09:45:28Z</time>
      </trkpt>
      <trkpt lat="45.77613" lon="4.63863">
        <ele>621</ele>
        <time>2012-09-22T09:45:34Z</time>
      </trkpt>
      <trkpt lat="45.77628" lon="4.63875">
        <ele>622</ele>
        <time>2012-09-22T09:45:40Z</time>
      </trkpt>
      <trkpt lat="45.77637" lon="4.63884">
        <ele>622</ele>
        <time>2012-09-22T09:45:45Z</time>
      </trkpt>
      <trkpt lat="45.77639" lon="4.63886">
        <ele>622</ele>
        <time>2012-09-22T09:45:46Z</time>
      </trkpt>
      <trkpt lat="45.7766" lon="4.63898">
        <ele>624</ele>
        <time>2012-09-22T09:45:55Z</time>
      </trkpt>
      <trkpt lat="45.77673" lon="4.63905">
        <ele>625</ele>
        <time>2012-09-22T09:46:02Z</time>
      </trkpt>
      <trkpt lat="45.77691" lon="4.6392">
        <ele>624</ele>
        <time>2012-09-22T09:46:11Z</time>
      </trkpt>
      <trkpt lat="45.77712" lon="4.63932">
        <ele>624</ele>
        <time>2012-09-22T09:46:17Z</time>
      </trkpt>
      <trkpt lat="45.77737" lon="4.63934">
        <ele>623</ele>
        <time>2012-09-22T09:46:23Z</time>
      </trkpt>
      <trkpt lat="45.77741" lon="4.63937">
        <ele>623</ele>
        <time>2012-09-22T09:46:24Z</time>
      </trkpt>
      <trkpt lat="45.77745" lon="4.63941">
        <ele>623</ele>
        <time>2012-09-22T09:46:25Z</time>
      </trkpt>
      <trkpt lat="45.77748" lon="4.63946">
        <ele>622</ele>
        <time>2012-09-22T09:46:26Z</time>
      </trkpt>
      <trkpt lat="45.77755" lon="4.63956">
        <ele>622</ele>
        <time>2012-09-22T09:46:28Z</time>
      </trkpt>
      <trkpt lat="45.77763" lon="4.63964">
        <ele>622</ele>
        <time>2012-09-22T09:46:30Z</time>
      </trkpt>
      <trkpt lat="45.77784" lon="4.63979">
        <ele>622</ele>
        <time>2012-09-22T09:46:36Z</time>
      </trkpt>
      <trkpt lat="45.77797" lon="4.63999">
        <ele>621</ele>
        <time>2012-09-22T09:46:43Z</time>
      </trkpt>
      <trkpt lat="45.77809" lon="4.64015">
        <ele>620</ele>
        <time>2012-09-22T09:46:50Z</time>
      </trkpt>
      <trkpt lat="45.77822" lon="4.64035">
        <ele>622</ele>
        <time>2012-09-22T09:46:58Z</time>
      </trkpt>
      <trkpt lat="45.77832" lon="4.64058">
        <ele>622</ele>
        <time>2012-09-22T09:47:06Z</time>
      </trkpt>
      <trkpt lat="45.77841" lon="4.64082">
        <ele>623</ele>
        <time>2012-09-22T09:47:14Z</time>
      </trkpt>
      <trkpt lat="45.77846" lon="4.64093">
        <ele>624</ele>
        <time>2012-09-22T09:47:20Z</time>
      </trkpt>
      <trkpt lat="45.77849" lon="4.64101">
        <ele>624</ele>
        <time>2012-09-22T09:47:24Z</time>
      </trkpt>
      <trkpt lat="45.77849" lon="4.64103">
        <ele>624</ele>
        <time>2012-09-22T09:47:25Z</time>
      </trkpt>
      <trkpt lat="45.7785" lon="4.64105">
        <ele>624</ele>
        <time>2012-09-22T09:47:26Z</time>
      </trkpt>
      <trkpt lat="45.7785" lon="4.64107">
        <ele>625</ele>
        <time>2012-09-22T09:47:27Z</time>
      </trkpt>
      <trkpt lat="45.77851" lon="4.64109">
        <ele>625</ele>
        <time>2012-09-22T09:47:28Z</time>
      </trkpt>
      <trkpt lat="45.77852" lon="4.64111">
        <ele>625</ele>
        <time>2012-09-22T09:47:29Z</time>
      </trkpt>
      <trkpt lat="45.77852" lon="4.64113">
        <ele>625</ele>
        <time>2012-09-22T09:47:30Z</time>
      </trkpt>
      <trkpt lat="45.77853" lon="4.64116">
        <ele>626</ele>
        <time>2012-09-22T09:47:31Z</time>
      </trkpt>
      <trkpt lat="45.77853" lon="4.64118">
        <ele>626</ele>
        <time>2012-09-22T09:47:32Z</time>
      </trkpt>
      <trkpt lat="45.77854" lon="4.6412">
        <ele>626</ele>
        <time>2012-09-22T09:47:33Z</time>
      </trkpt>
      <trkpt lat="45.77855" lon="4.64123">
        <ele>626</ele>
        <time>2012-09-22T09:47:34Z</time>
      </trkpt>
      <trkpt lat="45.77856" lon="4.64125">
        <ele>626</ele>
        <time>2012-09-22T09:47:35Z</time>
      </trkpt>
      <trkpt lat="45.77863" lon="4.64137">
        <ele>627</ele>
        <time>2012-09-22T09:47:42Z</time>
      </trkpt>
      <trkpt lat="45.77869" lon="4.64149">
        <ele>629</ele>
        <time>2012-09-22T09:47:49Z</time>
      </trkpt>
      <trkpt lat="45.77872" lon="4.64156">
        <ele>630</ele>
        <time>2012-09-22T09:47:53Z</time>
      </trkpt>
      <trkpt lat="45.77872" lon="4.64158">
        <ele>630</ele>
        <time>2012-09-22T09:47:54Z</time>
      </trkpt>
      <trkpt lat="45.77873" lon="4.6416">
        <ele>631</ele>
        <time>2012-09-22T09:47:55Z</time>
      </trkpt>
      <trkpt lat="45.77873" lon="4.64162">
        <ele>630</ele>
        <time>2012-09-22T09:47:56Z</time>
      </trkpt>
      <trkpt lat="45.77873" lon="4.64164">
        <ele>630</ele>
        <time>2012-09-22T09:47:57Z</time>
      </trkpt>
      <trkpt lat="45.77875" lon="4.64169">
        <ele>631</ele>
        <time>2012-09-22T09:48:00Z</time>
      </trkpt>
      <trkpt lat="45.77876" lon="4.6417">
        <ele>631</ele>
        <time>2012-09-22T09:48:01Z</time>
      </trkpt>
      <trkpt lat="45.77878" lon="4.64172">
        <ele>631</ele>
        <time>2012-09-22T09:48:02Z</time>
      </trkpt>
      <trkpt lat="45.7788" lon="4.64174">
        <ele>631</ele>
        <time>2012-09-22T09:48:03Z</time>
      </trkpt>
      <trkpt lat="45.7788" lon="4.64176">
        <ele>631</ele>
        <time>2012-09-22T09:48:04Z</time>
      </trkpt>
      <trkpt lat="45.77881" lon="4.64178">
        <ele>631</ele>
        <time>2012-09-22T09:48:05Z</time>
      </trkpt>
      <trkpt lat="45.77887" lon="4.64186">
        <ele>632</ele>
        <time>2012-09-22T09:48:10Z</time>
      </trkpt>
      <trkpt lat="45.77888" lon="4.64188">
        <ele>632</ele>
        <time>2012-09-22T09:48:11Z</time>
      </trkpt>
      <trkpt lat="45.77889" lon="4.6419">
        <ele>632</ele>
        <time>2012-09-22T09:48:12Z</time>
      </trkpt>
      <trkpt lat="45.7789" lon="4.64192">
        <ele>632</ele>
        <time>2012-09-22T09:48:13Z</time>
      </trkpt>
      <trkpt lat="45.77891" lon="4.64195">
        <ele>633</ele>
        <time>2012-09-22T09:48:14Z</time>
      </trkpt>
      <trkpt lat="45.77893" lon="4.64197">
        <ele>633</ele>
        <time>2012-09-22T09:48:15Z</time>
      </trkpt>
      <trkpt lat="45.77894" lon="4.64199">
        <ele>633</ele>
        <time>2012-09-22T09:48:16Z</time>
      </trkpt>
      <trkpt lat="45.77903" lon="4.64216">
        <ele>634</ele>
        <time>2012-09-22T09:48:24Z</time>
      </trkpt>
      <trkpt lat="45.7791" lon="4.6423">
        <ele>635</ele>
        <time>2012-09-22T09:48:31Z</time>
      </trkpt>
      <trkpt lat="45.77919" lon="4.64243">
        <ele>636</ele>
        <time>2012-09-22T09:48:37Z</time>
      </trkpt>
      <trkpt lat="45.77925" lon="4.64261">
        <ele>637</ele>
        <time>2012-09-22T09:48:45Z</time>
      </trkpt>
      <trkpt lat="45.77926" lon="4.64262">
        <ele>637</ele>
        <time>2012-09-22T09:48:46Z</time>
      </trkpt>
      <trkpt lat="45.77927" lon="4.64264">
        <ele>637</ele>
        <time>2012-09-22T09:48:47Z</time>
      </trkpt>
      <trkpt lat="45.77928" lon="4.64266">
        <ele>637</ele>
        <time>2012-09-22T09:48:48Z</time>
      </trkpt>
      <trkpt lat="45.77928" lon="4.64268">
        <ele>637</ele>
        <time>2012-09-22T09:48:49Z</time>
      </trkpt>
      <trkpt lat="45.77929" lon="4.6427">
        <ele>637</ele>
        <time>2012-09-22T09:48:50Z</time>
      </trkpt>
      <trkpt lat="45.7793" lon="4.64272">
        <ele>638</ele>
        <time>2012-09-22T09:48:51Z</time>
      </trkpt>
      <trkpt lat="45.77931" lon="4.64274">
        <ele>638</ele>
        <time>2012-09-22T09:48:52Z</time>
      </trkpt>
      <trkpt lat="45.77931" lon="4.64275">
        <ele>638</ele>
        <time>2012-09-22T09:48:53Z</time>
      </trkpt>
      <trkpt lat="45.77932" lon="4.64277">
        <ele>639</ele>
        <time>2012-09-22T09:48:54Z</time>
      </trkpt>
      <trkpt lat="45.77937" lon="4.64288">
        <ele>640</ele>
        <time>2012-09-22T09:49:00Z</time>
      </trkpt>
      <trkpt lat="45.77938" lon="4.6429">
        <ele>640</ele>
        <time>2012-09-22T09:49:01Z</time>
      </trkpt>
      <trkpt lat="45.77938" lon="4.64291">
        <ele>640</ele>
        <time>2012-09-22T09:49:02Z</time>
      </trkpt>
      <trkpt lat="45.77939" lon="4.64293">
        <ele>641</ele>
        <time>2012-09-22T09:49:03Z</time>
      </trkpt>
      <trkpt lat="45.7794" lon="4.64294">
        <ele>641</ele>
        <time>2012-09-22T09:49:04Z</time>
      </trkpt>
      <trkpt lat="45.77941" lon="4.64296">
        <ele>641</ele>
        <time>2012-09-22T09:49:05Z</time>
      </trkpt>
      <trkpt lat="45.77942" lon="4.64297">
        <ele>641</ele>
        <time>2012-09-22T09:49:06Z</time>
      </trkpt>
      <trkpt lat="45.77943" lon="4.64298">
        <ele>641</ele>
        <time>2012-09-22T09:49:07Z</time>
      </trkpt>
      <trkpt lat="45.77944" lon="4.643">
        <ele>642</ele>
        <time>2012-09-22T09:49:08Z</time>
      </trkpt>
      <trkpt lat="45.77944" lon="4.64302">
        <ele>642</ele>
        <time>2012-09-22T09:49:09Z</time>
      </trkpt>
      <trkpt lat="45.77945" lon="4.64304">
        <ele>642</ele>
        <time>2012-09-22T09:49:10Z</time>
      </trkpt>
      <trkpt lat="45.7795" lon="4.64313">
        <ele>643</ele>
        <time>2012-09-22T09:49:17Z</time>
      </trkpt>
      <trkpt lat="45.77957" lon="4.6433">
        <ele>645</ele>
        <time>2012-09-22T09:49:27Z</time>
      </trkpt>
      <trkpt lat="45.77966" lon="4.64346">
        <ele>647</ele>
        <time>2012-09-22T09:49:38Z</time>
      </trkpt>
      <trkpt lat="45.77969" lon="4.64352">
        <ele>647</ele>
        <time>2012-09-22T09:49:42Z</time>
      </trkpt>
      <trkpt lat="45.77976" lon="4.64368">
        <ele>649</ele>
        <time>2012-09-22T09:49:52Z</time>
      </trkpt>
      <trkpt lat="45.77979" lon="4.64377">
        <ele>649</ele>
        <time>2012-09-22T09:49:58Z</time>
      </trkpt>
      <trkpt lat="45.77979" lon="4.64379">
        <ele>650</ele>
        <time>2012-09-22T09:49:59Z</time>
      </trkpt>
      <trkpt lat="45.7798" lon="4.64381">
        <ele>650</ele>
        <time>2012-09-22T09:50:00Z</time>
      </trkpt>
      <trkpt lat="45.77981" lon="4.64382">
        <ele>650</ele>
        <time>2012-09-22T09:50:01Z</time>
      </trkpt>
      <trkpt lat="45.77982" lon="4.64383">
        <ele>650</ele>
        <time>2012-09-22T09:50:02Z</time>
      </trkpt>
      <trkpt lat="45.77983" lon="4.64384">
        <ele>650</ele>
        <time>2012-09-22T09:50:03Z</time>
      </trkpt>
      <trkpt lat="45.77984" lon="4.64386">
        <ele>651</ele>
        <time>2012-09-22T09:50:04Z</time>
      </trkpt>
      <trkpt lat="45.77984" lon="4.64387">
        <ele>651</ele>
        <time>2012-09-22T09:50:05Z</time>
      </trkpt>
      <trkpt lat="45.77985" lon="4.64389">
        <ele>650</ele>
        <time>2012-09-22T09:50:06Z</time>
      </trkpt>
      <trkpt lat="45.77985" lon="4.6439">
        <ele>650</ele>
        <time>2012-09-22T09:50:07Z</time>
      </trkpt>
      <trkpt lat="45.77992" lon="4.644">
        <ele>653</ele>
        <time>2012-09-22T09:50:16Z</time>
      </trkpt>
      <trkpt lat="45.78002" lon="4.64414">
        <ele>655</ele>
        <time>2012-09-22T09:50:24Z</time>
      </trkpt>
      <trkpt lat="45.78011" lon="4.6443">
        <ele>656</ele>
        <time>2012-09-22T09:50:34Z</time>
      </trkpt>
      <trkpt lat="45.78011" lon="4.64431">
        <ele>656</ele>
        <time>2012-09-22T09:50:35Z</time>
      </trkpt>
      <trkpt lat="45.78012" lon="4.64433">
        <ele>656</ele>
        <time>2012-09-22T09:50:36Z</time>
      </trkpt>
      <trkpt lat="45.78014" lon="4.64445">
        <ele>656</ele>
        <time>2012-09-22T09:50:43Z</time>
      </trkpt>
      <trkpt lat="45.78013" lon="4.64447">
        <ele>656</ele>
        <time>2012-09-22T09:50:44Z</time>
      </trkpt>
      <trkpt lat="45.78011" lon="4.64449">
        <ele>656</ele>
        <time>2012-09-22T09:50:45Z</time>
      </trkpt>
      <trkpt lat="45.7801" lon="4.64451">
        <ele>656</ele>
        <time>2012-09-22T09:50:46Z</time>
      </trkpt>
      <trkpt lat="45.78008" lon="4.64453">
        <ele>656</ele>
        <time>2012-09-22T09:50:47Z</time>
      </trkpt>
      <trkpt lat="45.78007" lon="4.64454">
        <ele>656</ele>
        <time>2012-09-22T09:50:48Z</time>
      </trkpt>
      <trkpt lat="45.78006" lon="4.64454">
        <ele>656</ele>
        <time>2012-09-22T09:50:49Z</time>
      </trkpt>
      <trkpt lat="45.78005" lon="4.64452">
        <ele>656</ele>
        <time>2012-09-22T09:50:50Z</time>
      </trkpt>
      <trkpt lat="45.78006" lon="4.6445">
        <ele>655</ele>
        <time>2012-09-22T09:50:51Z</time>
      </trkpt>
      <trkpt lat="45.78006" lon="4.64448">
        <ele>656</ele>
        <time>2012-09-22T09:50:52Z</time>
      </trkpt>
      <trkpt lat="45.78015" lon="4.64445">
        <ele>656</ele>
        <time>2012-09-22T09:50:58Z</time>
      </trkpt>
      <trkpt lat="45.7802" lon="4.64449">
        <ele>656</ele>
        <time>2012-09-22T09:51:01Z</time>
      </trkpt>
      <trkpt lat="45.78025" lon="4.64466">
        <ele>656</ele>
        <time>2012-09-22T09:51:07Z</time>
      </trkpt>
      <trkpt lat="45.78026" lon="4.64477">
        <ele>655</ele>
        <time>2012-09-22T09:51:10Z</time>
      </trkpt>
      <trkpt lat="45.78026" lon="4.64481">
        <ele>656</ele>
        <time>2012-09-22T09:51:11Z</time>
      </trkpt>
      <trkpt lat="45.78026" lon="4.64485">
        <ele>656</ele>
        <time>2012-09-22T09:51:12Z</time>
      </trkpt>
      <trkpt lat="45.78026" lon="4.6449">
        <ele>655</ele>
        <time>2012-09-22T09:51:13Z</time>
      </trkpt>
      <trkpt lat="45.78026" lon="4.64494">
        <ele>656</ele>
        <time>2012-09-22T09:51:14Z</time>
      </trkpt>
      <trkpt lat="45.78028" lon="4.64518">
        <ele>656</ele>
        <time>2012-09-22T09:51:20Z</time>
      </trkpt>
      <trkpt lat="45.78029" lon="4.64537">
        <ele>658</ele>
        <time>2012-09-22T09:51:26Z</time>
      </trkpt>
      <trkpt lat="45.78029" lon="4.6456">
        <ele>659</ele>
        <time>2012-09-22T09:51:33Z</time>
      </trkpt>
      <trkpt lat="45.78029" lon="4.64577">
        <ele>660</ele>
        <time>2012-09-22T09:51:40Z</time>
      </trkpt>
      <trkpt lat="45.78026" lon="4.64584">
        <ele>660</ele>
        <time>2012-09-22T09:51:43Z</time>
      </trkpt>
      <trkpt lat="45.78022" lon="4.6459">
        <ele>661</ele>
        <time>2012-09-22T09:51:47Z</time>
      </trkpt>
      <trkpt lat="45.78015" lon="4.64597">
        <ele>662</ele>
        <time>2012-09-22T09:51:53Z</time>
      </trkpt>
      <trkpt lat="45.7801" lon="4.64606">
        <ele>663</ele>
        <time>2012-09-22T09:51:58Z</time>
      </trkpt>
      <trkpt lat="45.78004" lon="4.64619">
        <ele>665</ele>
        <time>2012-09-22T09:52:05Z</time>
      </trkpt>
      <trkpt lat="45.77998" lon="4.64628">
        <ele>665</ele>
        <time>2012-09-22T09:52:11Z</time>
      </trkpt>
      <trkpt lat="45.77993" lon="4.64636">
        <ele>666</ele>
        <time>2012-09-22T09:52:15Z</time>
      </trkpt>
      <trkpt lat="45.77985" lon="4.64648">
        <ele>665</ele>
        <time>2012-09-22T09:52:21Z</time>
      </trkpt>
      <trkpt lat="45.77982" lon="4.64656">
        <ele>665</ele>
        <time>2012-09-22T09:52:24Z</time>
      </trkpt>
      <trkpt lat="45.7798" lon="4.64658">
        <ele>665</ele>
        <time>2012-09-22T09:52:25Z</time>
      </trkpt>
      <trkpt lat="45.77979" lon="4.64661">
        <ele>666</ele>
        <time>2012-09-22T09:52:26Z</time>
      </trkpt>
      <trkpt lat="45.77971" lon="4.64675">
        <ele>666</ele>
        <time>2012-09-22T09:52:31Z</time>
      </trkpt>
      <trkpt lat="45.7797" lon="4.64678">
        <ele>666</ele>
        <time>2012-09-22T09:52:32Z</time>
      </trkpt>
      <trkpt lat="45.77969" lon="4.64681">
        <ele>666</ele>
        <time>2012-09-22T09:52:33Z</time>
      </trkpt>
      <trkpt lat="45.77967" lon="4.64683">
        <ele>666</ele>
        <time>2012-09-22T09:52:34Z</time>
      </trkpt>
      <trkpt lat="45.77965" lon="4.64687">
        <ele>666</ele>
        <time>2012-09-22T09:52:35Z</time>
      </trkpt>
      <trkpt lat="45.77963" lon="4.6469">
        <ele>665</ele>
        <time>2012-09-22T09:52:36Z</time>
      </trkpt>
      <trkpt lat="45.77953" lon="4.64717">
        <ele>665</ele>
        <time>2012-09-22T09:52:42Z</time>
      </trkpt>
      <trkpt lat="45.7795" lon="4.64736">
        <ele>666</ele>
        <time>2012-09-22T09:52:46Z</time>
      </trkpt>
      <trkpt lat="45.77949" lon="4.6474">
        <ele>666</ele>
        <time>2012-09-22T09:52:47Z</time>
      </trkpt>
      <trkpt lat="45.77949" lon="4.64743">
        <ele>666</ele>
        <time>2012-09-22T09:52:48Z</time>
      </trkpt>
      <trkpt lat="45.77948" lon="4.64747">
        <ele>665</ele>
        <time>2012-09-22T09:52:49Z</time>
      </trkpt>
      <trkpt lat="45.77947" lon="4.64751">
        <ele>666</ele>
        <time>2012-09-22T09:52:50Z</time>
      </trkpt>
      <trkpt lat="45.77947" lon="4.64755">
        <ele>665</ele>
        <time>2012-09-22T09:52:51Z</time>
      </trkpt>
      <trkpt lat="45.77946" lon="4.64759">
        <ele>666</ele>
        <time>2012-09-22T09:52:52Z</time>
      </trkpt>
      <trkpt lat="45.77944" lon="4.64763">
        <ele>665</ele>
        <time>2012-09-22T09:52:53Z</time>
      </trkpt>
      <trkpt lat="45.77944" lon="4.64767">
        <ele>665</ele>
        <time>2012-09-22T09:52:54Z</time>
      </trkpt>
      <trkpt lat="45.77943" lon="4.6477">
        <ele>665</ele>
        <time>2012-09-22T09:52:55Z</time>
      </trkpt>
      <trkpt lat="45.77943" lon="4.64773">
        <ele>664</ele>
        <time>2012-09-22T09:52:56Z</time>
      </trkpt>
      <trkpt lat="45.77943" lon="4.64776">
        <ele>664</ele>
        <time>2012-09-22T09:52:57Z</time>
      </trkpt>
      <trkpt lat="45.77943" lon="4.6478">
        <ele>664</ele>
        <time>2012-09-22T09:52:58Z</time>
      </trkpt>
      <trkpt lat="45.77943" lon="4.64784">
        <ele>665</ele>
        <time>2012-09-22T09:52:59Z</time>
      </trkpt>
      <trkpt lat="45.77943" lon="4.64788">
        <ele>664</ele>
        <time>2012-09-22T09:53:00Z</time>
      </trkpt>
      <trkpt lat="45.77943" lon="4.64791">
        <ele>663</ele>
        <time>2012-09-22T09:53:01Z</time>
      </trkpt>
      <trkpt lat="45.77942" lon="4.64793">
        <ele>663</ele>
        <time>2012-09-22T09:53:02Z</time>
      </trkpt>
      <trkpt lat="45.77942" lon="4.64797">
        <ele>663</ele>
        <time>2012-09-22T09:53:03Z</time>
      </trkpt>
      <trkpt lat="45.77938" lon="4.64804">
        <ele>662</ele>
        <time>2012-09-22T09:53:06Z</time>
      </trkpt>
      <trkpt lat="45.77935" lon="4.64813">
        <ele>662</ele>
        <time>2012-09-22T09:53:13Z</time>
      </trkpt>
      <trkpt lat="45.7793" lon="4.64818">
        <ele>662</ele>
        <time>2012-09-22T09:53:34Z</time>
      </trkpt>
      <trkpt lat="45.77931" lon="4.6482">
        <ele>662</ele>
        <time>2012-09-22T09:53:42Z</time>
      </trkpt>
      <trkpt lat="45.77927" lon="4.64828">
        <ele>662</ele>
        <time>2012-09-22T09:53:48Z</time>
      </trkpt>
      <trkpt lat="45.77926" lon="4.64849">
        <ele>661</ele>
        <time>2012-09-22T09:53:54Z</time>
      </trkpt>
      <trkpt lat="45.77925" lon="4.64852">
        <ele>660</ele>
        <time>2012-09-22T09:53:55Z</time>
      </trkpt>
      <trkpt lat="45.77925" lon="4.64856">
        <ele>660</ele>
        <time>2012-09-22T09:53:56Z</time>
      </trkpt>
      <trkpt lat="45.77926" lon="4.64859">
        <ele>660</ele>
        <time>2012-09-22T09:53:57Z</time>
      </trkpt>
      <trkpt lat="45.77926" lon="4.64864">
        <ele>659</ele>
        <time>2012-09-22T09:53:58Z</time>
      </trkpt>
      <trkpt lat="45.77925" lon="4.64868">
        <ele>659</ele>
        <time>2012-09-22T09:53:59Z</time>
      </trkpt>
      <trkpt lat="45.77924" lon="4.64872">
        <ele>658</ele>
        <time>2012-09-22T09:54:00Z</time>
      </trkpt>
      <trkpt lat="45.77923" lon="4.64875">
        <ele>657</ele>
        <time>2012-09-22T09:54:01Z</time>
      </trkpt>
      <trkpt lat="45.77922" lon="4.64878">
        <ele>656</ele>
        <time>2012-09-22T09:54:02Z</time>
      </trkpt>
      <trkpt lat="45.77922" lon="4.64882">
        <ele>657</ele>
        <time>2012-09-22T09:54:03Z</time>
      </trkpt>
      <trkpt lat="45.77922" lon="4.6489">
        <ele>655</ele>
        <time>2012-09-22T09:54:05Z</time>
      </trkpt>
      <trkpt lat="45.77922" lon="4.64894">
        <ele>654</ele>
        <time>2012-09-22T09:54:06Z</time>
      </trkpt>
      <trkpt lat="45.77922" lon="4.64897">
        <ele>654</ele>
        <time>2012-09-22T09:54:07Z</time>
      </trkpt>
      <trkpt lat="45.77919" lon="4.64902">
        <ele>652</ele>
        <time>2012-09-22T09:54:12Z</time>
      </trkpt>
      <trkpt lat="45.77916" lon="4.64901">
        <ele>652</ele>
        <time>2012-09-22T09:54:23Z</time>
      </trkpt>
      <trkpt lat="45.77915" lon="4.64904">
        <ele>652</ele>
        <time>2012-09-22T09:54:38Z</time>
      </trkpt>
      <trkpt lat="45.77914" lon="4.64904">
        <ele>652</ele>
        <time>2012-09-22T09:54:39Z</time>
      </trkpt>
      <trkpt lat="45.77908" lon="4.6491">
        <ele>651</ele>
        <time>2012-09-22T09:54:43Z</time>
      </trkpt>
      <trkpt lat="45.77906" lon="4.64914">
        <ele>650</ele>
        <time>2012-09-22T09:54:44Z</time>
      </trkpt>
      <trkpt lat="45.77906" lon="4.64917">
        <ele>650</ele>
        <time>2012-09-22T09:54:45Z</time>
      </trkpt>
      <trkpt lat="45.77907" lon="4.6492">
        <ele>649</ele>
        <time>2012-09-22T09:54:46Z</time>
      </trkpt>
      <trkpt lat="45.77905" lon="4.64929">
        <ele>647</ele>
        <time>2012-09-22T09:54:50Z</time>
      </trkpt>
      <trkpt lat="45.77904" lon="4.64933">
        <ele>645</ele>
        <time>2012-09-22T09:54:52Z</time>
      </trkpt>
      <trkpt lat="45.77897" lon="4.64931">
        <ele>644</ele>
        <time>2012-09-22T09:54:55Z</time>
      </trkpt>
      <trkpt lat="45.77895" lon="4.6493">
        <ele>643</ele>
        <time>2012-09-22T09:54:56Z</time>
      </trkpt>
      <trkpt lat="45.77885" lon="4.64925">
        <ele>642</ele>
        <time>2012-09-22T09:54:59Z</time>
      </trkpt>
      <trkpt lat="45.77874" lon="4.64914">
        <ele>638</ele>
        <time>2012-09-22T09:55:02Z</time>
      </trkpt>
      <trkpt lat="45.77866" lon="4.64905">
        <ele>637</ele>
        <time>2012-09-22T09:55:06Z</time>
      </trkpt>
      <trkpt lat="45.77859" lon="4.64901">
        <ele>632</ele>
        <time>2012-09-22T09:55:10Z</time>
      </trkpt>
      <trkpt lat="45.77847" lon="4.64896">
        <ele>628</ele>
        <time>2012-09-22T09:55:15Z</time>
      </trkpt>
      <trkpt lat="45.77841" lon="4.64888">
        <ele>626</ele>
        <time>2012-09-22T09:55:18Z</time>
      </trkpt>
      <trkpt lat="45.77831" lon="4.64881">
        <ele>622</ele>
        <time>2012-09-22T09:55:22Z</time>
      </trkpt>
      <trkpt lat="45.77826" lon="4.64876">
        <ele>621</ele>
        <time>2012-09-22T09:55:24Z</time>
      </trkpt>
      <trkpt lat="45.77823" lon="4.64873">
        <ele>618</ele>
        <time>2012-09-22T09:55:30Z</time>
      </trkpt>
      <trkpt lat="45.77823" lon="4.64875">
        <ele>617</ele>
        <time>2012-09-22T09:55:37Z</time>
      </trkpt>
      <trkpt lat="45.7782" lon="4.64885">
        <ele>616</ele>
        <time>2012-09-22T09:55:43Z</time>
      </trkpt>
      <trkpt lat="45.77818" lon="4.64886">
        <ele>614</ele>
        <time>2012-09-22T09:55:45Z</time>
      </trkpt>
      <trkpt lat="45.77811" lon="4.64885">
        <ele>612</ele>
        <time>2012-09-22T09:55:48Z</time>
      </trkpt>
      <trkpt lat="45.77808" lon="4.64881">
        <ele>611</ele>
        <time>2012-09-22T09:55:50Z</time>
      </trkpt>
      <trkpt lat="45.77807" lon="4.6488">
        <ele>608</ele>
        <time>2012-09-22T09:55:53Z</time>
      </trkpt>
      <trkpt lat="45.77803" lon="4.64885">
        <ele>603</ele>
        <time>2012-09-22T09:55:56Z</time>
      </trkpt>
      <trkpt lat="45.77801" lon="4.64882">
        <ele>603</ele>
        <time>2012-09-22T09:56:04Z</time>
      </trkpt>
      <trkpt lat="45.77799" lon="4.64884">
        <ele>603</ele>
        <time>2012-09-22T09:56:14Z</time>
      </trkpt>
      <trkpt lat="45.77799" lon="4.64889">
        <ele>603</ele>
        <time>2012-09-22T09:56:25Z</time>
      </trkpt>
      <trkpt lat="45.77798" lon="4.6489">
        <ele>603</ele>
        <time>2012-09-22T09:56:41Z</time>
      </trkpt>
      <trkpt lat="45.77795" lon="4.64891">
        <ele>603</ele>
        <time>2012-09-22T09:57:00Z</time>
      </trkpt>
      <trkpt lat="45.77792" lon="4.64899">
        <ele>602</ele>
        <time>2012-09-22T09:57:13Z</time>
      </trkpt>
      <trkpt lat="45.77792" lon="4.64909">
        <ele>600</ele>
        <time>2012-09-22T09:57:18Z</time>
      </trkpt>
      <trkpt lat="45.77792" lon="4.64912">
        <ele>600</ele>
        <time>2012-09-22T09:57:19Z</time>
      </trkpt>
      <trkpt lat="45.77793" lon="4.64915">
        <ele>600</ele>
        <time>2012-09-22T09:57:20Z</time>
      </trkpt>
      <trkpt lat="45.77794" lon="4.64918">
        <ele>600</ele>
        <time>2012-09-22T09:57:21Z</time>
      </trkpt>
      <trkpt lat="45.77794" lon="4.64923">
        <ele>600</ele>
        <time>2012-09-22T09:57:22Z</time>
      </trkpt>
      <trkpt lat="45.77794" lon="4.64928">
        <ele>599</ele>
        <time>2012-09-22T09:57:23Z</time>
      </trkpt>
      <trkpt lat="45.77794" lon="4.64946">
        <ele>598</ele>
        <time>2012-09-22T09:57:26Z</time>
      </trkpt>
      <trkpt lat="45.77794" lon="4.64953">
        <ele>598</ele>
        <time>2012-09-22T09:57:27Z</time>
      </trkpt>
      <trkpt lat="45.77795" lon="4.6496">
        <ele>598</ele>
        <time>2012-09-22T09:57:28Z</time>
      </trkpt>
      <trkpt lat="45.77795" lon="4.64966">
        <ele>598</ele>
        <time>2012-09-22T09:57:29Z</time>
      </trkpt>
      <trkpt lat="45.77795" lon="4.64973">
        <ele>598</ele>
        <time>2012-09-22T09:57:30Z</time>
      </trkpt>
      <trkpt lat="45.77795" lon="4.65015">
        <ele>597</ele>
        <time>2012-09-22T09:57:37Z</time>
      </trkpt>
      <trkpt lat="45.77787" lon="4.65055">
        <ele>596</ele>
        <time>2012-09-22T09:57:44Z</time>
      </trkpt>
      <trkpt lat="45.77787" lon="4.65061">
        <ele>596</ele>
        <time>2012-09-22T09:57:45Z</time>
      </trkpt>
      <trkpt lat="45.77788" lon="4.65068">
        <ele>596</ele>
        <time>2012-09-22T09:57:46Z</time>
      </trkpt>
      <trkpt lat="45.77789" lon="4.65074">
        <ele>596</ele>
        <time>2012-09-22T09:57:47Z</time>
      </trkpt>
      <trkpt lat="45.7779" lon="4.65079">
        <ele>596</ele>
        <time>2012-09-22T09:57:48Z</time>
      </trkpt>
      <trkpt lat="45.7779" lon="4.65083">
        <ele>596</ele>
        <time>2012-09-22T09:57:49Z</time>
      </trkpt>
      <trkpt lat="45.77791" lon="4.65088">
        <ele>597</ele>
        <time>2012-09-22T09:57:50Z</time>
      </trkpt>
      <trkpt lat="45.77792" lon="4.65092">
        <ele>596</ele>
        <time>2012-09-22T09:57:51Z</time>
      </trkpt>
      <trkpt lat="45.77793" lon="4.65095">
        <ele>597</ele>
        <time>2012-09-22T09:57:52Z</time>
      </trkpt>
      <trkpt lat="45.77795" lon="4.65098">
        <ele>597</ele>
        <time>2012-09-22T09:57:53Z</time>
      </trkpt>
      <trkpt lat="45.77796" lon="4.65101">
        <ele>598</ele>
        <time>2012-09-22T09:57:54Z</time>
      </trkpt>
      <trkpt lat="45.77797" lon="4.65104">
        <ele>599</ele>
        <time>2012-09-22T09:57:55Z</time>
      </trkpt>
      <trkpt lat="45.77798" lon="4.65108">
        <ele>599</ele>
        <time>2012-09-22T09:57:56Z</time>
      </trkpt>
      <trkpt lat="45.77798" lon="4.65112">
        <ele>598</ele>
        <time>2012-09-22T09:57:57Z</time>
      </trkpt>
      <trkpt lat="45.77802" lon="4.65137">
        <ele>597</ele>
        <time>2012-09-22T09:58:02Z</time>
      </trkpt>
      <trkpt lat="45.77805" lon="4.65157">
        <ele>595</ele>
        <time>2012-09-22T09:58:05Z</time>
      </trkpt>
      <trkpt lat="45.77807" lon="4.6517">
        <ele>595</ele>
        <time>2012-09-22T09:58:07Z</time>
      </trkpt>
      <trkpt lat="45.77813" lon="4.65193">
        <ele>593</ele>
        <time>2012-09-22T09:58:12Z</time>
      </trkpt>
      <trkpt lat="45.77813" lon="4.65197">
        <ele>593</ele>
        <time>2012-09-22T09:58:13Z</time>
      </trkpt>
      <trkpt lat="45.77811" lon="4.652">
        <ele>593</ele>
        <time>2012-09-22T09:58:15Z</time>
      </trkpt>
      <trkpt lat="45.77809" lon="4.65201">
        <ele>593</ele>
        <time>2012-09-22T09:58:16Z</time>
      </trkpt>
      <trkpt lat="45.77808" lon="4.65203">
        <ele>592</ele>
        <time>2012-09-22T09:58:17Z</time>
      </trkpt>
      <trkpt lat="45.77806" lon="4.65206">
        <ele>592</ele>
        <time>2012-09-22T09:58:18Z</time>
      </trkpt>
      <trkpt lat="45.77804" lon="4.65208">
        <ele>592</ele>
        <time>2012-09-22T09:58:19Z</time>
      </trkpt>
      <trkpt lat="45.77798" lon="4.65209">
        <ele>590</ele>
        <time>2012-09-22T09:58:22Z</time>
      </trkpt>
      <trkpt lat="45.77786" lon="4.65212">
        <ele>588</ele>
        <time>2012-09-22T09:58:26Z</time>
      </trkpt>
      <trkpt lat="45.77781" lon="4.65219">
        <ele>587</ele>
        <time>2012-09-22T09:58:29Z</time>
      </trkpt>
      <trkpt lat="45.77768" lon="4.65229">
        <ele>583</ele>
        <time>2012-09-22T09:58:34Z</time>
      </trkpt>
      <trkpt lat="45.77754" lon="4.6523">
        <ele>578</ele>
        <time>2012-09-22T09:58:38Z</time>
      </trkpt>
      <trkpt lat="45.77742" lon="4.65237">
        <ele>574</ele>
        <time>2012-09-22T09:58:44Z</time>
      </trkpt>
      <trkpt lat="45.77736" lon="4.65238">
        <ele>570</ele>
        <time>2012-09-22T09:58:51Z</time>
      </trkpt>
      <trkpt lat="45.77736" lon="4.65238">
        <ele>571</ele>
        <time>2012-09-22T09:58:53Z</time>
      </trkpt>
      <trkpt lat="45.77731" lon="4.65234">
        <ele>569</ele>
        <time>2012-09-22T09:58:58Z</time>
      </trkpt>
      <trkpt lat="45.77725" lon="4.6524">
        <ele>567</ele>
        <time>2012-09-22T09:59:01Z</time>
      </trkpt>
      <trkpt lat="45.77724" lon="4.65245">
        <ele>564</ele>
        <time>2012-09-22T09:59:05Z</time>
      </trkpt>
      <trkpt lat="45.77722" lon="4.65248">
        <ele>564</ele>
        <time>2012-09-22T09:59:13Z</time>
      </trkpt>
      <trkpt lat="45.7772" lon="4.65249">
        <ele>563</ele>
        <time>2012-09-22T09:59:19Z</time>
      </trkpt>
      <trkpt lat="45.77719" lon="4.65248">
        <ele>563</ele>
        <time>2012-09-22T09:59:28Z</time>
      </trkpt>
      <trkpt lat="45.77716" lon="4.65249">
        <ele>563</ele>
        <time>2012-09-22T09:59:40Z</time>
      </trkpt>
      <trkpt lat="45.77715" lon="4.65248">
        <ele>563</ele>
        <time>2012-09-22T09:59:52Z</time>
      </trkpt>
      <trkpt lat="45.7771" lon="4.65256">
        <ele>562</ele>
        <time>2012-09-22T10:00:02Z</time>
      </trkpt>
      <trkpt lat="45.77706" lon="4.65257">
        <ele>559</ele>
        <time>2012-09-22T10:00:06Z</time>
      </trkpt>
      <trkpt lat="45.77702" lon="4.65253">
        <ele>557</ele>
        <time>2012-09-22T10:00:09Z</time>
      </trkpt>
      <trkpt lat="45.77699" lon="4.65251">
        <ele>554</ele>
        <time>2012-09-22T10:00:12Z</time>
      </trkpt>
      <trkpt lat="45.77695" lon="4.65253">
        <ele>550</ele>
        <time>2012-09-22T10:00:17Z</time>
      </trkpt>
      <trkpt lat="45.77693" lon="4.65254">
        <ele>550</ele>
        <time>2012-09-22T10:00:18Z</time>
      </trkpt>
      <trkpt lat="45.77691" lon="4.65255">
        <ele>549</ele>
        <time>2012-09-22T10:00:19Z</time>
      </trkpt>
      <trkpt lat="45.77686" lon="4.65265">
        <ele>544</ele>
        <time>2012-09-22T10:00:23Z</time>
      </trkpt>
      <trkpt lat="45.77684" lon="4.65267">
        <ele>543</ele>
        <time>2012-09-22T10:00:25Z</time>
      </trkpt>
      <trkpt lat="45.77677" lon="4.65271">
        <ele>537</ele>
        <time>2012-09-22T10:00:29Z</time>
      </trkpt>
      <trkpt lat="45.77667" lon="4.65278">
        <ele>535</ele>
        <time>2012-09-22T10:00:31Z</time>
      </trkpt>
      <trkpt lat="45.7766" lon="4.65284">
        <ele>532</ele>
        <time>2012-09-22T10:00:33Z</time>
      </trkpt>
      <trkpt lat="45.77648" lon="4.65285">
        <ele>528</ele>
        <time>2012-09-22T10:00:37Z</time>
      </trkpt>
      <trkpt lat="45.7764" lon="4.65286">
        <ele>525</ele>
        <time>2012-09-22T10:00:39Z</time>
      </trkpt>
      <trkpt lat="45.77616" lon="4.65293">
        <ele>521</ele>
        <time>2012-09-22T10:00:44Z</time>
      </trkpt>
      <trkpt lat="45.77611" lon="4.65293">
        <ele>521</ele>
        <time>2012-09-22T10:00:45Z</time>
      </trkpt>
      <trkpt lat="45.7759" lon="4.65289">
        <ele>522</ele>
        <time>2012-09-22T10:00:51Z</time>
      </trkpt>
      <trkpt lat="45.77576" lon="4.65288">
        <ele>522</ele>
        <time>2012-09-22T10:00:56Z</time>
      </trkpt>
      <trkpt lat="45.77555" lon="4.65283">
        <ele>521</ele>
        <time>2012-09-22T10:01:03Z</time>
      </trkpt>
      <trkpt lat="45.77535" lon="4.65284">
        <ele>520</ele>
        <time>2012-09-22T10:01:09Z</time>
      </trkpt>
      <trkpt lat="45.77527" lon="4.65274">
        <ele>518</ele>
        <time>2012-09-22T10:01:14Z</time>
      </trkpt>
      <trkpt lat="45.77524" lon="4.65271">
        <ele>517</ele>
        <time>2012-09-22T10:01:15Z</time>
      </trkpt>
      <trkpt lat="45.77499" lon="4.65256">
        <ele>510</ele>
        <time>2012-09-22T10:01:22Z</time>
      </trkpt>
      <trkpt lat="45.77475" lon="4.6525">
        <ele>506</ele>
        <time>2012-09-22T10:01:27Z</time>
      </trkpt>
      <trkpt lat="45.77469" lon="4.65251">
        <ele>505</ele>
        <time>2012-09-22T10:01:29Z</time>
      </trkpt>
      <trkpt lat="45.77454" lon="4.65257">
        <ele>503</ele>
        <time>2012-09-22T10:01:34Z</time>
      </trkpt>
      <trkpt lat="45.77446" lon="4.65262">
        <ele>501</ele>
        <time>2012-09-22T10:01:37Z</time>
      </trkpt>
      <trkpt lat="45.77432" lon="4.65272">
        <ele>500</ele>
        <time>2012-09-22T10:01:45Z</time>
      </trkpt>
      <trkpt lat="45.7743" lon="4.65276">
        <ele>499</ele>
        <time>2012-09-22T10:01:47Z</time>
      </trkpt>
      <trkpt lat="45.77421" lon="4.65294">
        <ele>498</ele>
        <time>2012-09-22T10:01:54Z</time>
      </trkpt>
      <trkpt lat="45.77419" lon="4.65299">
        <ele>498</ele>
        <time>2012-09-22T10:01:58Z</time>
      </trkpt>
      <trkpt lat="45.7741" lon="4.65299">
        <ele>496</ele>
        <time>2012-09-22T10:02:01Z</time>
      </trkpt>
      <trkpt lat="45.77402" lon="4.65299">
        <ele>493</ele>
        <time>2012-09-22T10:02:04Z</time>
      </trkpt>
      <trkpt lat="45.77387" lon="4.6529">
        <ele>489</ele>
        <time>2012-09-22T10:02:09Z</time>
      </trkpt>
      <trkpt lat="45.77381" lon="4.65293">
        <ele>487</ele>
        <time>2012-09-22T10:02:12Z</time>
      </trkpt>
      <trkpt lat="45.77376" lon="4.65301">
        <ele>488</ele>
        <time>2012-09-22T10:02:18Z</time>
      </trkpt>
      <trkpt lat="45.77376" lon="4.65301">
        <ele>487</ele>
        <time>2012-09-22T10:02:33Z</time>
      </trkpt>
      <trkpt lat="45.77374" lon="4.65301">
        <ele>487</ele>
        <time>2012-09-22T10:02:49Z</time>
      </trkpt>
      <trkpt lat="45.7737" lon="4.65302">
        <ele>487</ele>
        <time>2012-09-22T10:03:05Z</time>
      </trkpt>
      <trkpt lat="45.77372" lon="4.65306">
        <ele>487</ele>
        <time>2012-09-22T10:03:19Z</time>
      </trkpt>
      <trkpt lat="45.77372" lon="4.65304">
        <ele>487</ele>
        <time>2012-09-22T10:03:31Z</time>
      </trkpt>
      <trkpt lat="45.77368" lon="4.65289">
        <ele>487</ele>
        <time>2012-09-22T10:03:49Z</time>
      </trkpt>
      <trkpt lat="45.77366" lon="4.65293">
        <ele>487</ele>
        <time>2012-09-22T10:04:01Z</time>
      </trkpt>
      <trkpt lat="45.77367" lon="4.65296">
        <ele>487</ele>
        <time>2012-09-22T10:04:09Z</time>
      </trkpt>
      <trkpt lat="45.77362" lon="4.65329">
        <ele>487</ele>
        <time>2012-09-22T10:04:19Z</time>
      </trkpt>
      <trkpt lat="45.77358" lon="4.65351">
        <ele>487</ele>
        <time>2012-09-22T10:04:26Z</time>
      </trkpt>
      <trkpt lat="45.77356" lon="4.65382">
        <ele>487</ele>
        <time>2012-09-22T10:04:33Z</time>
      </trkpt>
      <trkpt lat="45.77356" lon="4.65413">
        <ele>488</ele>
        <time>2012-09-22T10:04:41Z</time>
      </trkpt>
      <trkpt lat="45.77356" lon="4.65444">
        <ele>488</ele>
        <time>2012-09-22T10:04:48Z</time>
      </trkpt>
      <trkpt lat="45.77356" lon="4.65472">
        <ele>489</ele>
        <time>2012-09-22T10:04:55Z</time>
      </trkpt>
      <trkpt lat="45.77355" lon="4.65511">
        <ele>488</ele>
        <time>2012-09-22T10:05:02Z</time>
      </trkpt>
      <trkpt lat="45.77354" lon="4.65525">
        <ele>487</ele>
        <time>2012-09-22T10:05:04Z</time>
      </trkpt>
      <trkpt lat="45.77348" lon="4.6557">
        <ele>485</ele>
        <time>2012-09-22T10:05:09Z</time>
      </trkpt>
      <trkpt lat="45.77348" lon="4.65579">
        <ele>485</ele>
        <time>2012-09-22T10:05:10Z</time>
      </trkpt>
      <trkpt lat="45.77348" lon="4.65588">
        <ele>484</ele>
        <time>2012-09-22T10:05:11Z</time>
      </trkpt>
      <trkpt lat="45.77349" lon="4.65626">
        <ele>482</ele>
        <time>2012-09-22T10:05:15Z</time>
      </trkpt>
      <trkpt lat="45.77351" lon="4.65636">
        <ele>482</ele>
        <time>2012-09-22T10:05:16Z</time>
      </trkpt>
      <trkpt lat="45.77352" lon="4.65645">
        <ele>481</ele>
        <time>2012-09-22T10:05:17Z</time>
      </trkpt>
      <trkpt lat="45.77353" lon="4.65655">
        <ele>481</ele>
        <time>2012-09-22T10:05:18Z</time>
      </trkpt>
      <trkpt lat="45.77353" lon="4.65665">
        <ele>480</ele>
        <time>2012-09-22T10:05:19Z</time>
      </trkpt>
      <trkpt lat="45.77352" lon="4.65677">
        <ele>479</ele>
        <time>2012-09-22T10:05:20Z</time>
      </trkpt>
      <trkpt lat="45.77349" lon="4.65725">
        <ele>475</ele>
        <time>2012-09-22T10:05:24Z</time>
      </trkpt>
      <trkpt lat="45.77346" lon="4.65769">
        <ele>472</ele>
        <time>2012-09-22T10:05:28Z</time>
      </trkpt>
      <trkpt lat="45.77345" lon="4.65776">
        <ele>471</ele>
        <time>2012-09-22T10:05:29Z</time>
      </trkpt>
      <trkpt lat="45.77341" lon="4.6578">
        <ele>471</ele>
        <time>2012-09-22T10:05:30Z</time>
      </trkpt>
      <trkpt lat="45.77336" lon="4.65782">
        <ele>470</ele>
        <time>2012-09-22T10:05:31Z</time>
      </trkpt>
      <trkpt lat="45.77331" lon="4.65784">
        <ele>469</ele>
        <time>2012-09-22T10:05:32Z</time>
      </trkpt>
      <trkpt lat="45.77326" lon="4.65786">
        <ele>468</ele>
        <time>2012-09-22T10:05:33Z</time>
      </trkpt>
      <trkpt lat="45.77321" lon="4.65789">
        <ele>466</ele>
        <time>2012-09-22T10:05:34Z</time>
      </trkpt>
      <trkpt lat="45.77313" lon="4.65798">
        <ele>464</ele>
        <time>2012-09-22T10:05:36Z</time>
      </trkpt>
      <trkpt lat="45.77291" lon="4.65816">
        <ele>461</ele>
        <time>2012-09-22T10:05:40Z</time>
      </trkpt>
      <trkpt lat="45.77269" lon="4.65834">
        <ele>456</ele>
        <time>2012-09-22T10:05:44Z</time>
      </trkpt>
      <trkpt lat="45.77265" lon="4.6584">
        <ele>455</ele>
        <time>2012-09-22T10:05:45Z</time>
      </trkpt>
      <trkpt lat="45.77262" lon="4.65847">
        <ele>454</ele>
        <time>2012-09-22T10:05:46Z</time>
      </trkpt>
      <trkpt lat="45.7726" lon="4.65851">
        <ele>453</ele>
        <time>2012-09-22T10:05:47Z</time>
      </trkpt>
      <trkpt lat="45.77258" lon="4.65853">
        <ele>453</ele>
        <time>2012-09-22T10:05:48Z</time>
      </trkpt>
      <trkpt lat="45.77256" lon="4.65855">
        <ele>453</ele>
        <time>2012-09-22T10:05:49Z</time>
      </trkpt>
      <trkpt lat="45.77254" lon="4.65856">
        <ele>453</ele>
        <time>2012-09-22T10:05:50Z</time>
      </trkpt>
      <trkpt lat="45.77251" lon="4.65856">
        <ele>452</ele>
        <time>2012-09-22T10:05:51Z</time>
      </trkpt>
      <trkpt lat="45.77249" lon="4.65857">
        <ele>451</ele>
        <time>2012-09-22T10:05:52Z</time>
      </trkpt>
      <trkpt lat="45.77246" lon="4.65859">
        <ele>451</ele>
        <time>2012-09-22T10:05:53Z</time>
      </trkpt>
      <trkpt lat="45.77243" lon="4.65862">
        <ele>451</ele>
        <time>2012-09-22T10:05:54Z</time>
      </trkpt>
      <trkpt lat="45.77234" lon="4.65868">
        <ele>450</ele>
        <time>2012-09-22T10:05:56Z</time>
      </trkpt>
      <trkpt lat="45.77231" lon="4.65872">
        <ele>449</ele>
        <time>2012-09-22T10:05:57Z</time>
      </trkpt>
      <trkpt lat="45.77224" lon="4.65875">
        <ele>448</ele>
        <time>2012-09-22T10:05:59Z</time>
      </trkpt>
      <trkpt lat="45.77221" lon="4.65874">
        <ele>448</ele>
        <time>2012-09-22T10:06:00Z</time>
      </trkpt>
      <trkpt lat="45.77219" lon="4.6587">
        <ele>447</ele>
        <time>2012-09-22T10:06:01Z</time>
      </trkpt>
      <trkpt lat="45.77205" lon="4.65841">
        <ele>444</ele>
        <time>2012-09-22T10:06:07Z</time>
      </trkpt>
      <trkpt lat="45.77197" lon="4.65832">
        <ele>442</ele>
        <time>2012-09-22T10:06:10Z</time>
      </trkpt>
      <trkpt lat="45.77188" lon="4.6583">
        <ele>441</ele>
        <time>2012-09-22T10:06:12Z</time>
      </trkpt>
      <trkpt lat="45.77184" lon="4.65826">
        <ele>440</ele>
        <time>2012-09-22T10:06:13Z</time>
      </trkpt>
      <trkpt lat="45.7718" lon="4.6582">
        <ele>439</ele>
        <time>2012-09-22T10:06:14Z</time>
      </trkpt>
      <trkpt lat="45.77176" lon="4.65812">
        <ele>438</ele>
        <time>2012-09-22T10:06:15Z</time>
      </trkpt>
      <trkpt lat="45.77174" lon="4.65804">
        <ele>437</ele>
        <time>2012-09-22T10:06:16Z</time>
      </trkpt>
      <trkpt lat="45.77173" lon="4.65795">
        <ele>437</ele>
        <time>2012-09-22T10:06:17Z</time>
      </trkpt>
      <trkpt lat="45.77173" lon="4.65786">
        <ele>436</ele>
        <time>2012-09-22T10:06:18Z</time>
      </trkpt>
      <trkpt lat="45.77169" lon="4.65752">
        <ele>433</ele>
        <time>2012-09-22T10:06:22Z</time>
      </trkpt>
      <trkpt lat="45.77167" lon="4.65746">
        <ele>432</ele>
        <time>2012-09-22T10:06:23Z</time>
      </trkpt>
      <trkpt lat="45.77164" lon="4.65742">
        <ele>431</ele>
        <time>2012-09-22T10:06:24Z</time>
      </trkpt>
      <trkpt lat="45.77161" lon="4.6574">
        <ele>431</ele>
        <time>2012-09-22T10:06:25Z</time>
      </trkpt>
      <trkpt lat="45.77158" lon="4.6574">
        <ele>430</ele>
        <time>2012-09-22T10:06:26Z</time>
      </trkpt>
      <trkpt lat="45.77155" lon="4.65742">
        <ele>429</ele>
        <time>2012-09-22T10:06:27Z</time>
      </trkpt>
      <trkpt lat="45.77153" lon="4.65748">
        <ele>428</ele>
        <time>2012-09-22T10:06:28Z</time>
      </trkpt>
      <trkpt lat="45.77147" lon="4.65761">
        <ele>427</ele>
        <time>2012-09-22T10:06:30Z</time>
      </trkpt>
      <trkpt lat="45.77145" lon="4.6577">
        <ele>427</ele>
        <time>2012-09-22T10:06:31Z</time>
      </trkpt>
      <trkpt lat="45.77143" lon="4.65779">
        <ele>426</ele>
        <time>2012-09-22T10:06:32Z</time>
      </trkpt>
      <trkpt lat="45.77141" lon="4.65787">
        <ele>426</ele>
        <time>2012-09-22T10:06:33Z</time>
      </trkpt>
      <trkpt lat="45.77138" lon="4.65792">
        <ele>425</ele>
        <time>2012-09-22T10:06:34Z</time>
      </trkpt>
      <trkpt lat="45.77134" lon="4.65792">
        <ele>425</ele>
        <time>2012-09-22T10:06:35Z</time>
      </trkpt>
      <trkpt lat="45.7713" lon="4.6579">
        <ele>424</ele>
        <time>2012-09-22T10:06:36Z</time>
      </trkpt>
      <trkpt lat="45.77126" lon="4.65788">
        <ele>424</ele>
        <time>2012-09-22T10:06:37Z</time>
      </trkpt>
      <trkpt lat="45.77122" lon="4.65787">
        <ele>423</ele>
        <time>2012-09-22T10:06:38Z</time>
      </trkpt>
      <trkpt lat="45.77117" lon="4.65785">
        <ele>423</ele>
        <time>2012-09-22T10:06:39Z</time>
      </trkpt>
      <trkpt lat="45.77111" lon="4.65786">
        <ele>422</ele>
        <time>2012-09-22T10:06:40Z</time>
      </trkpt>
      <trkpt lat="45.77106" lon="4.65786">
        <ele>423</ele>
        <time>2012-09-22T10:06:41Z</time>
      </trkpt>
      <trkpt lat="45.77101" lon="4.65789">
        <ele>422</ele>
        <time>2012-09-22T10:06:42Z</time>
      </trkpt>
      <trkpt lat="45.77097" lon="4.65793">
        <ele>422</ele>
        <time>2012-09-22T10:06:43Z</time>
      </trkpt>
      <trkpt lat="45.77093" lon="4.65799">
        <ele>422</ele>
        <time>2012-09-22T10:06:44Z</time>
      </trkpt>
      <trkpt lat="45.7709" lon="4.65805">
        <ele>422</ele>
        <time>2012-09-22T10:06:45Z</time>
      </trkpt>
      <trkpt lat="45.77087" lon="4.65812">
        <ele>422</ele>
        <time>2012-09-22T10:06:46Z</time>
      </trkpt>
      <trkpt lat="45.77085" lon="4.6582">
        <ele>422</ele>
        <time>2012-09-22T10:06:47Z</time>
      </trkpt>
      <trkpt lat="45.77083" lon="4.65828">
        <ele>422</ele>
        <time>2012-09-22T10:06:48Z</time>
      </trkpt>
      <trkpt lat="45.77078" lon="4.65853">
        <ele>421</ele>
        <time>2012-09-22T10:06:51Z</time>
      </trkpt>
      <trkpt lat="45.77077" lon="4.65862">
        <ele>421</ele>
        <time>2012-09-22T10:06:52Z</time>
      </trkpt>
      <trkpt lat="45.77072" lon="4.65917">
        <ele>420</ele>
        <time>2012-09-22T10:06:59Z</time>
      </trkpt>
      <trkpt lat="45.77072" lon="4.65944">
        <ele>421</ele>
        <time>2012-09-22T10:07:05Z</time>
      </trkpt>
      <trkpt lat="45.77072" lon="4.65965">
        <ele>422</ele>
        <time>2012-09-22T10:07:12Z</time>
      </trkpt>
      <trkpt lat="45.77076" lon="4.65995">
        <ele>423</ele>
        <time>2012-09-22T10:07:21Z</time>
      </trkpt>
      <trkpt lat="45.77078" lon="4.66026">
        <ele>425</ele>
        <time>2012-09-22T10:07:29Z</time>
      </trkpt>
      <trkpt lat="45.77075" lon="4.66059">
        <ele>426</ele>
        <time>2012-09-22T10:07:37Z</time>
      </trkpt>
      <trkpt lat="45.77073" lon="4.6609">
        <ele>427</ele>
        <time>2012-09-22T10:07:46Z</time>
      </trkpt>
      <trkpt lat="45.77069" lon="4.66121">
        <ele>428</ele>
        <time>2012-09-22T10:07:55Z</time>
      </trkpt>
      <trkpt lat="45.77065" lon="4.66152">
        <ele>430</ele>
        <time>2012-09-22T10:08:04Z</time>
      </trkpt>
      <trkpt lat="45.77058" lon="4.66174">
        <ele>432</ele>
        <time>2012-09-22T10:08:11Z</time>
      </trkpt>
      <trkpt lat="45.77047" lon="4.66194">
        <ele>433</ele>
        <time>2012-09-22T10:08:18Z</time>
      </trkpt>
      <trkpt lat="45.7704" lon="4.66206">
        <ele>434</ele>
        <time>2012-09-22T10:08:24Z</time>
      </trkpt>
      <trkpt lat="45.7702" lon="4.6622">
        <ele>435</ele>
        <time>2012-09-22T10:08:33Z</time>
      </trkpt>
      <trkpt lat="45.76992" lon="4.66229">
        <ele>436</ele>
        <time>2012-09-22T10:08:44Z</time>
      </trkpt>
      <trkpt lat="45.76964" lon="4.66224">
        <ele>436</ele>
        <time>2012-09-22T10:08:54Z</time>
      </trkpt>
      <trkpt lat="45.76948" lon="4.66212">
        <ele>436</ele>
        <time>2012-09-22T10:09:00Z</time>
      </trkpt>
      <trkpt lat="45.76924" lon="4.6619">
        <ele>437</ele>
        <time>2012-09-22T10:09:09Z</time>
      </trkpt>
      <trkpt lat="45.76906" lon="4.66174">
        <ele>438</ele>
        <time>2012-09-22T10:09:17Z</time>
      </trkpt>
      <trkpt lat="45.76886" lon="4.66167">
        <ele>439</ele>
        <time>2012-09-22T10:09:25Z</time>
      </trkpt>
      <trkpt lat="45.76865" lon="4.66172">
        <ele>441</ele>
        <time>2012-09-22T10:09:34Z</time>
      </trkpt>
      <trkpt lat="45.76844" lon="4.66184">
        <ele>442</ele>
        <time>2012-09-22T10:09:43Z</time>
      </trkpt>
      <trkpt lat="45.76827" lon="4.66197">
        <ele>441</ele>
        <time>2012-09-22T10:09:50Z</time>
      </trkpt>
      <trkpt lat="45.76825" lon="4.662">
        <ele>441</ele>
        <time>2012-09-22T10:09:51Z</time>
      </trkpt>
      <trkpt lat="45.76822" lon="4.66203">
        <ele>441</ele>
        <time>2012-09-22T10:09:52Z</time>
      </trkpt>
      <trkpt lat="45.76818" lon="4.66205">
        <ele>441</ele>
        <time>2012-09-22T10:09:53Z</time>
      </trkpt>
      <trkpt lat="45.76812" lon="4.66207">
        <ele>440</ele>
        <time>2012-09-22T10:09:54Z</time>
      </trkpt>
      <trkpt lat="45.76807" lon="4.66208">
        <ele>440</ele>
        <time>2012-09-22T10:09:55Z</time>
      </trkpt>
      <trkpt lat="45.76801" lon="4.6621">
        <ele>440</ele>
        <time>2012-09-22T10:09:56Z</time>
      </trkpt>
      <trkpt lat="45.76762" lon="4.66221">
        <ele>439</ele>
        <time>2012-09-22T10:10:04Z</time>
      </trkpt>
      <trkpt lat="45.76751" lon="4.66221">
        <ele>438</ele>
        <time>2012-09-22T10:10:06Z</time>
      </trkpt>
      <trkpt lat="45.76745" lon="4.66219">
        <ele>438</ele>
        <time>2012-09-22T10:10:07Z</time>
      </trkpt>
      <trkpt lat="45.7674" lon="4.66216">
        <ele>438</ele>
        <time>2012-09-22T10:10:08Z</time>
      </trkpt>
      <trkpt lat="45.76735" lon="4.66212">
        <ele>438</ele>
        <time>2012-09-22T10:10:09Z</time>
      </trkpt>
      <trkpt lat="45.7673" lon="4.66208">
        <ele>438</ele>
        <time>2012-09-22T10:10:10Z</time>
      </trkpt>
      <trkpt lat="45.76726" lon="4.66203">
        <ele>438</ele>
        <time>2012-09-22T10:10:11Z</time>
      </trkpt>
      <trkpt lat="45.76722" lon="4.66197">
        <ele>438</ele>
        <time>2012-09-22T10:10:12Z</time>
      </trkpt>
      <trkpt lat="45.76719" lon="4.66191">
        <ele>438</ele>
        <time>2012-09-22T10:10:13Z</time>
      </trkpt>
      <trkpt lat="45.76683" lon="4.6613">
        <ele>437</ele>
        <time>2012-09-22T10:10:23Z</time>
      </trkpt>
      <trkpt lat="45.76679" lon="4.66125">
        <ele>437</ele>
        <time>2012-09-22T10:10:24Z</time>
      </trkpt>
      <trkpt lat="45.76675" lon="4.66121">
        <ele>437</ele>
        <time>2012-09-22T10:10:25Z</time>
      </trkpt>
      <trkpt lat="45.76666" lon="4.66113">
        <ele>437</ele>
        <time>2012-09-22T10:10:27Z</time>
      </trkpt>
      <trkpt lat="45.76661" lon="4.66109">
        <ele>437</ele>
        <time>2012-09-22T10:10:28Z</time>
      </trkpt>
      <trkpt lat="45.76656" lon="4.66107">
        <ele>437</ele>
        <time>2012-09-22T10:10:29Z</time>
      </trkpt>
      <trkpt lat="45.76642" lon="4.66101">
        <ele>437</ele>
        <time>2012-09-22T10:10:32Z</time>
      </trkpt>
      <trkpt lat="45.76637" lon="4.661">
        <ele>437</ele>
        <time>2012-09-22T10:10:33Z</time>
      </trkpt>
      <trkpt lat="45.76633" lon="4.66099">
        <ele>437</ele>
        <time>2012-09-22T10:10:34Z</time>
      </trkpt>
      <trkpt lat="45.76607" lon="4.66095">
        <ele>437</ele>
        <time>2012-09-22T10:10:39Z</time>
      </trkpt>
      <trkpt lat="45.76601" lon="4.66096">
        <ele>437</ele>
        <time>2012-09-22T10:10:40Z</time>
      </trkpt>
      <trkpt lat="45.76596" lon="4.66098">
        <ele>436</ele>
        <time>2012-09-22T10:10:41Z</time>
      </trkpt>
      <trkpt lat="45.7659" lon="4.661">
        <ele>436</ele>
        <time>2012-09-22T10:10:42Z</time>
      </trkpt>
      <trkpt lat="45.76585" lon="4.66103">
        <ele>436</ele>
        <time>2012-09-22T10:10:43Z</time>
      </trkpt>
      <trkpt lat="45.7656" lon="4.66114">
        <ele>437</ele>
        <time>2012-09-22T10:10:49Z</time>
      </trkpt>
      <trkpt lat="45.76539" lon="4.66118">
        <ele>438</ele>
        <time>2012-09-22T10:10:56Z</time>
      </trkpt>
      <trkpt lat="45.76537" lon="4.66116">
        <ele>438</ele>
        <time>2012-09-22T10:10:57Z</time>
      </trkpt>
      <trkpt lat="45.76541" lon="4.66109">
        <ele>438</ele>
        <time>2012-09-22T10:11:02Z</time>
      </trkpt>
      <trkpt lat="45.76546" lon="4.66105">
        <ele>438</ele>
        <time>2012-09-22T10:11:05Z</time>
      </trkpt>
      <trkpt lat="45.76547" lon="4.66102">
        <ele>439</ele>
        <time>2012-09-22T10:11:06Z</time>
      </trkpt>
      <trkpt lat="45.76548" lon="4.6609">
        <ele>439</ele>
        <time>2012-09-22T10:11:10Z</time>
      </trkpt>
      <trkpt lat="45.76539" lon="4.66091">
        <ele>440</ele>
        <time>2012-09-22T10:11:15Z</time>
      </trkpt>
      <trkpt lat="45.76531" lon="4.66087">
        <ele>441</ele>
        <time>2012-09-22T10:11:23Z</time>
      </trkpt>
      <trkpt lat="45.7653" lon="4.66087">
        <ele>441</ele>
        <time>2012-09-22T10:11:33Z</time>
      </trkpt>
      <trkpt lat="45.7653" lon="4.66084">
        <ele>441</ele>
        <time>2012-09-22T10:11:44Z</time>
      </trkpt>
      <trkpt lat="45.7653" lon="4.66085">
        <ele>440</ele>
        <time>2012-09-22T10:11:50Z</time>
      </trkpt>
    </trkseg>
  </trk>
</gpx>